<?xml version='1.0' encoding='UTF-8'?><gpx version="1.1" creator="JPX - https://github.com/jenetics/jpx" xmlns="http://www.topografix.com/GPX/1/1"><trk><trkseg><trkpt lat="44.4175473" lon="10.4126092"><ele>872.0</ele><time>2026-04-19T14:01:16.803Z</time></trkpt><trkpt lat="44.4174865" lon="10.4126407"><ele>872.0</ele><time>2026-04-19T14:01:18.805Z</time></trkpt><trkpt lat="44.4173967" lon="10.4126493"><ele>872.0</ele><time>2026-04-19T14:01:20.804Z</time></trkpt><trkpt lat="44.417293" lon="10.412639"><ele>872.0</ele><time>2026-04-19T14:01:22.803Z</time></trkpt><trkpt lat="44.4171942" lon="10.4125792"><ele>872.0</ele><time>2026-04-19T14:01:24.803Z</time></trkpt><trkpt lat="44.4171135" lon="10.4124967"><ele>870.0000000000001</ele><time>2026-04-19T14:01:26.803Z</time></trkpt><trkpt lat="44.4170687" lon="10.4124312"><ele>868.0</ele><time>2026-04-19T14:01:28.804Z</time></trkpt><trkpt lat="44.4170518" lon="10.412346"><ele>866.0</ele><time>2026-04-19T14:01:31.804Z</time></trkpt><trkpt lat="44.417044" lon="10.4121855"><ele>864.0</ele><time>2026-04-19T14:01:53.801Z</time></trkpt><trkpt lat="44.4170465" lon="10.4120793"><ele>862.0000000000001</ele><time>2026-04-19T14:01:54.803Z</time></trkpt><trkpt lat="44.417051" lon="10.411964"><ele>860.0</ele><time>2026-04-19T14:01:55.804Z</time></trkpt><trkpt lat="44.4170535" lon="10.4118477"><ele>859.5000000000001</ele><time>2026-04-19T14:01:56.803Z</time></trkpt><trkpt lat="44.4170557" lon="10.4117355"><ele>859.0</ele><time>2026-04-19T14:01:57.803Z</time></trkpt><trkpt lat="44.4170557" lon="10.4116257"><ele>858.5</ele><time>2026-04-19T14:01:58.803Z</time></trkpt><trkpt lat="44.4170563" lon="10.4115198"><ele>858.0</ele><time>2026-04-19T14:01:59.803Z</time></trkpt><trkpt lat="44.4170573" lon="10.4114177"><ele>857.5000000000001</ele><time>2026-04-19T14:02:00.801Z</time></trkpt><trkpt lat="44.4170562" lon="10.4113005"><ele>857.0</ele><time>2026-04-19T14:02:01.804Z</time></trkpt><trkpt lat="44.4170518" lon="10.4111682"><ele>855.8</ele><time>2026-04-19T14:02:02.804Z</time></trkpt><trkpt lat="44.4170492" lon="10.4110237"><ele>854.6</ele><time>2026-04-19T14:02:03.803Z</time></trkpt><trkpt lat="44.4170537" lon="10.4108725"><ele>853.4</ele><time>2026-04-19T14:02:04.804Z</time></trkpt><trkpt lat="44.4170677" lon="10.4107318"><ele>852.1999999999999</ele><time>2026-04-19T14:02:05.805Z</time></trkpt><trkpt lat="44.4170905" lon="10.4106048"><ele>851.0</ele><time>2026-04-19T14:02:06.803Z</time></trkpt><trkpt lat="44.4171222" lon="10.4104893"><ele>852.5999999999999</ele><time>2026-04-19T14:02:07.802Z</time></trkpt><trkpt lat="44.41717" lon="10.4103807"><ele>854.2</ele><time>2026-04-19T14:02:08.803Z</time></trkpt><trkpt lat="44.4172317" lon="10.410282"><ele>855.8000000000001</ele><time>2026-04-19T14:02:09.802Z</time></trkpt><trkpt lat="44.4173043" lon="10.410205"><ele>857.4000000000001</ele><time>2026-04-19T14:02:10.802Z</time></trkpt><trkpt lat="44.4173847" lon="10.410148"><ele>859.0</ele><time>2026-04-19T14:02:11.805Z</time></trkpt><trkpt lat="44.4174697" lon="10.4101197"><ele>858.9999999999999</ele><time>2026-04-19T14:02:12.801Z</time></trkpt><trkpt lat="44.4175537" lon="10.4101045"><ele>859.0</ele><time>2026-04-19T14:02:13.804Z</time></trkpt><trkpt lat="44.4176372" lon="10.4100843"><ele>859.0</ele><time>2026-04-19T14:02:14.801Z</time></trkpt><trkpt lat="44.4177233" lon="10.4100488"><ele>859.0</ele><time>2026-04-19T14:02:15.8Z</time></trkpt><trkpt lat="44.4178078" lon="10.4099977"><ele>858.9999999999999</ele><time>2026-04-19T14:02:16.8Z</time></trkpt><trkpt lat="44.4178838" lon="10.4099295"><ele>859.0</ele><time>2026-04-19T14:02:17.8Z</time></trkpt><trkpt lat="44.4179402" lon="10.4098382"><ele>859.0</ele><time>2026-04-19T14:02:18.801Z</time></trkpt><trkpt lat="44.4179747" lon="10.4097222"><ele>859.0000000000001</ele><time>2026-04-19T14:02:19.802Z</time></trkpt><trkpt lat="44.4179797" lon="10.4095883"><ele>859.0000000000001</ele><time>2026-04-19T14:02:20.802Z</time></trkpt><trkpt lat="44.4179667" lon="10.4094353"><ele>859.0</ele><time>2026-04-19T14:02:21.803Z</time></trkpt><trkpt lat="44.417946" lon="10.4092692"><ele>859.0</ele><time>2026-04-19T14:02:22.801Z</time></trkpt><trkpt lat="44.4179273" lon="10.409087"><ele>857.0</ele><time>2026-04-19T14:02:23.802Z</time></trkpt><trkpt lat="44.4179195" lon="10.408906"><ele>855.0</ele><time>2026-04-19T14:02:24.801Z</time></trkpt><trkpt lat="44.4179167" lon="10.4087263"><ele>853.0</ele><time>2026-04-19T14:02:25.802Z</time></trkpt><trkpt lat="44.4179147" lon="10.408554"><ele>851.0</ele><time>2026-04-19T14:02:26.8Z</time></trkpt><trkpt lat="44.4179177" lon="10.4083827"><ele>851.0</ele><time>2026-04-19T14:02:27.8Z</time></trkpt><trkpt lat="44.4179268" lon="10.4082213"><ele>851.0</ele><time>2026-04-19T14:02:28.802Z</time></trkpt><trkpt lat="44.4179442" lon="10.40807"><ele>851.0</ele><time>2026-04-19T14:02:29.802Z</time></trkpt><trkpt lat="44.4179697" lon="10.4079252"><ele>851.0</ele><time>2026-04-19T14:02:30.801Z</time></trkpt><trkpt lat="44.4179925" lon="10.4077783"><ele>851.0</ele><time>2026-04-19T14:02:31.803Z</time></trkpt><trkpt lat="44.4180133" lon="10.407632"><ele>850.0</ele><time>2026-04-19T14:02:32.803Z</time></trkpt><trkpt lat="44.418041" lon="10.4074948"><ele>849.0</ele><time>2026-04-19T14:02:33.802Z</time></trkpt><trkpt lat="44.4180883" lon="10.4073703"><ele>848.0</ele><time>2026-04-19T14:02:34.804Z</time></trkpt><trkpt lat="44.4181657" lon="10.407259"><ele>847.0</ele><time>2026-04-19T14:02:35.802Z</time></trkpt><trkpt lat="44.4182728" lon="10.407168"><ele>846.0</ele><time>2026-04-19T14:02:36.801Z</time></trkpt><trkpt lat="44.4183953" lon="10.4070945"><ele>846.0</ele><time>2026-04-19T14:02:37.802Z</time></trkpt><trkpt lat="44.4185068" lon="10.4070345"><ele>846.0</ele><time>2026-04-19T14:02:38.802Z</time></trkpt><trkpt lat="44.4186047" lon="10.4069793"><ele>846.0</ele><time>2026-04-19T14:02:39.799Z</time></trkpt><trkpt lat="44.4186883" lon="10.4069255"><ele>846.0</ele><time>2026-04-19T14:02:40.799Z</time></trkpt><trkpt lat="44.418759" lon="10.4068753"><ele>846.0</ele><time>2026-04-19T14:02:41.8Z</time></trkpt><trkpt lat="44.4188542" lon="10.4068163"><ele>848.2857142857142</ele><time>2026-04-19T14:02:43.802Z</time></trkpt><trkpt lat="44.4189162" lon="10.406794"><ele>850.5714285714287</ele><time>2026-04-19T14:02:45.803Z</time></trkpt><trkpt lat="44.4189883" lon="10.4067833"><ele>852.8571428571429</ele><time>2026-04-19T14:02:47.802Z</time></trkpt><trkpt lat="44.4190538" lon="10.4067857"><ele>855.1428571428571</ele><time>2026-04-19T14:02:48.8Z</time></trkpt><trkpt lat="44.4191262" lon="10.406795"><ele>857.4285714285713</ele><time>2026-04-19T14:02:49.804Z</time></trkpt><trkpt lat="44.419212" lon="10.4068102"><ele>859.7142857142858</ele><time>2026-04-19T14:02:50.802Z</time></trkpt><trkpt lat="44.4192968" lon="10.4068255"><ele>862.0</ele><time>2026-04-19T14:02:51.8Z</time></trkpt><trkpt lat="44.4193825" lon="10.406825"><ele>862.0</ele><time>2026-04-19T14:02:52.801Z</time></trkpt><trkpt lat="44.4194725" lon="10.4068002"><ele>862.0</ele><time>2026-04-19T14:02:53.803Z</time></trkpt><trkpt lat="44.4195665" lon="10.4067618"><ele>862.0</ele><time>2026-04-19T14:02:54.8Z</time></trkpt><trkpt lat="44.4196663" lon="10.4067347"><ele>862.0</ele><time>2026-04-19T14:02:55.802Z</time></trkpt><trkpt lat="44.419771" lon="10.4067288"><ele>862.0</ele><time>2026-04-19T14:02:56.801Z</time></trkpt><trkpt lat="44.4198733" lon="10.4067373"><ele>862.4000000000001</ele><time>2026-04-19T14:02:57.803Z</time></trkpt><trkpt lat="44.4199723" lon="10.4067458"><ele>862.8000000000001</ele><time>2026-04-19T14:02:58.799Z</time></trkpt><trkpt lat="44.4200635" lon="10.4067498"><ele>863.2</ele><time>2026-04-19T14:02:59.803Z</time></trkpt><trkpt lat="44.4201573" lon="10.4067563"><ele>863.6</ele><time>2026-04-19T14:03:00.801Z</time></trkpt><trkpt lat="44.420252" lon="10.4067763"><ele>864.0</ele><time>2026-04-19T14:03:01.8Z</time></trkpt><trkpt lat="44.4203482" lon="10.4068108"><ele>864.0</ele><time>2026-04-19T14:03:02.8Z</time></trkpt><trkpt lat="44.4204508" lon="10.4068482"><ele>864.0000000000001</ele><time>2026-04-19T14:03:03.801Z</time></trkpt><trkpt lat="44.4205568" lon="10.406875"><ele>864.0000000000001</ele><time>2026-04-19T14:03:04.799Z</time></trkpt><trkpt lat="44.4206678" lon="10.406878"><ele>864.0</ele><time>2026-04-19T14:03:05.804Z</time></trkpt><trkpt lat="44.4207858" lon="10.4068525"><ele>864.0</ele><time>2026-04-19T14:03:06.803Z</time></trkpt><trkpt lat="44.4209007" lon="10.4067968"><ele>862.8000000000001</ele><time>2026-04-19T14:03:07.801Z</time></trkpt><trkpt lat="44.4210075" lon="10.406728"><ele>861.6000000000001</ele><time>2026-04-19T14:03:08.802Z</time></trkpt><trkpt lat="44.421108" lon="10.4066595"><ele>860.4</ele><time>2026-04-19T14:03:09.799Z</time></trkpt><trkpt lat="44.4212073" lon="10.4066007"><ele>859.2</ele><time>2026-04-19T14:03:10.8Z</time></trkpt><trkpt lat="44.4213045" lon="10.4065457"><ele>858.0</ele><time>2026-04-19T14:03:11.802Z</time></trkpt><trkpt lat="44.4213993" lon="10.4064958"><ele>857.8</ele><time>2026-04-19T14:03:12.801Z</time></trkpt><trkpt lat="44.4214908" lon="10.4064548"><ele>857.5999999999999</ele><time>2026-04-19T14:03:13.799Z</time></trkpt><trkpt lat="44.4215788" lon="10.4064408"><ele>857.4000000000001</ele><time>2026-04-19T14:03:14.8Z</time></trkpt><trkpt lat="44.4216735" lon="10.4064678"><ele>857.2</ele><time>2026-04-19T14:03:15.8Z</time></trkpt><trkpt lat="44.4217682" lon="10.406527"><ele>857.0</ele><time>2026-04-19T14:03:16.8Z</time></trkpt><trkpt lat="44.4218518" lon="10.406603"><ele>857.0</ele><time>2026-04-19T14:03:17.804Z</time></trkpt><trkpt lat="44.4219318" lon="10.4066812"><ele>857.0</ele><time>2026-04-19T14:03:18.8Z</time></trkpt><trkpt lat="44.4220133" lon="10.406765"><ele>857.0</ele><time>2026-04-19T14:03:19.801Z</time></trkpt><trkpt lat="44.4220972" lon="10.40687"><ele>857.0</ele><time>2026-04-19T14:03:20.801Z</time></trkpt><trkpt lat="44.4221727" lon="10.4069895"><ele>857.0</ele><time>2026-04-19T14:03:21.804Z</time></trkpt><trkpt lat="44.4222373" lon="10.407125"><ele>854.2</ele><time>2026-04-19T14:03:22.8Z</time></trkpt><trkpt lat="44.4222867" lon="10.407268"><ele>851.4000000000001</ele><time>2026-04-19T14:03:23.802Z</time></trkpt><trkpt lat="44.422335" lon="10.4074083"><ele>848.5999999999999</ele><time>2026-04-19T14:03:24.801Z</time></trkpt><trkpt lat="44.42239" lon="10.4075422"><ele>845.8</ele><time>2026-04-19T14:03:25.799Z</time></trkpt><trkpt lat="44.4224568" lon="10.407667"><ele>843.0</ele><time>2026-04-19T14:03:26.8Z</time></trkpt><trkpt lat="44.4225388" lon="10.407775"><ele>843.0</ele><time>2026-04-19T14:03:27.8Z</time></trkpt><trkpt lat="44.4226378" lon="10.407871"><ele>843.0</ele><time>2026-04-19T14:03:28.799Z</time></trkpt><trkpt lat="44.4227462" lon="10.4079673"><ele>843.0</ele><time>2026-04-19T14:03:29.798Z</time></trkpt><trkpt lat="44.4228613" lon="10.4080555"><ele>843.0</ele><time>2026-04-19T14:03:30.798Z</time></trkpt><trkpt lat="44.422979" lon="10.408148"><ele>839.25</ele><time>2026-04-19T14:03:31.8Z</time></trkpt><trkpt lat="44.4230993" lon="10.4082445"><ele>835.5</ele><time>2026-04-19T14:03:32.802Z</time></trkpt><trkpt lat="44.4232192" lon="10.4083382"><ele>831.75</ele><time>2026-04-19T14:03:33.802Z</time></trkpt><trkpt lat="44.4233385" lon="10.4084157"><ele>828.0</ele><time>2026-04-19T14:03:34.801Z</time></trkpt><trkpt lat="44.4234537" lon="10.4084928"><ele>828.0</ele><time>2026-04-19T14:03:35.803Z</time></trkpt><trkpt lat="44.4235633" lon="10.4085772"><ele>828.0</ele><time>2026-04-19T14:03:36.799Z</time></trkpt><trkpt lat="44.423655" lon="10.4086527"><ele>828.0</ele><time>2026-04-19T14:03:37.802Z</time></trkpt><trkpt lat="44.4237288" lon="10.4087085"><ele>828.0</ele><time>2026-04-19T14:03:38.8Z</time></trkpt><trkpt lat="44.423788" lon="10.4087498"><ele>828.0</ele><time>2026-04-19T14:03:39.799Z</time></trkpt><trkpt lat="44.4238942" lon="10.4087188"><ele>828.0</ele><time>2026-04-19T14:03:41.802Z</time></trkpt><trkpt lat="44.4239475" lon="10.408569"><ele>828.0</ele><time>2026-04-19T14:03:43.8Z</time></trkpt><trkpt lat="44.4239237" lon="10.408485"><ele>828.0</ele><time>2026-04-19T14:03:44.8Z</time></trkpt><trkpt lat="44.4238755" lon="10.408406"><ele>828.0</ele><time>2026-04-19T14:03:45.802Z</time></trkpt><trkpt lat="44.4238102" lon="10.408314"><ele>828.0</ele><time>2026-04-19T14:03:46.801Z</time></trkpt><trkpt lat="44.4237525" lon="10.408226"><ele>828.0</ele><time>2026-04-19T14:03:47.803Z</time></trkpt><trkpt lat="44.4237248" lon="10.4081357"><ele>828.0</ele><time>2026-04-19T14:03:48.803Z</time></trkpt><trkpt lat="44.42373" lon="10.408046"><ele>828.0</ele><time>2026-04-19T14:03:49.802Z</time></trkpt><trkpt lat="44.4237712" lon="10.4079662"><ele>828.0</ele><time>2026-04-19T14:03:50.805Z</time></trkpt><trkpt lat="44.4238442" lon="10.407922"><ele>828.0</ele><time>2026-04-19T14:03:51.806Z</time></trkpt><trkpt lat="44.4239395" lon="10.4079275"><ele>828.0</ele><time>2026-04-19T14:03:52.802Z</time></trkpt><trkpt lat="44.4240523" lon="10.407975"><ele>828.0</ele><time>2026-04-19T14:03:53.802Z</time></trkpt><trkpt lat="44.4241662" lon="10.4080393"><ele>824.8</ele><time>2026-04-19T14:03:54.8Z</time></trkpt><trkpt lat="44.4242793" lon="10.4080978"><ele>821.5999999999999</ele><time>2026-04-19T14:03:55.8Z</time></trkpt><trkpt lat="44.4243863" lon="10.4081522"><ele>818.4000000000001</ele><time>2026-04-19T14:03:56.801Z</time></trkpt><trkpt lat="44.4244822" lon="10.4082023"><ele>815.2</ele><time>2026-04-19T14:03:57.803Z</time></trkpt><trkpt lat="44.424565" lon="10.4082655"><ele>812.0</ele><time>2026-04-19T14:03:58.802Z</time></trkpt><trkpt lat="44.4246313" lon="10.4083583"><ele>808.5000000000001</ele><time>2026-04-19T14:03:59.802Z</time></trkpt><trkpt lat="44.4246793" lon="10.40847"><ele>805.0</ele><time>2026-04-19T14:04:00.804Z</time></trkpt><trkpt lat="44.424719" lon="10.4085805"><ele>801.5</ele><time>2026-04-19T14:04:01.801Z</time></trkpt><trkpt lat="44.4247743" lon="10.4086768"><ele>798.0</ele><time>2026-04-19T14:04:02.803Z</time></trkpt><trkpt lat="44.4248452" lon="10.4087412"><ele>794.5000000000001</ele><time>2026-04-19T14:04:03.803Z</time></trkpt><trkpt lat="44.4249363" lon="10.4087713"><ele>791.0</ele><time>2026-04-19T14:04:04.803Z</time></trkpt><trkpt lat="44.4250423" lon="10.40877"><ele>791.0</ele><time>2026-04-19T14:04:05.804Z</time></trkpt><trkpt lat="44.4251493" lon="10.4087553"><ele>791.0</ele><time>2026-04-19T14:04:06.804Z</time></trkpt><trkpt lat="44.4252558" lon="10.4087467"><ele>791.0</ele><time>2026-04-19T14:04:07.803Z</time></trkpt><trkpt lat="44.4253673" lon="10.4087597"><ele>791.0</ele><time>2026-04-19T14:04:08.805Z</time></trkpt><trkpt lat="44.4254785" lon="10.4088023"><ele>791.0</ele><time>2026-04-19T14:04:09.803Z</time></trkpt><trkpt lat="44.425584" lon="10.4088587"><ele>789.5999999999999</ele><time>2026-04-19T14:04:10.806Z</time></trkpt><trkpt lat="44.4256837" lon="10.4089137"><ele>788.2</ele><time>2026-04-19T14:04:11.803Z</time></trkpt><trkpt lat="44.4257805" lon="10.4089688"><ele>786.8</ele><time>2026-04-19T14:04:12.805Z</time></trkpt><trkpt lat="44.4258747" lon="10.4090272"><ele>785.4000000000001</ele><time>2026-04-19T14:04:13.803Z</time></trkpt><trkpt lat="44.4259632" lon="10.4090972"><ele>784.0</ele><time>2026-04-19T14:04:14.804Z</time></trkpt><trkpt lat="44.426047" lon="10.4091823"><ele>784.0</ele><time>2026-04-19T14:04:15.803Z</time></trkpt><trkpt lat="44.4261322" lon="10.4092755"><ele>784.0</ele><time>2026-04-19T14:04:16.804Z</time></trkpt><trkpt lat="44.4262255" lon="10.4093595"><ele>784.0</ele><time>2026-04-19T14:04:17.805Z</time></trkpt><trkpt lat="44.4263287" lon="10.4094112"><ele>784.0</ele><time>2026-04-19T14:04:18.806Z</time></trkpt><trkpt lat="44.4264417" lon="10.4094247"><ele>784.0</ele><time>2026-04-19T14:04:19.8Z</time></trkpt><trkpt lat="44.4265635" lon="10.4094183"><ele>780.25</ele><time>2026-04-19T14:04:20.804Z</time></trkpt><trkpt lat="44.4266918" lon="10.409428"><ele>776.5</ele><time>2026-04-19T14:04:21.803Z</time></trkpt><trkpt lat="44.4268167" lon="10.4094403"><ele>772.75</ele><time>2026-04-19T14:04:22.804Z</time></trkpt><trkpt lat="44.4269337" lon="10.4094407"><ele>769.0</ele><time>2026-04-19T14:04:23.802Z</time></trkpt><trkpt lat="44.4270487" lon="10.4094303"><ele>766.8000000000001</ele><time>2026-04-19T14:04:24.804Z</time></trkpt><trkpt lat="44.4271582" lon="10.4093995"><ele>764.6</ele><time>2026-04-19T14:04:25.805Z</time></trkpt><trkpt lat="44.42726" lon="10.4093502"><ele>762.4</ele><time>2026-04-19T14:04:26.804Z</time></trkpt><trkpt lat="44.427356" lon="10.4092942"><ele>760.2</ele><time>2026-04-19T14:04:27.803Z</time></trkpt><trkpt lat="44.4274512" lon="10.4092368"><ele>758.0</ele><time>2026-04-19T14:04:28.804Z</time></trkpt><trkpt lat="44.427546" lon="10.4091792"><ele>758.0</ele><time>2026-04-19T14:04:29.803Z</time></trkpt><trkpt lat="44.4276397" lon="10.4091225"><ele>758.0</ele><time>2026-04-19T14:04:30.805Z</time></trkpt><trkpt lat="44.4277403" lon="10.4090703"><ele>758.0</ele><time>2026-04-19T14:04:31.803Z</time></trkpt><trkpt lat="44.4278548" lon="10.4090355"><ele>758.0</ele><time>2026-04-19T14:04:32.806Z</time></trkpt><trkpt lat="44.4279702" lon="10.409022"><ele>758.0</ele><time>2026-04-19T14:04:33.804Z</time></trkpt><trkpt lat="44.428079" lon="10.409028"><ele>757.0</ele><time>2026-04-19T14:04:34.804Z</time></trkpt><trkpt lat="44.4281815" lon="10.4090603"><ele>756.0</ele><time>2026-04-19T14:04:35.806Z</time></trkpt><trkpt lat="44.428281" lon="10.4091217"><ele>755.0</ele><time>2026-04-19T14:04:36.805Z</time></trkpt><trkpt lat="44.4283778" lon="10.4092013"><ele>754.0</ele><time>2026-04-19T14:04:37.807Z</time></trkpt><trkpt lat="44.4284698" lon="10.409282"><ele>753.0</ele><time>2026-04-19T14:04:38.804Z</time></trkpt><trkpt lat="44.4285625" lon="10.4093582"><ele>753.0</ele><time>2026-04-19T14:04:39.804Z</time></trkpt><trkpt lat="44.428659" lon="10.409427"><ele>753.0</ele><time>2026-04-19T14:04:40.806Z</time></trkpt><trkpt lat="44.4287607" lon="10.4094805"><ele>753.0</ele><time>2026-04-19T14:04:41.804Z</time></trkpt><trkpt lat="44.4288662" lon="10.4095032"><ele>753.0</ele><time>2026-04-19T14:04:42.803Z</time></trkpt><trkpt lat="44.4289747" lon="10.4094843"><ele>753.0</ele><time>2026-04-19T14:04:43.802Z</time></trkpt><trkpt lat="44.4290762" lon="10.4094162"><ele>751.0</ele><time>2026-04-19T14:04:44.788Z</time></trkpt><trkpt lat="44.429165" lon="10.4093"><ele>749.0</ele><time>2026-04-19T14:04:45.803Z</time></trkpt><trkpt lat="44.4292445" lon="10.4091548"><ele>747.0</ele><time>2026-04-19T14:04:46.805Z</time></trkpt><trkpt lat="44.4293218" lon="10.4089955"><ele>745.0</ele><time>2026-04-19T14:04:47.804Z</time></trkpt><trkpt lat="44.429398" lon="10.408832"><ele>743.5</ele><time>2026-04-19T14:04:48.806Z</time></trkpt><trkpt lat="44.4294713" lon="10.408671"><ele>742.0</ele><time>2026-04-19T14:04:49.804Z</time></trkpt><trkpt lat="44.4295437" lon="10.408515"><ele>740.5</ele><time>2026-04-19T14:04:50.805Z</time></trkpt><trkpt lat="44.4296137" lon="10.4083617"><ele>739.0</ele><time>2026-04-19T14:04:51.805Z</time></trkpt><trkpt lat="44.4296827" lon="10.4082063"><ele>739.0</ele><time>2026-04-19T14:04:52.804Z</time></trkpt><trkpt lat="44.429751" lon="10.408048"><ele>739.0</ele><time>2026-04-19T14:04:53.807Z</time></trkpt><trkpt lat="44.429818" lon="10.4078952"><ele>739.0</ele><time>2026-04-19T14:04:54.804Z</time></trkpt><trkpt lat="44.4298835" lon="10.4077515"><ele>739.0</ele><time>2026-04-19T14:04:55.804Z</time></trkpt><trkpt lat="44.4299472" lon="10.4076245"><ele>738.0</ele><time>2026-04-19T14:04:56.805Z</time></trkpt><trkpt lat="44.430015" lon="10.407521"><ele>737.0</ele><time>2026-04-19T14:04:57.805Z</time></trkpt><trkpt lat="44.4300965" lon="10.4074618"><ele>736.0</ele><time>2026-04-19T14:04:58.803Z</time></trkpt><trkpt lat="44.4301893" lon="10.4074613"><ele>735.0</ele><time>2026-04-19T14:04:59.806Z</time></trkpt><trkpt lat="44.4302888" lon="10.4074903"><ele>734.0</ele><time>2026-04-19T14:05:00.807Z</time></trkpt><trkpt lat="44.4303883" lon="10.4075157"><ele>733.6</ele><time>2026-04-19T14:05:01.804Z</time></trkpt><trkpt lat="44.430488" lon="10.4075358"><ele>733.2</ele><time>2026-04-19T14:05:02.805Z</time></trkpt><trkpt lat="44.4305885" lon="10.4075577"><ele>732.8000000000001</ele><time>2026-04-19T14:05:03.803Z</time></trkpt><trkpt lat="44.4306907" lon="10.407582"><ele>732.4000000000001</ele><time>2026-04-19T14:05:04.804Z</time></trkpt><trkpt lat="44.4307918" lon="10.4076057"><ele>732.0</ele><time>2026-04-19T14:05:05.802Z</time></trkpt><trkpt lat="44.430893" lon="10.4076258"><ele>732.0</ele><time>2026-04-19T14:05:06.802Z</time></trkpt><trkpt lat="44.430995" lon="10.4076412"><ele>732.0</ele><time>2026-04-19T14:05:07.803Z</time></trkpt><trkpt lat="44.4310978" lon="10.407649"><ele>732.0</ele><time>2026-04-19T14:05:08.803Z</time></trkpt><trkpt lat="44.4312027" lon="10.4076508"><ele>732.0</ele><time>2026-04-19T14:05:09.802Z</time></trkpt><trkpt lat="44.4313087" lon="10.4076508"><ele>732.0</ele><time>2026-04-19T14:05:10.803Z</time></trkpt><trkpt lat="44.4314143" lon="10.407653"><ele>730.6</ele><time>2026-04-19T14:05:11.804Z</time></trkpt><trkpt lat="44.4315197" lon="10.4076525"><ele>729.2</ele><time>2026-04-19T14:05:12.804Z</time></trkpt><trkpt lat="44.4316252" lon="10.407652"><ele>727.8</ele><time>2026-04-19T14:05:13.803Z</time></trkpt><trkpt lat="44.4317318" lon="10.407651"><ele>726.4</ele><time>2026-04-19T14:05:14.803Z</time></trkpt><trkpt lat="44.4318388" lon="10.4076515"><ele>725.0</ele><time>2026-04-19T14:05:15.804Z</time></trkpt><trkpt lat="44.4319465" lon="10.4076585"><ele>725.0</ele><time>2026-04-19T14:05:16.805Z</time></trkpt><trkpt lat="44.432053" lon="10.407672"><ele>725.0</ele><time>2026-04-19T14:05:17.804Z</time></trkpt><trkpt lat="44.4321588" lon="10.4076962"><ele>725.0</ele><time>2026-04-19T14:05:18.802Z</time></trkpt><trkpt lat="44.4322628" lon="10.407733"><ele>725.0</ele><time>2026-04-19T14:05:19.804Z</time></trkpt><trkpt lat="44.4323657" lon="10.4077785"><ele>725.0</ele><time>2026-04-19T14:05:20.804Z</time></trkpt><trkpt lat="44.4324683" lon="10.407827"><ele>723.2</ele><time>2026-04-19T14:05:21.804Z</time></trkpt><trkpt lat="44.4325723" lon="10.4078762"><ele>721.4</ele><time>2026-04-19T14:05:22.804Z</time></trkpt><trkpt lat="44.4326772" lon="10.4079245"><ele>719.5999999999999</ele><time>2026-04-19T14:05:23.804Z</time></trkpt><trkpt lat="44.4327782" lon="10.4079713"><ele>717.8</ele><time>2026-04-19T14:05:24.803Z</time></trkpt><trkpt lat="44.4328652" lon="10.4080137"><ele>716.0</ele><time>2026-04-19T14:05:25.818Z</time></trkpt><trkpt lat="44.4329375" lon="10.4080548"><ele>715.6666666666666</ele><time>2026-04-19T14:05:26.803Z</time></trkpt><trkpt lat="44.4329918" lon="10.408101"><ele>715.3333333333333</ele><time>2026-04-19T14:05:27.803Z</time></trkpt><trkpt lat="44.43304" lon="10.4081842"><ele>715.0</ele><time>2026-04-19T14:05:29.804Z</time></trkpt><trkpt lat="44.4330463" lon="10.4082925"><ele>714.6666666666666</ele><time>2026-04-19T14:05:32.803Z</time></trkpt><trkpt lat="44.4329778" lon="10.4084413"><ele>714.3333333333334</ele><time>2026-04-19T14:05:34.803Z</time></trkpt><trkpt lat="44.4329365" lon="10.4085242"><ele>714.0</ele><time>2026-04-19T14:05:35.804Z</time></trkpt><trkpt lat="44.4328928" lon="10.4086223"><ele>714.0</ele><time>2026-04-19T14:05:36.804Z</time></trkpt><trkpt lat="44.4328472" lon="10.408748"><ele>714.0</ele><time>2026-04-19T14:05:37.805Z</time></trkpt><trkpt lat="44.4328062" lon="10.408882"><ele>714.0</ele><time>2026-04-19T14:05:38.805Z</time></trkpt><trkpt lat="44.4327628" lon="10.4090245"><ele>714.0</ele><time>2026-04-19T14:05:39.806Z</time></trkpt><trkpt lat="44.4327208" lon="10.4091665"><ele>714.0</ele><time>2026-04-19T14:05:40.804Z</time></trkpt><trkpt lat="44.4326803" lon="10.4093078"><ele>714.8000000000001</ele><time>2026-04-19T14:05:41.806Z</time></trkpt><trkpt lat="44.4326423" lon="10.4094507"><ele>715.6</ele><time>2026-04-19T14:05:42.804Z</time></trkpt><trkpt lat="44.4326058" lon="10.4095958"><ele>716.4</ele><time>2026-04-19T14:05:43.804Z</time></trkpt><trkpt lat="44.4325697" lon="10.409748"><ele>717.2</ele><time>2026-04-19T14:05:44.804Z</time></trkpt><trkpt lat="44.4325368" lon="10.4098977"><ele>718.0</ele><time>2026-04-19T14:05:45.803Z</time></trkpt><trkpt lat="44.4325112" lon="10.410037"><ele>718.1666666666667</ele><time>2026-04-19T14:05:46.805Z</time></trkpt><trkpt lat="44.43249" lon="10.4101648"><ele>718.3333333333334</ele><time>2026-04-19T14:05:47.803Z</time></trkpt><trkpt lat="44.4324688" lon="10.410273"><ele>718.5</ele><time>2026-04-19T14:05:48.805Z</time></trkpt><trkpt lat="44.4324428" lon="10.4103657"><ele>718.6666666666666</ele><time>2026-04-19T14:05:49.807Z</time></trkpt><trkpt lat="44.4324035" lon="10.4104515"><ele>718.8333333333333</ele><time>2026-04-19T14:05:50.805Z</time></trkpt><trkpt lat="44.4323518" lon="10.4105345"><ele>719.0</ele><time>2026-04-19T14:05:51.804Z</time></trkpt><trkpt lat="44.4323057" lon="10.4106323"><ele>719.0</ele><time>2026-04-19T14:05:52.804Z</time></trkpt><trkpt lat="44.432271" lon="10.4107505"><ele>719.0</ele><time>2026-04-19T14:05:53.804Z</time></trkpt><trkpt lat="44.4322395" lon="10.4108818"><ele>719.0</ele><time>2026-04-19T14:05:54.803Z</time></trkpt><trkpt lat="44.4322078" lon="10.4110133"><ele>719.0</ele><time>2026-04-19T14:05:55.802Z</time></trkpt><trkpt lat="44.4321805" lon="10.4111313"><ele>719.0</ele><time>2026-04-19T14:05:56.802Z</time></trkpt><trkpt lat="44.4321605" lon="10.4112368"><ele>718.2</ele><time>2026-04-19T14:05:57.802Z</time></trkpt><trkpt lat="44.4321517" lon="10.4113317"><ele>717.4000000000001</ele><time>2026-04-19T14:05:58.803Z</time></trkpt><trkpt lat="44.432173" lon="10.4114827"><ele>716.6</ele><time>2026-04-19T14:06:00.803Z</time></trkpt><trkpt lat="44.4322055" lon="10.4116283"><ele>715.8</ele><time>2026-04-19T14:06:02.803Z</time></trkpt><trkpt lat="44.432211" lon="10.4117695"><ele>715.0</ele><time>2026-04-19T14:06:04.805Z</time></trkpt><trkpt lat="44.432183" lon="10.4119083"><ele>715.0</ele><time>2026-04-19T14:06:06.805Z</time></trkpt><trkpt lat="44.4321145" lon="10.4119537"><ele>715.0</ele><time>2026-04-19T14:06:08.804Z</time></trkpt><trkpt lat="44.432073" lon="10.4118632"><ele>715.0</ele><time>2026-04-19T14:06:11.805Z</time></trkpt><trkpt lat="44.4321032" lon="10.4117692"><ele>715.0</ele><time>2026-04-19T14:09:31.809Z</time></trkpt><trkpt lat="44.4321487" lon="10.4116692"><ele>715.0</ele><time>2026-04-19T14:09:34.809Z</time></trkpt><trkpt lat="44.432183" lon="10.41159"><ele>715.0</ele><time>2026-04-19T14:09:36.807Z</time></trkpt><trkpt lat="44.4321952" lon="10.411473"><ele>715.0</ele><time>2026-04-19T14:09:40.809Z</time></trkpt><trkpt lat="44.4321753" lon="10.4113883"><ele>715.0</ele><time>2026-04-19T14:09:43.808Z</time></trkpt><trkpt lat="44.4321733" lon="10.411267"><ele>715.0</ele><time>2026-04-19T14:09:45.81Z</time></trkpt><trkpt lat="44.432211" lon="10.411125"><ele>715.0</ele><time>2026-04-19T14:09:47.808Z</time></trkpt><trkpt lat="44.4322587" lon="10.41101"><ele>715.0</ele><time>2026-04-19T14:09:49.809Z</time></trkpt><trkpt lat="44.4323043" lon="10.410941"><ele>715.0</ele><time>2026-04-19T14:09:51.807Z</time></trkpt><trkpt lat="44.432376" lon="10.4108663"><ele>715.8</ele><time>2026-04-19T14:09:54.806Z</time></trkpt><trkpt lat="44.4324693" lon="10.4107597"><ele>716.6</ele><time>2026-04-19T14:09:56.807Z</time></trkpt><trkpt lat="44.4324947" lon="10.4106738"><ele>717.4000000000001</ele><time>2026-04-19T14:09:57.808Z</time></trkpt><trkpt lat="44.432502" lon="10.4105635"><ele>718.2</ele><time>2026-04-19T14:09:58.807Z</time></trkpt><trkpt lat="44.4325038" lon="10.410436"><ele>719.0</ele><time>2026-04-19T14:09:59.807Z</time></trkpt><trkpt lat="44.432514" lon="10.4102945"><ele>719.25</ele><time>2026-04-19T14:10:00.805Z</time></trkpt><trkpt lat="44.4325375" lon="10.4101245"><ele>719.5</ele><time>2026-04-19T14:10:01.805Z</time></trkpt><trkpt lat="44.4325723" lon="10.4099428"><ele>719.75</ele><time>2026-04-19T14:10:02.807Z</time></trkpt><trkpt lat="44.4326147" lon="10.4097543"><ele>720.0</ele><time>2026-04-19T14:10:03.804Z</time></trkpt><trkpt lat="44.432661" lon="10.4095733"><ele>719.5</ele><time>2026-04-19T14:10:04.809Z</time></trkpt><trkpt lat="44.4327063" lon="10.4094053"><ele>719.0</ele><time>2026-04-19T14:10:05.808Z</time></trkpt><trkpt lat="44.4327512" lon="10.4092435"><ele>718.5</ele><time>2026-04-19T14:10:06.807Z</time></trkpt><trkpt lat="44.4327973" lon="10.4090868"><ele>718.0</ele><time>2026-04-19T14:10:07.805Z</time></trkpt><trkpt lat="44.4328442" lon="10.4089365"><ele>717.2</ele><time>2026-04-19T14:10:08.807Z</time></trkpt><trkpt lat="44.432893" lon="10.408795"><ele>716.4</ele><time>2026-04-19T14:10:09.807Z</time></trkpt><trkpt lat="44.4329452" lon="10.4086652"><ele>715.6</ele><time>2026-04-19T14:10:10.805Z</time></trkpt><trkpt lat="44.4330047" lon="10.4085465"><ele>714.8000000000001</ele><time>2026-04-19T14:10:11.808Z</time></trkpt><trkpt lat="44.4330777" lon="10.4084445"><ele>714.0</ele><time>2026-04-19T14:10:12.806Z</time></trkpt><trkpt lat="44.433166" lon="10.4083567"><ele>712.2</ele><time>2026-04-19T14:10:13.81Z</time></trkpt><trkpt lat="44.43326" lon="10.4082835"><ele>710.4000000000001</ele><time>2026-04-19T14:10:14.809Z</time></trkpt><trkpt lat="44.43335" lon="10.4082192"><ele>708.6</ele><time>2026-04-19T14:10:15.81Z</time></trkpt><trkpt lat="44.433433" lon="10.4081627"><ele>706.8</ele><time>2026-04-19T14:10:16.807Z</time></trkpt><trkpt lat="44.4335088" lon="10.4081172"><ele>705.0</ele><time>2026-04-19T14:10:17.808Z</time></trkpt><trkpt lat="44.433578" lon="10.408082"><ele>704.9999999999999</ele><time>2026-04-19T14:10:18.806Z</time></trkpt><trkpt lat="44.4336442" lon="10.4080558"><ele>705.0</ele><time>2026-04-19T14:10:19.809Z</time></trkpt><trkpt lat="44.4337092" lon="10.408036"><ele>705.0</ele><time>2026-04-19T14:10:20.808Z</time></trkpt><trkpt lat="44.4337775" lon="10.4080098"><ele>705.0</ele><time>2026-04-19T14:10:21.806Z</time></trkpt><trkpt lat="44.4338435" lon="10.4079737"><ele>705.0</ele><time>2026-04-19T14:10:22.807Z</time></trkpt><trkpt lat="44.4339097" lon="10.4079255"><ele>704.9999999999999</ele><time>2026-04-19T14:10:23.806Z</time></trkpt><trkpt lat="44.4339775" lon="10.4078767"><ele>705.0</ele><time>2026-04-19T14:10:24.804Z</time></trkpt><trkpt lat="44.434055" lon="10.4078278"><ele>704.2</ele><time>2026-04-19T14:10:25.804Z</time></trkpt><trkpt lat="44.434134" lon="10.4077768"><ele>703.4</ele><time>2026-04-19T14:10:26.803Z</time></trkpt><trkpt lat="44.4342042" lon="10.407717"><ele>702.5999999999999</ele><time>2026-04-19T14:10:27.803Z</time></trkpt><trkpt lat="44.4342673" lon="10.4076362"><ele>701.8</ele><time>2026-04-19T14:10:28.81Z</time></trkpt><trkpt lat="44.4343278" lon="10.4075327"><ele>701.0</ele><time>2026-04-19T14:10:29.804Z</time></trkpt><trkpt lat="44.4343863" lon="10.407413"><ele>701.0</ele><time>2026-04-19T14:10:30.803Z</time></trkpt><trkpt lat="44.4344477" lon="10.4072855"><ele>701.0</ele><time>2026-04-19T14:10:31.806Z</time></trkpt><trkpt lat="44.4345117" lon="10.4071583"><ele>701.0</ele><time>2026-04-19T14:10:32.804Z</time></trkpt><trkpt lat="44.434578" lon="10.4070293"><ele>701.0</ele><time>2026-04-19T14:10:33.805Z</time></trkpt><trkpt lat="44.4346452" lon="10.4068938"><ele>700.5999999999999</ele><time>2026-04-19T14:10:34.804Z</time></trkpt><trkpt lat="44.434709" lon="10.4067667"><ele>700.2</ele><time>2026-04-19T14:10:35.806Z</time></trkpt><trkpt lat="44.4347683" lon="10.4066478"><ele>699.8</ele><time>2026-04-19T14:10:36.806Z</time></trkpt><trkpt lat="44.4348237" lon="10.4065378"><ele>699.4000000000001</ele><time>2026-04-19T14:10:37.807Z</time></trkpt><trkpt lat="44.4348778" lon="10.4064302"><ele>699.0</ele><time>2026-04-19T14:10:38.806Z</time></trkpt><trkpt lat="44.434936" lon="10.4063165"><ele>699.0</ele><time>2026-04-19T14:10:39.804Z</time></trkpt><trkpt lat="44.4350013" lon="10.4061947"><ele>699.0</ele><time>2026-04-19T14:10:40.804Z</time></trkpt><trkpt lat="44.4350738" lon="10.4060728"><ele>699.0</ele><time>2026-04-19T14:10:41.804Z</time></trkpt><trkpt lat="44.4351472" lon="10.4059605"><ele>699.0</ele><time>2026-04-19T14:10:42.804Z</time></trkpt><trkpt lat="44.43522" lon="10.4058595"><ele>699.0</ele><time>2026-04-19T14:10:43.804Z</time></trkpt><trkpt lat="44.4352932" lon="10.4057667"><ele>699.0</ele><time>2026-04-19T14:10:44.805Z</time></trkpt><trkpt lat="44.435366" lon="10.4056762"><ele>699.0</ele><time>2026-04-19T14:10:45.81Z</time></trkpt><trkpt lat="44.4354332" lon="10.4055955"><ele>699.0</ele><time>2026-04-19T14:10:46.804Z</time></trkpt><trkpt lat="44.435496" lon="10.4055127"><ele>699.0</ele><time>2026-04-19T14:10:47.807Z</time></trkpt><trkpt lat="44.4355647" lon="10.4054103"><ele>699.0</ele><time>2026-04-19T14:10:48.804Z</time></trkpt><trkpt lat="44.435636" lon="10.4052872"><ele>699.0</ele><time>2026-04-19T14:10:49.803Z</time></trkpt><trkpt lat="44.4357108" lon="10.4051532"><ele>699.0</ele><time>2026-04-19T14:10:50.802Z</time></trkpt><trkpt lat="44.4357872" lon="10.4050162"><ele>699.0</ele><time>2026-04-19T14:10:51.801Z</time></trkpt><trkpt lat="44.4358625" lon="10.4048818"><ele>699.0</ele><time>2026-04-19T14:10:52.805Z</time></trkpt><trkpt lat="44.4359377" lon="10.4047447"><ele>701.0</ele><time>2026-04-19T14:10:53.807Z</time></trkpt><trkpt lat="44.4360127" lon="10.4046053"><ele>703.0</ele><time>2026-04-19T14:10:54.804Z</time></trkpt><trkpt lat="44.4360892" lon="10.4044682"><ele>705.0</ele><time>2026-04-19T14:10:55.805Z</time></trkpt><trkpt lat="44.436163" lon="10.4043328"><ele>707.0</ele><time>2026-04-19T14:10:56.804Z</time></trkpt><trkpt lat="44.436227" lon="10.404204"><ele>707.0</ele><time>2026-04-19T14:10:57.805Z</time></trkpt><trkpt lat="44.4362785" lon="10.4040762"><ele>707.0</ele><time>2026-04-19T14:10:58.805Z</time></trkpt><trkpt lat="44.4363152" lon="10.4039367"><ele>707.0</ele><time>2026-04-19T14:10:59.807Z</time></trkpt><trkpt lat="44.43634" lon="10.4037845"><ele>707.0</ele><time>2026-04-19T14:11:00.807Z</time></trkpt><trkpt lat="44.4363532" lon="10.4036373"><ele>707.0</ele><time>2026-04-19T14:11:01.804Z</time></trkpt><trkpt lat="44.4363625" lon="10.4035045"><ele>705.5</ele><time>2026-04-19T14:11:02.804Z</time></trkpt><trkpt lat="44.4363703" lon="10.4033895"><ele>704.0</ele><time>2026-04-19T14:11:03.804Z</time></trkpt><trkpt lat="44.4363793" lon="10.4032847"><ele>702.5</ele><time>2026-04-19T14:11:04.804Z</time></trkpt><trkpt lat="44.4363933" lon="10.403186"><ele>701.0</ele><time>2026-04-19T14:11:05.807Z</time></trkpt><trkpt lat="44.4364183" lon="10.403087"><ele>699.5</ele><time>2026-04-19T14:11:06.806Z</time></trkpt><trkpt lat="44.4364655" lon="10.4029942"><ele>698.0</ele><time>2026-04-19T14:11:07.807Z</time></trkpt><trkpt lat="44.4365162" lon="10.402908"><ele>697.8333333333333</ele><time>2026-04-19T14:11:08.806Z</time></trkpt><trkpt lat="44.4365613" lon="10.4028152"><ele>697.6666666666666</ele><time>2026-04-19T14:11:09.807Z</time></trkpt><trkpt lat="44.4366012" lon="10.4027102"><ele>697.5</ele><time>2026-04-19T14:11:10.808Z</time></trkpt><trkpt lat="44.4366327" lon="10.4026008"><ele>697.3333333333334</ele><time>2026-04-19T14:11:11.806Z</time></trkpt><trkpt lat="44.4366598" lon="10.4024883"><ele>697.1666666666667</ele><time>2026-04-19T14:11:12.809Z</time></trkpt><trkpt lat="44.4366842" lon="10.4023835"><ele>697.0</ele><time>2026-04-19T14:11:13.804Z</time></trkpt><trkpt lat="44.4367068" lon="10.4022877"><ele>697.0</ele><time>2026-04-19T14:11:14.804Z</time></trkpt><trkpt lat="44.436726" lon="10.4021982"><ele>697.0</ele><time>2026-04-19T14:11:15.804Z</time></trkpt><trkpt lat="44.4367457" lon="10.4021067"><ele>697.0</ele><time>2026-04-19T14:11:16.804Z</time></trkpt><trkpt lat="44.4367727" lon="10.4020247"><ele>697.0</ele><time>2026-04-19T14:11:17.806Z</time></trkpt><trkpt lat="44.4368677" lon="10.4019605"><ele>697.0</ele><time>2026-04-19T14:11:19.805Z</time></trkpt><trkpt lat="44.4369282" lon="10.4019927"><ele>697.0</ele><time>2026-04-19T14:11:20.807Z</time></trkpt><trkpt lat="44.4369842" lon="10.402063"><ele>697.0</ele><time>2026-04-19T14:11:21.806Z</time></trkpt><trkpt lat="44.4370367" lon="10.4021518"><ele>697.0</ele><time>2026-04-19T14:11:22.805Z</time></trkpt><trkpt lat="44.4370982" lon="10.4022588"><ele>697.0</ele><time>2026-04-19T14:11:23.806Z</time></trkpt><trkpt lat="44.4371685" lon="10.402374"><ele>697.0</ele><time>2026-04-19T14:11:24.804Z</time></trkpt><trkpt lat="44.4372462" lon="10.4024967"><ele>697.0</ele><time>2026-04-19T14:11:25.804Z</time></trkpt><trkpt lat="44.4373223" lon="10.4026218"><ele>697.0</ele><time>2026-04-19T14:11:26.804Z</time></trkpt><trkpt lat="44.4373977" lon="10.4027417"><ele>697.5</ele><time>2026-04-19T14:11:27.803Z</time></trkpt><trkpt lat="44.4374787" lon="10.4028545"><ele>698.0</ele><time>2026-04-19T14:11:28.804Z</time></trkpt><trkpt lat="44.4375752" lon="10.4029625"><ele>698.5</ele><time>2026-04-19T14:11:29.804Z</time></trkpt><trkpt lat="44.437684" lon="10.4030652"><ele>699.0</ele><time>2026-04-19T14:11:30.805Z</time></trkpt><trkpt lat="44.4378032" lon="10.4031572"><ele>699.0</ele><time>2026-04-19T14:11:31.804Z</time></trkpt><trkpt lat="44.4379245" lon="10.4032348"><ele>699.0</ele><time>2026-04-19T14:11:32.806Z</time></trkpt><trkpt lat="44.4380463" lon="10.4033075"><ele>699.0</ele><time>2026-04-19T14:11:33.806Z</time></trkpt><trkpt lat="44.4381742" lon="10.4033803"><ele>699.0</ele><time>2026-04-19T14:11:34.806Z</time></trkpt><trkpt lat="44.4383085" lon="10.4034572"><ele>699.0</ele><time>2026-04-19T14:11:35.807Z</time></trkpt><trkpt lat="44.4384405" lon="10.4035338"><ele>699.0</ele><time>2026-04-19T14:11:36.803Z</time></trkpt><trkpt lat="44.4385713" lon="10.4036102"><ele>699.0</ele><time>2026-04-19T14:11:37.805Z</time></trkpt><trkpt lat="44.438699" lon="10.4036838"><ele>699.0</ele><time>2026-04-19T14:11:38.804Z</time></trkpt><trkpt lat="44.4388243" lon="10.4037597"><ele>694.25</ele><time>2026-04-19T14:11:39.804Z</time></trkpt><trkpt lat="44.4389457" lon="10.4038395"><ele>689.5</ele><time>2026-04-19T14:11:40.803Z</time></trkpt><trkpt lat="44.439065" lon="10.4039237"><ele>684.75</ele><time>2026-04-19T14:11:41.805Z</time></trkpt><trkpt lat="44.439189" lon="10.4040105"><ele>680.0</ele><time>2026-04-19T14:11:42.806Z</time></trkpt><trkpt lat="44.4393167" lon="10.4040928"><ele>680.0</ele><time>2026-04-19T14:11:43.806Z</time></trkpt><trkpt lat="44.4394443" lon="10.4041598"><ele>680.0</ele><time>2026-04-19T14:11:44.806Z</time></trkpt><trkpt lat="44.4395735" lon="10.4041975"><ele>680.0</ele><time>2026-04-19T14:11:45.803Z</time></trkpt><trkpt lat="44.4397145" lon="10.4042068"><ele>680.0</ele><time>2026-04-19T14:11:46.804Z</time></trkpt><trkpt lat="44.4398673" lon="10.4042035"><ele>679.0</ele><time>2026-04-19T14:11:47.805Z</time></trkpt><trkpt lat="44.4400213" lon="10.4041953"><ele>678.0</ele><time>2026-04-19T14:11:48.807Z</time></trkpt><trkpt lat="44.440172" lon="10.4041878"><ele>677.0</ele><time>2026-04-19T14:11:49.805Z</time></trkpt><trkpt lat="44.4403175" lon="10.4041925"><ele>677.0</ele><time>2026-04-19T14:11:50.807Z</time></trkpt><trkpt lat="44.4404563" lon="10.4042217"><ele>677.0</ele><time>2026-04-19T14:11:51.805Z</time></trkpt><trkpt lat="44.4405865" lon="10.404271"><ele>677.0</ele><time>2026-04-19T14:11:52.805Z</time></trkpt><trkpt lat="44.4407113" lon="10.4043378"><ele>677.0</ele><time>2026-04-19T14:11:53.803Z</time></trkpt><trkpt lat="44.4408322" lon="10.4044085"><ele>677.75</ele><time>2026-04-19T14:11:54.803Z</time></trkpt><trkpt lat="44.4409578" lon="10.4044747"><ele>678.5</ele><time>2026-04-19T14:11:55.804Z</time></trkpt><trkpt lat="44.4410893" lon="10.4045237"><ele>679.25</ele><time>2026-04-19T14:11:56.805Z</time></trkpt><trkpt lat="44.44123" lon="10.4045477"><ele>680.0</ele><time>2026-04-19T14:11:57.804Z</time></trkpt><trkpt lat="44.4413798" lon="10.4045453"><ele>677.0</ele><time>2026-04-19T14:11:58.806Z</time></trkpt><trkpt lat="44.4415307" lon="10.4045265"><ele>674.0</ele><time>2026-04-19T14:11:59.803Z</time></trkpt><trkpt lat="44.4416825" lon="10.4045008"><ele>671.0</ele><time>2026-04-19T14:12:00.803Z</time></trkpt><trkpt lat="44.4418317" lon="10.404473"><ele>671.0</ele><time>2026-04-19T14:12:01.803Z</time></trkpt><trkpt lat="44.4419768" lon="10.4044462"><ele>671.0</ele><time>2026-04-19T14:12:02.805Z</time></trkpt><trkpt lat="44.4421193" lon="10.40442"><ele>671.0</ele><time>2026-04-19T14:12:03.802Z</time></trkpt><trkpt lat="44.4422608" lon="10.4043965"><ele>671.0</ele><time>2026-04-19T14:12:04.802Z</time></trkpt><trkpt lat="44.4424012" lon="10.4043748"><ele>670.25</ele><time>2026-04-19T14:12:05.803Z</time></trkpt><trkpt lat="44.4425382" lon="10.4043607"><ele>669.5</ele><time>2026-04-19T14:12:06.802Z</time></trkpt><trkpt lat="44.4426728" lon="10.4043617"><ele>668.75</ele><time>2026-04-19T14:12:07.808Z</time></trkpt><trkpt lat="44.4428057" lon="10.4043885"><ele>668.0</ele><time>2026-04-19T14:12:08.806Z</time></trkpt><trkpt lat="44.4429397" lon="10.4044477"><ele>673.6666666666666</ele><time>2026-04-19T14:12:09.803Z</time></trkpt><trkpt lat="44.443075" lon="10.4045333"><ele>679.3333333333334</ele><time>2026-04-19T14:12:10.803Z</time></trkpt><trkpt lat="44.4432135" lon="10.4046285"><ele>685.0</ele><time>2026-04-19T14:12:11.804Z</time></trkpt><trkpt lat="44.4433498" lon="10.4047222"><ele>681.0</ele><time>2026-04-19T14:12:12.803Z</time></trkpt><trkpt lat="44.4434812" lon="10.4048128"><ele>677.0</ele><time>2026-04-19T14:12:13.803Z</time></trkpt><trkpt lat="44.4436098" lon="10.4048998"><ele>673.0</ele><time>2026-04-19T14:12:14.803Z</time></trkpt><trkpt lat="44.4437355" lon="10.4049848"><ele>669.0</ele><time>2026-04-19T14:12:15.803Z</time></trkpt><trkpt lat="44.443854" lon="10.4050787"><ele>669.0</ele><time>2026-04-19T14:12:16.803Z</time></trkpt><trkpt lat="44.4439625" lon="10.405198"><ele>669.0</ele><time>2026-04-19T14:12:17.806Z</time></trkpt><trkpt lat="44.4440603" lon="10.4053547"><ele>669.0</ele><time>2026-04-19T14:12:18.802Z</time></trkpt><trkpt lat="44.4441495" lon="10.4055447"><ele>669.0</ele><time>2026-04-19T14:12:19.802Z</time></trkpt><trkpt lat="44.444239" lon="10.405763"><ele>659.0</ele><time>2026-04-19T14:12:20.802Z</time></trkpt><trkpt lat="44.4443363" lon="10.4060013"><ele>649.0</ele><time>2026-04-19T14:12:21.804Z</time></trkpt><trkpt lat="44.4444353" lon="10.4062355"><ele>639.0</ele><time>2026-04-19T14:12:22.803Z</time></trkpt><trkpt lat="44.4445315" lon="10.406458"><ele>643.0</ele><time>2026-04-19T14:12:23.803Z</time></trkpt><trkpt lat="44.4446215" lon="10.406658"><ele>647.0</ele><time>2026-04-19T14:12:24.802Z</time></trkpt><trkpt lat="44.4447068" lon="10.4068417"><ele>651.0</ele><time>2026-04-19T14:12:25.802Z</time></trkpt><trkpt lat="44.4447942" lon="10.407015"><ele>641.6666666666666</ele><time>2026-04-19T14:12:26.802Z</time></trkpt><trkpt lat="44.4448993" lon="10.4071735"><ele>632.3333333333333</ele><time>2026-04-19T14:12:27.805Z</time></trkpt><trkpt lat="44.445018" lon="10.4073163"><ele>623.0</ele><time>2026-04-19T14:12:28.8Z</time></trkpt><trkpt lat="44.4451378" lon="10.4074525"><ele>623.0</ele><time>2026-04-19T14:12:29.803Z</time></trkpt><trkpt lat="44.4452618" lon="10.4075932"><ele>623.0</ele><time>2026-04-19T14:12:30.804Z</time></trkpt><trkpt lat="44.4453905" lon="10.4077392"><ele>623.0</ele><time>2026-04-19T14:12:31.806Z</time></trkpt><trkpt lat="44.445517" lon="10.4078867"><ele>622.0</ele><time>2026-04-19T14:12:32.806Z</time></trkpt><trkpt lat="44.4456397" lon="10.4080307"><ele>621.0</ele><time>2026-04-19T14:12:33.804Z</time></trkpt><trkpt lat="44.4457598" lon="10.4081765"><ele>620.0</ele><time>2026-04-19T14:12:34.804Z</time></trkpt><trkpt lat="44.44588" lon="10.4083307"><ele>620.0</ele><time>2026-04-19T14:12:35.805Z</time></trkpt><trkpt lat="44.4459943" lon="10.4084992"><ele>620.0</ele><time>2026-04-19T14:12:36.805Z</time></trkpt><trkpt lat="44.4460997" lon="10.4086778"><ele>620.0</ele><time>2026-04-19T14:12:37.806Z</time></trkpt><trkpt lat="44.4462032" lon="10.408849"><ele>620.0</ele><time>2026-04-19T14:12:38.806Z</time></trkpt><trkpt lat="44.4463142" lon="10.4089955"><ele>620.0</ele><time>2026-04-19T14:12:39.805Z</time></trkpt><trkpt lat="44.446443" lon="10.4091107"><ele>620.0</ele><time>2026-04-19T14:12:40.806Z</time></trkpt><trkpt lat="44.4465827" lon="10.4092008"><ele>620.0</ele><time>2026-04-19T14:12:41.807Z</time></trkpt><trkpt lat="44.4467212" lon="10.4092873"><ele>620.0</ele><time>2026-04-19T14:12:42.806Z</time></trkpt><trkpt lat="44.4468572" lon="10.4093928"><ele>620.0</ele><time>2026-04-19T14:12:43.807Z</time></trkpt><trkpt lat="44.4469853" lon="10.4095315"><ele>617.6666666666666</ele><time>2026-04-19T14:12:44.807Z</time></trkpt><trkpt lat="44.4471045" lon="10.4097032"><ele>615.3333333333334</ele><time>2026-04-19T14:12:45.805Z</time></trkpt><trkpt lat="44.447221" lon="10.409894"><ele>613.0</ele><time>2026-04-19T14:12:46.807Z</time></trkpt><trkpt lat="44.4473378" lon="10.4100948"><ele>613.0</ele><time>2026-04-19T14:12:47.805Z</time></trkpt><trkpt lat="44.4474528" lon="10.4102943"><ele>613.0</ele><time>2026-04-19T14:12:48.806Z</time></trkpt><trkpt lat="44.4475623" lon="10.4104877"><ele>613.0</ele><time>2026-04-19T14:12:49.805Z</time></trkpt><trkpt lat="44.4476658" lon="10.410669"><ele>610.75</ele><time>2026-04-19T14:12:50.806Z</time></trkpt><trkpt lat="44.4477665" lon="10.4108397"><ele>608.5</ele><time>2026-04-19T14:12:51.804Z</time></trkpt><trkpt lat="44.4478573" lon="10.4109953"><ele>606.25</ele><time>2026-04-19T14:12:52.804Z</time></trkpt><trkpt lat="44.4479522" lon="10.4111182"><ele>604.0</ele><time>2026-04-19T14:12:53.805Z</time></trkpt><trkpt lat="44.4480618" lon="10.4111938"><ele>604.0</ele><time>2026-04-19T14:12:54.805Z</time></trkpt><trkpt lat="44.4481943" lon="10.4112218"><ele>604.0</ele><time>2026-04-19T14:12:55.806Z</time></trkpt><trkpt lat="44.4483502" lon="10.4112225"><ele>604.0</ele><time>2026-04-19T14:12:56.807Z</time></trkpt><trkpt lat="44.4485233" lon="10.411218"><ele>604.0</ele><time>2026-04-19T14:12:57.807Z</time></trkpt><trkpt lat="44.4487087" lon="10.4112178"><ele>604.0</ele><time>2026-04-19T14:12:58.807Z</time></trkpt><trkpt lat="44.4488918" lon="10.4112183"><ele>604.0</ele><time>2026-04-19T14:12:59.805Z</time></trkpt><trkpt lat="44.4490717" lon="10.4112205"><ele>605.0</ele><time>2026-04-19T14:13:00.805Z</time></trkpt><trkpt lat="44.4492472" lon="10.4112272"><ele>606.0</ele><time>2026-04-19T14:13:01.805Z</time></trkpt><trkpt lat="44.4494163" lon="10.4112527"><ele>607.0</ele><time>2026-04-19T14:13:02.807Z</time></trkpt><trkpt lat="44.4495785" lon="10.4113043"><ele>597.3333333333334</ele><time>2026-04-19T14:13:03.806Z</time></trkpt><trkpt lat="44.4497413" lon="10.4113747"><ele>587.6666666666666</ele><time>2026-04-19T14:13:04.807Z</time></trkpt><trkpt lat="44.449905" lon="10.4114495"><ele>578.0</ele><time>2026-04-19T14:13:05.807Z</time></trkpt><trkpt lat="44.4500657" lon="10.411519"><ele>578.0</ele><time>2026-04-19T14:13:06.803Z</time></trkpt><trkpt lat="44.4502258" lon="10.4115687"><ele>578.0</ele><time>2026-04-19T14:13:07.806Z</time></trkpt><trkpt lat="44.4503835" lon="10.4115805"><ele>578.0</ele><time>2026-04-19T14:13:08.807Z</time></trkpt><trkpt lat="44.4505303" lon="10.411562"><ele>578.0</ele><time>2026-04-19T14:13:09.805Z</time></trkpt><trkpt lat="44.4506622" lon="10.4115347"><ele>578.0</ele><time>2026-04-19T14:13:10.804Z</time></trkpt><trkpt lat="44.4507747" lon="10.411523"><ele>578.0</ele><time>2026-04-19T14:13:11.806Z</time></trkpt><trkpt lat="44.4508667" lon="10.4115468"><ele>578.0</ele><time>2026-04-19T14:13:12.806Z</time></trkpt><trkpt lat="44.4509322" lon="10.411618"><ele>578.0</ele><time>2026-04-19T14:13:13.806Z</time></trkpt><trkpt lat="44.4509585" lon="10.4117225"><ele>578.0</ele><time>2026-04-19T14:13:14.806Z</time></trkpt><trkpt lat="44.4509413" lon="10.411835"><ele>578.0</ele><time>2026-04-19T14:13:15.805Z</time></trkpt><trkpt lat="44.4508785" lon="10.411929"><ele>578.0</ele><time>2026-04-19T14:13:16.804Z</time></trkpt><trkpt lat="44.4507753" lon="10.4119948"><ele>578.0</ele><time>2026-04-19T14:13:17.805Z</time></trkpt><trkpt lat="44.4506345" lon="10.4120493"><ele>578.0</ele><time>2026-04-19T14:13:18.806Z</time></trkpt><trkpt lat="44.4504823" lon="10.4121042"><ele>570.0</ele><time>2026-04-19T14:13:19.803Z</time></trkpt><trkpt lat="44.4503277" lon="10.4121632"><ele>562.0</ele><time>2026-04-19T14:13:20.806Z</time></trkpt><trkpt lat="44.4501693" lon="10.4122243"><ele>554.0</ele><time>2026-04-19T14:13:21.806Z</time></trkpt><trkpt lat="44.4500085" lon="10.4122843"><ele>554.0</ele><time>2026-04-19T14:13:22.808Z</time></trkpt><trkpt lat="44.4498508" lon="10.412343"><ele>554.0</ele><time>2026-04-19T14:13:23.807Z</time></trkpt><trkpt lat="44.4496982" lon="10.4124042"><ele>554.0</ele><time>2026-04-19T14:13:24.807Z</time></trkpt><trkpt lat="44.4495503" lon="10.4124642"><ele>555.0</ele><time>2026-04-19T14:13:25.806Z</time></trkpt><trkpt lat="44.4494053" lon="10.4125212"><ele>556.0</ele><time>2026-04-19T14:13:26.806Z</time></trkpt><trkpt lat="44.4492625" lon="10.412567"><ele>557.0</ele><time>2026-04-19T14:13:27.804Z</time></trkpt><trkpt lat="44.4491183" lon="10.412602"><ele>558.0</ele><time>2026-04-19T14:13:28.805Z</time></trkpt><trkpt lat="44.4489653" lon="10.4126262"><ele>558.0</ele><time>2026-04-19T14:13:29.807Z</time></trkpt><trkpt lat="44.4488022" lon="10.412638"><ele>558.0</ele><time>2026-04-19T14:13:30.805Z</time></trkpt><trkpt lat="44.4486347" lon="10.4126443"><ele>558.0</ele><time>2026-04-19T14:13:31.806Z</time></trkpt><trkpt lat="44.4484657" lon="10.4126497"><ele>556.3333333333334</ele><time>2026-04-19T14:13:32.806Z</time></trkpt><trkpt lat="44.4482995" lon="10.4126568"><ele>554.6666666666667</ele><time>2026-04-19T14:13:33.806Z</time></trkpt><trkpt lat="44.4481372" lon="10.4126642"><ele>553.0</ele><time>2026-04-19T14:13:34.806Z</time></trkpt><trkpt lat="44.4479805" lon="10.4126748"><ele>552.5</ele><time>2026-04-19T14:13:35.806Z</time></trkpt><trkpt lat="44.4478298" lon="10.412683"><ele>552.0</ele><time>2026-04-19T14:13:36.807Z</time></trkpt><trkpt lat="44.4476843" lon="10.4126887"><ele>551.5</ele><time>2026-04-19T14:13:37.81Z</time></trkpt><trkpt lat="44.447544" lon="10.4126938"><ele>551.0</ele><time>2026-04-19T14:13:38.809Z</time></trkpt><trkpt lat="44.4474082" lon="10.4127"><ele>551.0</ele><time>2026-04-19T14:13:39.806Z</time></trkpt><trkpt lat="44.4472697" lon="10.4127072"><ele>551.0</ele><time>2026-04-19T14:13:40.805Z</time></trkpt><trkpt lat="44.4471245" lon="10.4127135"><ele>551.0</ele><time>2026-04-19T14:13:41.804Z</time></trkpt><trkpt lat="44.446985" lon="10.4127167"><ele>551.0</ele><time>2026-04-19T14:13:42.805Z</time></trkpt><trkpt lat="44.4468595" lon="10.4127173"><ele>550.0</ele><time>2026-04-19T14:13:43.805Z</time></trkpt><trkpt lat="44.446748" lon="10.4127195"><ele>549.0</ele><time>2026-04-19T14:13:44.804Z</time></trkpt><trkpt lat="44.4466492" lon="10.4127348"><ele>548.0</ele><time>2026-04-19T14:13:45.806Z</time></trkpt><trkpt lat="44.4465673" lon="10.4127853"><ele>547.0</ele><time>2026-04-19T14:13:46.803Z</time></trkpt><trkpt lat="44.446512" lon="10.412876"><ele>546.0</ele><time>2026-04-19T14:13:47.806Z</time></trkpt><trkpt lat="44.4464958" lon="10.4129875"><ele>542.8</ele><time>2026-04-19T14:13:48.804Z</time></trkpt><trkpt lat="44.4465213" lon="10.4130883"><ele>539.6</ele><time>2026-04-19T14:13:49.805Z</time></trkpt><trkpt lat="44.4465838" lon="10.4131682"><ele>536.4</ele><time>2026-04-19T14:13:50.807Z</time></trkpt><trkpt lat="44.4466795" lon="10.413225"><ele>533.2</ele><time>2026-04-19T14:13:51.805Z</time></trkpt><trkpt lat="44.4467923" lon="10.4132648"><ele>530.0</ele><time>2026-04-19T14:13:52.804Z</time></trkpt><trkpt lat="44.446913" lon="10.4133073"><ele>530.0</ele><time>2026-04-19T14:13:53.807Z</time></trkpt><trkpt lat="44.4470412" lon="10.413356"><ele>530.0</ele><time>2026-04-19T14:13:54.808Z</time></trkpt><trkpt lat="44.4471822" lon="10.4134103"><ele>530.0</ele><time>2026-04-19T14:13:55.806Z</time></trkpt><trkpt lat="44.4473373" lon="10.4134678"><ele>530.0</ele><time>2026-04-19T14:13:56.805Z</time></trkpt><trkpt lat="44.4475057" lon="10.4135262"><ele>530.6666666666666</ele><time>2026-04-19T14:13:57.804Z</time></trkpt><trkpt lat="44.4476667" lon="10.413584"><ele>531.3333333333334</ele><time>2026-04-19T14:13:58.804Z</time></trkpt><trkpt lat="44.4478215" lon="10.4136405"><ele>532.0</ele><time>2026-04-19T14:13:59.804Z</time></trkpt><trkpt lat="44.44797" lon="10.4137007"><ele>533.5</ele><time>2026-04-19T14:14:00.803Z</time></trkpt><trkpt lat="44.4481125" lon="10.4137638"><ele>535.0</ele><time>2026-04-19T14:14:01.808Z</time></trkpt><trkpt lat="44.4482472" lon="10.4138353"><ele>536.5</ele><time>2026-04-19T14:14:02.807Z</time></trkpt><trkpt lat="44.4483732" lon="10.4139192"><ele>538.0</ele><time>2026-04-19T14:14:03.806Z</time></trkpt><trkpt lat="44.4484903" lon="10.4140053"><ele>535.5</ele><time>2026-04-19T14:14:04.806Z</time></trkpt><trkpt lat="44.4486027" lon="10.4140855"><ele>533.0</ele><time>2026-04-19T14:14:05.803Z</time></trkpt><trkpt lat="44.4487135" lon="10.414156"><ele>530.5</ele><time>2026-04-19T14:14:06.805Z</time></trkpt><trkpt lat="44.448824" lon="10.4142153"><ele>528.0</ele><time>2026-04-19T14:14:07.802Z</time></trkpt><trkpt lat="44.4489405" lon="10.4142615"><ele>528.0</ele><time>2026-04-19T14:14:08.806Z</time></trkpt><trkpt lat="44.449059" lon="10.4142947"><ele>528.0</ele><time>2026-04-19T14:14:09.807Z</time></trkpt><trkpt lat="44.449177" lon="10.4143207"><ele>528.0</ele><time>2026-04-19T14:14:10.807Z</time></trkpt><trkpt lat="44.4492895" lon="10.4143312"><ele>528.0</ele><time>2026-04-19T14:14:11.806Z</time></trkpt><trkpt lat="44.4494065" lon="10.4143142"><ele>528.0</ele><time>2026-04-19T14:14:12.809Z</time></trkpt><trkpt lat="44.4495385" lon="10.4142717"><ele>528.0</ele><time>2026-04-19T14:14:13.806Z</time></trkpt><trkpt lat="44.4496818" lon="10.4142127"><ele>528.0</ele><time>2026-04-19T14:14:14.806Z</time></trkpt><trkpt lat="44.4498312" lon="10.4141518"><ele>528.0</ele><time>2026-04-19T14:14:15.805Z</time></trkpt><trkpt lat="44.4499825" lon="10.4141018"><ele>524.3333333333334</ele><time>2026-04-19T14:14:16.803Z</time></trkpt><trkpt lat="44.4501367" lon="10.4140648"><ele>520.6666666666667</ele><time>2026-04-19T14:14:17.807Z</time></trkpt><trkpt lat="44.450287" lon="10.4140365"><ele>517.0</ele><time>2026-04-19T14:14:18.805Z</time></trkpt><trkpt lat="44.4504328" lon="10.4140128"><ele>515.25</ele><time>2026-04-19T14:14:19.806Z</time></trkpt><trkpt lat="44.4505743" lon="10.4139892"><ele>513.5</ele><time>2026-04-19T14:14:20.806Z</time></trkpt><trkpt lat="44.4507112" lon="10.4139578"><ele>511.75</ele><time>2026-04-19T14:14:21.804Z</time></trkpt><trkpt lat="44.4508453" lon="10.4139172"><ele>510.0</ele><time>2026-04-19T14:14:22.807Z</time></trkpt><trkpt lat="44.4509848" lon="10.4138695"><ele>510.0</ele><time>2026-04-19T14:14:23.805Z</time></trkpt><trkpt lat="44.4511292" lon="10.4138238"><ele>510.0</ele><time>2026-04-19T14:14:24.805Z</time></trkpt><trkpt lat="44.4512732" lon="10.4137878"><ele>510.0</ele><time>2026-04-19T14:14:25.804Z</time></trkpt><trkpt lat="44.4514145" lon="10.413767"><ele>510.0</ele><time>2026-04-19T14:14:26.805Z</time></trkpt><trkpt lat="44.4515535" lon="10.4137753"><ele>510.5</ele><time>2026-04-19T14:14:27.805Z</time></trkpt><trkpt lat="44.451691" lon="10.4138222"><ele>511.0</ele><time>2026-04-19T14:14:28.804Z</time></trkpt><trkpt lat="44.4518197" lon="10.4138892"><ele>511.5</ele><time>2026-04-19T14:14:29.803Z</time></trkpt><trkpt lat="44.4519427" lon="10.4139663"><ele>512.0</ele><time>2026-04-19T14:14:30.801Z</time></trkpt><trkpt lat="44.4520677" lon="10.4140355"><ele>511.0</ele><time>2026-04-19T14:14:31.8Z</time></trkpt><trkpt lat="44.4521982" lon="10.4140977"><ele>510.0</ele><time>2026-04-19T14:14:32.802Z</time></trkpt><trkpt lat="44.4523325" lon="10.4141463"><ele>509.0</ele><time>2026-04-19T14:14:33.805Z</time></trkpt><trkpt lat="44.4524717" lon="10.4141828"><ele>508.0</ele><time>2026-04-19T14:14:34.803Z</time></trkpt><trkpt lat="44.4526137" lon="10.4142137"><ele>508.0</ele><time>2026-04-19T14:14:35.803Z</time></trkpt><trkpt lat="44.4527518" lon="10.4142395"><ele>508.0</ele><time>2026-04-19T14:14:36.803Z</time></trkpt><trkpt lat="44.4528872" lon="10.4142585"><ele>508.0</ele><time>2026-04-19T14:14:37.804Z</time></trkpt><trkpt lat="44.4530253" lon="10.414253"><ele>508.0</ele><time>2026-04-19T14:14:38.804Z</time></trkpt><trkpt lat="44.4531667" lon="10.4142087"><ele>506.6666666666667</ele><time>2026-04-19T14:14:39.805Z</time></trkpt><trkpt lat="44.4533102" lon="10.4141337"><ele>505.33333333333337</ele><time>2026-04-19T14:14:40.804Z</time></trkpt><trkpt lat="44.4534573" lon="10.4140437"><ele>504.0</ele><time>2026-04-19T14:14:41.807Z</time></trkpt><trkpt lat="44.4536072" lon="10.4139463"><ele>504.0</ele><time>2026-04-19T14:14:42.806Z</time></trkpt><trkpt lat="44.4537535" lon="10.4138395"><ele>504.0</ele><time>2026-04-19T14:14:43.806Z</time></trkpt><trkpt lat="44.4538953" lon="10.4137187"><ele>504.0</ele><time>2026-04-19T14:14:44.805Z</time></trkpt><trkpt lat="44.4540353" lon="10.4135873"><ele>502.33333333333337</ele><time>2026-04-19T14:14:45.804Z</time></trkpt><trkpt lat="44.454178" lon="10.4134575"><ele>500.6666666666667</ele><time>2026-04-19T14:14:46.807Z</time></trkpt><trkpt lat="44.4543348" lon="10.4133172"><ele>499.0</ele><time>2026-04-19T14:14:47.804Z</time></trkpt><trkpt lat="44.4544953" lon="10.4131733"><ele>498.33333333333337</ele><time>2026-04-19T14:14:48.805Z</time></trkpt><trkpt lat="44.4546567" lon="10.4130265"><ele>497.66666666666663</ele><time>2026-04-19T14:14:49.807Z</time></trkpt><trkpt lat="44.4548188" lon="10.4128778"><ele>497.0</ele><time>2026-04-19T14:14:50.808Z</time></trkpt><trkpt lat="44.4549773" lon="10.4127307"><ele>496.3333333333333</ele><time>2026-04-19T14:14:51.807Z</time></trkpt><trkpt lat="44.45513" lon="10.4125875"><ele>495.66666666666663</ele><time>2026-04-19T14:14:52.807Z</time></trkpt><trkpt lat="44.4552765" lon="10.4124503"><ele>495.0</ele><time>2026-04-19T14:14:53.806Z</time></trkpt><trkpt lat="44.4554168" lon="10.4123207"><ele>494.75</ele><time>2026-04-19T14:14:54.805Z</time></trkpt><trkpt lat="44.4555485" lon="10.4122013"><ele>494.5</ele><time>2026-04-19T14:14:55.805Z</time></trkpt><trkpt lat="44.4556723" lon="10.4120902"><ele>494.25</ele><time>2026-04-19T14:14:56.809Z</time></trkpt><trkpt lat="44.4557902" lon="10.4119823"><ele>494.0</ele><time>2026-04-19T14:14:57.805Z</time></trkpt><trkpt lat="44.4559023" lon="10.4118748"><ele>493.0</ele><time>2026-04-19T14:14:58.808Z</time></trkpt><trkpt lat="44.4560153" lon="10.4117662"><ele>492.0</ele><time>2026-04-19T14:14:59.808Z</time></trkpt><trkpt lat="44.4561355" lon="10.4116548"><ele>491.0</ele><time>2026-04-19T14:15:00.806Z</time></trkpt><trkpt lat="44.4562678" lon="10.4115447"><ele>490.0</ele><time>2026-04-19T14:15:01.808Z</time></trkpt><trkpt lat="44.4564098" lon="10.4114458"><ele>490.0</ele><time>2026-04-19T14:15:02.809Z</time></trkpt><trkpt lat="44.4565532" lon="10.4113632"><ele>490.0</ele><time>2026-04-19T14:15:03.807Z</time></trkpt><trkpt lat="44.4566952" lon="10.4112905"><ele>490.0</ele><time>2026-04-19T14:15:04.808Z</time></trkpt><trkpt lat="44.4568405" lon="10.4112212"><ele>489.25</ele><time>2026-04-19T14:15:05.811Z</time></trkpt><trkpt lat="44.4569852" lon="10.4111538"><ele>488.5</ele><time>2026-04-19T14:15:06.807Z</time></trkpt><trkpt lat="44.4571238" lon="10.4110895"><ele>487.75</ele><time>2026-04-19T14:15:07.806Z</time></trkpt><trkpt lat="44.4572583" lon="10.4110292"><ele>487.0</ele><time>2026-04-19T14:15:08.808Z</time></trkpt><trkpt lat="44.4573955" lon="10.4109688"><ele>486.0</ele><time>2026-04-19T14:15:09.807Z</time></trkpt><trkpt lat="44.4575382" lon="10.4109073"><ele>485.0</ele><time>2026-04-19T14:15:10.807Z</time></trkpt><trkpt lat="44.457686" lon="10.4108455"><ele>484.0</ele><time>2026-04-19T14:15:11.809Z</time></trkpt><trkpt lat="44.4578413" lon="10.4107857"><ele>485.0</ele><time>2026-04-19T14:15:12.807Z</time></trkpt><trkpt lat="44.4580017" lon="10.4107262"><ele>486.0</ele><time>2026-04-19T14:15:13.807Z</time></trkpt><trkpt lat="44.4581672" lon="10.4106665"><ele>487.0</ele><time>2026-04-19T14:15:14.807Z</time></trkpt><trkpt lat="44.4583377" lon="10.4106063"><ele>487.0</ele><time>2026-04-19T14:15:15.806Z</time></trkpt><trkpt lat="44.4585105" lon="10.4105458"><ele>487.0</ele><time>2026-04-19T14:15:16.807Z</time></trkpt><trkpt lat="44.4586793" lon="10.410485"><ele>487.0</ele><time>2026-04-19T14:15:17.807Z</time></trkpt><trkpt lat="44.4588422" lon="10.4104262"><ele>489.6666666666667</ele><time>2026-04-19T14:15:18.805Z</time></trkpt><trkpt lat="44.4590032" lon="10.4103667"><ele>492.33333333333337</ele><time>2026-04-19T14:15:19.804Z</time></trkpt><trkpt lat="44.4591602" lon="10.410306"><ele>495.0</ele><time>2026-04-19T14:15:20.804Z</time></trkpt><trkpt lat="44.4593133" lon="10.4102465"><ele>495.0</ele><time>2026-04-19T14:15:21.803Z</time></trkpt><trkpt lat="44.4594638" lon="10.410192"><ele>495.0</ele><time>2026-04-19T14:15:22.804Z</time></trkpt><trkpt lat="44.4596155" lon="10.4101463"><ele>495.0</ele><time>2026-04-19T14:15:23.803Z</time></trkpt><trkpt lat="44.4597747" lon="10.4101077"><ele>493.66666666666663</ele><time>2026-04-19T14:15:24.803Z</time></trkpt><trkpt lat="44.4599415" lon="10.4100773"><ele>492.3333333333333</ele><time>2026-04-19T14:15:25.805Z</time></trkpt><trkpt lat="44.4601153" lon="10.4100517"><ele>491.0</ele><time>2026-04-19T14:15:26.804Z</time></trkpt><trkpt lat="44.4602957" lon="10.4100332"><ele>490.0</ele><time>2026-04-19T14:15:27.802Z</time></trkpt><trkpt lat="44.4604773" lon="10.4100232"><ele>489.0</ele><time>2026-04-19T14:15:28.804Z</time></trkpt><trkpt lat="44.46066" lon="10.410021"><ele>488.0</ele><time>2026-04-19T14:15:29.803Z</time></trkpt><trkpt lat="44.4608432" lon="10.4100288"><ele>488.0</ele><time>2026-04-19T14:15:30.804Z</time></trkpt><trkpt lat="44.461017" lon="10.4100317"><ele>488.0</ele><time>2026-04-19T14:15:31.801Z</time></trkpt><trkpt lat="44.461185" lon="10.4100422"><ele>488.0</ele><time>2026-04-19T14:15:32.803Z</time></trkpt><trkpt lat="44.4613467" lon="10.4100537"><ele>488.0</ele><time>2026-04-19T14:15:33.804Z</time></trkpt><trkpt lat="44.4615022" lon="10.4100683"><ele>488.0</ele><time>2026-04-19T14:15:34.803Z</time></trkpt><trkpt lat="44.4616525" lon="10.4100943"><ele>488.0</ele><time>2026-04-19T14:15:35.802Z</time></trkpt><trkpt lat="44.4618062" lon="10.4101388"><ele>488.0</ele><time>2026-04-19T14:15:36.804Z</time></trkpt><trkpt lat="44.4619622" lon="10.410202"><ele>488.0</ele><time>2026-04-19T14:15:37.801Z</time></trkpt><trkpt lat="44.4621158" lon="10.4102788"><ele>488.0</ele><time>2026-04-19T14:15:38.804Z</time></trkpt><trkpt lat="44.4622622" lon="10.4103592"><ele>487.66666666666663</ele><time>2026-04-19T14:15:39.805Z</time></trkpt><trkpt lat="44.4624015" lon="10.410439"><ele>487.33333333333337</ele><time>2026-04-19T14:15:40.804Z</time></trkpt><trkpt lat="44.4625362" lon="10.410528"><ele>487.0</ele><time>2026-04-19T14:15:41.804Z</time></trkpt><trkpt lat="44.4626655" lon="10.4106368"><ele>486.0</ele><time>2026-04-19T14:15:42.803Z</time></trkpt><trkpt lat="44.4627915" lon="10.4107613"><ele>485.0</ele><time>2026-04-19T14:15:43.803Z</time></trkpt><trkpt lat="44.4629158" lon="10.4108943"><ele>484.0</ele><time>2026-04-19T14:15:44.805Z</time></trkpt><trkpt lat="44.4630417" lon="10.4110268"><ele>484.0</ele><time>2026-04-19T14:15:45.802Z</time></trkpt><trkpt lat="44.4631763" lon="10.4111443"><ele>484.0</ele><time>2026-04-19T14:15:46.803Z</time></trkpt><trkpt lat="44.4633225" lon="10.4112443"><ele>484.0</ele><time>2026-04-19T14:15:47.805Z</time></trkpt><trkpt lat="44.4634742" lon="10.4113172"><ele>483.0</ele><time>2026-04-19T14:15:48.803Z</time></trkpt><trkpt lat="44.4636327" lon="10.4113638"><ele>482.0</ele><time>2026-04-19T14:15:49.804Z</time></trkpt><trkpt lat="44.463789" lon="10.411384"><ele>481.0</ele><time>2026-04-19T14:15:50.805Z</time></trkpt><trkpt lat="44.4639425" lon="10.4113872"><ele>481.0</ele><time>2026-04-19T14:15:51.801Z</time></trkpt><trkpt lat="44.4640827" lon="10.4113948"><ele>481.0</ele><time>2026-04-19T14:15:52.806Z</time></trkpt><trkpt lat="44.4642118" lon="10.4114432"><ele>481.0</ele><time>2026-04-19T14:15:53.805Z</time></trkpt><trkpt lat="44.4643325" lon="10.4115458"><ele>481.0</ele><time>2026-04-19T14:15:54.805Z</time></trkpt><trkpt lat="44.4644573" lon="10.4116915"><ele>481.0</ele><time>2026-04-19T14:15:55.805Z</time></trkpt><trkpt lat="44.4645918" lon="10.411859"><ele>481.0</ele><time>2026-04-19T14:15:56.805Z</time></trkpt><trkpt lat="44.4647412" lon="10.4120428"><ele>481.0</ele><time>2026-04-19T14:15:57.822Z</time></trkpt><trkpt lat="44.4648878" lon="10.4122283"><ele>478.6666666666667</ele><time>2026-04-19T14:15:58.807Z</time></trkpt><trkpt lat="44.4650292" lon="10.4124052"><ele>476.33333333333337</ele><time>2026-04-19T14:15:59.806Z</time></trkpt><trkpt lat="44.4651653" lon="10.4125733"><ele>474.0</ele><time>2026-04-19T14:16:00.806Z</time></trkpt><trkpt lat="44.465301" lon="10.4127257"><ele>474.0</ele><time>2026-04-19T14:16:01.805Z</time></trkpt><trkpt lat="44.4654413" lon="10.4128513"><ele>474.0</ele><time>2026-04-19T14:16:02.806Z</time></trkpt><trkpt lat="44.4655868" lon="10.4129487"><ele>474.0</ele><time>2026-04-19T14:16:03.807Z</time></trkpt><trkpt lat="44.4657337" lon="10.4130277"><ele>470.75</ele><time>2026-04-19T14:16:04.807Z</time></trkpt><trkpt lat="44.465876" lon="10.4130992"><ele>467.5</ele><time>2026-04-19T14:16:05.808Z</time></trkpt><trkpt lat="44.4660087" lon="10.4131772"><ele>464.25</ele><time>2026-04-19T14:16:06.805Z</time></trkpt><trkpt lat="44.4661265" lon="10.4132722"><ele>461.0</ele><time>2026-04-19T14:16:07.805Z</time></trkpt><trkpt lat="44.4662272" lon="10.4134043"><ele>462.0</ele><time>2026-04-19T14:16:08.806Z</time></trkpt><trkpt lat="44.4663022" lon="10.4135755"><ele>463.0</ele><time>2026-04-19T14:16:09.805Z</time></trkpt><trkpt lat="44.4663585" lon="10.4137802"><ele>464.0</ele><time>2026-04-19T14:16:10.804Z</time></trkpt><trkpt lat="44.4664043" lon="10.4139887"><ele>462.0</ele><time>2026-04-19T14:16:11.805Z</time></trkpt><trkpt lat="44.4664487" lon="10.4141885"><ele>460.0</ele><time>2026-04-19T14:16:12.807Z</time></trkpt><trkpt lat="44.4664988" lon="10.4143647"><ele>458.0</ele><time>2026-04-19T14:16:13.807Z</time></trkpt><trkpt lat="44.4665653" lon="10.4145083"><ele>456.0</ele><time>2026-04-19T14:16:14.808Z</time></trkpt><trkpt lat="44.4666523" lon="10.4146142"><ele>455.75</ele><time>2026-04-19T14:16:15.807Z</time></trkpt><trkpt lat="44.4667585" lon="10.4146883"><ele>455.5</ele><time>2026-04-19T14:16:16.807Z</time></trkpt><trkpt lat="44.4668753" lon="10.4147225"><ele>455.25</ele><time>2026-04-19T14:16:17.807Z</time></trkpt><trkpt lat="44.4670002" lon="10.4147122"><ele>455.0</ele><time>2026-04-19T14:16:18.807Z</time></trkpt><trkpt lat="44.4671278" lon="10.4146652"><ele>456.25</ele><time>2026-04-19T14:16:19.809Z</time></trkpt><trkpt lat="44.4672593" lon="10.4146068"><ele>457.5</ele><time>2026-04-19T14:16:20.808Z</time></trkpt><trkpt lat="44.4673923" lon="10.4145545"><ele>458.75</ele><time>2026-04-19T14:16:21.809Z</time></trkpt><trkpt lat="44.4675238" lon="10.4145155"><ele>460.0</ele><time>2026-04-19T14:16:22.806Z</time></trkpt><trkpt lat="44.4676597" lon="10.414492"><ele>460.0</ele><time>2026-04-19T14:16:23.807Z</time></trkpt><trkpt lat="44.4677972" lon="10.4144828"><ele>460.0</ele><time>2026-04-19T14:16:24.807Z</time></trkpt><trkpt lat="44.467929" lon="10.4144832"><ele>460.0</ele><time>2026-04-19T14:16:25.808Z</time></trkpt><trkpt lat="44.4680553" lon="10.4144885"><ele>460.0</ele><time>2026-04-19T14:16:26.808Z</time></trkpt><trkpt lat="44.4681778" lon="10.4145073"><ele>458.5</ele><time>2026-04-19T14:16:27.81Z</time></trkpt><trkpt lat="44.4682997" lon="10.4145467"><ele>457.0</ele><time>2026-04-19T14:16:28.807Z</time></trkpt><trkpt lat="44.468422" lon="10.4146062"><ele>455.5</ele><time>2026-04-19T14:16:29.809Z</time></trkpt><trkpt lat="44.4685393" lon="10.4146673"><ele>454.0</ele><time>2026-04-19T14:16:30.807Z</time></trkpt><trkpt lat="44.46865" lon="10.4147255"><ele>453.0</ele><time>2026-04-19T14:16:31.808Z</time></trkpt><trkpt lat="44.4687553" lon="10.4147813"><ele>452.0</ele><time>2026-04-19T14:16:32.806Z</time></trkpt><trkpt lat="44.468861" lon="10.4148328"><ele>451.0</ele><time>2026-04-19T14:16:33.807Z</time></trkpt><trkpt lat="44.4689698" lon="10.4148772"><ele>450.0</ele><time>2026-04-19T14:16:34.806Z</time></trkpt><trkpt lat="44.4690825" lon="10.414906"><ele>449.25</ele><time>2026-04-19T14:16:35.807Z</time></trkpt><trkpt lat="44.4692033" lon="10.414923"><ele>448.5</ele><time>2026-04-19T14:16:36.807Z</time></trkpt><trkpt lat="44.4693353" lon="10.4149353"><ele>447.75</ele><time>2026-04-19T14:16:37.809Z</time></trkpt><trkpt lat="44.4694765" lon="10.4149455"><ele>447.0</ele><time>2026-04-19T14:16:38.808Z</time></trkpt><trkpt lat="44.4696218" lon="10.4149558"><ele>446.75</ele><time>2026-04-19T14:16:39.808Z</time></trkpt><trkpt lat="44.4697705" lon="10.4149687"><ele>446.5</ele><time>2026-04-19T14:16:40.807Z</time></trkpt><trkpt lat="44.4699132" lon="10.4149815"><ele>446.25</ele><time>2026-04-19T14:16:41.809Z</time></trkpt><trkpt lat="44.47005" lon="10.4149925"><ele>446.0</ele><time>2026-04-19T14:16:42.807Z</time></trkpt><trkpt lat="44.470182" lon="10.4150002"><ele>446.0</ele><time>2026-04-19T14:16:43.807Z</time></trkpt><trkpt lat="44.470314" lon="10.415009"><ele>446.0</ele><time>2026-04-19T14:16:44.807Z</time></trkpt><trkpt lat="44.4704497" lon="10.4150218"><ele>446.0</ele><time>2026-04-19T14:16:45.807Z</time></trkpt><trkpt lat="44.4705878" lon="10.4150363"><ele>446.0</ele><time>2026-04-19T14:16:46.808Z</time></trkpt><trkpt lat="44.470727" lon="10.4150498"><ele>446.75</ele><time>2026-04-19T14:16:47.808Z</time></trkpt><trkpt lat="44.4708658" lon="10.4150633"><ele>447.5</ele><time>2026-04-19T14:16:48.807Z</time></trkpt><trkpt lat="44.4710092" lon="10.4150802"><ele>448.25</ele><time>2026-04-19T14:16:49.81Z</time></trkpt><trkpt lat="44.471156" lon="10.4151048"><ele>449.0</ele><time>2026-04-19T14:16:50.808Z</time></trkpt><trkpt lat="44.4713027" lon="10.4151472"><ele>450.5</ele><time>2026-04-19T14:16:51.807Z</time></trkpt><trkpt lat="44.4714417" lon="10.4152142"><ele>452.0</ele><time>2026-04-19T14:16:52.808Z</time></trkpt><trkpt lat="44.471572" lon="10.4152912"><ele>453.5</ele><time>2026-04-19T14:16:53.808Z</time></trkpt><trkpt lat="44.471707" lon="10.4153437"><ele>455.0</ele><time>2026-04-19T14:16:54.807Z</time></trkpt><trkpt lat="44.4718605" lon="10.4153522"><ele>455.0</ele><time>2026-04-19T14:16:55.806Z</time></trkpt><trkpt lat="44.4720278" lon="10.4153337"><ele>455.0</ele><time>2026-04-19T14:16:56.805Z</time></trkpt><trkpt lat="44.4722013" lon="10.41531"><ele>455.0</ele><time>2026-04-19T14:16:57.802Z</time></trkpt><trkpt lat="44.472368" lon="10.4152885"><ele>454.66666666666663</ele><time>2026-04-19T14:16:58.802Z</time></trkpt><trkpt lat="44.4725337" lon="10.4152707"><ele>454.33333333333337</ele><time>2026-04-19T14:16:59.803Z</time></trkpt><trkpt lat="44.4726995" lon="10.415252"><ele>454.0</ele><time>2026-04-19T14:17:00.805Z</time></trkpt><trkpt lat="44.4728595" lon="10.415241"><ele>454.5</ele><time>2026-04-19T14:17:01.806Z</time></trkpt><trkpt lat="44.4730055" lon="10.415247"><ele>455.0</ele><time>2026-04-19T14:17:02.807Z</time></trkpt><trkpt lat="44.4731405" lon="10.4152753"><ele>455.5</ele><time>2026-04-19T14:17:03.804Z</time></trkpt><trkpt lat="44.4732755" lon="10.4153278"><ele>456.0</ele><time>2026-04-19T14:17:04.808Z</time></trkpt><trkpt lat="44.4734112" lon="10.4154033"><ele>456.0</ele><time>2026-04-19T14:17:05.807Z</time></trkpt><trkpt lat="44.4735492" lon="10.4155045"><ele>456.0</ele><time>2026-04-19T14:17:06.804Z</time></trkpt><trkpt lat="44.4736932" lon="10.4156265"><ele>456.0</ele><time>2026-04-19T14:17:07.806Z</time></trkpt><trkpt lat="44.4738388" lon="10.4157443"><ele>452.5</ele><time>2026-04-19T14:17:08.806Z</time></trkpt><trkpt lat="44.4739788" lon="10.4158523"><ele>449.0</ele><time>2026-04-19T14:17:09.804Z</time></trkpt><trkpt lat="44.4741027" lon="10.4159505"><ele>445.5</ele><time>2026-04-19T14:17:10.808Z</time></trkpt><trkpt lat="44.4742113" lon="10.416035"><ele>442.0</ele><time>2026-04-19T14:17:11.807Z</time></trkpt><trkpt lat="44.474305" lon="10.4160907"><ele>442.00000000000006</ele><time>2026-04-19T14:17:12.807Z</time></trkpt><trkpt lat="44.4743885" lon="10.4161188"><ele>442.0</ele><time>2026-04-19T14:17:13.806Z</time></trkpt><trkpt lat="44.4744637" lon="10.416133"><ele>442.0</ele><time>2026-04-19T14:17:14.807Z</time></trkpt><trkpt lat="44.4745238" lon="10.4161645"><ele>442.0</ele><time>2026-04-19T14:17:15.806Z</time></trkpt><trkpt lat="44.4745697" lon="10.4162338"><ele>442.00000000000006</ele><time>2026-04-19T14:17:16.808Z</time></trkpt><trkpt lat="44.4745978" lon="10.4163523"><ele>442.0</ele><time>2026-04-19T14:17:17.808Z</time></trkpt><trkpt lat="44.474608" lon="10.4164935"><ele>440.0</ele><time>2026-04-19T14:17:18.808Z</time></trkpt><trkpt lat="44.4746162" lon="10.416654"><ele>438.0</ele><time>2026-04-19T14:17:19.806Z</time></trkpt><trkpt lat="44.4746272" lon="10.4168243"><ele>436.0</ele><time>2026-04-19T14:17:20.806Z</time></trkpt><trkpt lat="44.4746352" lon="10.4169823"><ele>434.0</ele><time>2026-04-19T14:17:21.802Z</time></trkpt><trkpt lat="44.474633" lon="10.4171273"><ele>435.66666666666663</ele><time>2026-04-19T14:17:22.802Z</time></trkpt><trkpt lat="44.4746082" lon="10.4172513"><ele>437.3333333333333</ele><time>2026-04-19T14:17:23.804Z</time></trkpt><trkpt lat="44.4745825" lon="10.4173585"><ele>439.0</ele><time>2026-04-19T14:17:24.803Z</time></trkpt><trkpt lat="44.4745858" lon="10.4174622"><ele>440.66666666666663</ele><time>2026-04-19T14:17:25.805Z</time></trkpt><trkpt lat="44.4746278" lon="10.4175615"><ele>442.3333333333333</ele><time>2026-04-19T14:17:26.806Z</time></trkpt><trkpt lat="44.474688" lon="10.4176422"><ele>444.0</ele><time>2026-04-19T14:17:27.804Z</time></trkpt><trkpt lat="44.4747405" lon="10.4177243"><ele>444.0</ele><time>2026-04-19T14:17:28.805Z</time></trkpt><trkpt lat="44.4747673" lon="10.4178253"><ele>444.0</ele><time>2026-04-19T14:17:29.806Z</time></trkpt><trkpt lat="44.474758" lon="10.4179373"><ele>444.0</ele><time>2026-04-19T14:17:30.805Z</time></trkpt><trkpt lat="44.4747115" lon="10.4180337"><ele>444.0</ele><time>2026-04-19T14:17:31.806Z</time></trkpt><trkpt lat="44.4746327" lon="10.4181047"><ele>444.0</ele><time>2026-04-19T14:17:32.806Z</time></trkpt><trkpt lat="44.4745235" lon="10.4181545"><ele>444.0</ele><time>2026-04-19T14:17:33.806Z</time></trkpt><trkpt lat="44.4743895" lon="10.4182043"><ele>444.25</ele><time>2026-04-19T14:17:34.803Z</time></trkpt><trkpt lat="44.4742462" lon="10.4182568"><ele>444.5</ele><time>2026-04-19T14:17:35.804Z</time></trkpt><trkpt lat="44.4741122" lon="10.4183178"><ele>444.75</ele><time>2026-04-19T14:17:36.804Z</time></trkpt><trkpt lat="44.473978" lon="10.4183887"><ele>445.0</ele><time>2026-04-19T14:17:37.805Z</time></trkpt><trkpt lat="44.4738483" lon="10.4184592"><ele>446.75</ele><time>2026-04-19T14:17:38.804Z</time></trkpt><trkpt lat="44.4737285" lon="10.4185278"><ele>448.5</ele><time>2026-04-19T14:17:39.803Z</time></trkpt><trkpt lat="44.4736268" lon="10.4186092"><ele>450.25</ele><time>2026-04-19T14:17:40.804Z</time></trkpt><trkpt lat="44.4735645" lon="10.41872"><ele>452.0</ele><time>2026-04-19T14:17:41.806Z</time></trkpt><trkpt lat="44.4735293" lon="10.4188592"><ele>452.0</ele><time>2026-04-19T14:17:42.804Z</time></trkpt><trkpt lat="44.4735362" lon="10.4190245"><ele>452.0</ele><time>2026-04-19T14:17:43.803Z</time></trkpt><trkpt lat="44.4735725" lon="10.4192053"><ele>452.0</ele><time>2026-04-19T14:17:44.805Z</time></trkpt><trkpt lat="44.4736152" lon="10.4193798"><ele>452.0</ele><time>2026-04-19T14:17:45.804Z</time></trkpt><trkpt lat="44.4736518" lon="10.419545"><ele>451.25</ele><time>2026-04-19T14:17:46.801Z</time></trkpt><trkpt lat="44.4736725" lon="10.4197027"><ele>450.5</ele><time>2026-04-19T14:17:47.803Z</time></trkpt><trkpt lat="44.4736658" lon="10.4198592"><ele>449.75</ele><time>2026-04-19T14:17:48.802Z</time></trkpt><trkpt lat="44.4736183" lon="10.4200138"><ele>449.0</ele><time>2026-04-19T14:17:49.804Z</time></trkpt><trkpt lat="44.4735323" lon="10.4201592"><ele>449.0</ele><time>2026-04-19T14:17:50.807Z</time></trkpt><trkpt lat="44.4734353" lon="10.4202937"><ele>449.0</ele><time>2026-04-19T14:17:51.804Z</time></trkpt><trkpt lat="44.4733485" lon="10.42042"><ele>449.0</ele><time>2026-04-19T14:17:52.806Z</time></trkpt><trkpt lat="44.473271" lon="10.4205557"><ele>449.0</ele><time>2026-04-19T14:17:53.805Z</time></trkpt><trkpt lat="44.4732173" lon="10.4207028"><ele>448.4</ele><time>2026-04-19T14:17:54.807Z</time></trkpt><trkpt lat="44.473187" lon="10.4208505"><ele>447.79999999999995</ele><time>2026-04-19T14:17:55.805Z</time></trkpt><trkpt lat="44.4731637" lon="10.4209922"><ele>447.20000000000005</ele><time>2026-04-19T14:17:56.806Z</time></trkpt><trkpt lat="44.4731493" lon="10.4211277"><ele>446.6</ele><time>2026-04-19T14:17:57.805Z</time></trkpt><trkpt lat="44.4731498" lon="10.4212573"><ele>446.0</ele><time>2026-04-19T14:17:58.806Z</time></trkpt><trkpt lat="44.4731753" lon="10.4213788"><ele>445.8</ele><time>2026-04-19T14:17:59.807Z</time></trkpt><trkpt lat="44.4732323" lon="10.4214747"><ele>445.6</ele><time>2026-04-19T14:18:00.806Z</time></trkpt><trkpt lat="44.4733062" lon="10.421552"><ele>445.4</ele><time>2026-04-19T14:18:01.809Z</time></trkpt><trkpt lat="44.4733933" lon="10.4216347"><ele>445.2</ele><time>2026-04-19T14:18:02.81Z</time></trkpt><trkpt lat="44.4734783" lon="10.4217313"><ele>445.0</ele><time>2026-04-19T14:18:03.807Z</time></trkpt><trkpt lat="44.4735482" lon="10.4218523"><ele>445.0</ele><time>2026-04-19T14:18:04.808Z</time></trkpt><trkpt lat="44.4735907" lon="10.4219985"><ele>445.0</ele><time>2026-04-19T14:18:05.81Z</time></trkpt><trkpt lat="44.4736093" lon="10.4221607"><ele>445.0</ele><time>2026-04-19T14:18:06.807Z</time></trkpt><trkpt lat="44.4736185" lon="10.4223233"><ele>445.0</ele><time>2026-04-19T14:18:07.81Z</time></trkpt><trkpt lat="44.4736258" lon="10.4224822"><ele>445.8</ele><time>2026-04-19T14:18:08.807Z</time></trkpt><trkpt lat="44.473635" lon="10.4226388"><ele>446.6</ele><time>2026-04-19T14:18:09.807Z</time></trkpt><trkpt lat="44.4736452" lon="10.422786"><ele>447.4</ele><time>2026-04-19T14:18:10.805Z</time></trkpt><trkpt lat="44.4736543" lon="10.4229202"><ele>448.2</ele><time>2026-04-19T14:18:11.805Z</time></trkpt><trkpt lat="44.4736593" lon="10.4230398"><ele>449.0</ele><time>2026-04-19T14:18:12.805Z</time></trkpt><trkpt lat="44.4736507" lon="10.4231455"><ele>450.79999999999995</ele><time>2026-04-19T14:18:13.806Z</time></trkpt><trkpt lat="44.4736148" lon="10.423237"><ele>452.59999999999997</ele><time>2026-04-19T14:18:14.808Z</time></trkpt><trkpt lat="44.4735472" lon="10.423301"><ele>454.4</ele><time>2026-04-19T14:18:15.807Z</time></trkpt><trkpt lat="44.4734527" lon="10.4233268"><ele>456.2</ele><time>2026-04-19T14:18:16.807Z</time></trkpt><trkpt lat="44.4733415" lon="10.4233225"><ele>458.0</ele><time>2026-04-19T14:18:17.808Z</time></trkpt><trkpt lat="44.4732317" lon="10.4233232"><ele>457.99999999999994</ele><time>2026-04-19T14:18:18.809Z</time></trkpt><trkpt lat="44.4731458" lon="10.4233515"><ele>458.0</ele><time>2026-04-19T14:18:19.806Z</time></trkpt><trkpt lat="44.4730988" lon="10.4234133"><ele>458.0</ele><time>2026-04-19T14:18:20.807Z</time></trkpt><trkpt lat="44.473135" lon="10.4235668"><ele>458.0</ele><time>2026-04-19T14:18:22.807Z</time></trkpt><trkpt lat="44.473205" lon="10.4236128"><ele>457.99999999999994</ele><time>2026-04-19T14:18:23.806Z</time></trkpt><trkpt lat="44.4732998" lon="10.4236567"><ele>458.0</ele><time>2026-04-19T14:18:24.804Z</time></trkpt><trkpt lat="44.4733823" lon="10.4237095"><ele>457.99999999999994</ele><time>2026-04-19T14:18:25.806Z</time></trkpt><trkpt lat="44.4734357" lon="10.4237835"><ele>458.0</ele><time>2026-04-19T14:18:26.809Z</time></trkpt><trkpt lat="44.4734467" lon="10.423871"><ele>458.0</ele><time>2026-04-19T14:18:27.81Z</time></trkpt><trkpt lat="44.473356" lon="10.423965"><ele>458.0</ele><time>2026-04-19T14:18:29.807Z</time></trkpt><trkpt lat="44.4732713" lon="10.4239482"><ele>457.99999999999994</ele><time>2026-04-19T14:18:30.805Z</time></trkpt><trkpt lat="44.4731858" lon="10.4239108"><ele>458.0</ele><time>2026-04-19T14:18:31.808Z</time></trkpt><trkpt lat="44.4731078" lon="10.4238845"><ele>460.79999999999995</ele><time>2026-04-19T14:18:32.807Z</time></trkpt><trkpt lat="44.4730437" lon="10.4238898"><ele>463.59999999999997</ele><time>2026-04-19T14:18:33.806Z</time></trkpt><trkpt lat="44.4729937" lon="10.424015"><ele>466.40000000000003</ele><time>2026-04-19T14:18:35.805Z</time></trkpt><trkpt lat="44.4730975" lon="10.4241428"><ele>469.20000000000005</ele><time>2026-04-19T14:18:37.805Z</time></trkpt><trkpt lat="44.4731943" lon="10.4241905"><ele>472.0</ele><time>2026-04-19T14:18:38.805Z</time></trkpt><trkpt lat="44.4732945" lon="10.4242375"><ele>472.0</ele><time>2026-04-19T14:18:39.805Z</time></trkpt><trkpt lat="44.4733808" lon="10.4243022"><ele>472.0</ele><time>2026-04-19T14:18:40.808Z</time></trkpt><trkpt lat="44.4734627" lon="10.4244177"><ele>472.0</ele><time>2026-04-19T14:18:41.808Z</time></trkpt><trkpt lat="44.4735493" lon="10.4245762"><ele>472.0</ele><time>2026-04-19T14:18:42.805Z</time></trkpt><trkpt lat="44.4736507" lon="10.4247363"><ele>474.0</ele><time>2026-04-19T14:18:43.806Z</time></trkpt><trkpt lat="44.4737717" lon="10.4248772"><ele>476.0</ele><time>2026-04-19T14:18:44.806Z</time></trkpt><trkpt lat="44.4738888" lon="10.4250043"><ele>478.0</ele><time>2026-04-19T14:18:45.804Z</time></trkpt><trkpt lat="44.4739885" lon="10.4251278"><ele>480.0</ele><time>2026-04-19T14:18:46.804Z</time></trkpt><trkpt lat="44.4740627" lon="10.4252542"><ele>480.0</ele><time>2026-04-19T14:18:47.808Z</time></trkpt><trkpt lat="44.4741252" lon="10.4253712"><ele>480.0</ele><time>2026-04-19T14:18:48.804Z</time></trkpt><trkpt lat="44.4741963" lon="10.4254442"><ele>480.0</ele><time>2026-04-19T14:18:49.805Z</time></trkpt><trkpt lat="44.4742798" lon="10.4254655"><ele>480.0</ele><time>2026-04-19T14:18:50.807Z</time></trkpt><trkpt lat="44.4743645" lon="10.4254713"><ele>480.0</ele><time>2026-04-19T14:18:51.806Z</time></trkpt><trkpt lat="44.474435" lon="10.4255185"><ele>480.0</ele><time>2026-04-19T14:18:52.808Z</time></trkpt><trkpt lat="44.4744902" lon="10.425621"><ele>484.5</ele><time>2026-04-19T14:18:53.809Z</time></trkpt><trkpt lat="44.4745233" lon="10.4257697"><ele>489.0</ele><time>2026-04-19T14:18:54.808Z</time></trkpt><trkpt lat="44.4745262" lon="10.4259385"><ele>493.5</ele><time>2026-04-19T14:18:55.806Z</time></trkpt><trkpt lat="44.4745042" lon="10.4261178"><ele>498.0</ele><time>2026-04-19T14:18:56.807Z</time></trkpt><trkpt lat="44.4744875" lon="10.4262742"><ele>498.6666666666667</ele><time>2026-04-19T14:18:57.805Z</time></trkpt><trkpt lat="44.4745008" lon="10.4264145"><ele>499.33333333333337</ele><time>2026-04-19T14:18:58.805Z</time></trkpt><trkpt lat="44.4745402" lon="10.4265273"><ele>500.0</ele><time>2026-04-19T14:18:59.805Z</time></trkpt><trkpt lat="44.4746038" lon="10.4266012"><ele>500.6666666666667</ele><time>2026-04-19T14:19:00.804Z</time></trkpt><trkpt lat="44.474682" lon="10.4266508"><ele>501.33333333333337</ele><time>2026-04-19T14:19:01.804Z</time></trkpt><trkpt lat="44.4747498" lon="10.4266977"><ele>502.0</ele><time>2026-04-19T14:19:02.808Z</time></trkpt><trkpt lat="44.4747907" lon="10.4267667"><ele>502.00000000000006</ele><time>2026-04-19T14:19:03.808Z</time></trkpt><trkpt lat="44.4747955" lon="10.4268625"><ele>502.0</ele><time>2026-04-19T14:19:04.805Z</time></trkpt><trkpt lat="44.4747555" lon="10.4269502"><ele>502.0</ele><time>2026-04-19T14:19:05.807Z</time></trkpt><trkpt lat="44.4746785" lon="10.426992"><ele>502.0</ele><time>2026-04-19T14:19:06.806Z</time></trkpt><trkpt lat="44.4745765" lon="10.427019"><ele>502.00000000000006</ele><time>2026-04-19T14:19:07.806Z</time></trkpt><trkpt lat="44.4744753" lon="10.4270815"><ele>502.0</ele><time>2026-04-19T14:19:08.806Z</time></trkpt><trkpt lat="44.4743767" lon="10.427199"><ele>503.25</ele><time>2026-04-19T14:19:09.808Z</time></trkpt><trkpt lat="44.4742903" lon="10.4273405"><ele>504.5</ele><time>2026-04-19T14:19:10.807Z</time></trkpt><trkpt lat="44.474225" lon="10.4274917"><ele>505.75</ele><time>2026-04-19T14:19:11.809Z</time></trkpt><trkpt lat="44.4741823" lon="10.4276593"><ele>507.0</ele><time>2026-04-19T14:19:12.808Z</time></trkpt><trkpt lat="44.4741562" lon="10.427847"><ele>508.25</ele><time>2026-04-19T14:19:13.809Z</time></trkpt><trkpt lat="44.4741345" lon="10.4280262"><ele>509.5</ele><time>2026-04-19T14:19:14.811Z</time></trkpt><trkpt lat="44.4741133" lon="10.4282047"><ele>510.75</ele><time>2026-04-19T14:19:15.809Z</time></trkpt><trkpt lat="44.4740995" lon="10.4283753"><ele>512.0</ele><time>2026-04-19T14:19:16.809Z</time></trkpt><trkpt lat="44.4741092" lon="10.4285418"><ele>512.0</ele><time>2026-04-19T14:19:17.81Z</time></trkpt><trkpt lat="44.4741423" lon="10.428702"><ele>512.0</ele><time>2026-04-19T14:19:18.811Z</time></trkpt><trkpt lat="44.4741865" lon="10.4288588"><ele>512.0</ele><time>2026-04-19T14:19:19.81Z</time></trkpt><trkpt lat="44.4742228" lon="10.4290187"><ele>512.0</ele><time>2026-04-19T14:19:20.808Z</time></trkpt><trkpt lat="44.4742282" lon="10.4291847"><ele>513.5</ele><time>2026-04-19T14:19:21.808Z</time></trkpt><trkpt lat="44.4741963" lon="10.429349"><ele>515.0</ele><time>2026-04-19T14:19:22.805Z</time></trkpt><trkpt lat="44.4741433" lon="10.4295195"><ele>516.5</ele><time>2026-04-19T14:19:23.805Z</time></trkpt><trkpt lat="44.4740835" lon="10.429692"><ele>518.0</ele><time>2026-04-19T14:19:24.808Z</time></trkpt><trkpt lat="44.4740253" lon="10.429869"><ele>520.5</ele><time>2026-04-19T14:19:25.806Z</time></trkpt><trkpt lat="44.4739708" lon="10.4300513"><ele>523.0</ele><time>2026-04-19T14:19:26.806Z</time></trkpt><trkpt lat="44.4739202" lon="10.4302217"><ele>525.5</ele><time>2026-04-19T14:19:27.807Z</time></trkpt><trkpt lat="44.473875" lon="10.4303695"><ele>528.0</ele><time>2026-04-19T14:19:28.808Z</time></trkpt><trkpt lat="44.4738378" lon="10.4304908"><ele>530.4</ele><time>2026-04-19T14:19:29.809Z</time></trkpt><trkpt lat="44.4738215" lon="10.4305965"><ele>532.8</ele><time>2026-04-19T14:19:30.808Z</time></trkpt><trkpt lat="44.4738908" lon="10.4307223"><ele>535.2</ele><time>2026-04-19T14:19:32.809Z</time></trkpt><trkpt lat="44.4739583" lon="10.4307077"><ele>537.6</ele><time>2026-04-19T14:19:33.807Z</time></trkpt><trkpt lat="44.4740333" lon="10.4306385"><ele>540.0</ele><time>2026-04-19T14:19:34.809Z</time></trkpt><trkpt lat="44.4741147" lon="10.4305312"><ele>537.0</ele><time>2026-04-19T14:19:35.808Z</time></trkpt><trkpt lat="44.4742082" lon="10.4303995"><ele>534.0</ele><time>2026-04-19T14:19:36.808Z</time></trkpt><trkpt lat="44.4742957" lon="10.4302718"><ele>531.0</ele><time>2026-04-19T14:19:37.81Z</time></trkpt><trkpt lat="44.4743735" lon="10.4301618"><ele>528.0</ele><time>2026-04-19T14:19:38.811Z</time></trkpt><trkpt lat="44.4744527" lon="10.4300793"><ele>528.0</ele><time>2026-04-19T14:19:39.809Z</time></trkpt><trkpt lat="44.474551" lon="10.4300252"><ele>528.0</ele><time>2026-04-19T14:19:40.81Z</time></trkpt><trkpt lat="44.4746715" lon="10.4300112"><ele>528.0</ele><time>2026-04-19T14:19:41.809Z</time></trkpt><trkpt lat="44.4748098" lon="10.4300273"><ele>528.0</ele><time>2026-04-19T14:19:42.809Z</time></trkpt><trkpt lat="44.4749635" lon="10.4300582"><ele>531.75</ele><time>2026-04-19T14:19:43.81Z</time></trkpt><trkpt lat="44.4751138" lon="10.4301088"><ele>535.5</ele><time>2026-04-19T14:19:44.81Z</time></trkpt><trkpt lat="44.4752507" lon="10.4301842"><ele>539.25</ele><time>2026-04-19T14:19:45.813Z</time></trkpt><trkpt lat="44.4753852" lon="10.430256"><ele>543.0</ele><time>2026-04-19T14:19:46.808Z</time></trkpt><trkpt lat="44.4755207" lon="10.430294"><ele>544.0</ele><time>2026-04-19T14:19:47.811Z</time></trkpt><trkpt lat="44.4756482" lon="10.430311"><ele>545.0</ele><time>2026-04-19T14:19:48.807Z</time></trkpt><trkpt lat="44.4757598" lon="10.4303272"><ele>546.0</ele><time>2026-04-19T14:19:49.807Z</time></trkpt><trkpt lat="44.4758455" lon="10.4303678"><ele>547.0</ele><time>2026-04-19T14:19:50.808Z</time></trkpt><trkpt lat="44.475905" lon="10.4304477"><ele>548.0</ele><time>2026-04-19T14:19:51.808Z</time></trkpt><trkpt lat="44.4759395" lon="10.430569"><ele>550.0</ele><time>2026-04-19T14:19:52.808Z</time></trkpt><trkpt lat="44.4759622" lon="10.4307223"><ele>552.0</ele><time>2026-04-19T14:19:53.81Z</time></trkpt><trkpt lat="44.475994" lon="10.4308922"><ele>554.0</ele><time>2026-04-19T14:19:54.809Z</time></trkpt><trkpt lat="44.476034" lon="10.4310672"><ele>556.0</ele><time>2026-04-19T14:19:55.811Z</time></trkpt><trkpt lat="44.4760738" lon="10.4312353"><ele>556.8333333333334</ele><time>2026-04-19T14:19:56.809Z</time></trkpt><trkpt lat="44.4761092" lon="10.4313852"><ele>557.6666666666667</ele><time>2026-04-19T14:19:57.809Z</time></trkpt><trkpt lat="44.4761422" lon="10.431514"><ele>558.5</ele><time>2026-04-19T14:19:58.813Z</time></trkpt><trkpt lat="44.4761693" lon="10.4316172"><ele>559.3333333333334</ele><time>2026-04-19T14:19:59.809Z</time></trkpt><trkpt lat="44.4761817" lon="10.4317075"><ele>560.1666666666666</ele><time>2026-04-19T14:20:00.808Z</time></trkpt><trkpt lat="44.4761685" lon="10.4318008"><ele>561.0</ele><time>2026-04-19T14:20:01.81Z</time></trkpt><trkpt lat="44.4761223" lon="10.431895"><ele>561.0</ele><time>2026-04-19T14:20:02.81Z</time></trkpt><trkpt lat="44.476053" lon="10.4319945"><ele>561.0</ele><time>2026-04-19T14:20:03.809Z</time></trkpt><trkpt lat="44.4759718" lon="10.43211"><ele>561.0</ele><time>2026-04-19T14:20:04.81Z</time></trkpt><trkpt lat="44.4758863" lon="10.4322122"><ele>561.0</ele><time>2026-04-19T14:20:05.81Z</time></trkpt><trkpt lat="44.475789" lon="10.4322828"><ele>561.0</ele><time>2026-04-19T14:20:06.808Z</time></trkpt><trkpt lat="44.4756725" lon="10.4323157"><ele>562.8</ele><time>2026-04-19T14:20:07.811Z</time></trkpt><trkpt lat="44.4755438" lon="10.4323223"><ele>564.6</ele><time>2026-04-19T14:20:08.81Z</time></trkpt><trkpt lat="44.4754237" lon="10.4323227"><ele>566.4</ele><time>2026-04-19T14:20:09.808Z</time></trkpt><trkpt lat="44.4753212" lon="10.4323398"><ele>568.2</ele><time>2026-04-19T14:20:10.813Z</time></trkpt><trkpt lat="44.4752443" lon="10.4323915"><ele>570.0</ele><time>2026-04-19T14:20:11.808Z</time></trkpt><trkpt lat="44.4752077" lon="10.432473"><ele>570.0</ele><time>2026-04-19T14:20:12.807Z</time></trkpt><trkpt lat="44.4752163" lon="10.4325657"><ele>570.0</ele><time>2026-04-19T14:20:13.807Z</time></trkpt><trkpt lat="44.4752672" lon="10.432654"><ele>570.0</ele><time>2026-04-19T14:20:14.808Z</time></trkpt><trkpt lat="44.4753492" lon="10.4327303"><ele>570.0</ele><time>2026-04-19T14:20:15.808Z</time></trkpt><trkpt lat="44.4754573" lon="10.4328102"><ele>570.0</ele><time>2026-04-19T14:20:16.808Z</time></trkpt><trkpt lat="44.4755837" lon="10.4329057"><ele>573.0</ele><time>2026-04-19T14:20:17.81Z</time></trkpt><trkpt lat="44.475706" lon="10.4330053"><ele>576.0</ele><time>2026-04-19T14:20:18.807Z</time></trkpt><trkpt lat="44.4758253" lon="10.4331013"><ele>579.0</ele><time>2026-04-19T14:20:19.807Z</time></trkpt><trkpt lat="44.4759517" lon="10.4331863"><ele>582.0</ele><time>2026-04-19T14:20:20.807Z</time></trkpt><trkpt lat="44.4760735" lon="10.433254"><ele>582.0</ele><time>2026-04-19T14:20:21.808Z</time></trkpt><trkpt lat="44.4761775" lon="10.4333045"><ele>582.0</ele><time>2026-04-19T14:20:22.808Z</time></trkpt><trkpt lat="44.476266" lon="10.4333475"><ele>582.0</ele><time>2026-04-19T14:20:23.808Z</time></trkpt><trkpt lat="44.4763445" lon="10.4333893"><ele>582.0</ele><time>2026-04-19T14:20:24.809Z</time></trkpt><trkpt lat="44.4764223" lon="10.4334458"><ele>582.0</ele><time>2026-04-19T14:20:25.809Z</time></trkpt><trkpt lat="44.4764972" lon="10.4335358"><ele>583.5</ele><time>2026-04-19T14:20:26.81Z</time></trkpt><trkpt lat="44.476562" lon="10.4336643"><ele>585.0</ele><time>2026-04-19T14:20:27.81Z</time></trkpt><trkpt lat="44.4766193" lon="10.4338253"><ele>586.5</ele><time>2026-04-19T14:20:28.805Z</time></trkpt><trkpt lat="44.4766712" lon="10.4340115"><ele>588.0</ele><time>2026-04-19T14:20:29.808Z</time></trkpt><trkpt lat="44.4767148" lon="10.4342115"><ele>588.6666666666666</ele><time>2026-04-19T14:20:30.808Z</time></trkpt><trkpt lat="44.4767572" lon="10.4344392"><ele>589.3333333333333</ele><time>2026-04-19T14:20:31.806Z</time></trkpt><trkpt lat="44.4767983" lon="10.4346767"><ele>590.0</ele><time>2026-04-19T14:20:32.807Z</time></trkpt><trkpt lat="44.4768412" lon="10.434917"><ele>590.0</ele><time>2026-04-19T14:20:33.807Z</time></trkpt><trkpt lat="44.4768827" lon="10.4351497"><ele>590.0</ele><time>2026-04-19T14:20:34.807Z</time></trkpt><trkpt lat="44.4769195" lon="10.4353665"><ele>590.0</ele><time>2026-04-19T14:20:35.809Z</time></trkpt><trkpt lat="44.4769505" lon="10.4355702"><ele>589.0</ele><time>2026-04-19T14:20:36.808Z</time></trkpt><trkpt lat="44.4769722" lon="10.4357712"><ele>588.0</ele><time>2026-04-19T14:20:37.806Z</time></trkpt><trkpt lat="44.4769803" lon="10.4359818"><ele>587.0</ele><time>2026-04-19T14:20:38.807Z</time></trkpt><trkpt lat="44.4769728" lon="10.436199"><ele>587.3333333333333</ele><time>2026-04-19T14:20:39.805Z</time></trkpt><trkpt lat="44.4769548" lon="10.4364195"><ele>587.6666666666666</ele><time>2026-04-19T14:20:40.807Z</time></trkpt><trkpt lat="44.4769252" lon="10.4366355"><ele>588.0</ele><time>2026-04-19T14:20:41.807Z</time></trkpt><trkpt lat="44.4768782" lon="10.4368415"><ele>588.0</ele><time>2026-04-19T14:20:42.807Z</time></trkpt><trkpt lat="44.476821" lon="10.4370355"><ele>588.0</ele><time>2026-04-19T14:20:43.807Z</time></trkpt><trkpt lat="44.476764" lon="10.4372155"><ele>588.0</ele><time>2026-04-19T14:20:44.808Z</time></trkpt><trkpt lat="44.4767115" lon="10.4373822"><ele>588.0</ele><time>2026-04-19T14:20:45.807Z</time></trkpt><trkpt lat="44.4766632" lon="10.437536"><ele>588.6</ele><time>2026-04-19T14:20:46.807Z</time></trkpt><trkpt lat="44.4766183" lon="10.4376793"><ele>589.1999999999999</ele><time>2026-04-19T14:20:47.808Z</time></trkpt><trkpt lat="44.4765773" lon="10.4378107"><ele>589.8</ele><time>2026-04-19T14:20:48.807Z</time></trkpt><trkpt lat="44.4765408" lon="10.437931"><ele>590.4</ele><time>2026-04-19T14:20:49.808Z</time></trkpt><trkpt lat="44.476504" lon="10.4380583"><ele>591.0</ele><time>2026-04-19T14:20:50.808Z</time></trkpt><trkpt lat="44.4764608" lon="10.4382062"><ele>591.75</ele><time>2026-04-19T14:20:51.809Z</time></trkpt><trkpt lat="44.476412" lon="10.4383723"><ele>592.5</ele><time>2026-04-19T14:20:52.809Z</time></trkpt><trkpt lat="44.4763595" lon="10.4385422"><ele>593.25</ele><time>2026-04-19T14:20:53.81Z</time></trkpt><trkpt lat="44.476307" lon="10.4387098"><ele>594.0</ele><time>2026-04-19T14:20:54.809Z</time></trkpt><trkpt lat="44.4762587" lon="10.4388785"><ele>589.5</ele><time>2026-04-19T14:20:55.806Z</time></trkpt><trkpt lat="44.4762228" lon="10.439056"><ele>585.0</ele><time>2026-04-19T14:20:56.807Z</time></trkpt><trkpt lat="44.4762062" lon="10.4392565"><ele>580.5</ele><time>2026-04-19T14:20:57.809Z</time></trkpt><trkpt lat="44.476211" lon="10.4394873"><ele>576.0</ele><time>2026-04-19T14:20:58.808Z</time></trkpt><trkpt lat="44.4762285" lon="10.4397263"><ele>576.0</ele><time>2026-04-19T14:20:59.808Z</time></trkpt><trkpt lat="44.4762485" lon="10.4399678"><ele>576.0</ele><time>2026-04-19T14:21:00.808Z</time></trkpt><trkpt lat="44.476265" lon="10.4402163"><ele>576.0</ele><time>2026-04-19T14:21:01.804Z</time></trkpt><trkpt lat="44.4762728" lon="10.4404687"><ele>577.3333333333334</ele><time>2026-04-19T14:21:02.805Z</time></trkpt><trkpt lat="44.4762683" lon="10.4407157"><ele>578.6666666666667</ele><time>2026-04-19T14:21:03.804Z</time></trkpt><trkpt lat="44.476253" lon="10.440957"><ele>580.0</ele><time>2026-04-19T14:21:04.805Z</time></trkpt><trkpt lat="44.4762282" lon="10.4411952"><ele>581.3333333333334</ele><time>2026-04-19T14:21:05.806Z</time></trkpt><trkpt lat="44.4761907" lon="10.4414252"><ele>582.6666666666666</ele><time>2026-04-19T14:21:06.805Z</time></trkpt><trkpt lat="44.4761373" lon="10.4416438"><ele>584.0</ele><time>2026-04-19T14:21:07.806Z</time></trkpt><trkpt lat="44.4760738" lon="10.4418543"><ele>584.0</ele><time>2026-04-19T14:21:08.808Z</time></trkpt><trkpt lat="44.4760118" lon="10.4420468"><ele>584.0</ele><time>2026-04-19T14:21:09.808Z</time></trkpt><trkpt lat="44.475957" lon="10.4422193"><ele>584.0</ele><time>2026-04-19T14:21:10.808Z</time></trkpt><trkpt lat="44.4759107" lon="10.4423905"><ele>584.0</ele><time>2026-04-19T14:21:11.81Z</time></trkpt><trkpt lat="44.475876" lon="10.4425668"><ele>584.25</ele><time>2026-04-19T14:21:12.807Z</time></trkpt><trkpt lat="44.4758488" lon="10.4427388"><ele>584.5</ele><time>2026-04-19T14:21:13.807Z</time></trkpt><trkpt lat="44.4758357" lon="10.4428962"><ele>584.75</ele><time>2026-04-19T14:21:14.807Z</time></trkpt><trkpt lat="44.4758518" lon="10.4430502"><ele>585.0</ele><time>2026-04-19T14:21:15.806Z</time></trkpt><trkpt lat="44.4758963" lon="10.4431905"><ele>586.2</ele><time>2026-04-19T14:21:16.805Z</time></trkpt><trkpt lat="44.4759593" lon="10.4433018"><ele>587.4</ele><time>2026-04-19T14:21:17.804Z</time></trkpt><trkpt lat="44.4760357" lon="10.4433912"><ele>588.6</ele><time>2026-04-19T14:21:18.807Z</time></trkpt><trkpt lat="44.476124" lon="10.4434603"><ele>589.8</ele><time>2026-04-19T14:21:19.805Z</time></trkpt><trkpt lat="44.4762213" lon="10.4435237"><ele>591.0</ele><time>2026-04-19T14:21:20.807Z</time></trkpt><trkpt lat="44.4763227" lon="10.4435898"><ele>592.4</ele><time>2026-04-19T14:21:21.806Z</time></trkpt><trkpt lat="44.4764193" lon="10.4436548"><ele>593.8</ele><time>2026-04-19T14:21:22.804Z</time></trkpt><trkpt lat="44.4765183" lon="10.4437253"><ele>595.1999999999999</ele><time>2026-04-19T14:21:23.808Z</time></trkpt><trkpt lat="44.4766185" lon="10.4438028"><ele>596.6</ele><time>2026-04-19T14:21:24.807Z</time></trkpt><trkpt lat="44.4767175" lon="10.4438827"><ele>598.0</ele><time>2026-04-19T14:21:25.806Z</time></trkpt><trkpt lat="44.4768172" lon="10.4439612"><ele>599.5</ele><time>2026-04-19T14:21:26.802Z</time></trkpt><trkpt lat="44.4769172" lon="10.4440393"><ele>601.0</ele><time>2026-04-19T14:21:27.805Z</time></trkpt><trkpt lat="44.477017" lon="10.4441168"><ele>602.5</ele><time>2026-04-19T14:21:28.804Z</time></trkpt><trkpt lat="44.4771172" lon="10.4442025"><ele>604.0</ele><time>2026-04-19T14:21:29.804Z</time></trkpt><trkpt lat="44.4772265" lon="10.4443117"><ele>604.6666666666667</ele><time>2026-04-19T14:21:30.807Z</time></trkpt><trkpt lat="44.477336" lon="10.4444398"><ele>605.3333333333334</ele><time>2026-04-19T14:21:31.806Z</time></trkpt><trkpt lat="44.4774503" lon="10.4445842"><ele>606.0</ele><time>2026-04-19T14:21:32.805Z</time></trkpt><trkpt lat="44.4775713" lon="10.4447475"><ele>606.0</ele><time>2026-04-19T14:21:33.807Z</time></trkpt><trkpt lat="44.4776883" lon="10.4449162"><ele>606.0</ele><time>2026-04-19T14:21:34.805Z</time></trkpt><trkpt lat="44.4777955" lon="10.445076"><ele>606.0</ele><time>2026-04-19T14:21:35.806Z</time></trkpt><trkpt lat="44.4778962" lon="10.4452228"><ele>608.25</ele><time>2026-04-19T14:21:36.805Z</time></trkpt><trkpt lat="44.4779972" lon="10.4453488"><ele>610.5</ele><time>2026-04-19T14:21:37.805Z</time></trkpt><trkpt lat="44.47811" lon="10.4454517"><ele>612.75</ele><time>2026-04-19T14:21:38.805Z</time></trkpt><trkpt lat="44.4782267" lon="10.4455307"><ele>615.0</ele><time>2026-04-19T14:21:39.804Z</time></trkpt><trkpt lat="44.478334" lon="10.4456035"><ele>615.0</ele><time>2026-04-19T14:21:40.804Z</time></trkpt><trkpt lat="44.4784148" lon="10.4457015"><ele>615.0</ele><time>2026-04-19T14:21:41.805Z</time></trkpt><trkpt lat="44.4784525" lon="10.4458387"><ele>615.0</ele><time>2026-04-19T14:21:42.806Z</time></trkpt><trkpt lat="44.4784497" lon="10.4460112"><ele>615.0</ele><time>2026-04-19T14:21:43.804Z</time></trkpt><trkpt lat="44.47843" lon="10.4462067"><ele>617.3333333333334</ele><time>2026-04-19T14:21:44.807Z</time></trkpt><trkpt lat="44.4784177" lon="10.4464232"><ele>619.6666666666667</ele><time>2026-04-19T14:21:45.805Z</time></trkpt><trkpt lat="44.4784118" lon="10.44664"><ele>622.0</ele><time>2026-04-19T14:21:46.807Z</time></trkpt><trkpt lat="44.4784047" lon="10.4468498"><ele>622.0</ele><time>2026-04-19T14:21:47.808Z</time></trkpt><trkpt lat="44.4783927" lon="10.44705"><ele>622.0</ele><time>2026-04-19T14:21:48.805Z</time></trkpt><trkpt lat="44.4783793" lon="10.4472353"><ele>622.0</ele><time>2026-04-19T14:21:49.806Z</time></trkpt><trkpt lat="44.4783777" lon="10.4474202"><ele>622.0</ele><time>2026-04-19T14:21:50.805Z</time></trkpt><trkpt lat="44.4783932" lon="10.4476105"><ele>623.25</ele><time>2026-04-19T14:21:51.804Z</time></trkpt><trkpt lat="44.4784228" lon="10.447804"><ele>624.5</ele><time>2026-04-19T14:21:52.805Z</time></trkpt><trkpt lat="44.4784627" lon="10.447993"><ele>625.75</ele><time>2026-04-19T14:21:53.805Z</time></trkpt><trkpt lat="44.4785067" lon="10.4481657"><ele>627.0</ele><time>2026-04-19T14:21:54.804Z</time></trkpt><trkpt lat="44.4785497" lon="10.4483273"><ele>627.0</ele><time>2026-04-19T14:21:55.804Z</time></trkpt><trkpt lat="44.478576" lon="10.4484927"><ele>627.0</ele><time>2026-04-19T14:21:56.804Z</time></trkpt><trkpt lat="44.4785648" lon="10.4486645"><ele>627.0</ele><time>2026-04-19T14:21:57.805Z</time></trkpt><trkpt lat="44.4785063" lon="10.4488382"><ele>627.0</ele><time>2026-04-19T14:21:58.805Z</time></trkpt><trkpt lat="44.4784145" lon="10.4490202"><ele>626.6666666666666</ele><time>2026-04-19T14:21:59.804Z</time></trkpt><trkpt lat="44.4783217" lon="10.4492182"><ele>626.3333333333333</ele><time>2026-04-19T14:22:00.803Z</time></trkpt><trkpt lat="44.4782587" lon="10.4494087"><ele>626.0</ele><time>2026-04-19T14:22:01.803Z</time></trkpt><trkpt lat="44.4782012" lon="10.4495792"><ele>628.5</ele><time>2026-04-19T14:22:02.803Z</time></trkpt><trkpt lat="44.4781197" lon="10.4497042"><ele>631.0</ele><time>2026-04-19T14:22:03.805Z</time></trkpt><trkpt lat="44.4780072" lon="10.4497735"><ele>633.5</ele><time>2026-04-19T14:22:04.803Z</time></trkpt><trkpt lat="44.4778683" lon="10.4498182"><ele>636.0</ele><time>2026-04-19T14:22:05.804Z</time></trkpt><trkpt lat="44.4777157" lon="10.4498617"><ele>636.0</ele><time>2026-04-19T14:22:06.806Z</time></trkpt><trkpt lat="44.4775657" lon="10.4499142"><ele>636.0</ele><time>2026-04-19T14:22:07.802Z</time></trkpt><trkpt lat="44.4774245" lon="10.4499615"><ele>636.0</ele><time>2026-04-19T14:22:08.804Z</time></trkpt><trkpt lat="44.4772957" lon="10.4499973"><ele>636.0</ele><time>2026-04-19T14:22:09.804Z</time></trkpt><trkpt lat="44.4771718" lon="10.4500182"><ele>636.0</ele><time>2026-04-19T14:22:10.803Z</time></trkpt><trkpt lat="44.4770577" lon="10.4500253"><ele>636.0</ele><time>2026-04-19T14:22:11.805Z</time></trkpt><trkpt lat="44.4769627" lon="10.450042"><ele>636.0</ele><time>2026-04-19T14:22:12.804Z</time></trkpt><trkpt lat="44.476876" lon="10.4501015"><ele>636.0</ele><time>2026-04-19T14:22:13.803Z</time></trkpt><trkpt lat="44.4768028" lon="10.4502213"><ele>636.0</ele><time>2026-04-19T14:22:14.806Z</time></trkpt><trkpt lat="44.4767315" lon="10.4503785"><ele>640.0</ele><time>2026-04-19T14:22:15.802Z</time></trkpt><trkpt lat="44.4766542" lon="10.4505408"><ele>644.0</ele><time>2026-04-19T14:22:16.803Z</time></trkpt><trkpt lat="44.4765772" lon="10.4506872"><ele>648.0</ele><time>2026-04-19T14:22:17.802Z</time></trkpt><trkpt lat="44.4765047" lon="10.4508255"><ele>652.0</ele><time>2026-04-19T14:22:18.803Z</time></trkpt><trkpt lat="44.4764373" lon="10.4509555"><ele>652.0</ele><time>2026-04-19T14:22:19.805Z</time></trkpt><trkpt lat="44.4763867" lon="10.4510862"><ele>652.0</ele><time>2026-04-19T14:22:20.806Z</time></trkpt><trkpt lat="44.476367" lon="10.4512122"><ele>652.0</ele><time>2026-04-19T14:22:21.805Z</time></trkpt><trkpt lat="44.4763892" lon="10.4513212"><ele>652.0</ele><time>2026-04-19T14:22:22.805Z</time></trkpt><trkpt lat="44.4764513" lon="10.4513922"><ele>652.0</ele><time>2026-04-19T14:22:23.806Z</time></trkpt><trkpt lat="44.4765408" lon="10.4514088"><ele>652.0</ele><time>2026-04-19T14:22:24.807Z</time></trkpt><trkpt lat="44.4766493" lon="10.4513807"><ele>652.75</ele><time>2026-04-19T14:22:25.806Z</time></trkpt><trkpt lat="44.4767655" lon="10.45134"><ele>653.5</ele><time>2026-04-19T14:22:26.807Z</time></trkpt><trkpt lat="44.4768857" lon="10.4513185"><ele>654.25</ele><time>2026-04-19T14:22:27.805Z</time></trkpt><trkpt lat="44.4770098" lon="10.451342"><ele>655.0</ele><time>2026-04-19T14:22:28.804Z</time></trkpt><trkpt lat="44.4771383" lon="10.451422"><ele>658.3333333333334</ele><time>2026-04-19T14:22:29.804Z</time></trkpt><trkpt lat="44.477267" lon="10.4515467"><ele>661.6666666666666</ele><time>2026-04-19T14:22:30.805Z</time></trkpt><trkpt lat="44.47739" lon="10.451665"><ele>665.0</ele><time>2026-04-19T14:22:31.806Z</time></trkpt><trkpt lat="44.4775213" lon="10.4517742"><ele>665.0</ele><time>2026-04-19T14:22:32.807Z</time></trkpt><trkpt lat="44.4776522" lon="10.4518773"><ele>665.0</ele><time>2026-04-19T14:22:33.807Z</time></trkpt><trkpt lat="44.477767" lon="10.4519742"><ele>665.0</ele><time>2026-04-19T14:22:34.805Z</time></trkpt><trkpt lat="44.4778682" lon="10.4520722"><ele>665.0</ele><time>2026-04-19T14:22:35.806Z</time></trkpt><trkpt lat="44.4779603" lon="10.4521903"><ele>668.75</ele><time>2026-04-19T14:22:36.805Z</time></trkpt><trkpt lat="44.4780402" lon="10.4523335"><ele>672.5</ele><time>2026-04-19T14:22:37.806Z</time></trkpt><trkpt lat="44.4781028" lon="10.4524987"><ele>676.25</ele><time>2026-04-19T14:22:38.805Z</time></trkpt><trkpt lat="44.4781502" lon="10.4526735"><ele>680.0</ele><time>2026-04-19T14:22:39.803Z</time></trkpt><trkpt lat="44.4781912" lon="10.4528542"><ele>681.2</ele><time>2026-04-19T14:22:40.803Z</time></trkpt><trkpt lat="44.478227" lon="10.4530205"><ele>682.4</ele><time>2026-04-19T14:22:41.803Z</time></trkpt><trkpt lat="44.4782613" lon="10.4531643"><ele>683.5999999999999</ele><time>2026-04-19T14:22:42.803Z</time></trkpt><trkpt lat="44.4782915" lon="10.4532883"><ele>684.8</ele><time>2026-04-19T14:22:43.805Z</time></trkpt><trkpt lat="44.4783212" lon="10.4534042"><ele>686.0</ele><time>2026-04-19T14:22:44.807Z</time></trkpt><trkpt lat="44.4783482" lon="10.453522"><ele>686.0</ele><time>2026-04-19T14:22:45.808Z</time></trkpt><trkpt lat="44.4783753" lon="10.4536435"><ele>686.0</ele><time>2026-04-19T14:22:46.808Z</time></trkpt><trkpt lat="44.4784005" lon="10.453754"><ele>686.0</ele><time>2026-04-19T14:22:47.807Z</time></trkpt><trkpt lat="44.478423" lon="10.4538493"><ele>686.0</ele><time>2026-04-19T14:22:48.805Z</time></trkpt><trkpt lat="44.4784603" lon="10.4539878"><ele>686.0</ele><time>2026-04-19T14:22:50.807Z</time></trkpt><trkpt lat="44.4784912" lon="10.4540655"><ele>686.0</ele><time>2026-04-19T14:22:52.807Z</time></trkpt><trkpt lat="44.4785703" lon="10.4541123"><ele>686.0</ele><time>2026-04-19T14:22:54.806Z</time></trkpt><trkpt lat="44.4786753" lon="10.4539943"><ele>686.0</ele><time>2026-04-19T14:22:56.807Z</time></trkpt><trkpt lat="44.4787065" lon="10.4538765"><ele>686.0</ele><time>2026-04-19T14:22:57.803Z</time></trkpt><trkpt lat="44.4787263" lon="10.4537607"><ele>686.0</ele><time>2026-04-19T14:22:58.805Z</time></trkpt><trkpt lat="44.4787465" lon="10.4536515"><ele>686.0</ele><time>2026-04-19T14:22:59.805Z</time></trkpt><trkpt lat="44.4787715" lon="10.4535428"><ele>689.4</ele><time>2026-04-19T14:23:00.806Z</time></trkpt><trkpt lat="44.4788102" lon="10.453432"><ele>692.8</ele><time>2026-04-19T14:23:01.805Z</time></trkpt><trkpt lat="44.4788608" lon="10.4533242"><ele>696.1999999999999</ele><time>2026-04-19T14:23:02.806Z</time></trkpt><trkpt lat="44.4789175" lon="10.453229"><ele>699.5999999999999</ele><time>2026-04-19T14:23:03.804Z</time></trkpt><trkpt lat="44.4789765" lon="10.4531322"><ele>703.0</ele><time>2026-04-19T14:23:04.803Z</time></trkpt><trkpt lat="44.4790358" lon="10.4530273"><ele>700.0</ele><time>2026-04-19T14:23:05.804Z</time></trkpt><trkpt lat="44.4790958" lon="10.4529237"><ele>697.0</ele><time>2026-04-19T14:23:06.802Z</time></trkpt><trkpt lat="44.4791595" lon="10.4528282"><ele>694.0</ele><time>2026-04-19T14:23:07.802Z</time></trkpt><trkpt lat="44.4792317" lon="10.4527402"><ele>691.0</ele><time>2026-04-19T14:23:08.806Z</time></trkpt><trkpt lat="44.4793153" lon="10.4526647"><ele>688.0</ele><time>2026-04-19T14:23:09.806Z</time></trkpt><trkpt lat="44.4794117" lon="10.4525997"><ele>688.0</ele><time>2026-04-19T14:23:10.805Z</time></trkpt><trkpt lat="44.4795222" lon="10.452547"><ele>688.0</ele><time>2026-04-19T14:23:11.805Z</time></trkpt><trkpt lat="44.479626" lon="10.4524865"><ele>688.0</ele><time>2026-04-19T14:23:12.808Z</time></trkpt><trkpt lat="44.479717" lon="10.4523928"><ele>688.0</ele><time>2026-04-19T14:23:13.804Z</time></trkpt><trkpt lat="44.479792" lon="10.4522703"><ele>687.5999999999999</ele><time>2026-04-19T14:23:14.806Z</time></trkpt><trkpt lat="44.4798597" lon="10.4521513"><ele>687.1999999999999</ele><time>2026-04-19T14:23:15.805Z</time></trkpt><trkpt lat="44.4799337" lon="10.4520458"><ele>686.8</ele><time>2026-04-19T14:23:16.804Z</time></trkpt><trkpt lat="44.4800185" lon="10.4519508"><ele>686.4</ele><time>2026-04-19T14:23:17.806Z</time></trkpt><trkpt lat="44.480117" lon="10.4518737"><ele>686.0</ele><time>2026-04-19T14:23:18.804Z</time></trkpt><trkpt lat="44.4802255" lon="10.4518158"><ele>686.0</ele><time>2026-04-19T14:23:19.804Z</time></trkpt><trkpt lat="44.4803455" lon="10.4517778"><ele>686.0</ele><time>2026-04-19T14:23:20.804Z</time></trkpt><trkpt lat="44.480471" lon="10.4517327"><ele>686.0</ele><time>2026-04-19T14:23:21.804Z</time></trkpt><trkpt lat="44.4806032" lon="10.451656"><ele>686.0</ele><time>2026-04-19T14:23:22.804Z</time></trkpt><trkpt lat="44.480746" lon="10.4515478"><ele>694.3333333333333</ele><time>2026-04-19T14:23:23.805Z</time></trkpt><trkpt lat="44.4808957" lon="10.4514427"><ele>702.6666666666666</ele><time>2026-04-19T14:23:24.803Z</time></trkpt><trkpt lat="44.4810377" lon="10.4513618"><ele>711.0</ele><time>2026-04-19T14:23:25.802Z</time></trkpt><trkpt lat="44.4811812" lon="10.4513077"><ele>707.5</ele><time>2026-04-19T14:23:26.805Z</time></trkpt><trkpt lat="44.481316" lon="10.4512683"><ele>704.0</ele><time>2026-04-19T14:23:27.803Z</time></trkpt><trkpt lat="44.4814413" lon="10.4512382"><ele>700.5</ele><time>2026-04-19T14:23:28.801Z</time></trkpt><trkpt lat="44.4815488" lon="10.4512153"><ele>697.0</ele><time>2026-04-19T14:23:29.802Z</time></trkpt><trkpt lat="44.4816487" lon="10.45121"><ele>697.0</ele><time>2026-04-19T14:23:30.801Z</time></trkpt><trkpt lat="44.4817475" lon="10.4512342"><ele>697.0</ele><time>2026-04-19T14:23:31.801Z</time></trkpt><trkpt lat="44.4818457" lon="10.451271"><ele>697.0</ele><time>2026-04-19T14:23:32.803Z</time></trkpt><trkpt lat="44.4819467" lon="10.4512813"><ele>697.0</ele><time>2026-04-19T14:23:33.803Z</time></trkpt><trkpt lat="44.4820488" lon="10.451236"><ele>697.0</ele><time>2026-04-19T14:23:34.802Z</time></trkpt><trkpt lat="44.4821465" lon="10.451145"><ele>701.2</ele><time>2026-04-19T14:23:35.802Z</time></trkpt><trkpt lat="44.4822425" lon="10.4510588"><ele>705.4000000000001</ele><time>2026-04-19T14:23:36.803Z</time></trkpt><trkpt lat="44.4823482" lon="10.4510238"><ele>709.5999999999999</ele><time>2026-04-19T14:23:37.801Z</time></trkpt><trkpt lat="44.482462" lon="10.4510257"><ele>713.8</ele><time>2026-04-19T14:23:38.801Z</time></trkpt><trkpt lat="44.4825608" lon="10.4510428"><ele>718.0</ele><time>2026-04-19T14:23:39.799Z</time></trkpt><trkpt lat="44.4826465" lon="10.4510628"><ele>718.0</ele><time>2026-04-19T14:23:40.797Z</time></trkpt><trkpt lat="44.4827228" lon="10.4510802"><ele>718.0</ele><time>2026-04-19T14:23:41.799Z</time></trkpt><trkpt lat="44.482791" lon="10.4510917"><ele>718.0</ele><time>2026-04-19T14:23:42.801Z</time></trkpt><trkpt lat="44.4828945" lon="10.4510313"><ele>718.0</ele><time>2026-04-19T14:23:44.804Z</time></trkpt><trkpt lat="44.4828397" lon="10.4509162"><ele>718.0</ele><time>2026-04-19T14:23:46.804Z</time></trkpt><trkpt lat="44.4827632" lon="10.4509062"><ele>718.0</ele><time>2026-04-19T14:23:47.804Z</time></trkpt><trkpt lat="44.4826673" lon="10.4509052"><ele>718.0</ele><time>2026-04-19T14:23:48.802Z</time></trkpt><trkpt lat="44.4825752" lon="10.4508632"><ele>718.0</ele><time>2026-04-19T14:23:49.802Z</time></trkpt><trkpt lat="44.4824985" lon="10.4507855"><ele>718.0</ele><time>2026-04-19T14:23:50.807Z</time></trkpt><trkpt lat="44.4824538" lon="10.4506713"><ele>718.0</ele><time>2026-04-19T14:23:51.805Z</time></trkpt><trkpt lat="44.4824478" lon="10.4505358"><ele>718.0</ele><time>2026-04-19T14:23:52.804Z</time></trkpt><trkpt lat="44.482482" lon="10.4504003"><ele>717.5</ele><time>2026-04-19T14:23:53.805Z</time></trkpt><trkpt lat="44.4825532" lon="10.4502787"><ele>717.0</ele><time>2026-04-19T14:23:54.804Z</time></trkpt><trkpt lat="44.4826497" lon="10.4501568"><ele>716.5</ele><time>2026-04-19T14:23:55.803Z</time></trkpt><trkpt lat="44.4827393" lon="10.4500252"><ele>716.0</ele><time>2026-04-19T14:23:56.805Z</time></trkpt><trkpt lat="44.4828112" lon="10.4498513"><ele>716.0</ele><time>2026-04-19T14:23:57.805Z</time></trkpt><trkpt lat="44.4828653" lon="10.4496443"><ele>716.0</ele><time>2026-04-19T14:23:58.805Z</time></trkpt><trkpt lat="44.482921" lon="10.4494538"><ele>716.0</ele><time>2026-04-19T14:23:59.805Z</time></trkpt><trkpt lat="44.4829843" lon="10.4493122"><ele>716.0</ele><time>2026-04-19T14:24:00.804Z</time></trkpt><trkpt lat="44.4830638" lon="10.4492267"><ele>718.5</ele><time>2026-04-19T14:24:01.807Z</time></trkpt><trkpt lat="44.4831655" lon="10.4491975"><ele>721.0</ele><time>2026-04-19T14:24:02.805Z</time></trkpt><trkpt lat="44.4832903" lon="10.4491758"><ele>723.5</ele><time>2026-04-19T14:24:03.806Z</time></trkpt><trkpt lat="44.4834272" lon="10.4491022"><ele>726.0</ele><time>2026-04-19T14:24:04.806Z</time></trkpt><trkpt lat="44.4835638" lon="10.4489653"><ele>726.0</ele><time>2026-04-19T14:24:05.809Z</time></trkpt><trkpt lat="44.4836702" lon="10.4487947"><ele>726.0</ele><time>2026-04-19T14:24:06.808Z</time></trkpt><trkpt lat="44.4837482" lon="10.4486298"><ele>726.0</ele><time>2026-04-19T14:24:07.805Z</time></trkpt><trkpt lat="44.4838158" lon="10.448495"><ele>726.0</ele><time>2026-04-19T14:24:08.806Z</time></trkpt><trkpt lat="44.4838878" lon="10.4483918"><ele>728.5999999999999</ele><time>2026-04-19T14:24:09.807Z</time></trkpt><trkpt lat="44.4839708" lon="10.4483143"><ele>731.2</ele><time>2026-04-19T14:24:10.806Z</time></trkpt><trkpt lat="44.4840617" lon="10.4482558"><ele>733.8</ele><time>2026-04-19T14:24:11.808Z</time></trkpt><trkpt lat="44.4841562" lon="10.448197"><ele>736.4000000000001</ele><time>2026-04-19T14:24:12.806Z</time></trkpt><trkpt lat="44.4842515" lon="10.4481357"><ele>739.0</ele><time>2026-04-19T14:24:13.806Z</time></trkpt><trkpt lat="44.4843505" lon="10.4480773"><ele>739.0</ele><time>2026-04-19T14:24:14.809Z</time></trkpt><trkpt lat="44.4844528" lon="10.4480227"><ele>739.0</ele><time>2026-04-19T14:24:15.806Z</time></trkpt><trkpt lat="44.48455" lon="10.4479615"><ele>739.0</ele><time>2026-04-19T14:24:16.807Z</time></trkpt><trkpt lat="44.4846378" lon="10.4478637"><ele>739.0</ele><time>2026-04-19T14:24:17.806Z</time></trkpt><trkpt lat="44.4847228" lon="10.4477155"><ele>738.3333333333334</ele><time>2026-04-19T14:24:18.804Z</time></trkpt><trkpt lat="44.4848065" lon="10.4475278"><ele>737.6666666666666</ele><time>2026-04-19T14:24:19.805Z</time></trkpt><trkpt lat="44.4848848" lon="10.4473297"><ele>737.0</ele><time>2026-04-19T14:24:20.806Z</time></trkpt><trkpt lat="44.4849623" lon="10.4471203"><ele>737.0</ele><time>2026-04-19T14:24:21.806Z</time></trkpt><trkpt lat="44.4850333" lon="10.4468973"><ele>737.0</ele><time>2026-04-19T14:24:22.805Z</time></trkpt><trkpt lat="44.4850948" lon="10.4466593"><ele>737.0</ele><time>2026-04-19T14:24:23.807Z</time></trkpt><trkpt lat="44.4851513" lon="10.4464102"><ele>738.6666666666666</ele><time>2026-04-19T14:24:24.806Z</time></trkpt><trkpt lat="44.485207" lon="10.4461567"><ele>740.3333333333334</ele><time>2026-04-19T14:24:25.806Z</time></trkpt><trkpt lat="44.4852627" lon="10.445913"><ele>742.0</ele><time>2026-04-19T14:24:26.806Z</time></trkpt><trkpt lat="44.4853223" lon="10.445684"><ele>742.0</ele><time>2026-04-19T14:24:27.806Z</time></trkpt><trkpt lat="44.4853935" lon="10.445469"><ele>742.0</ele><time>2026-04-19T14:24:28.806Z</time></trkpt><trkpt lat="44.4854883" lon="10.4452683"><ele>742.0</ele><time>2026-04-19T14:24:29.806Z</time></trkpt><trkpt lat="44.4856112" lon="10.4450917"><ele>736.3333333333334</ele><time>2026-04-19T14:24:30.805Z</time></trkpt><trkpt lat="44.4857565" lon="10.4449387"><ele>730.6666666666666</ele><time>2026-04-19T14:24:31.805Z</time></trkpt><trkpt lat="44.4859128" lon="10.4448093"><ele>725.0</ele><time>2026-04-19T14:24:32.807Z</time></trkpt><trkpt lat="44.4860723" lon="10.444709"><ele>725.0</ele><time>2026-04-19T14:24:33.807Z</time></trkpt><trkpt lat="44.4862265" lon="10.444639"><ele>725.0</ele><time>2026-04-19T14:24:34.806Z</time></trkpt><trkpt lat="44.4863663" lon="10.4445765"><ele>725.0</ele><time>2026-04-19T14:24:35.808Z</time></trkpt><trkpt lat="44.4864833" lon="10.4444913"><ele>725.0</ele><time>2026-04-19T14:24:36.805Z</time></trkpt><trkpt lat="44.4865762" lon="10.4443602"><ele>725.3333333333333</ele><time>2026-04-19T14:24:37.806Z</time></trkpt><trkpt lat="44.4866545" lon="10.444182"><ele>725.6666666666666</ele><time>2026-04-19T14:24:38.807Z</time></trkpt><trkpt lat="44.4867372" lon="10.4439788"><ele>726.0</ele><time>2026-04-19T14:24:39.808Z</time></trkpt><trkpt lat="44.4868365" lon="10.4437727"><ele>729.6666666666666</ele><time>2026-04-19T14:24:40.805Z</time></trkpt><trkpt lat="44.4869445" lon="10.443573"><ele>733.3333333333333</ele><time>2026-04-19T14:24:41.807Z</time></trkpt><trkpt lat="44.4870522" lon="10.4433698"><ele>737.0</ele><time>2026-04-19T14:24:42.805Z</time></trkpt><trkpt lat="44.4871515" lon="10.4431665"><ele>727.6666666666666</ele><time>2026-04-19T14:24:43.804Z</time></trkpt><trkpt lat="44.4872453" lon="10.4429658"><ele>718.3333333333334</ele><time>2026-04-19T14:24:44.806Z</time></trkpt><trkpt lat="44.4873343" lon="10.4427693"><ele>709.0</ele><time>2026-04-19T14:24:45.804Z</time></trkpt><trkpt lat="44.4874203" lon="10.4425757"><ele>709.0</ele><time>2026-04-19T14:24:46.808Z</time></trkpt><trkpt lat="44.4875015" lon="10.4423833"><ele>709.0</ele><time>2026-04-19T14:24:47.807Z</time></trkpt><trkpt lat="44.4875737" lon="10.4421862"><ele>709.0</ele><time>2026-04-19T14:24:48.806Z</time></trkpt><trkpt lat="44.4876362" lon="10.4419837"><ele>711.0</ele><time>2026-04-19T14:24:49.808Z</time></trkpt><trkpt lat="44.4876978" lon="10.4417835"><ele>713.0</ele><time>2026-04-19T14:24:50.809Z</time></trkpt><trkpt lat="44.487777" lon="10.4416027"><ele>715.0</ele><time>2026-04-19T14:24:51.807Z</time></trkpt><trkpt lat="44.4878833" lon="10.4414617"><ele>712.5</ele><time>2026-04-19T14:24:52.806Z</time></trkpt><trkpt lat="44.4880037" lon="10.441353"><ele>710.0</ele><time>2026-04-19T14:24:53.806Z</time></trkpt><trkpt lat="44.4881205" lon="10.4412415"><ele>707.5</ele><time>2026-04-19T14:24:54.807Z</time></trkpt><trkpt lat="44.4882158" lon="10.4411037"><ele>705.0</ele><time>2026-04-19T14:24:55.807Z</time></trkpt><trkpt lat="44.4882887" lon="10.4409445"><ele>705.0</ele><time>2026-04-19T14:24:56.809Z</time></trkpt><trkpt lat="44.4883638" lon="10.4407913"><ele>705.0</ele><time>2026-04-19T14:24:57.808Z</time></trkpt><trkpt lat="44.4884587" lon="10.4406787"><ele>705.0</ele><time>2026-04-19T14:24:58.808Z</time></trkpt><trkpt lat="44.4885702" lon="10.440628"><ele>705.0</ele><time>2026-04-19T14:24:59.806Z</time></trkpt><trkpt lat="44.4886857" lon="10.4406347"><ele>703.25</ele><time>2026-04-19T14:25:00.807Z</time></trkpt><trkpt lat="44.4888023" lon="10.4406935"><ele>701.5</ele><time>2026-04-19T14:25:01.807Z</time></trkpt><trkpt lat="44.4889205" lon="10.4407873"><ele>699.75</ele><time>2026-04-19T14:25:02.808Z</time></trkpt><trkpt lat="44.4890418" lon="10.4408807"><ele>698.0</ele><time>2026-04-19T14:25:03.805Z</time></trkpt><trkpt lat="44.4891653" lon="10.4409605"><ele>698.0</ele><time>2026-04-19T14:25:04.805Z</time></trkpt><trkpt lat="44.4892842" lon="10.4410238"><ele>698.0</ele><time>2026-04-19T14:25:05.807Z</time></trkpt><trkpt lat="44.489387" lon="10.4410772"><ele>698.0</ele><time>2026-04-19T14:25:06.803Z</time></trkpt><trkpt lat="44.4894722" lon="10.4411238"><ele>698.0</ele><time>2026-04-19T14:25:07.804Z</time></trkpt><trkpt lat="44.4895365" lon="10.4411888"><ele>698.0</ele><time>2026-04-19T14:25:08.804Z</time></trkpt><trkpt lat="44.489565" lon="10.4412848"><ele>694.2</ele><time>2026-04-19T14:25:09.805Z</time></trkpt><trkpt lat="44.4895445" lon="10.4413828"><ele>690.4</ele><time>2026-04-19T14:25:10.805Z</time></trkpt><trkpt lat="44.48948" lon="10.4414368"><ele>686.6</ele><time>2026-04-19T14:25:11.807Z</time></trkpt><trkpt lat="44.489391" lon="10.4414388"><ele>682.8000000000001</ele><time>2026-04-19T14:25:12.806Z</time></trkpt><trkpt lat="44.4892882" lon="10.441407"><ele>679.0</ele><time>2026-04-19T14:25:13.806Z</time></trkpt><trkpt lat="44.4891792" lon="10.4413705"><ele>679.0</ele><time>2026-04-19T14:25:14.809Z</time></trkpt><trkpt lat="44.4890688" lon="10.4413487"><ele>679.0</ele><time>2026-04-19T14:25:15.81Z</time></trkpt><trkpt lat="44.488962" lon="10.4413618"><ele>679.0</ele><time>2026-04-19T14:25:16.806Z</time></trkpt><trkpt lat="44.4888737" lon="10.4414345"><ele>679.0</ele><time>2026-04-19T14:25:17.808Z</time></trkpt><trkpt lat="44.4888168" lon="10.4415677"><ele>679.0</ele><time>2026-04-19T14:25:18.807Z</time></trkpt><trkpt lat="44.488785" lon="10.4417413"><ele>681.6666666666667</ele><time>2026-04-19T14:25:19.807Z</time></trkpt><trkpt lat="44.4887588" lon="10.4419465"><ele>684.3333333333334</ele><time>2026-04-19T14:25:20.809Z</time></trkpt><trkpt lat="44.4887312" lon="10.4421708"><ele>687.0</ele><time>2026-04-19T14:25:21.81Z</time></trkpt><trkpt lat="44.4887102" lon="10.4424027"><ele>687.0</ele><time>2026-04-19T14:25:22.808Z</time></trkpt><trkpt lat="44.4886998" lon="10.4426452"><ele>687.0</ele><time>2026-04-19T14:25:23.806Z</time></trkpt><trkpt lat="44.4887007" lon="10.442886"><ele>687.0</ele><time>2026-04-19T14:25:24.808Z</time></trkpt><trkpt lat="44.488705" lon="10.4431158"><ele>684.25</ele><time>2026-04-19T14:25:25.807Z</time></trkpt><trkpt lat="44.4886963" lon="10.4433252"><ele>681.5</ele><time>2026-04-19T14:25:26.806Z</time></trkpt><trkpt lat="44.4886585" lon="10.4435222"><ele>678.75</ele><time>2026-04-19T14:25:27.807Z</time></trkpt><trkpt lat="44.4885912" lon="10.4437137"><ele>676.0</ele><time>2026-04-19T14:25:28.809Z</time></trkpt><trkpt lat="44.4885195" lon="10.443896"><ele>673.8</ele><time>2026-04-19T14:25:29.808Z</time></trkpt><trkpt lat="44.4884597" lon="10.444063"><ele>671.5999999999999</ele><time>2026-04-19T14:25:30.807Z</time></trkpt><trkpt lat="44.4884217" lon="10.444209"><ele>669.4</ele><time>2026-04-19T14:25:31.804Z</time></trkpt><trkpt lat="44.488417" lon="10.4443413"><ele>667.2</ele><time>2026-04-19T14:25:32.804Z</time></trkpt><trkpt lat="44.4884597" lon="10.4444518"><ele>665.0</ele><time>2026-04-19T14:25:33.808Z</time></trkpt><trkpt lat="44.4885512" lon="10.4445207"><ele>665.0</ele><time>2026-04-19T14:25:34.804Z</time></trkpt><trkpt lat="44.4886738" lon="10.4445483"><ele>665.0</ele><time>2026-04-19T14:25:35.805Z</time></trkpt><trkpt lat="44.4888133" lon="10.4445622"><ele>665.0</ele><time>2026-04-19T14:25:36.808Z</time></trkpt><trkpt lat="44.488965" lon="10.4445762"><ele>665.0</ele><time>2026-04-19T14:25:37.814Z</time></trkpt><trkpt lat="44.4891197" lon="10.4445878"><ele>661.6666666666666</ele><time>2026-04-19T14:25:38.807Z</time></trkpt><trkpt lat="44.4892847" lon="10.4445953"><ele>658.3333333333334</ele><time>2026-04-19T14:25:39.807Z</time></trkpt><trkpt lat="44.4894555" lon="10.4445967"><ele>655.0</ele><time>2026-04-19T14:25:40.805Z</time></trkpt><trkpt lat="44.4896255" lon="10.4445898"><ele>654.6666666666667</ele><time>2026-04-19T14:25:41.808Z</time></trkpt><trkpt lat="44.4897855" lon="10.4445615"><ele>654.3333333333334</ele><time>2026-04-19T14:25:42.81Z</time></trkpt><trkpt lat="44.4899365" lon="10.444497"><ele>654.0</ele><time>2026-04-19T14:25:43.811Z</time></trkpt><trkpt lat="44.490085" lon="10.4443983"><ele>654.0</ele><time>2026-04-19T14:25:44.809Z</time></trkpt><trkpt lat="44.490237" lon="10.4442788"><ele>654.0</ele><time>2026-04-19T14:25:45.813Z</time></trkpt><trkpt lat="44.4904005" lon="10.444147"><ele>654.0</ele><time>2026-04-19T14:25:46.807Z</time></trkpt><trkpt lat="44.490572" lon="10.4440077"><ele>654.3333333333334</ele><time>2026-04-19T14:25:47.81Z</time></trkpt><trkpt lat="44.4907388" lon="10.4438753"><ele>654.6666666666667</ele><time>2026-04-19T14:25:48.81Z</time></trkpt><trkpt lat="44.4909083" lon="10.4437463"><ele>655.0</ele><time>2026-04-19T14:25:49.807Z</time></trkpt><trkpt lat="44.491073" lon="10.4436207"><ele>654.3333333333334</ele><time>2026-04-19T14:25:50.809Z</time></trkpt><trkpt lat="44.4912305" lon="10.443488"><ele>653.6666666666666</ele><time>2026-04-19T14:25:51.808Z</time></trkpt><trkpt lat="44.491376" lon="10.4433348"><ele>653.0</ele><time>2026-04-19T14:25:52.808Z</time></trkpt><trkpt lat="44.4915053" lon="10.4431655"><ele>653.75</ele><time>2026-04-19T14:25:53.808Z</time></trkpt><trkpt lat="44.4916187" lon="10.4430005"><ele>654.5</ele><time>2026-04-19T14:25:54.808Z</time></trkpt><trkpt lat="44.4917142" lon="10.4428552"><ele>655.25</ele><time>2026-04-19T14:25:55.807Z</time></trkpt><trkpt lat="44.4917962" lon="10.4427333"><ele>656.0</ele><time>2026-04-19T14:25:56.806Z</time></trkpt><trkpt lat="44.4918762" lon="10.4426557"><ele>656.0</ele><time>2026-04-19T14:25:57.805Z</time></trkpt><trkpt lat="44.4919562" lon="10.442646"><ele>656.0</ele><time>2026-04-19T14:25:58.805Z</time></trkpt><trkpt lat="44.4920483" lon="10.44269"><ele>656.0</ele><time>2026-04-19T14:25:59.807Z</time></trkpt><trkpt lat="44.4921452" lon="10.4427552"><ele>656.0</ele><time>2026-04-19T14:26:00.806Z</time></trkpt><trkpt lat="44.4922535" lon="10.4428235"><ele>656.0</ele><time>2026-04-19T14:26:01.807Z</time></trkpt><trkpt lat="44.4923735" lon="10.4428733"><ele>659.25</ele><time>2026-04-19T14:26:02.806Z</time></trkpt><trkpt lat="44.4925" lon="10.4428812"><ele>662.5</ele><time>2026-04-19T14:26:03.805Z</time></trkpt><trkpt lat="44.492619" lon="10.4428357"><ele>665.75</ele><time>2026-04-19T14:26:04.803Z</time></trkpt><trkpt lat="44.4927158" lon="10.442736"><ele>669.0</ele><time>2026-04-19T14:26:05.804Z</time></trkpt><trkpt lat="44.4927785" lon="10.4425968"><ele>669.0</ele><time>2026-04-19T14:26:06.804Z</time></trkpt><trkpt lat="44.4927978" lon="10.4424262"><ele>669.0</ele><time>2026-04-19T14:26:07.803Z</time></trkpt><trkpt lat="44.4927698" lon="10.4422385"><ele>669.0</ele><time>2026-04-19T14:26:08.803Z</time></trkpt><trkpt lat="44.4927055" lon="10.4420463"><ele>669.0</ele><time>2026-04-19T14:26:09.802Z</time></trkpt><trkpt lat="44.4926215" lon="10.4418853"><ele>669.0</ele><time>2026-04-19T14:26:10.804Z</time></trkpt><trkpt lat="44.4925205" lon="10.4417812"><ele>669.0</ele><time>2026-04-19T14:26:11.803Z</time></trkpt><trkpt lat="44.4924273" lon="10.4417158"><ele>669.0</ele><time>2026-04-19T14:26:12.804Z</time></trkpt><trkpt lat="44.4923627" lon="10.4416422"><ele>669.0</ele><time>2026-04-19T14:26:13.806Z</time></trkpt><trkpt lat="44.492346" lon="10.4415437"><ele>669.0</ele><time>2026-04-19T14:26:14.806Z</time></trkpt><trkpt lat="44.4923737" lon="10.4414208"><ele>666.75</ele><time>2026-04-19T14:26:15.807Z</time></trkpt><trkpt lat="44.4924352" lon="10.4412785"><ele>664.5</ele><time>2026-04-19T14:26:16.807Z</time></trkpt><trkpt lat="44.4925043" lon="10.4411335"><ele>662.25</ele><time>2026-04-19T14:26:17.809Z</time></trkpt><trkpt lat="44.4925728" lon="10.4410003"><ele>660.0</ele><time>2026-04-19T14:26:18.806Z</time></trkpt><trkpt lat="44.4926467" lon="10.440889"><ele>660.0</ele><time>2026-04-19T14:26:19.807Z</time></trkpt><trkpt lat="44.4927338" lon="10.4408223"><ele>660.0</ele><time>2026-04-19T14:26:20.805Z</time></trkpt><trkpt lat="44.4928333" lon="10.4408093"><ele>660.0</ele><time>2026-04-19T14:26:21.805Z</time></trkpt><trkpt lat="44.4929458" lon="10.440824"><ele>660.0</ele><time>2026-04-19T14:26:22.804Z</time></trkpt><trkpt lat="44.4930548" lon="10.4408487"><ele>660.0</ele><time>2026-04-19T14:26:23.803Z</time></trkpt><trkpt lat="44.493158" lon="10.4408588"><ele>661.4</ele><time>2026-04-19T14:26:24.805Z</time></trkpt><trkpt lat="44.4932563" lon="10.4408327"><ele>662.8</ele><time>2026-04-19T14:26:25.806Z</time></trkpt><trkpt lat="44.4933278" lon="10.4407485"><ele>664.2</ele><time>2026-04-19T14:26:26.805Z</time></trkpt><trkpt lat="44.4933878" lon="10.4406535"><ele>665.6</ele><time>2026-04-19T14:26:27.805Z</time></trkpt><trkpt lat="44.4934593" lon="10.4405837"><ele>667.0</ele><time>2026-04-19T14:26:28.806Z</time></trkpt><trkpt lat="44.493545" lon="10.440562"><ele>667.0</ele><time>2026-04-19T14:26:29.807Z</time></trkpt><trkpt lat="44.4936407" lon="10.4405825"><ele>667.0</ele><time>2026-04-19T14:26:30.806Z</time></trkpt><trkpt lat="44.4937312" lon="10.440596"><ele>667.0</ele><time>2026-04-19T14:26:31.803Z</time></trkpt><trkpt lat="44.4938117" lon="10.4405738"><ele>667.0</ele><time>2026-04-19T14:26:32.804Z</time></trkpt><trkpt lat="44.4938668" lon="10.4405057"><ele>667.0</ele><time>2026-04-19T14:26:33.805Z</time></trkpt><trkpt lat="44.4938787" lon="10.4404017"><ele>667.0</ele><time>2026-04-19T14:26:34.803Z</time></trkpt><trkpt lat="44.4938423" lon="10.4402882"><ele>669.0</ele><time>2026-04-19T14:26:35.803Z</time></trkpt><trkpt lat="44.4937915" lon="10.4401622"><ele>671.0</ele><time>2026-04-19T14:26:36.802Z</time></trkpt><trkpt lat="44.4937522" lon="10.4400127"><ele>673.0</ele><time>2026-04-19T14:26:37.804Z</time></trkpt><trkpt lat="44.4937262" lon="10.4398503"><ele>675.0</ele><time>2026-04-19T14:26:38.803Z</time></trkpt><trkpt lat="44.4937042" lon="10.4396963"><ele>677.0</ele><time>2026-04-19T14:26:39.802Z</time></trkpt><trkpt lat="44.4936883" lon="10.4395418"><ele>676.6</ele><time>2026-04-19T14:26:40.803Z</time></trkpt><trkpt lat="44.4936813" lon="10.4393848"><ele>676.2</ele><time>2026-04-19T14:26:41.805Z</time></trkpt><trkpt lat="44.4936882" lon="10.4392383"><ele>675.8</ele><time>2026-04-19T14:26:42.805Z</time></trkpt><trkpt lat="44.4937218" lon="10.4390928"><ele>675.4</ele><time>2026-04-19T14:26:43.804Z</time></trkpt><trkpt lat="44.493781" lon="10.438951"><ele>675.0</ele><time>2026-04-19T14:26:44.805Z</time></trkpt><trkpt lat="44.4938513" lon="10.4388207"><ele>673.2</ele><time>2026-04-19T14:26:45.802Z</time></trkpt><trkpt lat="44.4939125" lon="10.4387122"><ele>671.4</ele><time>2026-04-19T14:26:46.803Z</time></trkpt><trkpt lat="44.4939557" lon="10.4386112"><ele>669.5999999999999</ele><time>2026-04-19T14:26:47.802Z</time></trkpt><trkpt lat="44.4939857" lon="10.4385045"><ele>667.8</ele><time>2026-04-19T14:26:48.803Z</time></trkpt><trkpt lat="44.494004" lon="10.4383798"><ele>666.0</ele><time>2026-04-19T14:26:49.805Z</time></trkpt><trkpt lat="44.4940142" lon="10.4382343"><ele>666.0</ele><time>2026-04-19T14:26:50.803Z</time></trkpt><trkpt lat="44.4940258" lon="10.4380712"><ele>666.0</ele><time>2026-04-19T14:26:51.804Z</time></trkpt><trkpt lat="44.4940562" lon="10.4379153"><ele>666.0</ele><time>2026-04-19T14:26:52.804Z</time></trkpt><trkpt lat="44.4941183" lon="10.437783"><ele>666.0</ele><time>2026-04-19T14:26:53.806Z</time></trkpt><trkpt lat="44.4942147" lon="10.4376643"><ele>663.25</ele><time>2026-04-19T14:26:54.805Z</time></trkpt><trkpt lat="44.4943195" lon="10.437531"><ele>660.5</ele><time>2026-04-19T14:26:55.804Z</time></trkpt><trkpt lat="44.4944128" lon="10.4373655"><ele>657.75</ele><time>2026-04-19T14:26:56.805Z</time></trkpt><trkpt lat="44.4944893" lon="10.437192"><ele>655.0</ele><time>2026-04-19T14:26:57.804Z</time></trkpt><trkpt lat="44.4945528" lon="10.4370328"><ele>656.25</ele><time>2026-04-19T14:26:58.803Z</time></trkpt><trkpt lat="44.4946192" lon="10.436896"><ele>657.5</ele><time>2026-04-19T14:26:59.806Z</time></trkpt><trkpt lat="44.4947022" lon="10.4367888"><ele>658.75</ele><time>2026-04-19T14:27:00.805Z</time></trkpt><trkpt lat="44.4948072" lon="10.4367025"><ele>660.0</ele><time>2026-04-19T14:27:01.803Z</time></trkpt><trkpt lat="44.4949285" lon="10.4366135"><ele>660.0</ele><time>2026-04-19T14:27:02.803Z</time></trkpt><trkpt lat="44.495061" lon="10.436527"><ele>660.0</ele><time>2026-04-19T14:27:03.804Z</time></trkpt><trkpt lat="44.4951917" lon="10.4364473"><ele>660.0</ele><time>2026-04-19T14:27:04.806Z</time></trkpt><trkpt lat="44.4953142" lon="10.4363617"><ele>660.0</ele><time>2026-04-19T14:27:05.803Z</time></trkpt><trkpt lat="44.4954177" lon="10.436256"><ele>659.0</ele><time>2026-04-19T14:27:06.802Z</time></trkpt><trkpt lat="44.4955043" lon="10.4361438"><ele>658.0</ele><time>2026-04-19T14:27:07.802Z</time></trkpt><trkpt lat="44.4955918" lon="10.436042"><ele>657.0</ele><time>2026-04-19T14:27:08.803Z</time></trkpt><trkpt lat="44.495696" lon="10.4359843"><ele>656.0</ele><time>2026-04-19T14:27:09.802Z</time></trkpt><trkpt lat="44.4958205" lon="10.4359675"><ele>656.0</ele><time>2026-04-19T14:27:10.801Z</time></trkpt><trkpt lat="44.4959672" lon="10.435978"><ele>656.0</ele><time>2026-04-19T14:27:11.802Z</time></trkpt><trkpt lat="44.4961173" lon="10.4359905"><ele>656.0</ele><time>2026-04-19T14:27:12.8Z</time></trkpt><trkpt lat="44.496263" lon="10.4360012"><ele>656.0</ele><time>2026-04-19T14:27:13.802Z</time></trkpt><trkpt lat="44.4964028" lon="10.4359997"><ele>652.0</ele><time>2026-04-19T14:27:14.802Z</time></trkpt><trkpt lat="44.496538" lon="10.4359823"><ele>648.0</ele><time>2026-04-19T14:27:15.803Z</time></trkpt><trkpt lat="44.4966793" lon="10.4359475"><ele>644.0</ele><time>2026-04-19T14:27:16.807Z</time></trkpt><trkpt lat="44.4968207" lon="10.4358892"><ele>640.0</ele><time>2026-04-19T14:27:17.807Z</time></trkpt><trkpt lat="44.4969623" lon="10.4358348"><ele>640.25</ele><time>2026-04-19T14:27:18.808Z</time></trkpt><trkpt lat="44.497101" lon="10.4358135"><ele>640.5</ele><time>2026-04-19T14:27:19.808Z</time></trkpt><trkpt lat="44.4972335" lon="10.435811"><ele>640.75</ele><time>2026-04-19T14:27:20.807Z</time></trkpt><trkpt lat="44.4973572" lon="10.4357875"><ele>641.0</ele><time>2026-04-19T14:27:21.805Z</time></trkpt><trkpt lat="44.4974687" lon="10.4357287"><ele>641.0</ele><time>2026-04-19T14:27:22.806Z</time></trkpt><trkpt lat="44.4975523" lon="10.4356217"><ele>641.0</ele><time>2026-04-19T14:27:23.805Z</time></trkpt><trkpt lat="44.4976105" lon="10.4354868"><ele>641.0</ele><time>2026-04-19T14:27:24.807Z</time></trkpt><trkpt lat="44.497677" lon="10.4353645"><ele>641.0</ele><time>2026-04-19T14:27:25.806Z</time></trkpt><trkpt lat="44.4977625" lon="10.4352735"><ele>641.0</ele><time>2026-04-19T14:27:26.807Z</time></trkpt><trkpt lat="44.4978485" lon="10.4352373"><ele>637.25</ele><time>2026-04-19T14:27:27.806Z</time></trkpt><trkpt lat="44.4979287" lon="10.4352688"><ele>633.5</ele><time>2026-04-19T14:27:28.805Z</time></trkpt><trkpt lat="44.4980093" lon="10.4353643"><ele>629.75</ele><time>2026-04-19T14:27:29.805Z</time></trkpt><trkpt lat="44.4980895" lon="10.4354985"><ele>626.0</ele><time>2026-04-19T14:27:30.804Z</time></trkpt><trkpt lat="44.49817" lon="10.4356545"><ele>626.0</ele><time>2026-04-19T14:27:31.806Z</time></trkpt><trkpt lat="44.4982425" lon="10.4358223"><ele>626.0</ele><time>2026-04-19T14:27:32.806Z</time></trkpt><trkpt lat="44.4982988" lon="10.4359945"><ele>626.0</ele><time>2026-04-19T14:27:33.803Z</time></trkpt><trkpt lat="44.498332" lon="10.4361745"><ele>626.0</ele><time>2026-04-19T14:27:34.802Z</time></trkpt><trkpt lat="44.4983533" lon="10.4363667"><ele>628.0</ele><time>2026-04-19T14:27:35.804Z</time></trkpt><trkpt lat="44.4983707" lon="10.4365712"><ele>630.0</ele><time>2026-04-19T14:27:36.803Z</time></trkpt><trkpt lat="44.4983853" lon="10.4367893"><ele>632.0</ele><time>2026-04-19T14:27:37.802Z</time></trkpt><trkpt lat="44.4984008" lon="10.4370095"><ele>631.3333333333333</ele><time>2026-04-19T14:27:38.805Z</time></trkpt><trkpt lat="44.4984198" lon="10.4372293"><ele>630.6666666666666</ele><time>2026-04-19T14:27:39.805Z</time></trkpt><trkpt lat="44.4984307" lon="10.4374432"><ele>630.0</ele><time>2026-04-19T14:27:40.79Z</time></trkpt><trkpt lat="44.4984375" lon="10.4376382"><ele>630.0</ele><time>2026-04-19T14:27:41.805Z</time></trkpt><trkpt lat="44.4984378" lon="10.4378145"><ele>630.0</ele><time>2026-04-19T14:27:42.803Z</time></trkpt><trkpt lat="44.4984318" lon="10.4379865"><ele>630.0</ele><time>2026-04-19T14:27:43.804Z</time></trkpt><trkpt lat="44.4984235" lon="10.438157"><ele>630.0</ele><time>2026-04-19T14:27:44.806Z</time></trkpt><trkpt lat="44.4984073" lon="10.4383162"><ele>628.2</ele><time>2026-04-19T14:27:45.806Z</time></trkpt><trkpt lat="44.4983787" lon="10.4384582"><ele>626.4</ele><time>2026-04-19T14:27:46.805Z</time></trkpt><trkpt lat="44.4983367" lon="10.4385803"><ele>624.6</ele><time>2026-04-19T14:27:47.805Z</time></trkpt><trkpt lat="44.4982967" lon="10.438695"><ele>622.8</ele><time>2026-04-19T14:27:48.804Z</time></trkpt><trkpt lat="44.4982832" lon="10.4388175"><ele>621.0</ele><time>2026-04-19T14:27:49.803Z</time></trkpt><trkpt lat="44.4983068" lon="10.438933"><ele>619.8</ele><time>2026-04-19T14:27:50.804Z</time></trkpt><trkpt lat="44.4983673" lon="10.4390183"><ele>618.6</ele><time>2026-04-19T14:27:51.802Z</time></trkpt><trkpt lat="44.4984528" lon="10.4390627"><ele>617.4</ele><time>2026-04-19T14:27:52.804Z</time></trkpt><trkpt lat="44.498556" lon="10.4390732"><ele>616.2</ele><time>2026-04-19T14:27:53.804Z</time></trkpt><trkpt lat="44.4986745" lon="10.4390617"><ele>615.0</ele><time>2026-04-19T14:27:54.806Z</time></trkpt><trkpt lat="44.4988047" lon="10.4390437"><ele>610.75</ele><time>2026-04-19T14:27:55.804Z</time></trkpt><trkpt lat="44.4989383" lon="10.439022"><ele>606.5</ele><time>2026-04-19T14:27:56.808Z</time></trkpt><trkpt lat="44.4990678" lon="10.438995"><ele>602.25</ele><time>2026-04-19T14:27:57.805Z</time></trkpt><trkpt lat="44.4991915" lon="10.4389555"><ele>598.0</ele><time>2026-04-19T14:27:58.804Z</time></trkpt><trkpt lat="44.4993047" lon="10.4388912"><ele>599.0</ele><time>2026-04-19T14:27:59.803Z</time></trkpt><trkpt lat="44.4994058" lon="10.4387945"><ele>600.0</ele><time>2026-04-19T14:28:00.803Z</time></trkpt><trkpt lat="44.4994933" lon="10.4386582"><ele>601.0</ele><time>2026-04-19T14:28:01.802Z</time></trkpt><trkpt lat="44.4995542" lon="10.4384808"><ele>602.0</ele><time>2026-04-19T14:28:02.805Z</time></trkpt><trkpt lat="44.4995947" lon="10.4382765"><ele>596.3333333333333</ele><time>2026-04-19T14:28:03.804Z</time></trkpt><trkpt lat="44.499635" lon="10.4380717"><ele>590.6666666666666</ele><time>2026-04-19T14:28:04.805Z</time></trkpt><trkpt lat="44.4996893" lon="10.4378665"><ele>585.0</ele><time>2026-04-19T14:28:05.806Z</time></trkpt><trkpt lat="44.4997633" lon="10.4376607"><ele>585.0</ele><time>2026-04-19T14:28:06.804Z</time></trkpt><trkpt lat="44.4998503" lon="10.4374638"><ele>585.0</ele><time>2026-04-19T14:28:07.806Z</time></trkpt><trkpt lat="44.4999425" lon="10.4372743"><ele>585.0</ele><time>2026-04-19T14:28:08.807Z</time></trkpt><trkpt lat="44.5000345" lon="10.43709"><ele>586.0</ele><time>2026-04-19T14:28:09.805Z</time></trkpt><trkpt lat="44.5001262" lon="10.4369132"><ele>587.0</ele><time>2026-04-19T14:28:10.805Z</time></trkpt><trkpt lat="44.5002162" lon="10.4367407"><ele>588.0</ele><time>2026-04-19T14:28:11.806Z</time></trkpt><trkpt lat="44.5003025" lon="10.4365722"><ele>588.0</ele><time>2026-04-19T14:28:12.806Z</time></trkpt><trkpt lat="44.5003863" lon="10.4364138"><ele>588.0</ele><time>2026-04-19T14:28:13.806Z</time></trkpt><trkpt lat="44.500478" lon="10.4362643"><ele>588.0</ele><time>2026-04-19T14:28:14.805Z</time></trkpt><trkpt lat="44.5005848" lon="10.4361238"><ele>588.0</ele><time>2026-04-19T14:28:15.805Z</time></trkpt><trkpt lat="44.5007043" lon="10.435991"><ele>584.6666666666666</ele><time>2026-04-19T14:28:16.807Z</time></trkpt><trkpt lat="44.5008332" lon="10.4358607"><ele>581.3333333333333</ele><time>2026-04-19T14:28:17.806Z</time></trkpt><trkpt lat="44.5009668" lon="10.435727"><ele>578.0</ele><time>2026-04-19T14:28:18.805Z</time></trkpt><trkpt lat="44.5010993" lon="10.435594"><ele>576.0</ele><time>2026-04-19T14:28:19.806Z</time></trkpt><trkpt lat="44.501228" lon="10.4354638"><ele>574.0</ele><time>2026-04-19T14:28:20.806Z</time></trkpt><trkpt lat="44.5013515" lon="10.4353365"><ele>572.0</ele><time>2026-04-19T14:28:21.806Z</time></trkpt><trkpt lat="44.5014738" lon="10.4352182"><ele>570.75</ele><time>2026-04-19T14:28:22.805Z</time></trkpt><trkpt lat="44.501599" lon="10.4351193"><ele>569.5</ele><time>2026-04-19T14:28:23.805Z</time></trkpt><trkpt lat="44.5017275" lon="10.4350423"><ele>568.25</ele><time>2026-04-19T14:28:24.805Z</time></trkpt><trkpt lat="44.50186" lon="10.4349863"><ele>567.0</ele><time>2026-04-19T14:28:25.804Z</time></trkpt><trkpt lat="44.5019887" lon="10.4349403"><ele>565.25</ele><time>2026-04-19T14:28:26.805Z</time></trkpt><trkpt lat="44.502112" lon="10.4349007"><ele>563.5</ele><time>2026-04-19T14:28:27.805Z</time></trkpt><trkpt lat="44.5022302" lon="10.4348665"><ele>561.75</ele><time>2026-04-19T14:28:28.807Z</time></trkpt><trkpt lat="44.5023457" lon="10.434836"><ele>560.0</ele><time>2026-04-19T14:28:29.808Z</time></trkpt><trkpt lat="44.5024633" lon="10.434796"><ele>560.0</ele><time>2026-04-19T14:28:30.807Z</time></trkpt><trkpt lat="44.5025838" lon="10.4347383"><ele>560.0</ele><time>2026-04-19T14:28:31.807Z</time></trkpt><trkpt lat="44.502706" lon="10.4346605"><ele>560.0</ele><time>2026-04-19T14:28:32.806Z</time></trkpt><trkpt lat="44.5028247" lon="10.434576"><ele>560.0</ele><time>2026-04-19T14:28:33.806Z</time></trkpt><trkpt lat="44.502942" lon="10.4344918"><ele>559.75</ele><time>2026-04-19T14:28:34.806Z</time></trkpt><trkpt lat="44.5030622" lon="10.4344037"><ele>559.5</ele><time>2026-04-19T14:28:35.81Z</time></trkpt><trkpt lat="44.5031763" lon="10.434301"><ele>559.25</ele><time>2026-04-19T14:28:36.805Z</time></trkpt><trkpt lat="44.5032815" lon="10.434169"><ele>559.0</ele><time>2026-04-19T14:28:37.808Z</time></trkpt><trkpt lat="44.503368" lon="10.4340162"><ele>559.0</ele><time>2026-04-19T14:28:38.807Z</time></trkpt><trkpt lat="44.5034297" lon="10.4338493"><ele>559.0</ele><time>2026-04-19T14:28:39.807Z</time></trkpt><trkpt lat="44.5034733" lon="10.4336877"><ele>559.0</ele><time>2026-04-19T14:28:40.806Z</time></trkpt><trkpt lat="44.5035137" lon="10.4335468"><ele>559.0</ele><time>2026-04-19T14:28:41.812Z</time></trkpt><trkpt lat="44.5035618" lon="10.433443"><ele>556.4</ele><time>2026-04-19T14:28:42.809Z</time></trkpt><trkpt lat="44.5036287" lon="10.4333797"><ele>553.8</ele><time>2026-04-19T14:28:43.806Z</time></trkpt><trkpt lat="44.5037108" lon="10.433367"><ele>551.2</ele><time>2026-04-19T14:28:44.809Z</time></trkpt><trkpt lat="44.5038122" lon="10.4334093"><ele>548.6</ele><time>2026-04-19T14:28:45.807Z</time></trkpt><trkpt lat="44.5039183" lon="10.4334813"><ele>546.0</ele><time>2026-04-19T14:28:46.809Z</time></trkpt><trkpt lat="44.5040227" lon="10.4335503"><ele>546.0</ele><time>2026-04-19T14:28:47.804Z</time></trkpt><trkpt lat="44.5041283" lon="10.4336022"><ele>546.0</ele><time>2026-04-19T14:28:48.804Z</time></trkpt><trkpt lat="44.5042358" lon="10.4336325"><ele>546.0</ele><time>2026-04-19T14:28:49.804Z</time></trkpt><trkpt lat="44.5043417" lon="10.4336523"><ele>546.0</ele><time>2026-04-19T14:28:50.805Z</time></trkpt><trkpt lat="44.504443" lon="10.4336727"><ele>546.0</ele><time>2026-04-19T14:28:51.805Z</time></trkpt><trkpt lat="44.5045365" lon="10.4336982"><ele>545.4</ele><time>2026-04-19T14:28:52.806Z</time></trkpt><trkpt lat="44.5046565" lon="10.4337505"><ele>544.8</ele><time>2026-04-19T14:28:54.204Z</time></trkpt><trkpt lat="44.5047687" lon="10.4338637"><ele>544.1999999999999</ele><time>2026-04-19T14:28:55.805Z</time></trkpt><trkpt lat="44.5048243" lon="10.4339502"><ele>543.6</ele><time>2026-04-19T14:28:56.806Z</time></trkpt><trkpt lat="44.5048738" lon="10.4340383"><ele>543.0</ele><time>2026-04-19T14:28:57.807Z</time></trkpt><trkpt lat="44.5049175" lon="10.4341278"><ele>543.0</ele><time>2026-04-19T14:28:58.807Z</time></trkpt><trkpt lat="44.504957" lon="10.4342198"><ele>543.0</ele><time>2026-04-19T14:28:59.81Z</time></trkpt><trkpt lat="44.5049952" lon="10.4343133"><ele>543.0</ele><time>2026-04-19T14:29:00.805Z</time></trkpt><trkpt lat="44.5050355" lon="10.4344057"><ele>543.0</ele><time>2026-04-19T14:29:01.807Z</time></trkpt><trkpt lat="44.5050857" lon="10.4344987"><ele>543.0</ele><time>2026-04-19T14:29:02.806Z</time></trkpt><trkpt lat="44.5051493" lon="10.4345888"><ele>543.0</ele><time>2026-04-19T14:29:03.807Z</time></trkpt><trkpt lat="44.5052255" lon="10.4346652"><ele>543.25</ele><time>2026-04-19T14:29:04.804Z</time></trkpt><trkpt lat="44.5053193" lon="10.434736"><ele>543.5</ele><time>2026-04-19T14:29:05.805Z</time></trkpt><trkpt lat="44.5054308" lon="10.434801"><ele>543.75</ele><time>2026-04-19T14:29:06.805Z</time></trkpt><trkpt lat="44.5055467" lon="10.4348603"><ele>544.0</ele><time>2026-04-19T14:29:07.805Z</time></trkpt><trkpt lat="44.5056623" lon="10.4349215"><ele>540.5</ele><time>2026-04-19T14:29:08.806Z</time></trkpt><trkpt lat="44.5057763" lon="10.4349965"><ele>537.0</ele><time>2026-04-19T14:29:09.809Z</time></trkpt><trkpt lat="44.5058927" lon="10.4350857"><ele>533.5</ele><time>2026-04-19T14:29:10.807Z</time></trkpt><trkpt lat="44.5060095" lon="10.4351712"><ele>530.0</ele><time>2026-04-19T14:29:11.804Z</time></trkpt><trkpt lat="44.5061235" lon="10.435243"><ele>530.0</ele><time>2026-04-19T14:29:12.807Z</time></trkpt><trkpt lat="44.5062265" lon="10.4353028"><ele>530.0</ele><time>2026-04-19T14:29:13.804Z</time></trkpt><trkpt lat="44.5063205" lon="10.4353568"><ele>530.0</ele><time>2026-04-19T14:29:14.805Z</time></trkpt><trkpt lat="44.5064017" lon="10.4354082"><ele>530.0</ele><time>2026-04-19T14:29:15.806Z</time></trkpt><trkpt lat="44.5064737" lon="10.4354652"><ele>530.0</ele><time>2026-04-19T14:29:16.805Z</time></trkpt><trkpt lat="44.5065362" lon="10.4355353"><ele>529.1666666666666</ele><time>2026-04-19T14:29:17.809Z</time></trkpt><trkpt lat="44.5065862" lon="10.4356193"><ele>528.3333333333333</ele><time>2026-04-19T14:29:18.805Z</time></trkpt><trkpt lat="44.5066222" lon="10.4357163"><ele>527.5</ele><time>2026-04-19T14:29:19.807Z</time></trkpt><trkpt lat="44.5066445" lon="10.4358172"><ele>526.6666666666666</ele><time>2026-04-19T14:29:20.806Z</time></trkpt><trkpt lat="44.5066593" lon="10.435918"><ele>525.8333333333334</ele><time>2026-04-19T14:29:21.81Z</time></trkpt><trkpt lat="44.5066773" lon="10.4360205"><ele>525.0</ele><time>2026-04-19T14:29:22.806Z</time></trkpt><trkpt lat="44.5067028" lon="10.4361198"><ele>525.0</ele><time>2026-04-19T14:29:23.806Z</time></trkpt><trkpt lat="44.506741" lon="10.4362088"><ele>525.0</ele><time>2026-04-19T14:29:24.807Z</time></trkpt><trkpt lat="44.5067967" lon="10.4362843"><ele>525.0</ele><time>2026-04-19T14:29:25.805Z</time></trkpt><trkpt lat="44.506876" lon="10.4363415"><ele>525.0</ele><time>2026-04-19T14:29:26.807Z</time></trkpt><trkpt lat="44.5069855" lon="10.4364043"><ele>525.0</ele><time>2026-04-19T14:29:27.806Z</time></trkpt><trkpt lat="44.507109" lon="10.436484"><ele>524.0</ele><time>2026-04-19T14:29:28.807Z</time></trkpt><trkpt lat="44.5072418" lon="10.4365728"><ele>523.0</ele><time>2026-04-19T14:29:29.806Z</time></trkpt><trkpt lat="44.5073795" lon="10.4366608"><ele>522.0</ele><time>2026-04-19T14:29:30.807Z</time></trkpt><trkpt lat="44.507516" lon="10.4367418"><ele>521.0</ele><time>2026-04-19T14:29:31.808Z</time></trkpt><trkpt lat="44.5076405" lon="10.4368275"><ele>521.0</ele><time>2026-04-19T14:29:32.808Z</time></trkpt><trkpt lat="44.507746" lon="10.4369187"><ele>521.0</ele><time>2026-04-19T14:29:33.808Z</time></trkpt><trkpt lat="44.5078423" lon="10.4369895"><ele>521.0</ele><time>2026-04-19T14:29:34.807Z</time></trkpt><trkpt lat="44.5079482" lon="10.4370173"><ele>521.0</ele><time>2026-04-19T14:29:35.806Z</time></trkpt><trkpt lat="44.5080553" lon="10.43701"><ele>521.0</ele><time>2026-04-19T14:29:36.803Z</time></trkpt><trkpt lat="44.508161" lon="10.4369642"><ele>519.25</ele><time>2026-04-19T14:29:37.806Z</time></trkpt><trkpt lat="44.5082582" lon="10.4368663"><ele>517.5</ele><time>2026-04-19T14:29:38.805Z</time></trkpt><trkpt lat="44.508343" lon="10.4367338"><ele>515.75</ele><time>2026-04-19T14:29:39.804Z</time></trkpt><trkpt lat="44.5084285" lon="10.4366035"><ele>514.0</ele><time>2026-04-19T14:29:40.807Z</time></trkpt><trkpt lat="44.5085303" lon="10.4364835"><ele>514.0</ele><time>2026-04-19T14:29:41.81Z</time></trkpt><trkpt lat="44.5086535" lon="10.43638"><ele>514.0</ele><time>2026-04-19T14:29:42.807Z</time></trkpt><trkpt lat="44.5087937" lon="10.4362948"><ele>514.0</ele><time>2026-04-19T14:29:43.807Z</time></trkpt><trkpt lat="44.508939" lon="10.4362213"><ele>510.5</ele><time>2026-04-19T14:29:44.807Z</time></trkpt><trkpt lat="44.5090805" lon="10.4361562"><ele>507.0</ele><time>2026-04-19T14:29:45.807Z</time></trkpt><trkpt lat="44.5092198" lon="10.4361008"><ele>503.5</ele><time>2026-04-19T14:29:46.807Z</time></trkpt><trkpt lat="44.50936" lon="10.4360715"><ele>500.0</ele><time>2026-04-19T14:29:47.81Z</time></trkpt><trkpt lat="44.5094975" lon="10.4360863"><ele>499.0</ele><time>2026-04-19T14:29:48.808Z</time></trkpt><trkpt lat="44.5096218" lon="10.4361285"><ele>498.0</ele><time>2026-04-19T14:29:49.807Z</time></trkpt><trkpt lat="44.5097302" lon="10.4361647"><ele>497.0</ele><time>2026-04-19T14:29:50.808Z</time></trkpt><trkpt lat="44.5098223" lon="10.4361628"><ele>496.0</ele><time>2026-04-19T14:29:51.808Z</time></trkpt><trkpt lat="44.5099025" lon="10.436106"><ele>495.0</ele><time>2026-04-19T14:29:52.806Z</time></trkpt><trkpt lat="44.5099695" lon="10.4359913"><ele>495.0</ele><time>2026-04-19T14:29:53.808Z</time></trkpt><trkpt lat="44.5100322" lon="10.4358645"><ele>495.0</ele><time>2026-04-19T14:29:54.807Z</time></trkpt><trkpt lat="44.5101155" lon="10.4357543"><ele>495.0</ele><time>2026-04-19T14:29:55.806Z</time></trkpt><trkpt lat="44.5102267" lon="10.435672"><ele>495.0</ele><time>2026-04-19T14:29:56.808Z</time></trkpt><trkpt lat="44.5103473" lon="10.4356237"><ele>493.8</ele><time>2026-04-19T14:29:57.807Z</time></trkpt><trkpt lat="44.5104635" lon="10.4356028"><ele>492.6</ele><time>2026-04-19T14:29:58.807Z</time></trkpt><trkpt lat="44.5105693" lon="10.4356202"><ele>491.4</ele><time>2026-04-19T14:29:59.808Z</time></trkpt><trkpt lat="44.5106643" lon="10.4356608"><ele>490.2</ele><time>2026-04-19T14:30:00.806Z</time></trkpt><trkpt lat="44.5107608" lon="10.4356647"><ele>489.0</ele><time>2026-04-19T14:30:01.804Z</time></trkpt><trkpt lat="44.5108588" lon="10.4355985"><ele>489.0</ele><time>2026-04-19T14:30:02.803Z</time></trkpt><trkpt lat="44.5109457" lon="10.4354742"><ele>489.0</ele><time>2026-04-19T14:30:03.804Z</time></trkpt><trkpt lat="44.51103" lon="10.435348"><ele>489.0</ele><time>2026-04-19T14:30:04.806Z</time></trkpt><trkpt lat="44.511126" lon="10.4352472"><ele>489.0</ele><time>2026-04-19T14:30:05.806Z</time></trkpt><trkpt lat="44.511234" lon="10.4351862"><ele>486.25</ele><time>2026-04-19T14:30:06.807Z</time></trkpt><trkpt lat="44.51135" lon="10.4351752"><ele>483.5</ele><time>2026-04-19T14:30:07.812Z</time></trkpt><trkpt lat="44.5114638" lon="10.4352108"><ele>480.75</ele><time>2026-04-19T14:30:08.807Z</time></trkpt><trkpt lat="44.5115745" lon="10.4352713"><ele>478.0</ele><time>2026-04-19T14:30:09.806Z</time></trkpt><trkpt lat="44.5116847" lon="10.435319"><ele>478.0</ele><time>2026-04-19T14:30:10.807Z</time></trkpt><trkpt lat="44.5117903" lon="10.4353172"><ele>477.99999999999994</ele><time>2026-04-19T14:30:11.809Z</time></trkpt><trkpt lat="44.511886" lon="10.4352607"><ele>477.99999999999994</ele><time>2026-04-19T14:30:12.808Z</time></trkpt><trkpt lat="44.5119745" lon="10.4351827"><ele>478.0</ele><time>2026-04-19T14:30:13.807Z</time></trkpt><trkpt lat="44.5120617" lon="10.4351093"><ele>478.0</ele><time>2026-04-19T14:30:14.808Z</time></trkpt><trkpt lat="44.5121543" lon="10.4350617"><ele>477.0</ele><time>2026-04-19T14:30:15.808Z</time></trkpt><trkpt lat="44.5122557" lon="10.4350578"><ele>476.0</ele><time>2026-04-19T14:30:16.808Z</time></trkpt><trkpt lat="44.5123672" lon="10.4350865"><ele>475.0</ele><time>2026-04-19T14:30:17.807Z</time></trkpt><trkpt lat="44.5124892" lon="10.4351327"><ele>474.0</ele><time>2026-04-19T14:30:18.808Z</time></trkpt><trkpt lat="44.5126173" lon="10.4351878"><ele>474.0</ele><time>2026-04-19T14:30:19.809Z</time></trkpt><trkpt lat="44.5127478" lon="10.4352335"><ele>474.0</ele><time>2026-04-19T14:30:20.808Z</time></trkpt><trkpt lat="44.5128765" lon="10.4352585"><ele>474.0</ele><time>2026-04-19T14:30:21.807Z</time></trkpt><trkpt lat="44.5129968" lon="10.4352692"><ele>474.0</ele><time>2026-04-19T14:30:22.81Z</time></trkpt><trkpt lat="44.5131012" lon="10.435275"><ele>473.1666666666667</ele><time>2026-04-19T14:30:23.811Z</time></trkpt><trkpt lat="44.5131868" lon="10.435262"><ele>472.33333333333337</ele><time>2026-04-19T14:30:24.807Z</time></trkpt><trkpt lat="44.513246" lon="10.4352118"><ele>471.5</ele><time>2026-04-19T14:30:25.805Z</time></trkpt><trkpt lat="44.5132713" lon="10.4351297"><ele>470.6666666666667</ele><time>2026-04-19T14:30:26.805Z</time></trkpt><trkpt lat="44.5132625" lon="10.4350233"><ele>469.83333333333337</ele><time>2026-04-19T14:30:27.806Z</time></trkpt><trkpt lat="44.5132195" lon="10.434911"><ele>469.0</ele><time>2026-04-19T14:30:28.804Z</time></trkpt><trkpt lat="44.5131517" lon="10.4348015"><ele>469.0</ele><time>2026-04-19T14:30:29.808Z</time></trkpt><trkpt lat="44.5130785" lon="10.4346988"><ele>469.0</ele><time>2026-04-19T14:30:30.807Z</time></trkpt><trkpt lat="44.513008" lon="10.4346062"><ele>469.0</ele><time>2026-04-19T14:30:31.807Z</time></trkpt><trkpt lat="44.5129543" lon="10.4345218"><ele>469.0</ele><time>2026-04-19T14:30:32.809Z</time></trkpt><trkpt lat="44.5129202" lon="10.4344353"><ele>469.0</ele><time>2026-04-19T14:30:33.809Z</time></trkpt><trkpt lat="44.5129525" lon="10.4342868"><ele>467.2</ele><time>2026-04-19T14:30:35.809Z</time></trkpt><trkpt lat="44.5130798" lon="10.4343047"><ele>465.4</ele><time>2026-04-19T14:30:37.807Z</time></trkpt><trkpt lat="44.5131358" lon="10.4343787"><ele>463.6</ele><time>2026-04-19T14:30:38.809Z</time></trkpt><trkpt lat="44.5131993" lon="10.4344755"><ele>461.8</ele><time>2026-04-19T14:30:39.806Z</time></trkpt><trkpt lat="44.5132803" lon="10.434558"><ele>460.0</ele><time>2026-04-19T14:30:40.806Z</time></trkpt><trkpt lat="44.5133828" lon="10.4346202"><ele>458.5</ele><time>2026-04-19T14:30:41.806Z</time></trkpt><trkpt lat="44.513501" lon="10.4346692"><ele>457.0</ele><time>2026-04-19T14:30:42.807Z</time></trkpt><trkpt lat="44.5136212" lon="10.4347153"><ele>455.5</ele><time>2026-04-19T14:30:43.809Z</time></trkpt><trkpt lat="44.5137403" lon="10.4347455"><ele>454.0</ele><time>2026-04-19T14:30:44.806Z</time></trkpt><trkpt lat="44.513857" lon="10.4347425"><ele>454.0</ele><time>2026-04-19T14:30:45.81Z</time></trkpt><trkpt lat="44.5139595" lon="10.4346998"><ele>454.0</ele><time>2026-04-19T14:30:46.807Z</time></trkpt><trkpt lat="44.5140537" lon="10.4346527"><ele>454.0</ele><time>2026-04-19T14:30:47.809Z</time></trkpt><trkpt lat="44.5141518" lon="10.4346515"><ele>454.0</ele><time>2026-04-19T14:30:48.808Z</time></trkpt><trkpt lat="44.5142523" lon="10.4347063"><ele>454.0</ele><time>2026-04-19T14:30:49.805Z</time></trkpt><trkpt lat="44.5143433" lon="10.4347943"><ele>454.0</ele><time>2026-04-19T14:30:50.806Z</time></trkpt><trkpt lat="44.5144265" lon="10.4348735"><ele>454.0</ele><time>2026-04-19T14:30:51.805Z</time></trkpt><trkpt lat="44.5145183" lon="10.4349318"><ele>454.0</ele><time>2026-04-19T14:30:52.807Z</time></trkpt><trkpt lat="44.514615" lon="10.4349475"><ele>454.0</ele><time>2026-04-19T14:30:53.806Z</time></trkpt><trkpt lat="44.5147137" lon="10.4349395"><ele>454.0</ele><time>2026-04-19T14:30:54.806Z</time></trkpt><trkpt lat="44.5148125" lon="10.4349347"><ele>452.00000000000006</ele><time>2026-04-19T14:30:55.809Z</time></trkpt><trkpt lat="44.5149088" lon="10.434957"><ele>450.0</ele><time>2026-04-19T14:30:56.807Z</time></trkpt><trkpt lat="44.514995" lon="10.4350242"><ele>448.0</ele><time>2026-04-19T14:30:57.81Z</time></trkpt><trkpt lat="44.515055" lon="10.4351272"><ele>446.0</ele><time>2026-04-19T14:30:58.808Z</time></trkpt><trkpt lat="44.5150808" lon="10.4352385"><ele>444.00000000000006</ele><time>2026-04-19T14:30:59.808Z</time></trkpt><trkpt lat="44.5150983" lon="10.4353365"><ele>442.0</ele><time>2026-04-19T14:31:00.808Z</time></trkpt><trkpt lat="44.515192" lon="10.4354348"><ele>442.0</ele><time>2026-04-19T14:31:02.806Z</time></trkpt><trkpt lat="44.5152658" lon="10.4354185"><ele>442.00000000000006</ele><time>2026-04-19T14:31:03.808Z</time></trkpt><trkpt lat="44.5153547" lon="10.4353848"><ele>442.00000000000006</ele><time>2026-04-19T14:31:04.807Z</time></trkpt><trkpt lat="44.5154513" lon="10.4353425"><ele>442.0</ele><time>2026-04-19T14:31:05.807Z</time></trkpt><trkpt lat="44.5155457" lon="10.435303"><ele>442.0</ele><time>2026-04-19T14:31:06.807Z</time></trkpt><trkpt lat="44.5156412" lon="10.43526"><ele>439.25</ele><time>2026-04-19T14:31:07.807Z</time></trkpt><trkpt lat="44.5157427" lon="10.4352053"><ele>436.5</ele><time>2026-04-19T14:31:08.808Z</time></trkpt><trkpt lat="44.515849" lon="10.4351328"><ele>433.75</ele><time>2026-04-19T14:31:09.807Z</time></trkpt><trkpt lat="44.5159583" lon="10.435044"><ele>431.0</ele><time>2026-04-19T14:31:10.807Z</time></trkpt><trkpt lat="44.5160675" lon="10.4349438"><ele>431.0</ele><time>2026-04-19T14:31:11.807Z</time></trkpt><trkpt lat="44.5161698" lon="10.434838"><ele>431.0</ele><time>2026-04-19T14:31:12.806Z</time></trkpt><trkpt lat="44.5162662" lon="10.4347302"><ele>431.0</ele><time>2026-04-19T14:31:13.808Z</time></trkpt><trkpt lat="44.5163643" lon="10.4346345"><ele>431.0</ele><time>2026-04-19T14:31:14.806Z</time></trkpt><trkpt lat="44.5164698" lon="10.434568"><ele>430.20000000000005</ele><time>2026-04-19T14:31:15.804Z</time></trkpt><trkpt lat="44.5165727" lon="10.4345105"><ele>429.40000000000003</ele><time>2026-04-19T14:31:16.805Z</time></trkpt><trkpt lat="44.5166617" lon="10.4344305"><ele>428.6</ele><time>2026-04-19T14:31:17.806Z</time></trkpt><trkpt lat="44.5167287" lon="10.4343247"><ele>427.8</ele><time>2026-04-19T14:31:18.807Z</time></trkpt><trkpt lat="44.5167775" lon="10.4342055"><ele>427.0</ele><time>2026-04-19T14:31:19.807Z</time></trkpt><trkpt lat="44.5168198" lon="10.4340865"><ele>427.0</ele><time>2026-04-19T14:31:20.806Z</time></trkpt><trkpt lat="44.5168692" lon="10.4339792"><ele>427.00000000000006</ele><time>2026-04-19T14:31:21.806Z</time></trkpt><trkpt lat="44.516938" lon="10.4339005"><ele>427.00000000000006</ele><time>2026-04-19T14:31:22.808Z</time></trkpt><trkpt lat="44.5170233" lon="10.4338747"><ele>427.0</ele><time>2026-04-19T14:31:23.808Z</time></trkpt><trkpt lat="44.5171213" lon="10.433902"><ele>427.0</ele><time>2026-04-19T14:31:24.806Z</time></trkpt><trkpt lat="44.5172293" lon="10.4339442"><ele>427.5</ele><time>2026-04-19T14:31:25.807Z</time></trkpt><trkpt lat="44.5173488" lon="10.433957"><ele>428.0</ele><time>2026-04-19T14:31:26.806Z</time></trkpt><trkpt lat="44.5174715" lon="10.4339415"><ele>428.5</ele><time>2026-04-19T14:31:27.807Z</time></trkpt><trkpt lat="44.5175997" lon="10.4339212"><ele>429.0</ele><time>2026-04-19T14:31:28.808Z</time></trkpt><trkpt lat="44.5177215" lon="10.4338895"><ele>429.0</ele><time>2026-04-19T14:31:29.808Z</time></trkpt><trkpt lat="44.5178335" lon="10.4338363"><ele>429.0</ele><time>2026-04-19T14:31:30.807Z</time></trkpt><trkpt lat="44.5179355" lon="10.43378"><ele>429.0</ele><time>2026-04-19T14:31:31.81Z</time></trkpt><trkpt lat="44.5180297" lon="10.4337413"><ele>429.0</ele><time>2026-04-19T14:31:32.809Z</time></trkpt><trkpt lat="44.5181147" lon="10.4337422"><ele>429.0</ele><time>2026-04-19T14:31:33.807Z</time></trkpt><trkpt lat="44.5181768" lon="10.433789"><ele>428.3333333333333</ele><time>2026-04-19T14:31:34.808Z</time></trkpt><trkpt lat="44.5182155" lon="10.4338762"><ele>427.66666666666663</ele><time>2026-04-19T14:31:35.806Z</time></trkpt><trkpt lat="44.5182523" lon="10.43398"><ele>427.0</ele><time>2026-04-19T14:31:36.808Z</time></trkpt><trkpt lat="44.5183095" lon="10.4340593"><ele>426.3333333333333</ele><time>2026-04-19T14:31:37.808Z</time></trkpt><trkpt lat="44.5183917" lon="10.434096"><ele>425.66666666666663</ele><time>2026-04-19T14:31:38.806Z</time></trkpt><trkpt lat="44.518491" lon="10.4340942"><ele>425.0</ele><time>2026-04-19T14:31:39.807Z</time></trkpt><trkpt lat="44.5185943" lon="10.4340932"><ele>425.0</ele><time>2026-04-19T14:31:40.806Z</time></trkpt><trkpt lat="44.5187053" lon="10.4341227"><ele>425.0</ele><time>2026-04-19T14:31:41.805Z</time></trkpt><trkpt lat="44.5188207" lon="10.4341743"><ele>425.0</ele><time>2026-04-19T14:31:42.807Z</time></trkpt><trkpt lat="44.5189385" lon="10.4342482"><ele>425.0</ele><time>2026-04-19T14:31:43.808Z</time></trkpt><trkpt lat="44.5190495" lon="10.4343337"><ele>424.75</ele><time>2026-04-19T14:31:44.81Z</time></trkpt><trkpt lat="44.519151" lon="10.4344337"><ele>424.5</ele><time>2026-04-19T14:31:45.808Z</time></trkpt><trkpt lat="44.5192367" lon="10.4345532"><ele>424.25</ele><time>2026-04-19T14:31:46.808Z</time></trkpt><trkpt lat="44.519301" lon="10.4346878"><ele>424.0</ele><time>2026-04-19T14:31:47.807Z</time></trkpt><trkpt lat="44.5193655" lon="10.4348138"><ele>424.0</ele><time>2026-04-19T14:31:48.807Z</time></trkpt><trkpt lat="44.5194443" lon="10.4349152"><ele>424.0</ele><time>2026-04-19T14:31:49.807Z</time></trkpt><trkpt lat="44.5195362" lon="10.4349892"><ele>424.0</ele><time>2026-04-19T14:31:50.808Z</time></trkpt><trkpt lat="44.5196327" lon="10.4350075"><ele>424.0</ele><time>2026-04-19T14:31:51.805Z</time></trkpt><trkpt lat="44.5197188" lon="10.4349588"><ele>424.0</ele><time>2026-04-19T14:31:52.806Z</time></trkpt><trkpt lat="44.5197918" lon="10.4348645"><ele>421.5</ele><time>2026-04-19T14:31:53.807Z</time></trkpt><trkpt lat="44.519878" lon="10.43478"><ele>419.0</ele><time>2026-04-19T14:31:54.808Z</time></trkpt><trkpt lat="44.5199912" lon="10.4347462"><ele>416.5</ele><time>2026-04-19T14:31:55.807Z</time></trkpt><trkpt lat="44.5201298" lon="10.434739"><ele>414.0</ele><time>2026-04-19T14:31:56.808Z</time></trkpt><trkpt lat="44.5202845" lon="10.4347243"><ele>412.66666666666663</ele><time>2026-04-19T14:31:57.809Z</time></trkpt><trkpt lat="44.5204403" lon="10.4346972"><ele>411.3333333333333</ele><time>2026-04-19T14:31:58.807Z</time></trkpt><trkpt lat="44.5205913" lon="10.4346763"><ele>410.0</ele><time>2026-04-19T14:31:59.808Z</time></trkpt><trkpt lat="44.5207338" lon="10.434659"><ele>410.0</ele><time>2026-04-19T14:32:00.806Z</time></trkpt><trkpt lat="44.5208757" lon="10.4346427"><ele>410.0</ele><time>2026-04-19T14:32:01.807Z</time></trkpt><trkpt lat="44.5210128" lon="10.4346305"><ele>410.0</ele><time>2026-04-19T14:32:02.807Z</time></trkpt><trkpt lat="44.521147" lon="10.4346438"><ele>410.0</ele><time>2026-04-19T14:32:03.806Z</time></trkpt><trkpt lat="44.521271" lon="10.4346732"><ele>407.2</ele><time>2026-04-19T14:32:04.806Z</time></trkpt><trkpt lat="44.5213777" lon="10.434713"><ele>404.4</ele><time>2026-04-19T14:32:05.806Z</time></trkpt><trkpt lat="44.521466" lon="10.4347615"><ele>401.6</ele><time>2026-04-19T14:32:06.807Z</time></trkpt><trkpt lat="44.5215427" lon="10.434826"><ele>398.8</ele><time>2026-04-19T14:32:07.807Z</time></trkpt><trkpt lat="44.5216188" lon="10.4348768"><ele>396.0</ele><time>2026-04-19T14:32:08.809Z</time></trkpt><trkpt lat="44.5216913" lon="10.4348717"><ele>396.0</ele><time>2026-04-19T14:32:09.806Z</time></trkpt><trkpt lat="44.5217448" lon="10.4348057"><ele>396.0</ele><time>2026-04-19T14:32:10.806Z</time></trkpt><trkpt lat="44.5217752" lon="10.4347017"><ele>396.0</ele><time>2026-04-19T14:32:11.806Z</time></trkpt><trkpt lat="44.5217927" lon="10.4345708"><ele>396.0</ele><time>2026-04-19T14:32:12.807Z</time></trkpt><trkpt lat="44.5218072" lon="10.434424"><ele>396.0</ele><time>2026-04-19T14:32:13.807Z</time></trkpt><trkpt lat="44.5218243" lon="10.4342705"><ele>394.8</ele><time>2026-04-19T14:32:14.81Z</time></trkpt><trkpt lat="44.5218415" lon="10.4341142"><ele>393.6</ele><time>2026-04-19T14:32:15.806Z</time></trkpt><trkpt lat="44.521856" lon="10.4339645"><ele>392.4</ele><time>2026-04-19T14:32:16.807Z</time></trkpt><trkpt lat="44.5218685" lon="10.4338395"><ele>391.2</ele><time>2026-04-19T14:32:17.807Z</time></trkpt><trkpt lat="44.521878" lon="10.4337313"><ele>390.0</ele><time>2026-04-19T14:32:18.807Z</time></trkpt><trkpt lat="44.521886" lon="10.4336348"><ele>389.4</ele><time>2026-04-19T14:32:19.806Z</time></trkpt><trkpt lat="44.5218927" lon="10.4334963"><ele>388.8</ele><time>2026-04-19T14:32:21.807Z</time></trkpt><trkpt lat="44.521896" lon="10.4333923"><ele>388.20000000000005</ele><time>2026-04-19T14:32:23.807Z</time></trkpt><trkpt lat="44.5219352" lon="10.4333168"><ele>387.6</ele><time>2026-04-19T14:32:26.807Z</time></trkpt><trkpt lat="44.5220235" lon="10.4333775"><ele>387.0</ele><time>2026-04-19T14:32:29.805Z</time></trkpt><trkpt lat="44.5220972" lon="10.4334977"><ele>387.5</ele><time>2026-04-19T14:32:31.806Z</time></trkpt><trkpt lat="44.5221473" lon="10.4335637"><ele>388.0</ele><time>2026-04-19T14:32:32.808Z</time></trkpt><trkpt lat="44.5221972" lon="10.4336245"><ele>388.5</ele><time>2026-04-19T14:32:33.805Z</time></trkpt><trkpt lat="44.5222818" lon="10.4337312"><ele>389.0</ele><time>2026-04-19T14:32:35.807Z</time></trkpt><trkpt lat="44.5223528" lon="10.4338563"><ele>389.5</ele><time>2026-04-19T14:32:37.809Z</time></trkpt><trkpt lat="44.522388" lon="10.4339383"><ele>390.0</ele><time>2026-04-19T14:32:38.806Z</time></trkpt><trkpt lat="44.5224193" lon="10.4340232"><ele>390.0</ele><time>2026-04-19T14:32:39.804Z</time></trkpt><trkpt lat="44.5224572" lon="10.4341032"><ele>390.0</ele><time>2026-04-19T14:32:40.806Z</time></trkpt><trkpt lat="44.5225012" lon="10.4341683"><ele>390.0</ele><time>2026-04-19T14:32:41.806Z</time></trkpt><trkpt lat="44.5225997" lon="10.4342558"><ele>390.0</ele><time>2026-04-19T14:32:43.805Z</time></trkpt><trkpt lat="44.5227098" lon="10.4343117"><ele>390.0</ele><time>2026-04-19T14:32:45.807Z</time></trkpt><trkpt lat="44.5228245" lon="10.4343368"><ele>391.0</ele><time>2026-04-19T14:32:47.808Z</time></trkpt><trkpt lat="44.5229235" lon="10.4343733"><ele>392.0</ele><time>2026-04-19T14:32:49.807Z</time></trkpt><trkpt lat="44.5229895" lon="10.4344095"><ele>393.0</ele><time>2026-04-19T14:32:51.807Z</time></trkpt><trkpt lat="44.5230523" lon="10.4344425"><ele>394.0</ele><time>2026-04-19T14:32:53.804Z</time></trkpt><trkpt lat="44.5231135" lon="10.4344707"><ele>395.0</ele><time>2026-04-19T14:32:55.804Z</time></trkpt><trkpt lat="44.5231865" lon="10.4345113"><ele>396.0</ele><time>2026-04-19T14:32:57.806Z</time></trkpt><trkpt lat="44.5232887" lon="10.4345995"><ele>394.8333333333333</ele><time>2026-04-19T14:32:59.806Z</time></trkpt><trkpt lat="44.523346" lon="10.434663"><ele>393.66666666666663</ele><time>2026-04-19T14:33:00.805Z</time></trkpt><trkpt lat="44.5234052" lon="10.4347375"><ele>392.5</ele><time>2026-04-19T14:33:01.805Z</time></trkpt><trkpt lat="44.523473" lon="10.4348117"><ele>391.3333333333333</ele><time>2026-04-19T14:33:02.807Z</time></trkpt><trkpt lat="44.5235385" lon="10.4348702"><ele>390.16666666666663</ele><time>2026-04-19T14:33:03.805Z</time></trkpt><trkpt lat="44.5235953" lon="10.4349197"><ele>389.0</ele><time>2026-04-19T14:33:04.806Z</time></trkpt><trkpt lat="44.523677" lon="10.4350063"><ele>390.0</ele><time>2026-04-19T14:33:06.808Z</time></trkpt><trkpt lat="44.5237318" lon="10.4350748"><ele>391.0</ele><time>2026-04-19T14:33:08.807Z</time></trkpt><trkpt lat="44.5237875" lon="10.4351402"><ele>392.0</ele><time>2026-04-19T14:33:11.805Z</time></trkpt><trkpt lat="44.5238478" lon="10.435193"><ele>393.0</ele><time>2026-04-19T14:33:46.806Z</time></trkpt><trkpt lat="44.5239092" lon="10.4352228"><ele>394.0</ele><time>2026-04-19T14:33:50.806Z</time></trkpt><trkpt lat="44.5239727" lon="10.4352855"><ele>395.0</ele><time>2026-04-19T14:34:48.805Z</time></trkpt><trkpt lat="44.524045" lon="10.435339"><ele>396.0</ele><time>2026-04-19T14:34:50.808Z</time></trkpt><trkpt lat="44.5241392" lon="10.435412"><ele>396.0</ele><time>2026-04-19T14:34:52.806Z</time></trkpt><trkpt lat="44.5242285" lon="10.4354628"><ele>396.0</ele><time>2026-04-19T14:34:54.803Z</time></trkpt><trkpt lat="44.5243062" lon="10.4355197"><ele>396.0</ele><time>2026-04-19T14:34:56.804Z</time></trkpt><trkpt lat="44.5243392" lon="10.4356108"><ele>396.0</ele><time>2026-04-19T14:34:59.808Z</time></trkpt><trkpt lat="44.5244157" lon="10.4356667"><ele>396.0</ele><time>2026-04-19T14:36:19.807Z</time></trkpt><trkpt lat="44.5245032" lon="10.4357007"><ele>396.0</ele><time>2026-04-19T14:36:21.805Z</time></trkpt><trkpt lat="44.5245958" lon="10.4357277"><ele>396.0</ele><time>2026-04-19T14:36:23.809Z</time></trkpt><trkpt lat="44.5246913" lon="10.435777"><ele>396.0</ele><time>2026-04-19T14:36:25.805Z</time></trkpt><trkpt lat="44.5247652" lon="10.4358185"><ele>396.0</ele><time>2026-04-19T14:36:27.804Z</time></trkpt><trkpt lat="44.5248593" lon="10.4358668"><ele>396.0</ele><time>2026-04-19T14:36:29.805Z</time></trkpt><trkpt lat="44.5249778" lon="10.435875"><ele>396.0</ele><time>2026-04-19T14:36:31.806Z</time></trkpt><trkpt lat="44.5250822" lon="10.4358725"><ele>396.0</ele><time>2026-04-19T14:36:33.803Z</time></trkpt><trkpt lat="44.5251688" lon="10.4359275"><ele>396.0</ele><time>2026-04-19T14:36:35.803Z</time></trkpt><trkpt lat="44.5252775" lon="10.4360395"><ele>396.0</ele><time>2026-04-19T14:36:37.805Z</time></trkpt><trkpt lat="44.5253348" lon="10.4360925"><ele>396.0</ele><time>2026-04-19T14:36:38.806Z</time></trkpt><trkpt lat="44.5253997" lon="10.4361472"><ele>396.0</ele><time>2026-04-19T14:36:39.806Z</time></trkpt><trkpt lat="44.525463" lon="10.4361933"><ele>396.0</ele><time>2026-04-19T14:36:40.806Z</time></trkpt><trkpt lat="44.5255292" lon="10.436246"><ele>396.1666666666667</ele><time>2026-04-19T14:36:41.808Z</time></trkpt><trkpt lat="44.5255945" lon="10.4362987"><ele>396.33333333333337</ele><time>2026-04-19T14:36:42.808Z</time></trkpt><trkpt lat="44.5256577" lon="10.4363553"><ele>396.5</ele><time>2026-04-19T14:36:43.806Z</time></trkpt><trkpt lat="44.5257177" lon="10.4364143"><ele>396.6666666666667</ele><time>2026-04-19T14:36:44.806Z</time></trkpt><trkpt lat="44.5257727" lon="10.4364748"><ele>396.83333333333337</ele><time>2026-04-19T14:36:45.809Z</time></trkpt><trkpt lat="44.5258532" lon="10.436571"><ele>397.0</ele><time>2026-04-19T14:36:47.808Z</time></trkpt><trkpt lat="44.5259002" lon="10.4366298"><ele>397.00000000000006</ele><time>2026-04-19T14:36:49.806Z</time></trkpt><trkpt lat="44.525959" lon="10.4366923"><ele>397.0</ele><time>2026-04-19T14:36:54.806Z</time></trkpt><trkpt lat="44.5260542" lon="10.436743"><ele>397.0</ele><time>2026-04-19T14:37:03.806Z</time></trkpt><trkpt lat="44.5261277" lon="10.4367772"><ele>397.0</ele><time>2026-04-19T14:37:05.808Z</time></trkpt><trkpt lat="44.526209" lon="10.4368368"><ele>397.00000000000006</ele><time>2026-04-19T14:37:07.807Z</time></trkpt><trkpt lat="44.5263012" lon="10.4368933"><ele>397.0</ele><time>2026-04-19T14:37:09.806Z</time></trkpt><trkpt lat="44.5263563" lon="10.4369413"><ele>397.50000000000006</ele><time>2026-04-19T14:37:11.808Z</time></trkpt><trkpt lat="44.5264007" lon="10.4370117"><ele>398.0</ele><time>2026-04-19T14:37:59.807Z</time></trkpt><trkpt lat="44.5264353" lon="10.4371023"><ele>398.5</ele><time>2026-04-19T14:38:01.804Z</time></trkpt><trkpt lat="44.5264643" lon="10.4371932"><ele>399.0</ele><time>2026-04-19T14:38:02.807Z</time></trkpt><trkpt lat="44.5264997" lon="10.4373127"><ele>399.50000000000006</ele><time>2026-04-19T14:38:03.806Z</time></trkpt><trkpt lat="44.5265337" lon="10.4374483"><ele>400.0</ele><time>2026-04-19T14:38:04.805Z</time></trkpt><trkpt lat="44.52656" lon="10.4375775"><ele>400.0</ele><time>2026-04-19T14:38:05.809Z</time></trkpt><trkpt lat="44.5265808" lon="10.4376957"><ele>400.0</ele><time>2026-04-19T14:38:06.805Z</time></trkpt><trkpt lat="44.5266075" lon="10.4377898"><ele>400.0</ele><time>2026-04-19T14:38:07.805Z</time></trkpt><trkpt lat="44.5266805" lon="10.4379273"><ele>400.0</ele><time>2026-04-19T14:38:09.803Z</time></trkpt><trkpt lat="44.5267845" lon="10.4379783"><ele>400.0</ele><time>2026-04-19T14:38:11.801Z</time></trkpt><trkpt lat="44.5268598" lon="10.4379643"><ele>400.00000000000006</ele><time>2026-04-19T14:38:12.801Z</time></trkpt><trkpt lat="44.5269412" lon="10.4379435"><ele>400.0</ele><time>2026-04-19T14:38:13.8Z</time></trkpt><trkpt lat="44.5270443" lon="10.4379268"><ele>400.0</ele><time>2026-04-19T14:38:15.803Z</time></trkpt><trkpt lat="44.527132" lon="10.4379772"><ele>400.0</ele><time>2026-04-19T14:38:17.804Z</time></trkpt><trkpt lat="44.5271712" lon="10.4380483"><ele>400.00000000000006</ele><time>2026-04-19T14:38:18.802Z</time></trkpt><trkpt lat="44.5272048" lon="10.4381462"><ele>400.0</ele><time>2026-04-19T14:38:19.803Z</time></trkpt><trkpt lat="44.5272338" lon="10.4382608"><ele>400.2</ele><time>2026-04-19T14:38:20.805Z</time></trkpt><trkpt lat="44.5272628" lon="10.4383887"><ele>400.4</ele><time>2026-04-19T14:38:21.805Z</time></trkpt><trkpt lat="44.5272925" lon="10.438489"><ele>400.6</ele><time>2026-04-19T14:38:22.805Z</time></trkpt><trkpt lat="44.5273558" lon="10.4386065"><ele>400.8</ele><time>2026-04-19T14:38:24.805Z</time></trkpt><trkpt lat="44.527434" lon="10.4386628"><ele>401.0</ele><time>2026-04-19T14:38:26.805Z</time></trkpt><trkpt lat="44.5275388" lon="10.4386868"><ele>401.0</ele><time>2026-04-19T14:38:28.806Z</time></trkpt><trkpt lat="44.527647" lon="10.4387692"><ele>401.0</ele><time>2026-04-19T14:38:30.804Z</time></trkpt><trkpt lat="44.5277068" lon="10.4388195"><ele>401.0</ele><time>2026-04-19T14:38:31.805Z</time></trkpt><trkpt lat="44.5278027" lon="10.4388828"><ele>401.0</ele><time>2026-04-19T14:38:33.804Z</time></trkpt><trkpt lat="44.527836" lon="10.4389985"><ele>401.0</ele><time>2026-04-19T14:38:35.802Z</time></trkpt><trkpt lat="44.5278323" lon="10.4390943"><ele>400.8333333333333</ele><time>2026-04-19T14:38:36.803Z</time></trkpt><trkpt lat="44.5278192" lon="10.4391838"><ele>400.66666666666663</ele><time>2026-04-19T14:38:37.802Z</time></trkpt><trkpt lat="44.5278052" lon="10.4393333"><ele>400.5</ele><time>2026-04-19T14:38:39.805Z</time></trkpt><trkpt lat="44.5278003" lon="10.4394488"><ele>400.33333333333337</ele><time>2026-04-19T14:38:41.806Z</time></trkpt><trkpt lat="44.5277623" lon="10.4395347"><ele>400.1666666666667</ele><time>2026-04-19T14:38:43.804Z</time></trkpt><trkpt lat="44.5276823" lon="10.439608"><ele>400.0</ele><time>2026-04-19T14:38:45.805Z</time></trkpt><trkpt lat="44.5276277" lon="10.4396705"><ele>400.0</ele><time>2026-04-19T14:38:46.81Z</time></trkpt><trkpt lat="44.5275575" lon="10.4397607"><ele>400.0</ele><time>2026-04-19T14:38:47.805Z</time></trkpt><trkpt lat="44.5274727" lon="10.439864"><ele>400.0</ele><time>2026-04-19T14:38:48.805Z</time></trkpt><trkpt lat="44.5273753" lon="10.4399778"><ele>400.0</ele><time>2026-04-19T14:38:49.803Z</time></trkpt><trkpt lat="44.5272743" lon="10.440096"><ele>400.0</ele><time>2026-04-19T14:38:50.804Z</time></trkpt><trkpt lat="44.5271805" lon="10.4402048"><ele>400.0</ele><time>2026-04-19T14:38:51.803Z</time></trkpt><trkpt lat="44.527096" lon="10.440304"><ele>400.0</ele><time>2026-04-19T14:38:52.804Z</time></trkpt><trkpt lat="44.527021" lon="10.4403945"><ele>400.0</ele><time>2026-04-19T14:38:53.805Z</time></trkpt><trkpt lat="44.5269555" lon="10.4404755"><ele>400.0</ele><time>2026-04-19T14:38:54.805Z</time></trkpt><trkpt lat="44.5269012" lon="10.4405393"><ele>400.42857142857144</ele><time>2026-04-19T14:38:55.805Z</time></trkpt><trkpt lat="44.5268517" lon="10.440628"><ele>400.8571428571429</ele><time>2026-04-19T14:38:57.806Z</time></trkpt><trkpt lat="44.526883" lon="10.440732"><ele>401.28571428571433</ele><time>2026-04-19T14:38:59.804Z</time></trkpt><trkpt lat="44.526929" lon="10.4407962"><ele>401.7142857142857</ele><time>2026-04-19T14:39:00.803Z</time></trkpt><trkpt lat="44.5269853" lon="10.4408637"><ele>402.1428571428571</ele><time>2026-04-19T14:39:01.803Z</time></trkpt><trkpt lat="44.5270432" lon="10.4409255"><ele>402.5714285714286</ele><time>2026-04-19T14:39:02.802Z</time></trkpt><trkpt lat="44.5271" lon="10.4409783"><ele>403.0</ele><time>2026-04-19T14:39:03.804Z</time></trkpt><trkpt lat="44.527156" lon="10.4410323"><ele>403.0</ele><time>2026-04-19T14:39:04.806Z</time></trkpt><trkpt lat="44.5272063" lon="10.4410905"><ele>403.0</ele><time>2026-04-19T14:39:05.806Z</time></trkpt><trkpt lat="44.5272973" lon="10.441222"><ele>403.0</ele><time>2026-04-19T14:39:07.805Z</time></trkpt><trkpt lat="44.5273438" lon="10.4412918"><ele>403.0</ele><time>2026-04-19T14:39:08.806Z</time></trkpt><trkpt lat="44.5274128" lon="10.4414225"><ele>403.0</ele><time>2026-04-19T14:39:10.805Z</time></trkpt><trkpt lat="44.5274628" lon="10.4415733"><ele>403.33333333333337</ele><time>2026-04-19T14:39:12.804Z</time></trkpt><trkpt lat="44.5274842" lon="10.441661"><ele>403.6666666666667</ele><time>2026-04-19T14:39:13.806Z</time></trkpt><trkpt lat="44.5275045" lon="10.4417458"><ele>404.0</ele><time>2026-04-19T14:39:14.804Z</time></trkpt><trkpt lat="44.5275585" lon="10.441902"><ele>404.33333333333337</ele><time>2026-04-19T14:39:16.807Z</time></trkpt><trkpt lat="44.5275933" lon="10.441976"><ele>404.6666666666667</ele><time>2026-04-19T14:39:17.806Z</time></trkpt><trkpt lat="44.5276357" lon="10.4420455"><ele>405.0</ele><time>2026-04-19T14:39:18.804Z</time></trkpt><trkpt lat="44.5277185" lon="10.442157"><ele>405.1666666666667</ele><time>2026-04-19T14:39:20.806Z</time></trkpt><trkpt lat="44.52781" lon="10.4422347"><ele>405.33333333333337</ele><time>2026-04-19T14:39:22.806Z</time></trkpt><trkpt lat="44.5278717" lon="10.4422785"><ele>405.5</ele><time>2026-04-19T14:39:23.805Z</time></trkpt><trkpt lat="44.5279308" lon="10.4423295"><ele>405.6666666666667</ele><time>2026-04-19T14:39:24.803Z</time></trkpt><trkpt lat="44.5279862" lon="10.4423867"><ele>405.83333333333337</ele><time>2026-04-19T14:39:25.805Z</time></trkpt><trkpt lat="44.5280373" lon="10.4424513"><ele>406.0</ele><time>2026-04-19T14:39:26.804Z</time></trkpt><trkpt lat="44.5280875" lon="10.4425305"><ele>406.00000000000006</ele><time>2026-04-19T14:39:27.803Z</time></trkpt><trkpt lat="44.5281358" lon="10.4426177"><ele>406.0</ele><time>2026-04-19T14:39:28.805Z</time></trkpt><trkpt lat="44.5281745" lon="10.442707"><ele>406.0</ele><time>2026-04-19T14:39:29.807Z</time></trkpt><trkpt lat="44.5282055" lon="10.4428043"><ele>406.0</ele><time>2026-04-19T14:39:30.806Z</time></trkpt><trkpt lat="44.5282228" lon="10.4429035"><ele>406.00000000000006</ele><time>2026-04-19T14:39:31.804Z</time></trkpt><trkpt lat="44.52823" lon="10.443011"><ele>406.0</ele><time>2026-04-19T14:39:32.806Z</time></trkpt><trkpt lat="44.5282338" lon="10.4431098"><ele>406.0</ele><time>2026-04-19T14:39:33.804Z</time></trkpt><trkpt lat="44.5282435" lon="10.4432135"><ele>406.0</ele><time>2026-04-19T14:39:34.804Z</time></trkpt><trkpt lat="44.5282472" lon="10.443317"><ele>406.0</ele><time>2026-04-19T14:39:35.806Z</time></trkpt><trkpt lat="44.5282393" lon="10.4434208"><ele>406.0</ele><time>2026-04-19T14:39:36.803Z</time></trkpt><trkpt lat="44.5282312" lon="10.4435255"><ele>406.0</ele><time>2026-04-19T14:39:37.803Z</time></trkpt><trkpt lat="44.5282315" lon="10.443629"><ele>406.0</ele><time>2026-04-19T14:39:38.805Z</time></trkpt><trkpt lat="44.5282357" lon="10.4437278"><ele>406.0</ele><time>2026-04-19T14:39:39.804Z</time></trkpt><trkpt lat="44.5282448" lon="10.4438277"><ele>406.83333333333337</ele><time>2026-04-19T14:39:40.805Z</time></trkpt><trkpt lat="44.5282535" lon="10.4439187"><ele>407.6666666666667</ele><time>2026-04-19T14:39:41.805Z</time></trkpt><trkpt lat="44.5282562" lon="10.4440588"><ele>408.5</ele><time>2026-04-19T14:39:43.804Z</time></trkpt><trkpt lat="44.5282825" lon="10.444147"><ele>409.33333333333337</ele><time>2026-04-19T14:39:45.805Z</time></trkpt><trkpt lat="44.5283522" lon="10.44417"><ele>410.1666666666667</ele><time>2026-04-19T14:39:47.805Z</time></trkpt><trkpt lat="44.5284632" lon="10.4441283"><ele>411.0</ele><time>2026-04-19T14:39:49.801Z</time></trkpt><trkpt lat="44.5285903" lon="10.4441057"><ele>411.0</ele><time>2026-04-19T14:39:51.803Z</time></trkpt><trkpt lat="44.5287097" lon="10.4441677"><ele>411.0</ele><time>2026-04-19T14:39:53.805Z</time></trkpt><trkpt lat="44.5287655" lon="10.4442245"><ele>411.0</ele><time>2026-04-19T14:39:54.804Z</time></trkpt><trkpt lat="44.528816" lon="10.44428"><ele>411.0</ele><time>2026-04-19T14:39:55.803Z</time></trkpt><trkpt lat="44.5288813" lon="10.4444168"><ele>411.0</ele><time>2026-04-19T14:39:57.803Z</time></trkpt><trkpt lat="44.5289097" lon="10.4445925"><ele>411.42857142857144</ele><time>2026-04-19T14:39:59.803Z</time></trkpt><trkpt lat="44.528915" lon="10.4446805"><ele>411.85714285714283</ele><time>2026-04-19T14:40:00.801Z</time></trkpt><trkpt lat="44.5289178" lon="10.4447733"><ele>412.28571428571433</ele><time>2026-04-19T14:40:01.804Z</time></trkpt><trkpt lat="44.528918" lon="10.444867"><ele>412.7142857142857</ele><time>2026-04-19T14:40:02.802Z</time></trkpt><trkpt lat="44.5289153" lon="10.4449692"><ele>413.14285714285717</ele><time>2026-04-19T14:40:03.803Z</time></trkpt><trkpt lat="44.5289103" lon="10.4450697"><ele>413.5714285714286</ele><time>2026-04-19T14:40:04.802Z</time></trkpt><trkpt lat="44.5289047" lon="10.4451635"><ele>414.0</ele><time>2026-04-19T14:40:05.803Z</time></trkpt><trkpt lat="44.5289008" lon="10.4452555"><ele>414.0</ele><time>2026-04-19T14:40:06.804Z</time></trkpt><trkpt lat="44.5288987" lon="10.445413"><ele>414.0</ele><time>2026-04-19T14:40:08.804Z</time></trkpt><trkpt lat="44.5289025" lon="10.445518"><ele>414.0</ele><time>2026-04-19T14:40:10.805Z</time></trkpt><trkpt lat="44.5289072" lon="10.4456308"><ele>414.0</ele><time>2026-04-19T14:40:13.802Z</time></trkpt><trkpt lat="44.5289153" lon="10.445766"><ele>414.0</ele><time>2026-04-19T14:40:15.802Z</time></trkpt><trkpt lat="44.528925" lon="10.4458813"><ele>414.0</ele><time>2026-04-19T14:40:17.805Z</time></trkpt><trkpt lat="44.5289552" lon="10.4459757"><ele>414.5</ele><time>2026-04-19T14:40:20.804Z</time></trkpt><trkpt lat="44.528988" lon="10.446062"><ele>415.0</ele><time>2026-04-19T14:40:36.803Z</time></trkpt><trkpt lat="44.5290293" lon="10.4461403"><ele>415.5</ele><time>2026-04-19T14:40:43.804Z</time></trkpt><trkpt lat="44.5290582" lon="10.4462303"><ele>416.0</ele><time>2026-04-19T14:40:45.804Z</time></trkpt><trkpt lat="44.529098" lon="10.4463517"><ele>416.5</ele><time>2026-04-19T14:40:47.803Z</time></trkpt><trkpt lat="44.529132" lon="10.4464573"><ele>417.0</ele><time>2026-04-19T14:40:49.801Z</time></trkpt><trkpt lat="44.5292103" lon="10.446558"><ele>417.1666666666667</ele><time>2026-04-19T14:41:19.803Z</time></trkpt><trkpt lat="44.5292488" lon="10.4466312"><ele>417.33333333333337</ele><time>2026-04-19T14:41:23.804Z</time></trkpt><trkpt lat="44.5292698" lon="10.4467167"><ele>417.5</ele><time>2026-04-19T14:41:29.803Z</time></trkpt><trkpt lat="44.5293022" lon="10.4468133"><ele>417.6666666666667</ele><time>2026-04-19T14:41:31.802Z</time></trkpt><trkpt lat="44.5293107" lon="10.4469252"><ele>417.83333333333337</ele><time>2026-04-19T14:41:33.804Z</time></trkpt><trkpt lat="44.5292978" lon="10.4470997"><ele>418.0</ele><time>2026-04-19T14:41:35.805Z</time></trkpt><trkpt lat="44.5292973" lon="10.4472247"><ele>418.00000000000006</ele><time>2026-04-19T14:41:36.802Z</time></trkpt><trkpt lat="44.5292903" lon="10.447342"><ele>418.0</ele><time>2026-04-19T14:41:37.802Z</time></trkpt><trkpt lat="44.5292753" lon="10.447466"><ele>418.0</ele><time>2026-04-19T14:41:38.803Z</time></trkpt><trkpt lat="44.5292525" lon="10.4475853"><ele>418.0</ele><time>2026-04-19T14:41:39.802Z</time></trkpt><trkpt lat="44.529235" lon="10.4476903"><ele>418.00000000000006</ele><time>2026-04-19T14:41:40.803Z</time></trkpt><trkpt lat="44.529229" lon="10.4477878"><ele>418.0</ele><time>2026-04-19T14:41:41.804Z</time></trkpt><trkpt lat="44.5292472" lon="10.447931"><ele>418.6666666666667</ele><time>2026-04-19T14:41:43.803Z</time></trkpt><trkpt lat="44.5292852" lon="10.4480277"><ele>419.33333333333337</ele><time>2026-04-19T14:41:45.804Z</time></trkpt><trkpt lat="44.529338" lon="10.4481133"><ele>420.0</ele><time>2026-04-19T14:41:48.805Z</time></trkpt><trkpt lat="44.529387" lon="10.4482147"><ele>420.66666666666663</ele><time>2026-04-19T14:41:52.8Z</time></trkpt><trkpt lat="44.5294173" lon="10.448312"><ele>421.3333333333333</ele><time>2026-04-19T14:41:54.8Z</time></trkpt><trkpt lat="44.5294512" lon="10.4484002"><ele>422.0</ele><time>2026-04-19T14:41:56.802Z</time></trkpt><trkpt lat="44.5294973" lon="10.4484722"><ele>421.99999999999994</ele><time>2026-04-19T14:41:59.804Z</time></trkpt><trkpt lat="44.529502" lon="10.448586"><ele>422.0</ele><time>2026-04-19T14:42:02.802Z</time></trkpt><trkpt lat="44.5294655" lon="10.448688"><ele>422.0</ele><time>2026-04-19T14:42:05.805Z</time></trkpt><trkpt lat="44.5294458" lon="10.4487805"><ele>422.0</ele><time>2026-04-19T14:42:09.802Z</time></trkpt><trkpt lat="44.5294183" lon="10.4489068"><ele>421.99999999999994</ele><time>2026-04-19T14:42:18.8Z</time></trkpt><trkpt lat="44.5293742" lon="10.4490212"><ele>422.0</ele><time>2026-04-19T14:42:20.803Z</time></trkpt><trkpt lat="44.5293212" lon="10.449143"><ele>422.16666666666663</ele><time>2026-04-19T14:42:22.803Z</time></trkpt><trkpt lat="44.5292847" lon="10.449241"><ele>422.3333333333333</ele><time>2026-04-19T14:42:24.8Z</time></trkpt><trkpt lat="44.5292403" lon="10.449355"><ele>422.5</ele><time>2026-04-19T14:42:26.802Z</time></trkpt><trkpt lat="44.5292205" lon="10.4494468"><ele>422.66666666666663</ele><time>2026-04-19T14:42:28.802Z</time></trkpt><trkpt lat="44.5292378" lon="10.4495318"><ele>422.8333333333333</ele><time>2026-04-19T14:42:32.803Z</time></trkpt><trkpt lat="44.5292757" lon="10.4496318"><ele>423.0</ele><time>2026-04-19T14:42:37.803Z</time></trkpt><trkpt lat="44.5292985" lon="10.4497523"><ele>423.0</ele><time>2026-04-19T14:42:40.8Z</time></trkpt><trkpt lat="44.5292735" lon="10.449842"><ele>423.0</ele><time>2026-04-19T14:42:42.8Z</time></trkpt><trkpt lat="44.5292193" lon="10.4499508"><ele>423.0</ele><time>2026-04-19T14:42:44.803Z</time></trkpt><trkpt lat="44.529223" lon="10.450059"><ele>423.0</ele><time>2026-04-19T14:42:46.801Z</time></trkpt><trkpt lat="44.5292975" lon="10.4501343"><ele>423.0</ele><time>2026-04-19T14:42:48.801Z</time></trkpt><trkpt lat="44.529361" lon="10.4502642"><ele>423.0</ele><time>2026-04-19T14:42:50.802Z</time></trkpt><trkpt lat="44.5293692" lon="10.4503535"><ele>423.0</ele><time>2026-04-19T14:42:51.803Z</time></trkpt><trkpt lat="44.5293482" lon="10.4504563"><ele>423.0</ele><time>2026-04-19T14:42:52.803Z</time></trkpt><trkpt lat="44.5293213" lon="10.4505562"><ele>423.0</ele><time>2026-04-19T14:42:53.804Z</time></trkpt><trkpt lat="44.529334" lon="10.4506888"><ele>423.0</ele><time>2026-04-19T14:42:55.803Z</time></trkpt><trkpt lat="44.5293813" lon="10.4508647"><ele>423.0</ele><time>2026-04-19T14:42:57.804Z</time></trkpt><trkpt lat="44.5294087" lon="10.450979"><ele>423.1666666666667</ele><time>2026-04-19T14:42:58.803Z</time></trkpt><trkpt lat="44.529426" lon="10.4510808"><ele>423.33333333333337</ele><time>2026-04-19T14:42:59.804Z</time></trkpt><trkpt lat="44.5294233" lon="10.4512588"><ele>423.5</ele><time>2026-04-19T14:43:01.803Z</time></trkpt><trkpt lat="44.5294102" lon="10.4513488"><ele>423.6666666666667</ele><time>2026-04-19T14:43:02.803Z</time></trkpt><trkpt lat="44.5293912" lon="10.4514362"><ele>423.83333333333337</ele><time>2026-04-19T14:43:03.803Z</time></trkpt><trkpt lat="44.5293723" lon="10.4515555"><ele>424.0</ele><time>2026-04-19T14:43:04.802Z</time></trkpt><trkpt lat="44.5293518" lon="10.451691"><ele>424.00000000000006</ele><time>2026-04-19T14:43:05.802Z</time></trkpt><trkpt lat="44.5293343" lon="10.4518177"><ele>424.0</ele><time>2026-04-19T14:43:06.803Z</time></trkpt><trkpt lat="44.5293222" lon="10.451925"><ele>424.0</ele><time>2026-04-19T14:43:07.804Z</time></trkpt><trkpt lat="44.5293107" lon="10.4520207"><ele>424.0</ele><time>2026-04-19T14:43:08.804Z</time></trkpt><trkpt lat="44.5292975" lon="10.4521195"><ele>424.00000000000006</ele><time>2026-04-19T14:43:09.805Z</time></trkpt><trkpt lat="44.5292812" lon="10.4522132"><ele>424.0</ele><time>2026-04-19T14:43:10.803Z</time></trkpt><trkpt lat="44.5292545" lon="10.4523517"><ele>424.33333333333337</ele><time>2026-04-19T14:43:12.802Z</time></trkpt><trkpt lat="44.5292423" lon="10.4524682"><ele>424.6666666666667</ele><time>2026-04-19T14:43:15.802Z</time></trkpt><trkpt lat="44.529267" lon="10.4525527"><ele>425.0</ele><time>2026-04-19T14:43:18.804Z</time></trkpt><trkpt lat="44.5292455" lon="10.4526357"><ele>425.33333333333337</ele><time>2026-04-19T14:43:33.805Z</time></trkpt><trkpt lat="44.529253" lon="10.4527768"><ele>425.6666666666667</ele><time>2026-04-19T14:43:35.804Z</time></trkpt><trkpt lat="44.52927" lon="10.4528735"><ele>426.0</ele><time>2026-04-19T14:43:36.804Z</time></trkpt><trkpt lat="44.5292893" lon="10.4529753"><ele>426.0</ele><time>2026-04-19T14:43:37.806Z</time></trkpt><trkpt lat="44.5293" lon="10.4530948"><ele>426.0</ele><time>2026-04-19T14:43:38.806Z</time></trkpt><trkpt lat="44.5292975" lon="10.4532063"><ele>426.0</ele><time>2026-04-19T14:43:39.805Z</time></trkpt><trkpt lat="44.5292897" lon="10.4533162"><ele>426.0</ele><time>2026-04-19T14:43:40.805Z</time></trkpt><trkpt lat="44.5292983" lon="10.4534218"><ele>426.0</ele><time>2026-04-19T14:43:41.805Z</time></trkpt><trkpt lat="44.5293147" lon="10.4535203"><ele>426.0</ele><time>2026-04-19T14:43:42.805Z</time></trkpt><trkpt lat="44.5293282" lon="10.4536362"><ele>425.99999999999994</ele><time>2026-04-19T14:43:43.805Z</time></trkpt><trkpt lat="44.529352" lon="10.453755"><ele>426.0</ele><time>2026-04-19T14:43:44.806Z</time></trkpt><trkpt lat="44.5293837" lon="10.453861"><ele>426.0</ele><time>2026-04-19T14:43:45.803Z</time></trkpt><trkpt lat="44.529417" lon="10.4539505"><ele>426.0</ele><time>2026-04-19T14:43:46.804Z</time></trkpt><trkpt lat="44.5294427" lon="10.4540318"><ele>426.0</ele><time>2026-04-19T14:43:47.808Z</time></trkpt><trkpt lat="44.5294753" lon="10.454119"><ele>425.99999999999994</ele><time>2026-04-19T14:43:48.803Z</time></trkpt><trkpt lat="44.529506" lon="10.4541982"><ele>426.0</ele><time>2026-04-19T14:43:49.804Z</time></trkpt><trkpt lat="44.5295723" lon="10.4543285"><ele>427.0</ele><time>2026-04-19T14:43:51.803Z</time></trkpt><trkpt lat="44.5296627" lon="10.4544447"><ele>428.0</ele><time>2026-04-19T14:43:53.803Z</time></trkpt><trkpt lat="44.5297687" lon="10.4545393"><ele>429.0</ele><time>2026-04-19T14:43:55.801Z</time></trkpt><trkpt lat="44.5298263" lon="10.4545852"><ele>430.0</ele><time>2026-04-19T14:43:56.8Z</time></trkpt><trkpt lat="44.5298848" lon="10.4546218"><ele>431.0</ele><time>2026-04-19T14:43:57.801Z</time></trkpt><trkpt lat="44.5299612" lon="10.4546703"><ele>430.99999999999994</ele><time>2026-04-19T14:43:58.801Z</time></trkpt><trkpt lat="44.5300442" lon="10.454718"><ele>431.0</ele><time>2026-04-19T14:43:59.803Z</time></trkpt><trkpt lat="44.5301212" lon="10.4547622"><ele>431.0</ele><time>2026-04-19T14:44:00.802Z</time></trkpt><trkpt lat="44.5301913" lon="10.4548067"><ele>431.0</ele><time>2026-04-19T14:44:01.803Z</time></trkpt><trkpt lat="44.5302563" lon="10.4548533"><ele>430.99999999999994</ele><time>2026-04-19T14:44:02.802Z</time></trkpt><trkpt lat="44.5303132" lon="10.4548932"><ele>431.0</ele><time>2026-04-19T14:44:03.802Z</time></trkpt><trkpt lat="44.5304072" lon="10.4550053"><ele>431.99999999999994</ele><time>2026-04-19T14:44:05.804Z</time></trkpt><trkpt lat="44.5304545" lon="10.4550843"><ele>433.0</ele><time>2026-04-19T14:44:06.801Z</time></trkpt><trkpt lat="44.5304912" lon="10.455163"><ele>434.0</ele><time>2026-04-19T14:44:07.803Z</time></trkpt><trkpt lat="44.5305373" lon="10.455315"><ele>435.0</ele><time>2026-04-19T14:44:09.802Z</time></trkpt><trkpt lat="44.5305648" lon="10.4554817"><ele>435.99999999999994</ele><time>2026-04-19T14:44:11.803Z</time></trkpt><trkpt lat="44.5305627" lon="10.4555782"><ele>437.0</ele><time>2026-04-19T14:44:12.802Z</time></trkpt><trkpt lat="44.5305678" lon="10.4556975"><ele>437.49999999999994</ele><time>2026-04-19T14:44:13.803Z</time></trkpt><trkpt lat="44.5305732" lon="10.4558197"><ele>438.0</ele><time>2026-04-19T14:44:14.803Z</time></trkpt><trkpt lat="44.5305928" lon="10.4559528"><ele>438.5</ele><time>2026-04-19T14:44:15.804Z</time></trkpt><trkpt lat="44.5306105" lon="10.4560708"><ele>439.0</ele><time>2026-04-19T14:44:16.803Z</time></trkpt><trkpt lat="44.5306315" lon="10.4561903"><ele>439.49999999999994</ele><time>2026-04-19T14:44:17.804Z</time></trkpt><trkpt lat="44.5306505" lon="10.456301"><ele>440.0</ele><time>2026-04-19T14:44:18.799Z</time></trkpt><trkpt lat="44.5306692" lon="10.456417"><ele>440.16666666666663</ele><time>2026-04-19T14:44:19.802Z</time></trkpt><trkpt lat="44.5306808" lon="10.456526"><ele>440.3333333333333</ele><time>2026-04-19T14:44:20.802Z</time></trkpt><trkpt lat="44.5306873" lon="10.4566255"><ele>440.5</ele><time>2026-04-19T14:44:21.804Z</time></trkpt><trkpt lat="44.530688" lon="10.4567963"><ele>440.66666666666663</ele><time>2026-04-19T14:44:23.805Z</time></trkpt><trkpt lat="44.5306832" lon="10.4568872"><ele>440.8333333333333</ele><time>2026-04-19T14:44:24.793Z</time></trkpt><trkpt lat="44.5306628" lon="10.4569943"><ele>441.0</ele><time>2026-04-19T14:44:25.804Z</time></trkpt><trkpt lat="44.5306225" lon="10.457084"><ele>440.3333333333333</ele><time>2026-04-19T14:44:26.801Z</time></trkpt><trkpt lat="44.5305795" lon="10.4571723"><ele>439.66666666666663</ele><time>2026-04-19T14:44:27.8Z</time></trkpt><trkpt lat="44.5305467" lon="10.4572593"><ele>439.0</ele><time>2026-04-19T14:44:28.801Z</time></trkpt><trkpt lat="44.530533" lon="10.4573555"><ele>438.3333333333333</ele><time>2026-04-19T14:44:29.801Z</time></trkpt><trkpt lat="44.5305332" lon="10.4574707"><ele>437.66666666666663</ele><time>2026-04-19T14:44:30.804Z</time></trkpt><trkpt lat="44.530536" lon="10.4575982"><ele>437.0</ele><time>2026-04-19T14:44:31.803Z</time></trkpt><trkpt lat="44.5305383" lon="10.4577337"><ele>436.99999999999994</ele><time>2026-04-19T14:44:32.805Z</time></trkpt><trkpt lat="44.5305445" lon="10.4578568"><ele>437.0</ele><time>2026-04-19T14:44:33.805Z</time></trkpt><trkpt lat="44.5305495" lon="10.4579797"><ele>437.0</ele><time>2026-04-19T14:44:34.808Z</time></trkpt><trkpt lat="44.5305513" lon="10.4581093"><ele>437.0</ele><time>2026-04-19T14:44:35.804Z</time></trkpt><trkpt lat="44.5305535" lon="10.4582353"><ele>436.99999999999994</ele><time>2026-04-19T14:44:36.805Z</time></trkpt><trkpt lat="44.5305478" lon="10.4583563"><ele>437.0</ele><time>2026-04-19T14:44:37.804Z</time></trkpt><trkpt lat="44.5305367" lon="10.4584662"><ele>436.7142857142857</ele><time>2026-04-19T14:44:38.809Z</time></trkpt><trkpt lat="44.5305267" lon="10.4585647"><ele>436.42857142857144</ele><time>2026-04-19T14:44:39.802Z</time></trkpt><trkpt lat="44.530521" lon="10.4586605"><ele>436.14285714285717</ele><time>2026-04-19T14:44:40.804Z</time></trkpt><trkpt lat="44.5305167" lon="10.4587625"><ele>435.8571428571429</ele><time>2026-04-19T14:44:41.805Z</time></trkpt><trkpt lat="44.5305152" lon="10.4588688"><ele>435.57142857142856</ele><time>2026-04-19T14:44:42.804Z</time></trkpt><trkpt lat="44.5305245" lon="10.4589705"><ele>435.28571428571433</ele><time>2026-04-19T14:44:43.804Z</time></trkpt><trkpt lat="44.5305432" lon="10.4590798"><ele>435.0</ele><time>2026-04-19T14:44:44.803Z</time></trkpt><trkpt lat="44.5305707" lon="10.459189"><ele>435.0</ele><time>2026-04-19T14:44:45.804Z</time></trkpt><trkpt lat="44.5306127" lon="10.4592965"><ele>435.0</ele><time>2026-04-19T14:44:46.804Z</time></trkpt><trkpt lat="44.5306627" lon="10.4594002"><ele>435.0</ele><time>2026-04-19T14:44:47.806Z</time></trkpt><trkpt lat="44.5307188" lon="10.4595028"><ele>435.0</ele><time>2026-04-19T14:44:48.805Z</time></trkpt><trkpt lat="44.5307732" lon="10.4596092"><ele>435.0</ele><time>2026-04-19T14:44:49.807Z</time></trkpt><trkpt lat="44.5308237" lon="10.459729"><ele>434.8</ele><time>2026-04-19T14:44:50.805Z</time></trkpt><trkpt lat="44.5308738" lon="10.4598508"><ele>434.6</ele><time>2026-04-19T14:44:51.806Z</time></trkpt><trkpt lat="44.5309292" lon="10.459971"><ele>434.4</ele><time>2026-04-19T14:44:52.804Z</time></trkpt><trkpt lat="44.5309905" lon="10.4600802"><ele>434.2</ele><time>2026-04-19T14:44:53.805Z</time></trkpt><trkpt lat="44.5310532" lon="10.4601855"><ele>434.0</ele><time>2026-04-19T14:44:54.804Z</time></trkpt><trkpt lat="44.5311157" lon="10.4602863"><ele>434.0</ele><time>2026-04-19T14:44:55.805Z</time></trkpt><trkpt lat="44.531172" lon="10.4603747"><ele>434.0</ele><time>2026-04-19T14:44:56.806Z</time></trkpt><trkpt lat="44.531221" lon="10.4604495"><ele>434.0</ele><time>2026-04-19T14:44:57.805Z</time></trkpt><trkpt lat="44.5312642" lon="10.4605228"><ele>434.0</ele><time>2026-04-19T14:44:58.808Z</time></trkpt><trkpt lat="44.5313028" lon="10.460604"><ele>434.0</ele><time>2026-04-19T14:44:59.805Z</time></trkpt><trkpt lat="44.531333" lon="10.4606848"><ele>434.0</ele><time>2026-04-19T14:45:00.803Z</time></trkpt><trkpt lat="44.531361" lon="10.4607848"><ele>434.0</ele><time>2026-04-19T14:45:01.807Z</time></trkpt><trkpt lat="44.5313842" lon="10.4609028"><ele>435.66666666666663</ele><time>2026-04-19T14:45:02.806Z</time></trkpt><trkpt lat="44.5313988" lon="10.4610232"><ele>437.3333333333333</ele><time>2026-04-19T14:45:03.804Z</time></trkpt><trkpt lat="44.531401" lon="10.4611403"><ele>439.0</ele><time>2026-04-19T14:45:04.806Z</time></trkpt><trkpt lat="44.5313858" lon="10.4612545"><ele>440.66666666666663</ele><time>2026-04-19T14:45:05.806Z</time></trkpt><trkpt lat="44.531349" lon="10.4613635"><ele>442.3333333333333</ele><time>2026-04-19T14:45:06.804Z</time></trkpt><trkpt lat="44.5313023" lon="10.4614702"><ele>444.0</ele><time>2026-04-19T14:45:07.803Z</time></trkpt><trkpt lat="44.531254" lon="10.4615705"><ele>443.0</ele><time>2026-04-19T14:45:08.804Z</time></trkpt><trkpt lat="44.5312125" lon="10.4616547"><ele>442.0</ele><time>2026-04-19T14:45:09.803Z</time></trkpt><trkpt lat="44.5311273" lon="10.4618"><ele>441.0</ele><time>2026-04-19T14:45:11.804Z</time></trkpt><trkpt lat="44.531057" lon="10.4618775"><ele>440.0</ele><time>2026-04-19T14:45:12.806Z</time></trkpt><trkpt lat="44.5309843" lon="10.4619565"><ele>439.0</ele><time>2026-04-19T14:45:13.806Z</time></trkpt><trkpt lat="44.5309145" lon="10.4620395"><ele>439.0</ele><time>2026-04-19T14:45:14.806Z</time></trkpt><trkpt lat="44.5308487" lon="10.4621255"><ele>439.0</ele><time>2026-04-19T14:45:15.804Z</time></trkpt><trkpt lat="44.5307983" lon="10.4622107"><ele>439.0</ele><time>2026-04-19T14:45:16.806Z</time></trkpt><trkpt lat="44.5307527" lon="10.462294"><ele>439.0</ele><time>2026-04-19T14:45:17.804Z</time></trkpt><trkpt lat="44.5307123" lon="10.4623707"><ele>439.0</ele><time>2026-04-19T14:45:18.805Z</time></trkpt><trkpt lat="44.5306765" lon="10.4624448"><ele>439.0</ele><time>2026-04-19T14:45:19.806Z</time></trkpt><trkpt lat="44.5306438" lon="10.4625313"><ele>439.0</ele><time>2026-04-19T14:45:20.804Z</time></trkpt><trkpt lat="44.5306232" lon="10.4626243"><ele>439.0</ele><time>2026-04-19T14:45:21.805Z</time></trkpt><trkpt lat="44.5306093" lon="10.4627212"><ele>439.0</ele><time>2026-04-19T14:45:22.805Z</time></trkpt><trkpt lat="44.5306055" lon="10.462818"><ele>439.0</ele><time>2026-04-19T14:45:23.806Z</time></trkpt><trkpt lat="44.5306048" lon="10.46291"><ele>439.0</ele><time>2026-04-19T14:45:24.804Z</time></trkpt><trkpt lat="44.5306007" lon="10.4630098"><ele>439.0</ele><time>2026-04-19T14:45:25.808Z</time></trkpt><trkpt lat="44.5305933" lon="10.4631112"><ele>439.0</ele><time>2026-04-19T14:45:26.805Z</time></trkpt><trkpt lat="44.5305903" lon="10.4632162"><ele>439.0</ele><time>2026-04-19T14:45:27.805Z</time></trkpt><trkpt lat="44.5305905" lon="10.463322"><ele>439.33333333333337</ele><time>2026-04-19T14:45:28.808Z</time></trkpt><trkpt lat="44.5305885" lon="10.4634253"><ele>439.6666666666667</ele><time>2026-04-19T14:45:29.805Z</time></trkpt><trkpt lat="44.5305818" lon="10.4635265"><ele>440.0</ele><time>2026-04-19T14:45:30.804Z</time></trkpt><trkpt lat="44.530573" lon="10.4636253"><ele>440.33333333333337</ele><time>2026-04-19T14:45:31.803Z</time></trkpt><trkpt lat="44.5305667" lon="10.46372"><ele>440.6666666666667</ele><time>2026-04-19T14:45:32.805Z</time></trkpt><trkpt lat="44.5305693" lon="10.4638837"><ele>441.0</ele><time>2026-04-19T14:45:34.803Z</time></trkpt><trkpt lat="44.530581" lon="10.4640173"><ele>441.1666666666667</ele><time>2026-04-19T14:45:36.807Z</time></trkpt><trkpt lat="44.5305913" lon="10.464115"><ele>441.33333333333337</ele><time>2026-04-19T14:45:38.806Z</time></trkpt><trkpt lat="44.5306162" lon="10.4642535"><ele>441.5</ele><time>2026-04-19T14:45:54.804Z</time></trkpt><trkpt lat="44.5306948" lon="10.4643883"><ele>441.6666666666667</ele><time>2026-04-19T14:45:56.804Z</time></trkpt><trkpt lat="44.5307385" lon="10.4644693"><ele>441.83333333333337</ele><time>2026-04-19T14:45:57.803Z</time></trkpt><trkpt lat="44.5307827" lon="10.4645585"><ele>442.0</ele><time>2026-04-19T14:45:58.803Z</time></trkpt><trkpt lat="44.5308283" lon="10.4646477"><ele>442.00000000000006</ele><time>2026-04-19T14:45:59.807Z</time></trkpt><trkpt lat="44.5308768" lon="10.4647417"><ele>442.0</ele><time>2026-04-19T14:46:00.807Z</time></trkpt><trkpt lat="44.5309213" lon="10.4648343"><ele>442.0</ele><time>2026-04-19T14:46:01.807Z</time></trkpt><trkpt lat="44.53096" lon="10.4649198"><ele>442.0</ele><time>2026-04-19T14:46:02.808Z</time></trkpt><trkpt lat="44.5309988" lon="10.4650152"><ele>442.00000000000006</ele><time>2026-04-19T14:46:03.807Z</time></trkpt><trkpt lat="44.531031" lon="10.4651207"><ele>442.0</ele><time>2026-04-19T14:46:04.807Z</time></trkpt><trkpt lat="44.5310555" lon="10.4652272"><ele>442.0</ele><time>2026-04-19T14:46:05.807Z</time></trkpt><trkpt lat="44.5310767" lon="10.4653402"><ele>442.00000000000006</ele><time>2026-04-19T14:46:06.809Z</time></trkpt><trkpt lat="44.531093" lon="10.4654575"><ele>442.00000000000006</ele><time>2026-04-19T14:46:07.807Z</time></trkpt><trkpt lat="44.531107" lon="10.4655823"><ele>442.0</ele><time>2026-04-19T14:46:08.81Z</time></trkpt><trkpt lat="44.5311205" lon="10.4657112"><ele>442.0</ele><time>2026-04-19T14:46:09.808Z</time></trkpt><trkpt lat="44.5311318" lon="10.46585"><ele>442.20000000000005</ele><time>2026-04-19T14:46:10.807Z</time></trkpt><trkpt lat="44.5311357" lon="10.4659855"><ele>442.40000000000003</ele><time>2026-04-19T14:46:11.808Z</time></trkpt><trkpt lat="44.531131" lon="10.4661227"><ele>442.59999999999997</ele><time>2026-04-19T14:46:12.807Z</time></trkpt><trkpt lat="44.5311162" lon="10.4662578"><ele>442.79999999999995</ele><time>2026-04-19T14:46:13.806Z</time></trkpt><trkpt lat="44.5310927" lon="10.4663972"><ele>443.0</ele><time>2026-04-19T14:46:14.807Z</time></trkpt><trkpt lat="44.5310662" lon="10.4665362"><ele>443.49999999999994</ele><time>2026-04-19T14:46:15.805Z</time></trkpt><trkpt lat="44.5310392" lon="10.4666693"><ele>444.0</ele><time>2026-04-19T14:46:16.805Z</time></trkpt><trkpt lat="44.5310168" lon="10.4667948"><ele>444.5</ele><time>2026-04-19T14:46:17.806Z</time></trkpt><trkpt lat="44.5310078" lon="10.4669132"><ele>445.0</ele><time>2026-04-19T14:46:18.806Z</time></trkpt><trkpt lat="44.5310172" lon="10.4670257"><ele>445.49999999999994</ele><time>2026-04-19T14:46:19.807Z</time></trkpt><trkpt lat="44.5310465" lon="10.4671283"><ele>446.0</ele><time>2026-04-19T14:46:20.805Z</time></trkpt><trkpt lat="44.5310898" lon="10.4672283"><ele>446.3333333333333</ele><time>2026-04-19T14:46:21.805Z</time></trkpt><trkpt lat="44.531143" lon="10.4673243"><ele>446.66666666666663</ele><time>2026-04-19T14:46:22.804Z</time></trkpt><trkpt lat="44.5311997" lon="10.4674142"><ele>447.0</ele><time>2026-04-19T14:46:23.806Z</time></trkpt><trkpt lat="44.5312598" lon="10.4674982"><ele>447.33333333333337</ele><time>2026-04-19T14:46:24.805Z</time></trkpt><trkpt lat="44.531326" lon="10.4675795"><ele>447.6666666666667</ele><time>2026-04-19T14:46:25.804Z</time></trkpt><trkpt lat="44.5313967" lon="10.4676515"><ele>448.0</ele><time>2026-04-19T14:46:26.804Z</time></trkpt><trkpt lat="44.5314692" lon="10.4677092"><ele>449.50000000000006</ele><time>2026-04-19T14:46:27.804Z</time></trkpt><trkpt lat="44.5315423" lon="10.4677492"><ele>451.0</ele><time>2026-04-19T14:46:28.804Z</time></trkpt><trkpt lat="44.531612" lon="10.4677647"><ele>452.5</ele><time>2026-04-19T14:46:29.805Z</time></trkpt><trkpt lat="44.5316762" lon="10.4677562"><ele>454.0</ele><time>2026-04-19T14:46:30.806Z</time></trkpt><trkpt lat="44.531747" lon="10.4677253"><ele>455.50000000000006</ele><time>2026-04-19T14:46:31.804Z</time></trkpt><trkpt lat="44.531826" lon="10.4676765"><ele>457.0</ele><time>2026-04-19T14:46:32.806Z</time></trkpt><trkpt lat="44.5319073" lon="10.467625"><ele>457.00000000000006</ele><time>2026-04-19T14:46:33.805Z</time></trkpt><trkpt lat="44.531983" lon="10.4675952"><ele>457.0</ele><time>2026-04-19T14:46:34.804Z</time></trkpt><trkpt lat="44.5320602" lon="10.4675997"><ele>457.0</ele><time>2026-04-19T14:46:35.803Z</time></trkpt><trkpt lat="44.5321302" lon="10.4676482"><ele>457.0</ele><time>2026-04-19T14:46:36.803Z</time></trkpt><trkpt lat="44.5321798" lon="10.4677258"><ele>457.00000000000006</ele><time>2026-04-19T14:46:37.803Z</time></trkpt><trkpt lat="44.5322005" lon="10.4678258"><ele>457.0</ele><time>2026-04-19T14:46:38.805Z</time></trkpt><trkpt lat="44.53218" lon="10.46793"><ele>457.20000000000005</ele><time>2026-04-19T14:46:39.803Z</time></trkpt><trkpt lat="44.532119" lon="10.4680328"><ele>457.40000000000003</ele><time>2026-04-19T14:46:40.804Z</time></trkpt><trkpt lat="44.5320448" lon="10.4681395"><ele>457.59999999999997</ele><time>2026-04-19T14:46:41.803Z</time></trkpt><trkpt lat="44.5319803" lon="10.4682635"><ele>457.79999999999995</ele><time>2026-04-19T14:46:42.803Z</time></trkpt><trkpt lat="44.5319153" lon="10.468413"><ele>458.0</ele><time>2026-04-19T14:46:43.802Z</time></trkpt><trkpt lat="44.5318543" lon="10.46856"><ele>458.0</ele><time>2026-04-19T14:46:44.801Z</time></trkpt><trkpt lat="44.5318162" lon="10.4687022"><ele>458.0</ele><time>2026-04-19T14:46:45.8Z</time></trkpt><trkpt lat="44.5318022" lon="10.4688542"><ele>458.0</ele><time>2026-04-19T14:46:46.8Z</time></trkpt><trkpt lat="44.5318103" lon="10.4690145"><ele>458.0</ele><time>2026-04-19T14:46:47.801Z</time></trkpt><trkpt lat="44.5318417" lon="10.469179"><ele>459.5</ele><time>2026-04-19T14:46:48.804Z</time></trkpt><trkpt lat="44.5318987" lon="10.4693465"><ele>461.0</ele><time>2026-04-19T14:46:49.802Z</time></trkpt><trkpt lat="44.5319618" lon="10.4695323"><ele>462.5</ele><time>2026-04-19T14:46:50.803Z</time></trkpt><trkpt lat="44.5320033" lon="10.469709"><ele>464.0</ele><time>2026-04-19T14:46:51.802Z</time></trkpt><trkpt lat="44.5320113" lon="10.4698687"><ele>464.4</ele><time>2026-04-19T14:46:52.804Z</time></trkpt><trkpt lat="44.5319908" lon="10.4700163"><ele>464.79999999999995</ele><time>2026-04-19T14:46:53.802Z</time></trkpt><trkpt lat="44.5319812" lon="10.4701598"><ele>465.20000000000005</ele><time>2026-04-19T14:46:54.802Z</time></trkpt><trkpt lat="44.5320068" lon="10.470297"><ele>465.6</ele><time>2026-04-19T14:46:55.802Z</time></trkpt><trkpt lat="44.5320458" lon="10.4704298"><ele>466.0</ele><time>2026-04-19T14:46:56.804Z</time></trkpt><trkpt lat="44.5320508" lon="10.4705658"><ele>466.6666666666667</ele><time>2026-04-19T14:46:57.803Z</time></trkpt><trkpt lat="44.5320147" lon="10.470691"><ele>467.33333333333337</ele><time>2026-04-19T14:46:58.805Z</time></trkpt><trkpt lat="44.5319652" lon="10.4708037"><ele>468.0</ele><time>2026-04-19T14:46:59.806Z</time></trkpt><trkpt lat="44.5319405" lon="10.4709087"><ele>468.66666666666663</ele><time>2026-04-19T14:47:00.804Z</time></trkpt><trkpt lat="44.5319535" lon="10.4710102"><ele>469.3333333333333</ele><time>2026-04-19T14:47:01.805Z</time></trkpt><trkpt lat="44.5320043" lon="10.4710823"><ele>470.0</ele><time>2026-04-19T14:47:02.805Z</time></trkpt><trkpt lat="44.532084" lon="10.4711242"><ele>476.0</ele><time>2026-04-19T14:47:03.806Z</time></trkpt><trkpt lat="44.5321805" lon="10.4711605"><ele>482.0</ele><time>2026-04-19T14:47:04.806Z</time></trkpt><trkpt lat="44.5322867" lon="10.4712068"><ele>488.0</ele><time>2026-04-19T14:47:05.807Z</time></trkpt><trkpt lat="44.5324012" lon="10.4712573"><ele>494.0</ele><time>2026-04-19T14:47:06.806Z</time></trkpt><trkpt lat="44.5325217" lon="10.4713098"><ele>495.25</ele><time>2026-04-19T14:47:07.808Z</time></trkpt><trkpt lat="44.5326407" lon="10.4713633"><ele>496.5</ele><time>2026-04-19T14:47:08.807Z</time></trkpt><trkpt lat="44.532753" lon="10.471409"><ele>497.75</ele><time>2026-04-19T14:47:09.804Z</time></trkpt><trkpt lat="44.5328575" lon="10.4714205"><ele>499.0</ele><time>2026-04-19T14:47:10.804Z</time></trkpt><trkpt lat="44.5329675" lon="10.4713795"><ele>501.79999999999995</ele><time>2026-04-19T14:47:11.803Z</time></trkpt><trkpt lat="44.5330743" lon="10.4713003"><ele>504.59999999999997</ele><time>2026-04-19T14:47:12.805Z</time></trkpt><trkpt lat="44.5331652" lon="10.4712303"><ele>507.4</ele><time>2026-04-19T14:47:13.805Z</time></trkpt><trkpt lat="44.533245" lon="10.4712008"><ele>510.2</ele><time>2026-04-19T14:47:14.806Z</time></trkpt><trkpt lat="44.5333237" lon="10.4712225"><ele>513.0</ele><time>2026-04-19T14:47:15.806Z</time></trkpt><trkpt lat="44.5333997" lon="10.4712973"><ele>513.0</ele><time>2026-04-19T14:47:16.806Z</time></trkpt><trkpt lat="44.5334613" lon="10.4714203"><ele>513.0</ele><time>2026-04-19T14:47:17.805Z</time></trkpt><trkpt lat="44.5335212" lon="10.471577"><ele>513.0</ele><time>2026-04-19T14:47:18.806Z</time></trkpt><trkpt lat="44.533576" lon="10.4717437"><ele>513.0</ele><time>2026-04-19T14:47:19.805Z</time></trkpt><trkpt lat="44.533604" lon="10.4719037"><ele>513.0</ele><time>2026-04-19T14:47:20.806Z</time></trkpt><trkpt lat="44.5336017" lon="10.4720628"><ele>513.0</ele><time>2026-04-19T14:47:21.804Z</time></trkpt><trkpt lat="44.5335717" lon="10.472223"><ele>513.0</ele><time>2026-04-19T14:47:22.807Z</time></trkpt><trkpt lat="44.533517" lon="10.4723813"><ele>513.0</ele><time>2026-04-19T14:47:23.806Z</time></trkpt><trkpt lat="44.5334527" lon="10.4725332"><ele>514.1999999999999</ele><time>2026-04-19T14:47:24.805Z</time></trkpt><trkpt lat="44.5333995" lon="10.4726687"><ele>515.4</ele><time>2026-04-19T14:47:25.803Z</time></trkpt><trkpt lat="44.533368" lon="10.4727912"><ele>516.5999999999999</ele><time>2026-04-19T14:47:26.805Z</time></trkpt><trkpt lat="44.53337" lon="10.4729178"><ele>517.8</ele><time>2026-04-19T14:47:27.804Z</time></trkpt><trkpt lat="44.5334042" lon="10.4730532"><ele>519.0</ele><time>2026-04-19T14:47:28.805Z</time></trkpt><trkpt lat="44.5334598" lon="10.4732017"><ele>520.75</ele><time>2026-04-19T14:47:29.805Z</time></trkpt><trkpt lat="44.5335205" lon="10.4733595"><ele>522.5</ele><time>2026-04-19T14:47:30.806Z</time></trkpt><trkpt lat="44.533579" lon="10.4735142"><ele>524.25</ele><time>2026-04-19T14:47:31.805Z</time></trkpt><trkpt lat="44.5336305" lon="10.4736472"><ele>526.0</ele><time>2026-04-19T14:47:32.807Z</time></trkpt><trkpt lat="44.533684" lon="10.4737637"><ele>529.1666666666667</ele><time>2026-04-19T14:47:33.805Z</time></trkpt><trkpt lat="44.5337433" lon="10.4738555"><ele>532.3333333333334</ele><time>2026-04-19T14:47:34.802Z</time></trkpt><trkpt lat="44.5337943" lon="10.4739197"><ele>535.5</ele><time>2026-04-19T14:47:35.804Z</time></trkpt><trkpt lat="44.533845" lon="10.4739822"><ele>538.6666666666666</ele><time>2026-04-19T14:47:37.802Z</time></trkpt><trkpt lat="44.5339188" lon="10.4740462"><ele>541.8333333333333</ele><time>2026-04-19T14:47:40.803Z</time></trkpt><trkpt lat="44.5340268" lon="10.4739855"><ele>545.0</ele><time>2026-04-19T14:47:42.804Z</time></trkpt><trkpt lat="44.5340852" lon="10.4739285"><ele>545.0</ele><time>2026-04-19T14:47:43.804Z</time></trkpt><trkpt lat="44.5341352" lon="10.4738575"><ele>545.0</ele><time>2026-04-19T14:47:44.807Z</time></trkpt><trkpt lat="44.5341623" lon="10.4737718"><ele>545.0</ele><time>2026-04-19T14:47:45.803Z</time></trkpt><trkpt lat="44.5341685" lon="10.4736825"><ele>545.0</ele><time>2026-04-19T14:47:46.805Z</time></trkpt><trkpt lat="44.5341635" lon="10.4735937"><ele>545.0</ele><time>2026-04-19T14:47:47.807Z</time></trkpt><trkpt lat="44.5341583" lon="10.4735007"><ele>545.0</ele><time>2026-04-19T14:47:48.804Z</time></trkpt><trkpt lat="44.534157" lon="10.4734048"><ele>545.0</ele><time>2026-04-19T14:47:49.805Z</time></trkpt><trkpt lat="44.534167" lon="10.4733088"><ele>545.1666666666666</ele><time>2026-04-19T14:47:50.808Z</time></trkpt><trkpt lat="44.5341962" lon="10.4732168"><ele>545.3333333333333</ele><time>2026-04-19T14:47:51.805Z</time></trkpt><trkpt lat="44.5342465" lon="10.4731385"><ele>545.5</ele><time>2026-04-19T14:47:52.807Z</time></trkpt><trkpt lat="44.5343198" lon="10.4730812"><ele>545.6666666666666</ele><time>2026-04-19T14:47:53.809Z</time></trkpt><trkpt lat="44.5344118" lon="10.4730387"><ele>545.8333333333334</ele><time>2026-04-19T14:47:54.806Z</time></trkpt><trkpt lat="44.5344975" lon="10.4730048"><ele>546.0</ele><time>2026-04-19T14:47:55.807Z</time></trkpt><trkpt lat="44.5345767" lon="10.4729485"><ele>550.0</ele><time>2026-04-19T14:47:56.808Z</time></trkpt><trkpt lat="44.5346412" lon="10.4728533"><ele>554.0</ele><time>2026-04-19T14:47:57.806Z</time></trkpt><trkpt lat="44.5346785" lon="10.4727205"><ele>558.0</ele><time>2026-04-19T14:47:58.803Z</time></trkpt><trkpt lat="44.534691" lon="10.4725557"><ele>562.0</ele><time>2026-04-19T14:47:59.803Z</time></trkpt><trkpt lat="44.5346902" lon="10.472376"><ele>566.0</ele><time>2026-04-19T14:48:00.803Z</time></trkpt><trkpt lat="44.5346885" lon="10.4722083"><ele>566.75</ele><time>2026-04-19T14:48:01.802Z</time></trkpt><trkpt lat="44.5346993" lon="10.4720383"><ele>567.5</ele><time>2026-04-19T14:48:02.804Z</time></trkpt><trkpt lat="44.5347317" lon="10.4718597"><ele>568.25</ele><time>2026-04-19T14:48:03.805Z</time></trkpt><trkpt lat="44.5347873" lon="10.4716752"><ele>569.0</ele><time>2026-04-19T14:48:04.805Z</time></trkpt><trkpt lat="44.5348638" lon="10.4714925"><ele>569.0</ele><time>2026-04-19T14:48:05.806Z</time></trkpt><trkpt lat="44.5349485" lon="10.4713287"><ele>569.0</ele><time>2026-04-19T14:48:06.804Z</time></trkpt><trkpt lat="44.5350283" lon="10.4711763"><ele>569.0</ele><time>2026-04-19T14:48:07.806Z</time></trkpt><trkpt lat="44.5350962" lon="10.4710367"><ele>569.0</ele><time>2026-04-19T14:48:08.805Z</time></trkpt><trkpt lat="44.5351593" lon="10.4709208"><ele>566.75</ele><time>2026-04-19T14:48:09.804Z</time></trkpt><trkpt lat="44.5352357" lon="10.4708338"><ele>564.5</ele><time>2026-04-19T14:48:10.803Z</time></trkpt><trkpt lat="44.5353365" lon="10.4707747"><ele>562.25</ele><time>2026-04-19T14:48:11.81Z</time></trkpt><trkpt lat="44.5354563" lon="10.4707478"><ele>560.0</ele><time>2026-04-19T14:48:12.804Z</time></trkpt><trkpt lat="44.5355865" lon="10.4707577"><ele>565.0</ele><time>2026-04-19T14:48:13.804Z</time></trkpt><trkpt lat="44.5357187" lon="10.4708018"><ele>570.0</ele><time>2026-04-19T14:48:14.805Z</time></trkpt><trkpt lat="44.535846" lon="10.4708477"><ele>575.0</ele><time>2026-04-19T14:48:15.803Z</time></trkpt><trkpt lat="44.5359622" lon="10.4708733"><ele>580.0</ele><time>2026-04-19T14:48:16.803Z</time></trkpt><trkpt lat="44.536067" lon="10.470868"><ele>580.0</ele><time>2026-04-19T14:48:17.804Z</time></trkpt><trkpt lat="44.5361637" lon="10.4708157"><ele>580.0</ele><time>2026-04-19T14:48:18.803Z</time></trkpt><trkpt lat="44.536249" lon="10.4707013"><ele>580.0</ele><time>2026-04-19T14:48:19.804Z</time></trkpt><trkpt lat="44.5363123" lon="10.4705455"><ele>580.0</ele><time>2026-04-19T14:48:20.805Z</time></trkpt><trkpt lat="44.5363513" lon="10.4703683"><ele>580.2</ele><time>2026-04-19T14:48:21.804Z</time></trkpt><trkpt lat="44.5363627" lon="10.4701953"><ele>580.4</ele><time>2026-04-19T14:48:22.804Z</time></trkpt><trkpt lat="44.5363595" lon="10.470049"><ele>580.6</ele><time>2026-04-19T14:48:23.802Z</time></trkpt><trkpt lat="44.5363595" lon="10.46994"><ele>580.8</ele><time>2026-04-19T14:48:24.802Z</time></trkpt><trkpt lat="44.5364378" lon="10.4698213"><ele>581.0</ele><time>2026-04-19T14:48:26.804Z</time></trkpt><trkpt lat="44.5365265" lon="10.469907"><ele>581.0</ele><time>2026-04-19T14:48:28.805Z</time></trkpt><trkpt lat="44.5365495" lon="10.4700682"><ele>581.0</ele><time>2026-04-19T14:48:30.805Z</time></trkpt><trkpt lat="44.536552" lon="10.4701868"><ele>581.0</ele><time>2026-04-19T14:48:32.804Z</time></trkpt><trkpt lat="44.5365373" lon="10.470309"><ele>581.0</ele><time>2026-04-19T14:48:34.804Z</time></trkpt><trkpt lat="44.5365148" lon="10.4704545"><ele>581.0</ele><time>2026-04-19T14:48:36.805Z</time></trkpt><trkpt lat="44.5364825" lon="10.4706463"><ele>580.8333333333333</ele><time>2026-04-19T14:48:38.805Z</time></trkpt><trkpt lat="44.536466" lon="10.4707498"><ele>580.6666666666666</ele><time>2026-04-19T14:48:39.805Z</time></trkpt><trkpt lat="44.5364443" lon="10.470834"><ele>580.5</ele><time>2026-04-19T14:48:40.805Z</time></trkpt><trkpt lat="44.53639" lon="10.471005"><ele>580.3333333333334</ele><time>2026-04-19T14:48:42.803Z</time></trkpt><trkpt lat="44.5363475" lon="10.471094"><ele>580.1666666666667</ele><time>2026-04-19T14:48:43.803Z</time></trkpt><trkpt lat="44.5362823" lon="10.4711732"><ele>580.0</ele><time>2026-04-19T14:48:44.806Z</time></trkpt><trkpt lat="44.5361958" lon="10.4712323"><ele>580.0</ele><time>2026-04-19T14:48:45.802Z</time></trkpt><trkpt lat="44.5360985" lon="10.471259"><ele>580.0</ele><time>2026-04-19T14:48:46.803Z</time></trkpt><trkpt lat="44.535996" lon="10.4712475"><ele>580.0</ele><time>2026-04-19T14:48:47.802Z</time></trkpt><trkpt lat="44.5358932" lon="10.471231"><ele>580.0</ele><time>2026-04-19T14:48:48.801Z</time></trkpt><trkpt lat="44.5357953" lon="10.4712243"><ele>580.0</ele><time>2026-04-19T14:48:49.801Z</time></trkpt><trkpt lat="44.5357125" lon="10.4712572"><ele>584.4</ele><time>2026-04-19T14:48:50.802Z</time></trkpt><trkpt lat="44.5356472" lon="10.4713325"><ele>588.8</ele><time>2026-04-19T14:48:51.803Z</time></trkpt><trkpt lat="44.5356023" lon="10.4714448"><ele>593.2</ele><time>2026-04-19T14:48:52.804Z</time></trkpt><trkpt lat="44.5355738" lon="10.4715817"><ele>597.6</ele><time>2026-04-19T14:48:53.804Z</time></trkpt><trkpt lat="44.5355567" lon="10.471722"><ele>602.0</ele><time>2026-04-19T14:48:54.804Z</time></trkpt><trkpt lat="44.5355575" lon="10.471854"><ele>602.0</ele><time>2026-04-19T14:48:55.802Z</time></trkpt><trkpt lat="44.5355933" lon="10.4719567"><ele>602.0</ele><time>2026-04-19T14:48:56.803Z</time></trkpt><trkpt lat="44.5356668" lon="10.472042"><ele>602.0</ele><time>2026-04-19T14:48:57.805Z</time></trkpt><trkpt lat="44.535767" lon="10.472128"><ele>602.0</ele><time>2026-04-19T14:48:58.802Z</time></trkpt><trkpt lat="44.5358818" lon="10.4722087"><ele>602.0</ele><time>2026-04-19T14:48:59.803Z</time></trkpt><trkpt lat="44.5359845" lon="10.4722885"><ele>601.0</ele><time>2026-04-19T14:49:00.804Z</time></trkpt><trkpt lat="44.5360862" lon="10.4723807"><ele>600.0</ele><time>2026-04-19T14:49:01.804Z</time></trkpt><trkpt lat="44.536174" lon="10.4725042"><ele>599.0</ele><time>2026-04-19T14:49:02.804Z</time></trkpt><trkpt lat="44.5362318" lon="10.4726625"><ele>598.0</ele><time>2026-04-19T14:49:03.8Z</time></trkpt><trkpt lat="44.5362797" lon="10.4728435"><ele>606.0</ele><time>2026-04-19T14:49:04.803Z</time></trkpt><trkpt lat="44.5363287" lon="10.473024"><ele>614.0</ele><time>2026-04-19T14:49:05.802Z</time></trkpt><trkpt lat="44.5363678" lon="10.4732065"><ele>622.0</ele><time>2026-04-19T14:49:06.801Z</time></trkpt><trkpt lat="44.5363793" lon="10.4733875"><ele>630.0</ele><time>2026-04-19T14:49:07.804Z</time></trkpt><trkpt lat="44.5363732" lon="10.473564"><ele>630.0</ele><time>2026-04-19T14:49:08.801Z</time></trkpt><trkpt lat="44.5363773" lon="10.4737375"><ele>630.0</ele><time>2026-04-19T14:49:09.802Z</time></trkpt><trkpt lat="44.5364132" lon="10.4739143"><ele>630.0</ele><time>2026-04-19T14:49:10.802Z</time></trkpt><trkpt lat="44.5364742" lon="10.4740972"><ele>630.0</ele><time>2026-04-19T14:49:11.802Z</time></trkpt><trkpt lat="44.5365428" lon="10.4742857"><ele>629.5</ele><time>2026-04-19T14:49:12.8Z</time></trkpt><trkpt lat="44.5366133" lon="10.474483"><ele>629.0</ele><time>2026-04-19T14:49:13.8Z</time></trkpt><trkpt lat="44.5366798" lon="10.4746712"><ele>628.5</ele><time>2026-04-19T14:49:14.801Z</time></trkpt><trkpt lat="44.5367372" lon="10.4748525"><ele>628.0</ele><time>2026-04-19T14:49:15.799Z</time></trkpt><trkpt lat="44.5367692" lon="10.475041"><ele>627.0</ele><time>2026-04-19T14:49:16.799Z</time></trkpt><trkpt lat="44.5367587" lon="10.475241"><ele>626.0</ele><time>2026-04-19T14:49:17.801Z</time></trkpt><trkpt lat="44.5367088" lon="10.4754405"><ele>625.0</ele><time>2026-04-19T14:49:18.799Z</time></trkpt><trkpt lat="44.5366413" lon="10.4756385"><ele>628.0</ele><time>2026-04-19T14:49:19.8Z</time></trkpt><trkpt lat="44.5365682" lon="10.4758343"><ele>631.0</ele><time>2026-04-19T14:49:20.803Z</time></trkpt><trkpt lat="44.5364843" lon="10.4760232"><ele>634.0</ele><time>2026-04-19T14:49:21.801Z</time></trkpt><trkpt lat="44.536384" lon="10.4761888"><ele>630.75</ele><time>2026-04-19T14:49:22.801Z</time></trkpt><trkpt lat="44.536268" lon="10.4763138"><ele>627.5</ele><time>2026-04-19T14:49:23.802Z</time></trkpt><trkpt lat="44.5361488" lon="10.4764003"><ele>624.25</ele><time>2026-04-19T14:49:24.802Z</time></trkpt><trkpt lat="44.5360365" lon="10.4764617"><ele>621.0</ele><time>2026-04-19T14:49:25.802Z</time></trkpt><trkpt lat="44.5359398" lon="10.4765253"><ele>621.0</ele><time>2026-04-19T14:49:26.804Z</time></trkpt><trkpt lat="44.5358743" lon="10.4766113"><ele>621.0</ele><time>2026-04-19T14:49:27.805Z</time></trkpt><trkpt lat="44.5358503" lon="10.476721"><ele>621.0</ele><time>2026-04-19T14:49:28.803Z</time></trkpt><trkpt lat="44.5358662" lon="10.4768417"><ele>621.0</ele><time>2026-04-19T14:49:29.806Z</time></trkpt><trkpt lat="44.5359198" lon="10.4769623"><ele>621.0</ele><time>2026-04-19T14:49:30.803Z</time></trkpt><trkpt lat="44.536006" lon="10.4770725"><ele>620.5</ele><time>2026-04-19T14:49:31.805Z</time></trkpt><trkpt lat="44.5361173" lon="10.477178"><ele>620.0</ele><time>2026-04-19T14:49:32.811Z</time></trkpt><trkpt lat="44.5362438" lon="10.477292"><ele>619.5</ele><time>2026-04-19T14:49:33.804Z</time></trkpt><trkpt lat="44.5363683" lon="10.477405"><ele>619.0</ele><time>2026-04-19T14:49:34.804Z</time></trkpt><trkpt lat="44.5364812" lon="10.4775027"><ele>623.2</ele><time>2026-04-19T14:49:35.805Z</time></trkpt><trkpt lat="44.5365838" lon="10.4775815"><ele>627.4</ele><time>2026-04-19T14:49:36.801Z</time></trkpt><trkpt lat="44.5366857" lon="10.477637"><ele>631.6</ele><time>2026-04-19T14:49:37.802Z</time></trkpt><trkpt lat="44.5367885" lon="10.4776688"><ele>635.8</ele><time>2026-04-19T14:49:38.802Z</time></trkpt><trkpt lat="44.5368833" lon="10.4776747"><ele>640.0</ele><time>2026-04-19T14:49:39.8Z</time></trkpt><trkpt lat="44.536969" lon="10.4776633"><ele>640.0</ele><time>2026-04-19T14:49:40.803Z</time></trkpt><trkpt lat="44.5370472" lon="10.4776508"><ele>640.0</ele><time>2026-04-19T14:49:41.803Z</time></trkpt><trkpt lat="44.537113" lon="10.4776593"><ele>640.0</ele><time>2026-04-19T14:49:42.806Z</time></trkpt><trkpt lat="44.5372218" lon="10.4776625"><ele>640.0</ele><time>2026-04-19T14:49:44.806Z</time></trkpt><trkpt lat="44.5373425" lon="10.4775792"><ele>640.0</ele><time>2026-04-19T14:49:46.805Z</time></trkpt><trkpt lat="44.5374322" lon="10.4775305"><ele>639.8</ele><time>2026-04-19T14:49:47.808Z</time></trkpt><trkpt lat="44.537534" lon="10.4774965"><ele>639.6</ele><time>2026-04-19T14:49:48.808Z</time></trkpt><trkpt lat="44.5376388" lon="10.4774687"><ele>639.4</ele><time>2026-04-19T14:49:49.806Z</time></trkpt><trkpt lat="44.537744" lon="10.4774383"><ele>639.2</ele><time>2026-04-19T14:49:50.806Z</time></trkpt><trkpt lat="44.5378472" lon="10.4774028"><ele>639.0</ele><time>2026-04-19T14:49:51.805Z</time></trkpt><trkpt lat="44.5379492" lon="10.4773623"><ele>636.6</ele><time>2026-04-19T14:49:52.806Z</time></trkpt><trkpt lat="44.5380527" lon="10.4773205"><ele>634.2</ele><time>2026-04-19T14:49:53.807Z</time></trkpt><trkpt lat="44.5381578" lon="10.4772737"><ele>631.8000000000001</ele><time>2026-04-19T14:49:54.806Z</time></trkpt><trkpt lat="44.5382642" lon="10.4772265"><ele>629.4</ele><time>2026-04-19T14:49:55.805Z</time></trkpt><trkpt lat="44.5383697" lon="10.4771767"><ele>627.0</ele><time>2026-04-19T14:49:56.806Z</time></trkpt><trkpt lat="44.5384743" lon="10.4771265"><ele>628.2</ele><time>2026-04-19T14:49:57.806Z</time></trkpt><trkpt lat="44.5385783" lon="10.4770778"><ele>629.4000000000001</ele><time>2026-04-19T14:49:58.804Z</time></trkpt><trkpt lat="44.5386808" lon="10.4770265"><ele>630.5999999999999</ele><time>2026-04-19T14:49:59.805Z</time></trkpt><trkpt lat="44.5387793" lon="10.4769593"><ele>631.8</ele><time>2026-04-19T14:50:00.806Z</time></trkpt><trkpt lat="44.538872" lon="10.4768708"><ele>633.0</ele><time>2026-04-19T14:50:01.803Z</time></trkpt><trkpt lat="44.5389595" lon="10.476762"><ele>630.5</ele><time>2026-04-19T14:50:02.807Z</time></trkpt><trkpt lat="44.5390378" lon="10.4766542"><ele>628.0</ele><time>2026-04-19T14:50:03.811Z</time></trkpt><trkpt lat="44.539105" lon="10.4765603"><ele>625.5</ele><time>2026-04-19T14:50:04.805Z</time></trkpt><trkpt lat="44.539162" lon="10.4764795"><ele>623.0</ele><time>2026-04-19T14:50:05.809Z</time></trkpt><trkpt lat="44.5392177" lon="10.4764085"><ele>620.5</ele><time>2026-04-19T14:50:06.808Z</time></trkpt><trkpt lat="44.5392832" lon="10.4763547"><ele>618.0</ele><time>2026-04-19T14:50:07.808Z</time></trkpt><trkpt lat="44.5393615" lon="10.4763287"><ele>618.0</ele><time>2026-04-19T14:50:08.806Z</time></trkpt><trkpt lat="44.5394467" lon="10.4763477"><ele>618.0</ele><time>2026-04-19T14:50:09.808Z</time></trkpt><trkpt lat="44.5395357" lon="10.4764115"><ele>618.0</ele><time>2026-04-19T14:50:10.806Z</time></trkpt><trkpt lat="44.5396293" lon="10.4764948"><ele>618.0</ele><time>2026-04-19T14:50:11.809Z</time></trkpt><trkpt lat="44.5397313" lon="10.4765823"><ele>618.0</ele><time>2026-04-19T14:50:12.805Z</time></trkpt><trkpt lat="44.5398385" lon="10.4766715"><ele>616.25</ele><time>2026-04-19T14:50:13.808Z</time></trkpt><trkpt lat="44.5399445" lon="10.4767617"><ele>614.5</ele><time>2026-04-19T14:50:14.809Z</time></trkpt><trkpt lat="44.5400438" lon="10.4768607"><ele>612.75</ele><time>2026-04-19T14:50:15.808Z</time></trkpt><trkpt lat="44.5401348" lon="10.4769842"><ele>611.0</ele><time>2026-04-19T14:50:16.806Z</time></trkpt><trkpt lat="44.5402178" lon="10.4771298"><ele>609.0</ele><time>2026-04-19T14:50:17.807Z</time></trkpt><trkpt lat="44.5402955" lon="10.4772775"><ele>607.0</ele><time>2026-04-19T14:50:18.807Z</time></trkpt><trkpt lat="44.5403748" lon="10.4774202"><ele>605.0</ele><time>2026-04-19T14:50:19.807Z</time></trkpt><trkpt lat="44.540458" lon="10.4775547"><ele>603.0</ele><time>2026-04-19T14:50:20.807Z</time></trkpt><trkpt lat="44.5405503" lon="10.477671"><ele>602.25</ele><time>2026-04-19T14:50:21.809Z</time></trkpt><trkpt lat="44.5406537" lon="10.477758"><ele>601.5</ele><time>2026-04-19T14:50:22.805Z</time></trkpt><trkpt lat="44.5407615" lon="10.4778252"><ele>600.75</ele><time>2026-04-19T14:50:23.806Z</time></trkpt><trkpt lat="44.5408683" lon="10.4778933"><ele>600.0</ele><time>2026-04-19T14:50:24.805Z</time></trkpt><trkpt lat="44.5409715" lon="10.4779677"><ele>600.0</ele><time>2026-04-19T14:50:25.804Z</time></trkpt><trkpt lat="44.5410693" lon="10.4780553"><ele>600.0</ele><time>2026-04-19T14:50:26.803Z</time></trkpt><trkpt lat="44.5411528" lon="10.47815"><ele>600.0</ele><time>2026-04-19T14:50:27.802Z</time></trkpt><trkpt lat="44.541218" lon="10.4782663"><ele>600.0</ele><time>2026-04-19T14:50:28.803Z</time></trkpt><trkpt lat="44.5412597" lon="10.478404"><ele>600.0</ele><time>2026-04-19T14:50:29.805Z</time></trkpt><trkpt lat="44.54129" lon="10.4785377"><ele>597.1666666666666</ele><time>2026-04-19T14:50:30.806Z</time></trkpt><trkpt lat="44.5413267" lon="10.478646"><ele>594.3333333333334</ele><time>2026-04-19T14:50:31.814Z</time></trkpt><trkpt lat="44.5413785" lon="10.4787238"><ele>591.5</ele><time>2026-04-19T14:50:32.808Z</time></trkpt><trkpt lat="44.5414472" lon="10.4787542"><ele>588.6666666666667</ele><time>2026-04-19T14:50:33.805Z</time></trkpt><trkpt lat="44.5415135" lon="10.4787265"><ele>585.8333333333334</ele><time>2026-04-19T14:50:34.806Z</time></trkpt><trkpt lat="44.5415598" lon="10.4786412"><ele>583.0</ele><time>2026-04-19T14:50:35.807Z</time></trkpt><trkpt lat="44.541584" lon="10.4785165"><ele>583.0</ele><time>2026-04-19T14:50:36.808Z</time></trkpt><trkpt lat="44.5416098" lon="10.4783877"><ele>583.0</ele><time>2026-04-19T14:50:37.809Z</time></trkpt><trkpt lat="44.5416648" lon="10.4782835"><ele>583.0</ele><time>2026-04-19T14:50:38.809Z</time></trkpt><trkpt lat="44.5417448" lon="10.4782272"><ele>583.0</ele><time>2026-04-19T14:50:39.808Z</time></trkpt><trkpt lat="44.5418457" lon="10.4782173"><ele>583.0</ele><time>2026-04-19T14:50:40.809Z</time></trkpt><trkpt lat="44.541952" lon="10.4782348"><ele>580.0</ele><time>2026-04-19T14:50:41.812Z</time></trkpt><trkpt lat="44.5420543" lon="10.4782722"><ele>577.0</ele><time>2026-04-19T14:50:42.808Z</time></trkpt><trkpt lat="44.542156" lon="10.4783385"><ele>574.0</ele><time>2026-04-19T14:50:43.808Z</time></trkpt><trkpt lat="44.5422565" lon="10.4784255"><ele>571.0</ele><time>2026-04-19T14:50:44.809Z</time></trkpt><trkpt lat="44.5423513" lon="10.4785197"><ele>571.0</ele><time>2026-04-19T14:50:45.807Z</time></trkpt><trkpt lat="44.5424417" lon="10.478616"><ele>571.0</ele><time>2026-04-19T14:50:46.807Z</time></trkpt><trkpt lat="44.5425273" lon="10.4787088"><ele>571.0</ele><time>2026-04-19T14:50:47.805Z</time></trkpt><trkpt lat="44.5426098" lon="10.478799"><ele>571.0</ele><time>2026-04-19T14:50:48.806Z</time></trkpt><trkpt lat="44.5426865" lon="10.4788925"><ele>571.0</ele><time>2026-04-19T14:50:49.806Z</time></trkpt><trkpt lat="44.5427573" lon="10.478988"><ele>569.6666666666667</ele><time>2026-04-19T14:50:50.805Z</time></trkpt><trkpt lat="44.5428253" lon="10.4790835"><ele>568.3333333333334</ele><time>2026-04-19T14:50:51.809Z</time></trkpt><trkpt lat="44.5428913" lon="10.4791723"><ele>567.0</ele><time>2026-04-19T14:50:52.806Z</time></trkpt><trkpt lat="44.5429552" lon="10.479257"><ele>565.6666666666666</ele><time>2026-04-19T14:50:53.805Z</time></trkpt><trkpt lat="44.5430082" lon="10.4793433"><ele>564.3333333333333</ele><time>2026-04-19T14:50:54.808Z</time></trkpt><trkpt lat="44.5430398" lon="10.4794288"><ele>563.0</ele><time>2026-04-19T14:50:55.807Z</time></trkpt><trkpt lat="44.5430293" lon="10.479572"><ele>563.0</ele><time>2026-04-19T14:50:57.808Z</time></trkpt><trkpt lat="44.5429327" lon="10.4795998"><ele>563.0</ele><time>2026-04-19T14:50:59.807Z</time></trkpt><trkpt lat="44.5428627" lon="10.4795727"><ele>563.0</ele><time>2026-04-19T14:51:00.805Z</time></trkpt><trkpt lat="44.5427858" lon="10.4795365"><ele>563.0</ele><time>2026-04-19T14:51:01.805Z</time></trkpt><trkpt lat="44.5427077" lon="10.479504"><ele>563.0</ele><time>2026-04-19T14:51:02.805Z</time></trkpt><trkpt lat="44.5426287" lon="10.4794697"><ele>563.0</ele><time>2026-04-19T14:51:03.808Z</time></trkpt><trkpt lat="44.5425562" lon="10.4794373"><ele>563.0</ele><time>2026-04-19T14:51:04.806Z</time></trkpt><trkpt lat="44.5424945" lon="10.4794153"><ele>563.0</ele><time>2026-04-19T14:51:05.805Z</time></trkpt><trkpt lat="44.5423973" lon="10.4794147"><ele>563.0</ele><time>2026-04-19T14:51:07.808Z</time></trkpt><trkpt lat="44.5423568" lon="10.4795113"><ele>563.0</ele><time>2026-04-19T14:51:09.807Z</time></trkpt><trkpt lat="44.542407" lon="10.4796037"><ele>563.0</ele><time>2026-04-19T14:51:11.804Z</time></trkpt><trkpt lat="44.5424707" lon="10.4796577"><ele>563.0</ele><time>2026-04-19T14:51:12.806Z</time></trkpt><trkpt lat="44.542553" lon="10.4797245"><ele>561.5</ele><time>2026-04-19T14:51:13.807Z</time></trkpt><trkpt lat="44.5426398" lon="10.4798025"><ele>560.0</ele><time>2026-04-19T14:51:14.807Z</time></trkpt><trkpt lat="44.5427223" lon="10.4798768"><ele>558.5</ele><time>2026-04-19T14:51:15.805Z</time></trkpt><trkpt lat="44.5428018" lon="10.4799357"><ele>557.0</ele><time>2026-04-19T14:51:16.805Z</time></trkpt><trkpt lat="44.5428768" lon="10.4799738"><ele>555.5</ele><time>2026-04-19T14:51:17.806Z</time></trkpt><trkpt lat="44.5429442" lon="10.4799903"><ele>554.0</ele><time>2026-04-19T14:51:18.803Z</time></trkpt><trkpt lat="44.5430162" lon="10.4799988"><ele>553.5</ele><time>2026-04-19T14:51:19.804Z</time></trkpt><trkpt lat="44.5430897" lon="10.480001"><ele>553.0</ele><time>2026-04-19T14:51:20.807Z</time></trkpt><trkpt lat="44.5431662" lon="10.4800128"><ele>552.5</ele><time>2026-04-19T14:51:21.803Z</time></trkpt><trkpt lat="44.5432442" lon="10.4800495"><ele>552.0</ele><time>2026-04-19T14:51:22.807Z</time></trkpt><trkpt lat="44.5433183" lon="10.4801022"><ele>551.5</ele><time>2026-04-19T14:51:23.806Z</time></trkpt><trkpt lat="44.543388" lon="10.48016"><ele>551.0</ele><time>2026-04-19T14:51:24.807Z</time></trkpt><trkpt lat="44.5434522" lon="10.4802197"><ele>551.0</ele><time>2026-04-19T14:51:25.807Z</time></trkpt><trkpt lat="44.5435202" lon="10.4802823"><ele>551.0</ele><time>2026-04-19T14:51:26.807Z</time></trkpt><trkpt lat="44.5435907" lon="10.4803438"><ele>551.0</ele><time>2026-04-19T14:51:27.804Z</time></trkpt><trkpt lat="44.543663" lon="10.4804018"><ele>551.0</ele><time>2026-04-19T14:51:28.805Z</time></trkpt><trkpt lat="44.5437357" lon="10.4804552"><ele>551.0</ele><time>2026-04-19T14:51:29.804Z</time></trkpt><trkpt lat="44.5438123" lon="10.4804905"><ele>551.0</ele><time>2026-04-19T14:51:30.803Z</time></trkpt><trkpt lat="44.5438922" lon="10.4805033"><ele>548.8333333333333</ele><time>2026-04-19T14:51:31.804Z</time></trkpt><trkpt lat="44.5439733" lon="10.4804953"><ele>546.6666666666666</ele><time>2026-04-19T14:51:32.806Z</time></trkpt><trkpt lat="44.5440527" lon="10.4804753"><ele>544.5</ele><time>2026-04-19T14:51:33.803Z</time></trkpt><trkpt lat="44.5441323" lon="10.4804432"><ele>542.3333333333334</ele><time>2026-04-19T14:51:34.805Z</time></trkpt><trkpt lat="44.5442078" lon="10.4803928"><ele>540.1666666666667</ele><time>2026-04-19T14:51:35.806Z</time></trkpt><trkpt lat="44.5442753" lon="10.4803242"><ele>538.0</ele><time>2026-04-19T14:51:36.805Z</time></trkpt><trkpt lat="44.5443272" lon="10.4802457"><ele>538.0</ele><time>2026-04-19T14:51:37.804Z</time></trkpt><trkpt lat="44.5443647" lon="10.48017"><ele>538.0</ele><time>2026-04-19T14:51:38.806Z</time></trkpt><trkpt lat="44.5443945" lon="10.4800912"><ele>538.0</ele><time>2026-04-19T14:51:39.804Z</time></trkpt><trkpt lat="44.5444233" lon="10.4800123"><ele>538.0</ele><time>2026-04-19T14:51:40.801Z</time></trkpt><trkpt lat="44.5444945" lon="10.4798893"><ele>538.0</ele><time>2026-04-19T14:51:42.805Z</time></trkpt><trkpt lat="44.544586" lon="10.4798685"><ele>538.0</ele><time>2026-04-19T14:51:44.805Z</time></trkpt><trkpt lat="44.5446752" lon="10.4800055"><ele>536.0</ele><time>2026-04-19T14:51:46.804Z</time></trkpt><trkpt lat="44.544737" lon="10.4801512"><ele>534.0</ele><time>2026-04-19T14:51:47.806Z</time></trkpt><trkpt lat="44.5447997" lon="10.4802898"><ele>532.0</ele><time>2026-04-19T14:51:48.804Z</time></trkpt><trkpt lat="44.5448562" lon="10.4804168"><ele>530.0</ele><time>2026-04-19T14:51:49.804Z</time></trkpt><trkpt lat="44.544905" lon="10.4805343"><ele>528.0</ele><time>2026-04-19T14:51:50.803Z</time></trkpt><trkpt lat="44.5449365" lon="10.4806455"><ele>528.0</ele><time>2026-04-19T14:51:51.802Z</time></trkpt><trkpt lat="44.5449452" lon="10.480753"><ele>528.0</ele><time>2026-04-19T14:51:52.803Z</time></trkpt><trkpt lat="44.5449337" lon="10.4808653"><ele>528.0</ele><time>2026-04-19T14:51:53.802Z</time></trkpt><trkpt lat="44.5448963" lon="10.4810032"><ele>528.0</ele><time>2026-04-19T14:51:54.802Z</time></trkpt><trkpt lat="44.5448328" lon="10.4811633"><ele>528.0</ele><time>2026-04-19T14:51:55.802Z</time></trkpt><trkpt lat="44.5447787" lon="10.481294"><ele>529.0</ele><time>2026-04-19T14:51:56.804Z</time></trkpt><trkpt lat="44.5447402" lon="10.4814037"><ele>530.0</ele><time>2026-04-19T14:51:57.803Z</time></trkpt><trkpt lat="44.544714" lon="10.4815205"><ele>531.0</ele><time>2026-04-19T14:51:58.803Z</time></trkpt><trkpt lat="44.5447018" lon="10.4816628"><ele>532.0</ele><time>2026-04-19T14:51:59.804Z</time></trkpt><trkpt lat="44.544695" lon="10.4818205"><ele>533.0</ele><time>2026-04-19T14:52:00.802Z</time></trkpt><trkpt lat="44.544691" lon="10.4819517"><ele>533.0</ele><time>2026-04-19T14:52:01.803Z</time></trkpt><trkpt lat="44.544688" lon="10.4820682"><ele>533.0</ele><time>2026-04-19T14:52:02.803Z</time></trkpt><trkpt lat="44.5446867" lon="10.4821813"><ele>533.0</ele><time>2026-04-19T14:52:03.802Z</time></trkpt><trkpt lat="44.5446865" lon="10.4822792"><ele>533.0</ele><time>2026-04-19T14:52:04.801Z</time></trkpt><trkpt lat="44.5446903" lon="10.4823695"><ele>533.0</ele><time>2026-04-19T14:52:05.801Z</time></trkpt><trkpt lat="44.5446958" lon="10.4824583"><ele>533.0</ele><time>2026-04-19T14:52:06.801Z</time></trkpt><trkpt lat="44.544731" lon="10.4825973"><ele>534.0</ele><time>2026-04-19T14:52:08.804Z</time></trkpt><trkpt lat="44.5448147" lon="10.4826282"><ele>535.0</ele><time>2026-04-19T14:52:10.803Z</time></trkpt><trkpt lat="44.5448975" lon="10.4825392"><ele>536.0</ele><time>2026-04-19T14:52:12.804Z</time></trkpt><trkpt lat="44.5449383" lon="10.4824437"><ele>537.0</ele><time>2026-04-19T14:52:13.803Z</time></trkpt><trkpt lat="44.5449923" lon="10.482297"><ele>538.0</ele><time>2026-04-19T14:52:14.805Z</time></trkpt><trkpt lat="44.545066" lon="10.4821018"><ele>536.75</ele><time>2026-04-19T14:52:15.806Z</time></trkpt><trkpt lat="44.5451407" lon="10.4819085"><ele>535.5</ele><time>2026-04-19T14:52:16.803Z</time></trkpt><trkpt lat="44.5452005" lon="10.4817422"><ele>534.25</ele><time>2026-04-19T14:52:17.804Z</time></trkpt><trkpt lat="44.5452513" lon="10.4815977"><ele>533.0</ele><time>2026-04-19T14:52:18.803Z</time></trkpt><trkpt lat="44.5452912" lon="10.4814638"><ele>533.0</ele><time>2026-04-19T14:52:19.804Z</time></trkpt><trkpt lat="44.545313" lon="10.481353"><ele>533.0</ele><time>2026-04-19T14:52:20.803Z</time></trkpt><trkpt lat="44.5453235" lon="10.4812608"><ele>533.0</ele><time>2026-04-19T14:52:21.803Z</time></trkpt><trkpt lat="44.5453503" lon="10.481176"><ele>533.0</ele><time>2026-04-19T14:52:22.803Z</time></trkpt><trkpt lat="44.5454015" lon="10.4811038"><ele>533.0</ele><time>2026-04-19T14:52:23.802Z</time></trkpt><trkpt lat="44.5454867" lon="10.4810447"><ele>533.0</ele><time>2026-04-19T14:52:24.802Z</time></trkpt><trkpt lat="44.5455665" lon="10.4810077"><ele>533.1999999999999</ele><time>2026-04-19T14:52:25.802Z</time></trkpt><trkpt lat="44.5456303" lon="10.4809673"><ele>533.4</ele><time>2026-04-19T14:52:26.802Z</time></trkpt><trkpt lat="44.5456897" lon="10.4808313"><ele>533.5999999999999</ele><time>2026-04-19T14:52:28.8Z</time></trkpt><trkpt lat="44.545651" lon="10.4806627"><ele>533.8</ele><time>2026-04-19T14:52:30.799Z</time></trkpt><trkpt lat="44.5456333" lon="10.4805722"><ele>534.0</ele><time>2026-04-19T14:52:31.801Z</time></trkpt><trkpt lat="44.5456628" lon="10.4804265"><ele>534.0</ele><time>2026-04-19T14:52:33.803Z</time></trkpt><trkpt lat="44.5457638" lon="10.4803562"><ele>534.0</ele><time>2026-04-19T14:52:35.804Z</time></trkpt><trkpt lat="44.5458378" lon="10.4803578"><ele>534.0</ele><time>2026-04-19T14:52:36.803Z</time></trkpt><trkpt lat="44.5459405" lon="10.4803767"><ele>534.0</ele><time>2026-04-19T14:52:37.804Z</time></trkpt><trkpt lat="44.5460475" lon="10.4803882"><ele>534.0</ele><time>2026-04-19T14:52:38.805Z</time></trkpt><trkpt lat="44.546164" lon="10.4803937"><ele>539.0</ele><time>2026-04-19T14:52:39.805Z</time></trkpt><trkpt lat="44.5462617" lon="10.4804"><ele>544.0</ele><time>2026-04-19T14:52:40.803Z</time></trkpt><trkpt lat="44.5463387" lon="10.4804003"><ele>549.0</ele><time>2026-04-19T14:52:41.803Z</time></trkpt><trkpt lat="44.546448" lon="10.4803502"><ele>554.0</ele><time>2026-04-19T14:52:43.804Z</time></trkpt><trkpt lat="44.5465125" lon="10.4801967"><ele>559.0</ele><time>2026-04-19T14:52:45.805Z</time></trkpt><trkpt lat="44.5465173" lon="10.480082"><ele>559.0</ele><time>2026-04-19T14:52:46.808Z</time></trkpt><trkpt lat="44.5465147" lon="10.4799818"><ele>559.0</ele><time>2026-04-19T14:52:47.806Z</time></trkpt><trkpt lat="44.5465198" lon="10.479887"><ele>559.0</ele><time>2026-04-19T14:52:48.806Z</time></trkpt><trkpt lat="44.5465472" lon="10.4798048"><ele>559.0</ele><time>2026-04-19T14:52:49.804Z</time></trkpt><trkpt lat="44.5466015" lon="10.4797245"><ele>559.0</ele><time>2026-04-19T14:52:50.806Z</time></trkpt><trkpt lat="44.5466698" lon="10.4796412"><ele>559.0</ele><time>2026-04-19T14:52:51.804Z</time></trkpt><trkpt lat="44.546715" lon="10.479568"><ele>559.0</ele><time>2026-04-19T14:52:52.804Z</time></trkpt><trkpt lat="44.5467792" lon="10.479442"><ele>559.0</ele><time>2026-04-19T14:52:54.803Z</time></trkpt><trkpt lat="44.546866" lon="10.4793792"><ele>559.0</ele><time>2026-04-19T14:52:56.805Z</time></trkpt><trkpt lat="44.5469595" lon="10.4794342"><ele>559.0</ele><time>2026-04-19T14:52:58.806Z</time></trkpt><trkpt lat="44.5469823" lon="10.479562"><ele>559.0</ele><time>2026-04-19T14:53:00.806Z</time></trkpt><trkpt lat="44.546958" lon="10.479648"><ele>559.0</ele><time>2026-04-19T14:53:01.807Z</time></trkpt><trkpt lat="44.546923" lon="10.4797377"><ele>559.0</ele><time>2026-04-19T14:53:02.806Z</time></trkpt><trkpt lat="44.5469455" lon="10.4799745"><ele>562.2</ele><time>2026-04-19T14:53:05.806Z</time></trkpt><trkpt lat="44.5470608" lon="10.4800283"><ele>565.4</ele><time>2026-04-19T14:53:07.806Z</time></trkpt><trkpt lat="44.5471477" lon="10.4800358"><ele>568.6</ele><time>2026-04-19T14:53:08.805Z</time></trkpt><trkpt lat="44.54722" lon="10.4800485"><ele>571.8</ele><time>2026-04-19T14:53:09.805Z</time></trkpt><trkpt lat="44.5473243" lon="10.4800732"><ele>575.0</ele><time>2026-04-19T14:53:11.806Z</time></trkpt><trkpt lat="44.5473952" lon="10.4800998"><ele>575.0</ele><time>2026-04-19T14:53:13.806Z</time></trkpt><trkpt lat="44.5474597" lon="10.4801118"><ele>575.0</ele><time>2026-04-19T14:53:18.803Z</time></trkpt><trkpt lat="44.5475247" lon="10.4801277"><ele>575.0</ele><time>2026-04-19T14:53:45.806Z</time></trkpt><trkpt lat="44.5475858" lon="10.4801565"><ele>575.0</ele><time>2026-04-19T14:53:47.807Z</time></trkpt><trkpt lat="44.547661" lon="10.4802132"><ele>575.0</ele><time>2026-04-19T14:53:50.807Z</time></trkpt><trkpt lat="44.5476912" lon="10.4803288"><ele>575.0</ele><time>2026-04-19T14:53:52.806Z</time></trkpt><trkpt lat="44.5476765" lon="10.4804977"><ele>575.0</ele><time>2026-04-19T14:53:54.805Z</time></trkpt><trkpt lat="44.5476967" lon="10.4806435"><ele>575.0</ele><time>2026-04-19T14:53:56.806Z</time></trkpt><trkpt lat="44.5477962" lon="10.4806748"><ele>575.0</ele><time>2026-04-19T14:53:58.806Z</time></trkpt><trkpt lat="44.5478612" lon="10.480629"><ele>575.0</ele><time>2026-04-19T14:53:59.806Z</time></trkpt><trkpt lat="44.547933" lon="10.4805587"><ele>575.0</ele><time>2026-04-19T14:54:00.804Z</time></trkpt><trkpt lat="44.548012" lon="10.4804852"><ele>574.4</ele><time>2026-04-19T14:54:01.803Z</time></trkpt><trkpt lat="44.548092" lon="10.4804133"><ele>573.8</ele><time>2026-04-19T14:54:02.804Z</time></trkpt><trkpt lat="44.5481757" lon="10.4803492"><ele>573.2</ele><time>2026-04-19T14:54:03.805Z</time></trkpt><trkpt lat="44.5482533" lon="10.480286"><ele>572.6</ele><time>2026-04-19T14:54:04.804Z</time></trkpt><trkpt lat="44.5483298" lon="10.4802133"><ele>572.0</ele><time>2026-04-19T14:54:05.803Z</time></trkpt><trkpt lat="44.5483983" lon="10.4801268"><ele>572.0</ele><time>2026-04-19T14:54:06.8Z</time></trkpt><trkpt lat="44.5484632" lon="10.4800413"><ele>572.0</ele><time>2026-04-19T14:54:07.8Z</time></trkpt><trkpt lat="44.5485295" lon="10.4799645"><ele>572.0</ele><time>2026-04-19T14:54:08.799Z</time></trkpt><trkpt lat="44.5486025" lon="10.4798973"><ele>572.0</ele><time>2026-04-19T14:54:09.8Z</time></trkpt><trkpt lat="44.5486762" lon="10.4798473"><ele>572.0</ele><time>2026-04-19T14:54:10.802Z</time></trkpt><trkpt lat="44.5487622" lon="10.4797957"><ele>572.0</ele><time>2026-04-19T14:54:11.802Z</time></trkpt><trkpt lat="44.5488538" lon="10.4797455"><ele>572.8000000000001</ele><time>2026-04-19T14:54:12.802Z</time></trkpt><trkpt lat="44.5489248" lon="10.4796885"><ele>573.6</ele><time>2026-04-19T14:54:13.803Z</time></trkpt><trkpt lat="44.5490018" lon="10.479624"><ele>574.4000000000001</ele><time>2026-04-19T14:54:14.804Z</time></trkpt><trkpt lat="44.5490763" lon="10.479567"><ele>575.2</ele><time>2026-04-19T14:54:15.803Z</time></trkpt><trkpt lat="44.5491583" lon="10.4795085"><ele>576.0</ele><time>2026-04-19T14:54:16.802Z</time></trkpt><trkpt lat="44.549253" lon="10.4794552"><ele>573.8</ele><time>2026-04-19T14:54:17.805Z</time></trkpt><trkpt lat="44.5493482" lon="10.479415"><ele>571.6</ele><time>2026-04-19T14:54:18.803Z</time></trkpt><trkpt lat="44.5494445" lon="10.4793942"><ele>569.4</ele><time>2026-04-19T14:54:19.804Z</time></trkpt><trkpt lat="44.5495448" lon="10.4793593"><ele>567.2</ele><time>2026-04-19T14:54:20.804Z</time></trkpt><trkpt lat="44.5496372" lon="10.4793218"><ele>565.0</ele><time>2026-04-19T14:54:21.803Z</time></trkpt><trkpt lat="44.5497303" lon="10.4792987"><ele>563.8</ele><time>2026-04-19T14:54:22.802Z</time></trkpt><trkpt lat="44.5498283" lon="10.4792837"><ele>562.6</ele><time>2026-04-19T14:54:23.803Z</time></trkpt><trkpt lat="44.5499265" lon="10.47925"><ele>561.4</ele><time>2026-04-19T14:54:24.805Z</time></trkpt><trkpt lat="44.5500247" lon="10.4792152"><ele>560.2</ele><time>2026-04-19T14:54:25.804Z</time></trkpt><trkpt lat="44.5501207" lon="10.4791795"><ele>559.0</ele><time>2026-04-19T14:54:26.804Z</time></trkpt><trkpt lat="44.5502163" lon="10.4791533"><ele>559.0</ele><time>2026-04-19T14:54:27.803Z</time></trkpt><trkpt lat="44.5503053" lon="10.479139"><ele>559.0</ele><time>2026-04-19T14:54:28.804Z</time></trkpt><trkpt lat="44.550392" lon="10.4791425"><ele>559.0</ele><time>2026-04-19T14:54:29.805Z</time></trkpt><trkpt lat="44.5504847" lon="10.4791393"><ele>559.0</ele><time>2026-04-19T14:54:30.802Z</time></trkpt><trkpt lat="44.550577" lon="10.4791345"><ele>559.0</ele><time>2026-04-19T14:54:31.801Z</time></trkpt><trkpt lat="44.550676" lon="10.4791208"><ele>558.0</ele><time>2026-04-19T14:54:32.802Z</time></trkpt><trkpt lat="44.5507807" lon="10.4791033"><ele>557.0</ele><time>2026-04-19T14:54:33.801Z</time></trkpt><trkpt lat="44.5508938" lon="10.479084"><ele>556.0</ele><time>2026-04-19T14:54:34.804Z</time></trkpt><trkpt lat="44.5510007" lon="10.4790515"><ele>555.0</ele><time>2026-04-19T14:54:35.804Z</time></trkpt><trkpt lat="44.551106" lon="10.4790075"><ele>554.0</ele><time>2026-04-19T14:54:36.805Z</time></trkpt><trkpt lat="44.5511982" lon="10.4789705"><ele>552.4</ele><time>2026-04-19T14:54:37.805Z</time></trkpt><trkpt lat="44.5512955" lon="10.4789208"><ele>550.8</ele><time>2026-04-19T14:54:38.807Z</time></trkpt><trkpt lat="44.5513895" lon="10.4788802"><ele>549.2</ele><time>2026-04-19T14:54:39.805Z</time></trkpt><trkpt lat="44.5514727" lon="10.478847"><ele>547.6</ele><time>2026-04-19T14:54:40.804Z</time></trkpt><trkpt lat="44.5515372" lon="10.4788228"><ele>546.0</ele><time>2026-04-19T14:54:41.806Z</time></trkpt><trkpt lat="44.5516272" lon="10.4788645"><ele>546.0</ele><time>2026-04-19T14:54:43.806Z</time></trkpt><trkpt lat="44.5516405" lon="10.4790168"><ele>546.0</ele><time>2026-04-19T14:54:45.805Z</time></trkpt><trkpt lat="44.5516238" lon="10.4791723"><ele>546.0</ele><time>2026-04-19T14:54:47.806Z</time></trkpt><trkpt lat="44.5516013" lon="10.4792687"><ele>546.0</ele><time>2026-04-19T14:54:48.804Z</time></trkpt><trkpt lat="44.5515578" lon="10.4793808"><ele>546.0</ele><time>2026-04-19T14:54:49.804Z</time></trkpt><trkpt lat="44.5515102" lon="10.479502"><ele>545.2</ele><time>2026-04-19T14:54:50.805Z</time></trkpt><trkpt lat="44.5514657" lon="10.479638"><ele>544.4000000000001</ele><time>2026-04-19T14:54:51.806Z</time></trkpt><trkpt lat="44.551426" lon="10.4797892"><ele>543.6</ele><time>2026-04-19T14:54:52.806Z</time></trkpt><trkpt lat="44.5513982" lon="10.4799365"><ele>542.8000000000001</ele><time>2026-04-19T14:54:53.805Z</time></trkpt><trkpt lat="44.5513718" lon="10.480084"><ele>542.0</ele><time>2026-04-19T14:54:54.805Z</time></trkpt><trkpt lat="44.5513437" lon="10.4802437"><ele>542.0</ele><time>2026-04-19T14:54:55.801Z</time></trkpt><trkpt lat="44.551315" lon="10.4804013"><ele>542.0</ele><time>2026-04-19T14:54:56.804Z</time></trkpt><trkpt lat="44.5512832" lon="10.4805517"><ele>542.0</ele><time>2026-04-19T14:54:57.803Z</time></trkpt><trkpt lat="44.5512618" lon="10.4806968"><ele>542.0</ele><time>2026-04-19T14:54:58.802Z</time></trkpt><trkpt lat="44.5512837" lon="10.4808625"><ele>541.0</ele><time>2026-04-19T14:54:59.804Z</time></trkpt><trkpt lat="44.5513278" lon="10.481032"><ele>540.0</ele><time>2026-04-19T14:55:00.804Z</time></trkpt><trkpt lat="44.5513682" lon="10.4812033"><ele>539.0</ele><time>2026-04-19T14:55:01.803Z</time></trkpt><trkpt lat="44.5513788" lon="10.4813902"><ele>538.0</ele><time>2026-04-19T14:55:02.804Z</time></trkpt><trkpt lat="44.5513502" lon="10.481604"><ele>538.0</ele><time>2026-04-19T14:55:03.803Z</time></trkpt><trkpt lat="44.551315" lon="10.4818282"><ele>538.0</ele><time>2026-04-19T14:55:04.803Z</time></trkpt><trkpt lat="44.5512933" lon="10.4820285"><ele>538.0</ele><time>2026-04-19T14:55:05.805Z</time></trkpt><trkpt lat="44.5513013" lon="10.4822133"><ele>538.0</ele><time>2026-04-19T14:55:06.802Z</time></trkpt><trkpt lat="44.5513443" lon="10.4823877"><ele>540.25</ele><time>2026-04-19T14:55:07.806Z</time></trkpt><trkpt lat="44.5513845" lon="10.4825682"><ele>542.5</ele><time>2026-04-19T14:55:08.805Z</time></trkpt><trkpt lat="44.5514023" lon="10.4827643"><ele>544.75</ele><time>2026-04-19T14:55:09.805Z</time></trkpt><trkpt lat="44.5514065" lon="10.4829725"><ele>547.0</ele><time>2026-04-19T14:55:10.805Z</time></trkpt><trkpt lat="44.5514015" lon="10.4831785"><ele>548.0</ele><time>2026-04-19T14:55:11.805Z</time></trkpt><trkpt lat="44.5513868" lon="10.4833807"><ele>549.0</ele><time>2026-04-19T14:55:12.807Z</time></trkpt><trkpt lat="44.5513617" lon="10.4835853"><ele>550.0</ele><time>2026-04-19T14:55:13.806Z</time></trkpt><trkpt lat="44.5513273" lon="10.4837945"><ele>551.0</ele><time>2026-04-19T14:55:14.805Z</time></trkpt><trkpt lat="44.5512878" lon="10.4840105"><ele>551.0</ele><time>2026-04-19T14:55:15.807Z</time></trkpt><trkpt lat="44.5512418" lon="10.48424"><ele>551.0</ele><time>2026-04-19T14:55:16.806Z</time></trkpt><trkpt lat="44.5512045" lon="10.4844713"><ele>551.0</ele><time>2026-04-19T14:55:17.804Z</time></trkpt><trkpt lat="44.5511728" lon="10.4846982"><ele>565.3333333333333</ele><time>2026-04-19T14:55:18.803Z</time></trkpt><trkpt lat="44.5511537" lon="10.4849257"><ele>579.6666666666666</ele><time>2026-04-19T14:55:19.803Z</time></trkpt><trkpt lat="44.5511363" lon="10.4851522"><ele>594.0</ele><time>2026-04-19T14:55:20.803Z</time></trkpt><trkpt lat="44.5511208" lon="10.485374"><ele>593.6666666666666</ele><time>2026-04-19T14:55:21.801Z</time></trkpt><trkpt lat="44.5510943" lon="10.4855913"><ele>593.3333333333333</ele><time>2026-04-19T14:55:22.803Z</time></trkpt><trkpt lat="44.5510573" lon="10.4858055"><ele>593.0</ele><time>2026-04-19T14:55:23.803Z</time></trkpt><trkpt lat="44.5510132" lon="10.4860133"><ele>593.0</ele><time>2026-04-19T14:55:24.804Z</time></trkpt><trkpt lat="44.5509633" lon="10.4862148"><ele>593.0</ele><time>2026-04-19T14:55:25.804Z</time></trkpt><trkpt lat="44.5509047" lon="10.4864132"><ele>593.0</ele><time>2026-04-19T14:55:26.806Z</time></trkpt><trkpt lat="44.5508387" lon="10.4866098"><ele>591.6666666666666</ele><time>2026-04-19T14:55:27.806Z</time></trkpt><trkpt lat="44.5507698" lon="10.4868078"><ele>590.3333333333334</ele><time>2026-04-19T14:55:28.805Z</time></trkpt><trkpt lat="44.550707" lon="10.4870162"><ele>589.0</ele><time>2026-04-19T14:55:29.806Z</time></trkpt><trkpt lat="44.5506472" lon="10.487236"><ele>587.0</ele><time>2026-04-19T14:55:30.806Z</time></trkpt><trkpt lat="44.5505908" lon="10.4874627"><ele>585.0</ele><time>2026-04-19T14:55:31.807Z</time></trkpt><trkpt lat="44.5505382" lon="10.4876822"><ele>583.0</ele><time>2026-04-19T14:55:32.805Z</time></trkpt><trkpt lat="44.5504883" lon="10.4878967"><ele>580.75</ele><time>2026-04-19T14:55:33.805Z</time></trkpt><trkpt lat="44.5504442" lon="10.4881045"><ele>578.5</ele><time>2026-04-19T14:55:34.806Z</time></trkpt><trkpt lat="44.5504082" lon="10.4883057"><ele>576.25</ele><time>2026-04-19T14:55:35.806Z</time></trkpt><trkpt lat="44.550378" lon="10.4885003"><ele>574.0</ele><time>2026-04-19T14:55:36.805Z</time></trkpt><trkpt lat="44.5503522" lon="10.4886828"><ele>579.8</ele><time>2026-04-19T14:55:37.803Z</time></trkpt><trkpt lat="44.5503278" lon="10.488847"><ele>585.5999999999999</ele><time>2026-04-19T14:55:38.804Z</time></trkpt><trkpt lat="44.5503052" lon="10.4889932"><ele>591.4</ele><time>2026-04-19T14:55:39.804Z</time></trkpt><trkpt lat="44.5502867" lon="10.4891147"><ele>597.1999999999999</ele><time>2026-04-19T14:55:40.804Z</time></trkpt><trkpt lat="44.5502727" lon="10.4892072"><ele>603.0</ele><time>2026-04-19T14:55:41.804Z</time></trkpt><trkpt lat="44.5502568" lon="10.4893292"><ele>603.0</ele><time>2026-04-19T14:55:43.804Z</time></trkpt><trkpt lat="44.5502427" lon="10.4894452"><ele>603.0</ele><time>2026-04-19T14:55:46.801Z</time></trkpt><trkpt lat="44.5502372" lon="10.4895835"><ele>603.0</ele><time>2026-04-19T14:55:49.804Z</time></trkpt><trkpt lat="44.5502328" lon="10.4897447"><ele>603.0</ele><time>2026-04-19T14:55:51.805Z</time></trkpt><trkpt lat="44.5502147" lon="10.4898612"><ele>603.0</ele><time>2026-04-19T14:55:52.805Z</time></trkpt><trkpt lat="44.5501912" lon="10.490005"><ele>601.75</ele><time>2026-04-19T14:55:53.807Z</time></trkpt><trkpt lat="44.5501708" lon="10.4901493"><ele>600.5</ele><time>2026-04-19T14:55:54.806Z</time></trkpt><trkpt lat="44.5501502" lon="10.4903042"><ele>599.25</ele><time>2026-04-19T14:55:55.806Z</time></trkpt><trkpt lat="44.5501268" lon="10.490469"><ele>598.0</ele><time>2026-04-19T14:55:56.807Z</time></trkpt><trkpt lat="44.550103" lon="10.4906523"><ele>597.75</ele><time>2026-04-19T14:55:57.804Z</time></trkpt><trkpt lat="44.5500775" lon="10.4908318"><ele>597.5</ele><time>2026-04-19T14:55:58.804Z</time></trkpt><trkpt lat="44.5500573" lon="10.490999"><ele>597.25</ele><time>2026-04-19T14:55:59.806Z</time></trkpt><trkpt lat="44.5500475" lon="10.4911615"><ele>597.0</ele><time>2026-04-19T14:56:00.804Z</time></trkpt><trkpt lat="44.5500487" lon="10.4913215"><ele>597.0</ele><time>2026-04-19T14:56:01.805Z</time></trkpt><trkpt lat="44.5500675" lon="10.4914768"><ele>597.0</ele><time>2026-04-19T14:56:02.806Z</time></trkpt><trkpt lat="44.5501147" lon="10.4916198"><ele>597.0</ele><time>2026-04-19T14:56:03.804Z</time></trkpt><trkpt lat="44.5501932" lon="10.4917288"><ele>597.0</ele><time>2026-04-19T14:56:04.802Z</time></trkpt><trkpt lat="44.5502925" lon="10.4918163"><ele>595.2</ele><time>2026-04-19T14:56:05.805Z</time></trkpt><trkpt lat="44.5503872" lon="10.4918938"><ele>593.4000000000001</ele><time>2026-04-19T14:56:06.804Z</time></trkpt><trkpt lat="44.5504675" lon="10.4919688"><ele>591.5999999999999</ele><time>2026-04-19T14:56:07.807Z</time></trkpt><trkpt lat="44.5505247" lon="10.4920593"><ele>589.8</ele><time>2026-04-19T14:56:08.803Z</time></trkpt><trkpt lat="44.55054" lon="10.4921702"><ele>588.0</ele><time>2026-04-19T14:56:09.806Z</time></trkpt><trkpt lat="44.5505067" lon="10.492281"><ele>588.0</ele><time>2026-04-19T14:56:10.804Z</time></trkpt><trkpt lat="44.5504323" lon="10.492389"><ele>588.0</ele><time>2026-04-19T14:56:11.802Z</time></trkpt><trkpt lat="44.5503417" lon="10.4924975"><ele>588.0</ele><time>2026-04-19T14:56:12.804Z</time></trkpt><trkpt lat="44.5502528" lon="10.4926042"><ele>588.0</ele><time>2026-04-19T14:56:13.805Z</time></trkpt><trkpt lat="44.5501673" lon="10.4927038"><ele>590.5</ele><time>2026-04-19T14:56:14.806Z</time></trkpt><trkpt lat="44.5500875" lon="10.4927917"><ele>593.0</ele><time>2026-04-19T14:56:15.806Z</time></trkpt><trkpt lat="44.550018" lon="10.492866"><ele>595.5</ele><time>2026-04-19T14:56:16.807Z</time></trkpt><trkpt lat="44.5499587" lon="10.4929307"><ele>598.0</ele><time>2026-04-19T14:56:17.805Z</time></trkpt><trkpt lat="44.5499027" lon="10.4929873"><ele>600.5</ele><time>2026-04-19T14:56:18.805Z</time></trkpt><trkpt lat="44.5498503" lon="10.4930435"><ele>603.0</ele><time>2026-04-19T14:56:19.805Z</time></trkpt><trkpt lat="44.5498333" lon="10.4931905"><ele>603.4</ele><time>2026-04-19T14:56:21.804Z</time></trkpt><trkpt lat="44.5498355" lon="10.4932853"><ele>603.8</ele><time>2026-04-19T14:56:22.804Z</time></trkpt><trkpt lat="44.5498155" lon="10.4933997"><ele>604.2</ele><time>2026-04-19T14:56:23.804Z</time></trkpt><trkpt lat="44.5497747" lon="10.4935353"><ele>604.6</ele><time>2026-04-19T14:56:24.804Z</time></trkpt><trkpt lat="44.5497293" lon="10.4936835"><ele>605.0</ele><time>2026-04-19T14:56:25.803Z</time></trkpt><trkpt lat="44.5496803" lon="10.4938457"><ele>604.0</ele><time>2026-04-19T14:56:26.802Z</time></trkpt><trkpt lat="44.5496242" lon="10.4940203"><ele>603.0</ele><time>2026-04-19T14:56:27.805Z</time></trkpt><trkpt lat="44.5495712" lon="10.4942047"><ele>602.0</ele><time>2026-04-19T14:56:28.805Z</time></trkpt><trkpt lat="44.5495223" lon="10.4944038"><ele>601.0</ele><time>2026-04-19T14:56:29.804Z</time></trkpt><trkpt lat="44.549474" lon="10.4946137"><ele>599.6666666666667</ele><time>2026-04-19T14:56:30.806Z</time></trkpt><trkpt lat="44.549427" lon="10.4948335"><ele>598.3333333333334</ele><time>2026-04-19T14:56:31.805Z</time></trkpt><trkpt lat="44.5493843" lon="10.49506"><ele>597.0</ele><time>2026-04-19T14:56:32.805Z</time></trkpt><trkpt lat="44.5493392" lon="10.4952942"><ele>594.0</ele><time>2026-04-19T14:56:33.801Z</time></trkpt><trkpt lat="44.5492877" lon="10.4955302"><ele>591.0</ele><time>2026-04-19T14:56:34.801Z</time></trkpt><trkpt lat="44.5492207" lon="10.4957713"><ele>588.0</ele><time>2026-04-19T14:56:35.803Z</time></trkpt><trkpt lat="44.5491437" lon="10.4960195"><ele>586.3333333333334</ele><time>2026-04-19T14:56:36.804Z</time></trkpt><trkpt lat="44.5490718" lon="10.4962785"><ele>584.6666666666667</ele><time>2026-04-19T14:56:37.806Z</time></trkpt><trkpt lat="44.5490115" lon="10.4965488"><ele>583.0</ele><time>2026-04-19T14:56:38.809Z</time></trkpt><trkpt lat="44.548967" lon="10.4968292"><ele>581.3333333333334</ele><time>2026-04-19T14:56:39.806Z</time></trkpt><trkpt lat="44.5489238" lon="10.4971135"><ele>579.6666666666666</ele><time>2026-04-19T14:56:40.81Z</time></trkpt><trkpt lat="44.5488777" lon="10.4973955"><ele>578.0</ele><time>2026-04-19T14:56:41.807Z</time></trkpt><trkpt lat="44.548829" lon="10.497672"><ele>575.3333333333333</ele><time>2026-04-19T14:56:42.807Z</time></trkpt><trkpt lat="44.5487813" lon="10.4979405"><ele>572.6666666666666</ele><time>2026-04-19T14:56:43.807Z</time></trkpt><trkpt lat="44.5487327" lon="10.498195"><ele>570.0</ele><time>2026-04-19T14:56:44.806Z</time></trkpt><trkpt lat="44.5486837" lon="10.4984338"><ele>574.0</ele><time>2026-04-19T14:56:45.806Z</time></trkpt><trkpt lat="44.548634" lon="10.498653"><ele>578.0</ele><time>2026-04-19T14:56:46.806Z</time></trkpt><trkpt lat="44.5485813" lon="10.498854"><ele>582.0</ele><time>2026-04-19T14:56:47.806Z</time></trkpt><trkpt lat="44.5485272" lon="10.4990382"><ele>582.0</ele><time>2026-04-19T14:56:48.804Z</time></trkpt><trkpt lat="44.5484723" lon="10.499213"><ele>582.0</ele><time>2026-04-19T14:56:49.806Z</time></trkpt><trkpt lat="44.5484357" lon="10.4993903"><ele>582.0</ele><time>2026-04-19T14:56:50.804Z</time></trkpt><trkpt lat="44.5484467" lon="10.4995797"><ele>582.0</ele><time>2026-04-19T14:56:51.804Z</time></trkpt><trkpt lat="44.5485027" lon="10.4997887"><ele>577.3333333333334</ele><time>2026-04-19T14:56:52.807Z</time></trkpt><trkpt lat="44.5485815" lon="10.5000073"><ele>572.6666666666667</ele><time>2026-04-19T14:56:53.806Z</time></trkpt><trkpt lat="44.5486722" lon="10.5002303"><ele>568.0</ele><time>2026-04-19T14:56:54.808Z</time></trkpt><trkpt lat="44.5487648" lon="10.5004513"><ele>567.0</ele><time>2026-04-19T14:56:55.81Z</time></trkpt><trkpt lat="44.5488518" lon="10.5006562"><ele>566.0</ele><time>2026-04-19T14:56:56.807Z</time></trkpt><trkpt lat="44.548933" lon="10.5008423"><ele>565.0</ele><time>2026-04-19T14:56:57.806Z</time></trkpt><trkpt lat="44.5490032" lon="10.5010128"><ele>565.0</ele><time>2026-04-19T14:56:58.805Z</time></trkpt><trkpt lat="44.5490523" lon="10.5011782"><ele>565.0</ele><time>2026-04-19T14:56:59.804Z</time></trkpt><trkpt lat="44.5490715" lon="10.501357"><ele>565.0</ele><time>2026-04-19T14:57:00.804Z</time></trkpt><trkpt lat="44.5490637" lon="10.5015607"><ele>565.0</ele><time>2026-04-19T14:57:01.804Z</time></trkpt><trkpt lat="44.5490362" lon="10.5017833"><ele>567.0</ele><time>2026-04-19T14:57:02.808Z</time></trkpt><trkpt lat="44.5489995" lon="10.5020165"><ele>569.0</ele><time>2026-04-19T14:57:03.807Z</time></trkpt><trkpt lat="44.5489608" lon="10.50225"><ele>571.0</ele><time>2026-04-19T14:57:04.807Z</time></trkpt><trkpt lat="44.5489225" lon="10.5024817"><ele>573.3333333333334</ele><time>2026-04-19T14:57:05.807Z</time></trkpt><trkpt lat="44.5488867" lon="10.5027033"><ele>575.6666666666666</ele><time>2026-04-19T14:57:06.808Z</time></trkpt><trkpt lat="44.5488493" lon="10.5029025"><ele>578.0</ele><time>2026-04-19T14:57:07.806Z</time></trkpt><trkpt lat="44.548797" lon="10.5030892"><ele>577.6666666666666</ele><time>2026-04-19T14:57:08.81Z</time></trkpt><trkpt lat="44.5487183" lon="10.5032805"><ele>577.3333333333334</ele><time>2026-04-19T14:57:09.809Z</time></trkpt><trkpt lat="44.5486282" lon="10.503472"><ele>577.0</ele><time>2026-04-19T14:57:10.809Z</time></trkpt><trkpt lat="44.5485375" lon="10.5036507"><ele>578.3333333333334</ele><time>2026-04-19T14:57:11.809Z</time></trkpt><trkpt lat="44.548447" lon="10.5038238"><ele>579.6666666666666</ele><time>2026-04-19T14:57:12.809Z</time></trkpt><trkpt lat="44.5483612" lon="10.5040015"><ele>581.0</ele><time>2026-04-19T14:57:13.809Z</time></trkpt><trkpt lat="44.548287" lon="10.5041795"><ele>581.0</ele><time>2026-04-19T14:57:14.81Z</time></trkpt><trkpt lat="44.54823" lon="10.5043615"><ele>581.0</ele><time>2026-04-19T14:57:15.812Z</time></trkpt><trkpt lat="44.5481875" lon="10.5045595"><ele>581.0</ele><time>2026-04-19T14:57:16.81Z</time></trkpt><trkpt lat="44.5481593" lon="10.504774"><ele>581.0</ele><time>2026-04-19T14:57:17.811Z</time></trkpt><trkpt lat="44.5481433" lon="10.5049975"><ele>581.3333333333333</ele><time>2026-04-19T14:57:18.811Z</time></trkpt><trkpt lat="44.5481473" lon="10.5052278"><ele>581.6666666666666</ele><time>2026-04-19T14:57:19.811Z</time></trkpt><trkpt lat="44.54817" lon="10.5054548"><ele>582.0</ele><time>2026-04-19T14:57:20.809Z</time></trkpt><trkpt lat="44.548199" lon="10.5056767"><ele>579.6666666666666</ele><time>2026-04-19T14:57:21.809Z</time></trkpt><trkpt lat="44.548229" lon="10.5058938"><ele>577.3333333333333</ele><time>2026-04-19T14:57:22.806Z</time></trkpt><trkpt lat="44.54827" lon="10.5061003"><ele>575.0</ele><time>2026-04-19T14:57:23.808Z</time></trkpt><trkpt lat="44.5483358" lon="10.5062848"><ele>571.25</ele><time>2026-04-19T14:57:24.805Z</time></trkpt><trkpt lat="44.5484093" lon="10.5064562"><ele>567.5</ele><time>2026-04-19T14:57:25.805Z</time></trkpt><trkpt lat="44.548472" lon="10.506634"><ele>563.75</ele><time>2026-04-19T14:57:26.808Z</time></trkpt><trkpt lat="44.5485395" lon="10.5068115"><ele>560.0</ele><time>2026-04-19T14:57:27.806Z</time></trkpt><trkpt lat="44.5486228" lon="10.5069788"><ele>562.5</ele><time>2026-04-19T14:57:28.808Z</time></trkpt><trkpt lat="44.5486917" lon="10.5071552"><ele>565.0</ele><time>2026-04-19T14:57:29.806Z</time></trkpt><trkpt lat="44.5487302" lon="10.5073487"><ele>567.5</ele><time>2026-04-19T14:57:30.807Z</time></trkpt><trkpt lat="44.5487497" lon="10.507558"><ele>570.0</ele><time>2026-04-19T14:57:31.806Z</time></trkpt><trkpt lat="44.5487522" lon="10.5077645"><ele>567.5</ele><time>2026-04-19T14:57:32.805Z</time></trkpt><trkpt lat="44.5487323" lon="10.5079515"><ele>565.0</ele><time>2026-04-19T14:57:33.805Z</time></trkpt><trkpt lat="44.5487137" lon="10.5081203"><ele>562.5</ele><time>2026-04-19T14:57:34.805Z</time></trkpt><trkpt lat="44.5487298" lon="10.5082903"><ele>560.0</ele><time>2026-04-19T14:57:35.808Z</time></trkpt><trkpt lat="44.5487812" lon="10.5084667"><ele>560.0</ele><time>2026-04-19T14:57:36.807Z</time></trkpt><trkpt lat="44.5488515" lon="10.5086367"><ele>560.0</ele><time>2026-04-19T14:57:37.807Z</time></trkpt><trkpt lat="44.5489323" lon="10.5087983"><ele>560.0</ele><time>2026-04-19T14:57:38.807Z</time></trkpt><trkpt lat="44.5490118" lon="10.5089627"><ele>560.0</ele><time>2026-04-19T14:57:39.807Z</time></trkpt><trkpt lat="44.5490835" lon="10.5091332"><ele>555.0</ele><time>2026-04-19T14:57:40.808Z</time></trkpt><trkpt lat="44.5491405" lon="10.5093138"><ele>550.0</ele><time>2026-04-19T14:57:41.809Z</time></trkpt><trkpt lat="44.5491727" lon="10.5095075"><ele>545.0</ele><time>2026-04-19T14:57:42.811Z</time></trkpt><trkpt lat="44.549172" lon="10.5097098"><ele>540.0</ele><time>2026-04-19T14:57:43.809Z</time></trkpt><trkpt lat="44.5491458" lon="10.5099127"><ele>536.5</ele><time>2026-04-19T14:57:44.809Z</time></trkpt><trkpt lat="44.5491132" lon="10.5101125"><ele>533.0</ele><time>2026-04-19T14:57:45.809Z</time></trkpt><trkpt lat="44.549081" lon="10.5103088"><ele>529.5</ele><time>2026-04-19T14:57:46.808Z</time></trkpt><trkpt lat="44.5490465" lon="10.5104985"><ele>526.0</ele><time>2026-04-19T14:57:47.808Z</time></trkpt><trkpt lat="44.549005" lon="10.5106792"><ele>524.25</ele><time>2026-04-19T14:57:48.809Z</time></trkpt><trkpt lat="44.5489375" lon="10.5108393"><ele>522.5</ele><time>2026-04-19T14:57:49.807Z</time></trkpt><trkpt lat="44.5488397" lon="10.5109765"><ele>520.75</ele><time>2026-04-19T14:57:50.809Z</time></trkpt><trkpt lat="44.5487278" lon="10.5111015"><ele>519.0</ele><time>2026-04-19T14:57:51.811Z</time></trkpt><trkpt lat="44.5486195" lon="10.5112512"><ele>516.6666666666666</ele><time>2026-04-19T14:57:52.809Z</time></trkpt><trkpt lat="44.548532" lon="10.5114442"><ele>514.3333333333333</ele><time>2026-04-19T14:57:53.809Z</time></trkpt><trkpt lat="44.5484572" lon="10.5116523"><ele>512.0</ele><time>2026-04-19T14:57:54.806Z</time></trkpt><trkpt lat="44.5483782" lon="10.5118463"><ele>512.0</ele><time>2026-04-19T14:57:55.809Z</time></trkpt><trkpt lat="44.5482817" lon="10.5120083"><ele>512.0</ele><time>2026-04-19T14:57:56.809Z</time></trkpt><trkpt lat="44.5481672" lon="10.5121333"><ele>512.0</ele><time>2026-04-19T14:57:57.808Z</time></trkpt><trkpt lat="44.5480515" lon="10.5122163"><ele>512.0</ele><time>2026-04-19T14:57:58.809Z</time></trkpt><trkpt lat="44.5479487" lon="10.512289"><ele>509.5</ele><time>2026-04-19T14:57:59.807Z</time></trkpt><trkpt lat="44.5478618" lon="10.5123873"><ele>507.0</ele><time>2026-04-19T14:58:00.808Z</time></trkpt><trkpt lat="44.5477897" lon="10.5125355"><ele>504.5</ele><time>2026-04-19T14:58:01.807Z</time></trkpt><trkpt lat="44.5477195" lon="10.5127155"><ele>502.0</ele><time>2026-04-19T14:58:02.808Z</time></trkpt><trkpt lat="44.5476337" lon="10.5128877"><ele>502.25</ele><time>2026-04-19T14:58:03.806Z</time></trkpt><trkpt lat="44.5475318" lon="10.5130392"><ele>502.5</ele><time>2026-04-19T14:58:04.805Z</time></trkpt><trkpt lat="44.5474253" lon="10.513174"><ele>502.75</ele><time>2026-04-19T14:58:05.807Z</time></trkpt><trkpt lat="44.547329" lon="10.5132842"><ele>503.0</ele><time>2026-04-19T14:58:06.806Z</time></trkpt><trkpt lat="44.5472503" lon="10.5133785"><ele>503.0</ele><time>2026-04-19T14:58:07.807Z</time></trkpt><trkpt lat="44.5471962" lon="10.513482"><ele>502.99999999999994</ele><time>2026-04-19T14:58:08.808Z</time></trkpt><trkpt lat="44.5471827" lon="10.5136"><ele>502.99999999999994</ele><time>2026-04-19T14:58:09.807Z</time></trkpt><trkpt lat="44.5472022" lon="10.5137305"><ele>503.0</ele><time>2026-04-19T14:58:10.809Z</time></trkpt><trkpt lat="44.5472393" lon="10.5138875"><ele>503.0</ele><time>2026-04-19T14:58:11.806Z</time></trkpt><trkpt lat="44.5472808" lon="10.5140543"><ele>501.0</ele><time>2026-04-19T14:58:12.808Z</time></trkpt><trkpt lat="44.5473227" lon="10.514226"><ele>499.0</ele><time>2026-04-19T14:58:13.803Z</time></trkpt><trkpt lat="44.5473478" lon="10.5144028"><ele>497.0</ele><time>2026-04-19T14:58:14.804Z</time></trkpt><trkpt lat="44.5473303" lon="10.5145903"><ele>495.0</ele><time>2026-04-19T14:58:15.806Z</time></trkpt><trkpt lat="44.5472688" lon="10.514778"><ele>495.0</ele><time>2026-04-19T14:58:16.806Z</time></trkpt><trkpt lat="44.5471948" lon="10.514952"><ele>495.0</ele><time>2026-04-19T14:58:17.807Z</time></trkpt><trkpt lat="44.5471293" lon="10.5151145"><ele>495.0</ele><time>2026-04-19T14:58:18.804Z</time></trkpt><trkpt lat="44.5470742" lon="10.5152648"><ele>495.0</ele><time>2026-04-19T14:58:19.805Z</time></trkpt><trkpt lat="44.5470297" lon="10.5154058"><ele>494.0</ele><time>2026-04-19T14:58:20.805Z</time></trkpt><trkpt lat="44.5469992" lon="10.515534"><ele>493.0</ele><time>2026-04-19T14:58:21.805Z</time></trkpt><trkpt lat="44.5469937" lon="10.5156487"><ele>492.0</ele><time>2026-04-19T14:58:22.805Z</time></trkpt><trkpt lat="44.5470325" lon="10.5157495"><ele>491.0</ele><time>2026-04-19T14:58:23.806Z</time></trkpt><trkpt lat="44.5471143" lon="10.515858"><ele>490.0</ele><time>2026-04-19T14:58:24.805Z</time></trkpt><trkpt lat="44.547211" lon="10.5159888"><ele>490.0</ele><time>2026-04-19T14:58:25.805Z</time></trkpt><trkpt lat="44.5473018" lon="10.516147"><ele>490.0</ele><time>2026-04-19T14:58:26.805Z</time></trkpt><trkpt lat="44.5473893" lon="10.5163293"><ele>490.0</ele><time>2026-04-19T14:58:27.805Z</time></trkpt><trkpt lat="44.547473" lon="10.516513"><ele>486.25</ele><time>2026-04-19T14:58:28.807Z</time></trkpt><trkpt lat="44.5475642" lon="10.516682"><ele>482.5</ele><time>2026-04-19T14:58:29.805Z</time></trkpt><trkpt lat="44.5476665" lon="10.516825"><ele>478.75</ele><time>2026-04-19T14:58:30.804Z</time></trkpt><trkpt lat="44.547777" lon="10.51695"><ele>475.0</ele><time>2026-04-19T14:58:31.806Z</time></trkpt><trkpt lat="44.54789" lon="10.5170712"><ele>471.25</ele><time>2026-04-19T14:58:32.809Z</time></trkpt><trkpt lat="44.547997" lon="10.517184"><ele>467.5</ele><time>2026-04-19T14:58:33.804Z</time></trkpt><trkpt lat="44.5480993" lon="10.5172738"><ele>463.75</ele><time>2026-04-19T14:58:34.806Z</time></trkpt><trkpt lat="44.5482128" lon="10.5173303"><ele>460.0</ele><time>2026-04-19T14:58:35.804Z</time></trkpt><trkpt lat="44.5483325" lon="10.5173532"><ele>460.0</ele><time>2026-04-19T14:58:36.804Z</time></trkpt><trkpt lat="44.5484515" lon="10.517352"><ele>460.0</ele><time>2026-04-19T14:58:37.804Z</time></trkpt><trkpt lat="44.5485633" lon="10.5173378"><ele>460.0</ele><time>2026-04-19T14:58:38.804Z</time></trkpt><trkpt lat="44.5486648" lon="10.5173193"><ele>460.0</ele><time>2026-04-19T14:58:39.805Z</time></trkpt><trkpt lat="44.5487578" lon="10.5172975"><ele>460.0</ele><time>2026-04-19T14:58:40.807Z</time></trkpt><trkpt lat="44.548838" lon="10.5172763"><ele>460.0</ele><time>2026-04-19T14:58:41.809Z</time></trkpt><trkpt lat="44.5489058" lon="10.5172793"><ele>460.0</ele><time>2026-04-19T14:58:42.808Z</time></trkpt><trkpt lat="44.5489458" lon="10.5173933"><ele>460.0</ele><time>2026-04-19T14:58:44.808Z</time></trkpt><trkpt lat="44.5488985" lon="10.5174615"><ele>460.0</ele><time>2026-04-19T14:58:45.809Z</time></trkpt><trkpt lat="44.5488083" lon="10.5175145"><ele>460.0</ele><time>2026-04-19T14:58:46.807Z</time></trkpt><trkpt lat="44.548687" lon="10.5175698"><ele>460.0</ele><time>2026-04-19T14:58:47.808Z</time></trkpt><trkpt lat="44.548561" lon="10.5176312"><ele>460.0</ele><time>2026-04-19T14:58:48.808Z</time></trkpt><trkpt lat="44.5484403" lon="10.517693"><ele>460.0</ele><time>2026-04-19T14:58:49.807Z</time></trkpt><trkpt lat="44.5483217" lon="10.5177493"><ele>460.0</ele><time>2026-04-19T14:58:50.808Z</time></trkpt><trkpt lat="44.5482062" lon="10.5177988"><ele>460.0</ele><time>2026-04-19T14:58:51.808Z</time></trkpt><trkpt lat="44.5480967" lon="10.5178617"><ele>460.0</ele><time>2026-04-19T14:58:52.807Z</time></trkpt><trkpt lat="44.5479943" lon="10.517952"><ele>460.0</ele><time>2026-04-19T14:58:53.807Z</time></trkpt><trkpt lat="44.547898" lon="10.5180853"><ele>460.0</ele><time>2026-04-19T14:58:54.806Z</time></trkpt><trkpt lat="44.5478028" lon="10.5182448"><ele>456.25</ele><time>2026-04-19T14:58:55.806Z</time></trkpt><trkpt lat="44.5477053" lon="10.5184002"><ele>452.5</ele><time>2026-04-19T14:58:56.807Z</time></trkpt><trkpt lat="44.5476098" lon="10.5185515"><ele>448.75</ele><time>2026-04-19T14:58:57.807Z</time></trkpt><trkpt lat="44.5475188" lon="10.5187202"><ele>445.0</ele><time>2026-04-19T14:58:58.806Z</time></trkpt><trkpt lat="44.5474353" lon="10.5189055"><ele>442.0</ele><time>2026-04-19T14:58:59.805Z</time></trkpt><trkpt lat="44.5473525" lon="10.5191057"><ele>439.0</ele><time>2026-04-19T14:59:00.803Z</time></trkpt><trkpt lat="44.5472748" lon="10.5193033"><ele>436.0</ele><time>2026-04-19T14:59:01.803Z</time></trkpt><trkpt lat="44.5472067" lon="10.5194928"><ele>434.0</ele><time>2026-04-19T14:59:02.807Z</time></trkpt><trkpt lat="44.5471552" lon="10.5196637"><ele>432.0</ele><time>2026-04-19T14:59:03.805Z</time></trkpt><trkpt lat="44.547132" lon="10.5198188"><ele>430.0</ele><time>2026-04-19T14:59:04.808Z</time></trkpt><trkpt lat="44.5471427" lon="10.5199488"><ele>428.0</ele><time>2026-04-19T14:59:05.807Z</time></trkpt><trkpt lat="44.5471977" lon="10.5200527"><ele>426.0</ele><time>2026-04-19T14:59:06.807Z</time></trkpt><trkpt lat="44.5472957" lon="10.5201265"><ele>426.0</ele><time>2026-04-19T14:59:07.805Z</time></trkpt><trkpt lat="44.5474108" lon="10.5201688"><ele>426.0</ele><time>2026-04-19T14:59:08.807Z</time></trkpt><trkpt lat="44.5475168" lon="10.5202143"><ele>426.0</ele><time>2026-04-19T14:59:09.807Z</time></trkpt><trkpt lat="44.5476018" lon="10.5202877"><ele>426.0</ele><time>2026-04-19T14:59:10.806Z</time></trkpt><trkpt lat="44.5476542" lon="10.5203977"><ele>426.0</ele><time>2026-04-19T14:59:11.808Z</time></trkpt><trkpt lat="44.54766" lon="10.5205287"><ele>424.20000000000005</ele><time>2026-04-19T14:59:12.808Z</time></trkpt><trkpt lat="44.547631" lon="10.5206578"><ele>422.40000000000003</ele><time>2026-04-19T14:59:13.806Z</time></trkpt><trkpt lat="44.5475733" lon="10.5207825"><ele>420.6</ele><time>2026-04-19T14:59:14.807Z</time></trkpt><trkpt lat="44.547488" lon="10.5208955"><ele>418.8</ele><time>2026-04-19T14:59:15.808Z</time></trkpt><trkpt lat="44.547387" lon="10.5209903"><ele>417.0</ele><time>2026-04-19T14:59:16.808Z</time></trkpt><trkpt lat="44.5472903" lon="10.5210825"><ele>417.0</ele><time>2026-04-19T14:59:17.809Z</time></trkpt><trkpt lat="44.5472205" lon="10.5212057"><ele>417.0</ele><time>2026-04-19T14:59:18.807Z</time></trkpt><trkpt lat="44.5471978" lon="10.5213718"><ele>417.0</ele><time>2026-04-19T14:59:19.809Z</time></trkpt><trkpt lat="44.5472085" lon="10.5215708"><ele>417.0</ele><time>2026-04-19T14:59:20.81Z</time></trkpt><trkpt lat="44.5472237" lon="10.5217767"><ele>414.75</ele><time>2026-04-19T14:59:21.809Z</time></trkpt><trkpt lat="44.5472327" lon="10.5219822"><ele>412.5</ele><time>2026-04-19T14:59:22.806Z</time></trkpt><trkpt lat="44.5472347" lon="10.5221903"><ele>410.25</ele><time>2026-04-19T14:59:23.807Z</time></trkpt><trkpt lat="44.5472348" lon="10.5223993"><ele>408.0</ele><time>2026-04-19T14:59:24.805Z</time></trkpt><trkpt lat="44.5472337" lon="10.5226023"><ele>405.5</ele><time>2026-04-19T14:59:25.804Z</time></trkpt><trkpt lat="44.5472325" lon="10.522793"><ele>403.0</ele><time>2026-04-19T14:59:26.807Z</time></trkpt><trkpt lat="44.5472338" lon="10.5229697"><ele>400.5</ele><time>2026-04-19T14:59:27.806Z</time></trkpt><trkpt lat="44.5472405" lon="10.523142"><ele>398.0</ele><time>2026-04-19T14:59:28.807Z</time></trkpt><trkpt lat="44.5472527" lon="10.5233112"><ele>396.25</ele><time>2026-04-19T14:59:29.809Z</time></trkpt><trkpt lat="44.547265" lon="10.5234732"><ele>394.5</ele><time>2026-04-19T14:59:30.807Z</time></trkpt><trkpt lat="44.5472783" lon="10.5236325"><ele>392.75</ele><time>2026-04-19T14:59:31.806Z</time></trkpt><trkpt lat="44.5472907" lon="10.5237908"><ele>391.0</ele><time>2026-04-19T14:59:32.807Z</time></trkpt><trkpt lat="44.547304" lon="10.5239488"><ele>389.6</ele><time>2026-04-19T14:59:33.807Z</time></trkpt><trkpt lat="44.5473148" lon="10.5241057"><ele>388.20000000000005</ele><time>2026-04-19T14:59:34.807Z</time></trkpt><trkpt lat="44.5473242" lon="10.5242607"><ele>386.79999999999995</ele><time>2026-04-19T14:59:35.806Z</time></trkpt><trkpt lat="44.5473292" lon="10.524406"><ele>385.4</ele><time>2026-04-19T14:59:36.807Z</time></trkpt><trkpt lat="44.5473212" lon="10.5245307"><ele>384.0</ele><time>2026-04-19T14:59:37.806Z</time></trkpt><trkpt lat="44.5472867" lon="10.5246227"><ele>381.2</ele><time>2026-04-19T14:59:38.808Z</time></trkpt><trkpt lat="44.5472227" lon="10.5246715"><ele>378.4</ele><time>2026-04-19T14:59:39.807Z</time></trkpt><trkpt lat="44.5471293" lon="10.5246807"><ele>375.6</ele><time>2026-04-19T14:59:40.807Z</time></trkpt><trkpt lat="44.5470242" lon="10.5246948"><ele>372.8</ele><time>2026-04-19T14:59:41.807Z</time></trkpt><trkpt lat="44.5469193" lon="10.5247338"><ele>370.0</ele><time>2026-04-19T14:59:42.805Z</time></trkpt><trkpt lat="44.5468045" lon="10.5247847"><ele>370.0</ele><time>2026-04-19T14:59:43.803Z</time></trkpt><trkpt lat="44.5466827" lon="10.524825"><ele>370.0</ele><time>2026-04-19T14:59:44.805Z</time></trkpt><trkpt lat="44.5465597" lon="10.5248602"><ele>370.0</ele><time>2026-04-19T14:59:45.803Z</time></trkpt><trkpt lat="44.5464332" lon="10.524891"><ele>370.0</ele><time>2026-04-19T14:59:46.804Z</time></trkpt><trkpt lat="44.5463095" lon="10.5248997"><ele>366.5</ele><time>2026-04-19T14:59:47.803Z</time></trkpt><trkpt lat="44.546188" lon="10.5248645"><ele>363.0</ele><time>2026-04-19T14:59:48.802Z</time></trkpt><trkpt lat="44.5460615" lon="10.5248042"><ele>359.5</ele><time>2026-04-19T14:59:49.802Z</time></trkpt><trkpt lat="44.5459308" lon="10.5247317"><ele>356.0</ele><time>2026-04-19T14:59:50.8Z</time></trkpt><trkpt lat="44.5458012" lon="10.5246562"><ele>356.0</ele><time>2026-04-19T14:59:51.801Z</time></trkpt><trkpt lat="44.5456665" lon="10.524593"><ele>356.0</ele><time>2026-04-19T14:59:52.801Z</time></trkpt><trkpt lat="44.545527" lon="10.5245697"><ele>356.0</ele><time>2026-04-19T14:59:53.802Z</time></trkpt><trkpt lat="44.5453823" lon="10.5245745"><ele>356.0</ele><time>2026-04-19T14:59:54.803Z</time></trkpt><trkpt lat="44.5452402" lon="10.524559"><ele>358.75</ele><time>2026-04-19T14:59:55.803Z</time></trkpt><trkpt lat="44.5451003" lon="10.5245065"><ele>361.5</ele><time>2026-04-19T14:59:56.803Z</time></trkpt><trkpt lat="44.5449628" lon="10.5244347"><ele>364.25</ele><time>2026-04-19T14:59:57.803Z</time></trkpt><trkpt lat="44.5448245" lon="10.52437"><ele>367.0</ele><time>2026-04-19T14:59:58.804Z</time></trkpt><trkpt lat="44.5446838" lon="10.5243082"><ele>367.0</ele><time>2026-04-19T14:59:59.804Z</time></trkpt><trkpt lat="44.5445483" lon="10.52423"><ele>367.0</ele><time>2026-04-19T15:00:00.803Z</time></trkpt><trkpt lat="44.5444207" lon="10.5241402"><ele>367.0</ele><time>2026-04-19T15:00:01.802Z</time></trkpt><trkpt lat="44.544296" lon="10.5240523"><ele>367.0</ele><time>2026-04-19T15:00:02.802Z</time></trkpt><trkpt lat="44.5441692" lon="10.5239748"><ele>359.75</ele><time>2026-04-19T15:00:03.803Z</time></trkpt><trkpt lat="44.5440403" lon="10.5239157"><ele>352.5</ele><time>2026-04-19T15:00:04.803Z</time></trkpt><trkpt lat="44.5439162" lon="10.5238713"><ele>345.25</ele><time>2026-04-19T15:00:05.804Z</time></trkpt><trkpt lat="44.543805" lon="10.5238157"><ele>338.0</ele><time>2026-04-19T15:00:06.802Z</time></trkpt><trkpt lat="44.5437157" lon="10.5237352"><ele>336.83333333333337</ele><time>2026-04-19T15:00:07.805Z</time></trkpt><trkpt lat="44.5436562" lon="10.523645"><ele>335.6666666666667</ele><time>2026-04-19T15:00:08.802Z</time></trkpt><trkpt lat="44.5436098" lon="10.5235505"><ele>334.5</ele><time>2026-04-19T15:00:09.803Z</time></trkpt><trkpt lat="44.5435715" lon="10.523474"><ele>333.3333333333333</ele><time>2026-04-19T15:00:10.804Z</time></trkpt><trkpt lat="44.5434943" lon="10.523399"><ele>332.16666666666663</ele><time>2026-04-19T15:00:12.803Z</time></trkpt><trkpt lat="44.54343" lon="10.5234183"><ele>331.0</ele><time>2026-04-19T15:00:15.801Z</time></trkpt><trkpt lat="44.5434437" lon="10.5235723"><ele>331.0</ele><time>2026-04-19T15:00:18.804Z</time></trkpt><trkpt lat="44.543504" lon="10.5236747"><ele>331.0</ele><time>2026-04-19T15:00:19.805Z</time></trkpt><trkpt lat="44.5435742" lon="10.5237972"><ele>331.0</ele><time>2026-04-19T15:00:20.805Z</time></trkpt><trkpt lat="44.5436535" lon="10.5239378"><ele>331.0</ele><time>2026-04-19T15:00:21.803Z</time></trkpt><trkpt lat="44.5437407" lon="10.52409"><ele>332.75</ele><time>2026-04-19T15:00:22.804Z</time></trkpt><trkpt lat="44.5438332" lon="10.5242462"><ele>334.5</ele><time>2026-04-19T15:00:23.804Z</time></trkpt><trkpt lat="44.5439303" lon="10.5243962"><ele>336.25</ele><time>2026-04-19T15:00:24.802Z</time></trkpt><trkpt lat="44.5440373" lon="10.5245238"><ele>338.0</ele><time>2026-04-19T15:00:25.802Z</time></trkpt><trkpt lat="44.5441508" lon="10.5246282"><ele>334.0</ele><time>2026-04-19T15:00:26.801Z</time></trkpt><trkpt lat="44.5442607" lon="10.5247357"><ele>330.0</ele><time>2026-04-19T15:00:27.802Z</time></trkpt><trkpt lat="44.544347" lon="10.524869"><ele>326.0</ele><time>2026-04-19T15:00:28.802Z</time></trkpt><trkpt lat="44.5443965" lon="10.5250297"><ele>322.0</ele><time>2026-04-19T15:00:29.802Z</time></trkpt><trkpt lat="44.5444483" lon="10.5251965"><ele>322.0</ele><time>2026-04-19T15:00:30.802Z</time></trkpt><trkpt lat="44.5445287" lon="10.5253437"><ele>322.0</ele><time>2026-04-19T15:00:31.801Z</time></trkpt><trkpt lat="44.5446373" lon="10.5254605"><ele>322.0</ele><time>2026-04-19T15:00:32.802Z</time></trkpt><trkpt lat="44.5447712" lon="10.5255203"><ele>322.0</ele><time>2026-04-19T15:00:33.8Z</time></trkpt><trkpt lat="44.5449237" lon="10.5255325"><ele>321.0</ele><time>2026-04-19T15:00:34.802Z</time></trkpt><trkpt lat="44.5450883" lon="10.5255178"><ele>320.0</ele><time>2026-04-19T15:00:35.803Z</time></trkpt><trkpt lat="44.5452492" lon="10.5255085"><ele>319.0</ele><time>2026-04-19T15:00:36.802Z</time></trkpt><trkpt lat="44.5454092" lon="10.5255187"><ele>319.0</ele><time>2026-04-19T15:00:37.805Z</time></trkpt><trkpt lat="44.5455703" lon="10.5255603"><ele>319.0</ele><time>2026-04-19T15:00:38.8Z</time></trkpt><trkpt lat="44.5457218" lon="10.5256338"><ele>319.0</ele><time>2026-04-19T15:00:39.801Z</time></trkpt><trkpt lat="44.545852" lon="10.5257328"><ele>319.0</ele><time>2026-04-19T15:00:40.799Z</time></trkpt><trkpt lat="44.5459547" lon="10.5258618"><ele>319.0</ele><time>2026-04-19T15:00:41.799Z</time></trkpt><trkpt lat="44.546027" lon="10.5260185"><ele>319.0</ele><time>2026-04-19T15:00:42.801Z</time></trkpt><trkpt lat="44.5460975" lon="10.5261667"><ele>319.0</ele><time>2026-04-19T15:00:43.801Z</time></trkpt><trkpt lat="44.5461945" lon="10.5262885"><ele>316.25</ele><time>2026-04-19T15:00:44.802Z</time></trkpt><trkpt lat="44.5463188" lon="10.5263772"><ele>313.5</ele><time>2026-04-19T15:00:45.8Z</time></trkpt><trkpt lat="44.5464428" lon="10.5264597"><ele>310.75</ele><time>2026-04-19T15:00:46.801Z</time></trkpt><trkpt lat="44.5465527" lon="10.5265637"><ele>308.0</ele><time>2026-04-19T15:00:47.803Z</time></trkpt><trkpt lat="44.5466415" lon="10.5267017"><ele>308.0</ele><time>2026-04-19T15:00:48.801Z</time></trkpt><trkpt lat="44.5467098" lon="10.5268787"><ele>308.0</ele><time>2026-04-19T15:00:49.803Z</time></trkpt><trkpt lat="44.5467638" lon="10.5270627"><ele>308.0</ele><time>2026-04-19T15:00:50.803Z</time></trkpt><trkpt lat="44.5468067" lon="10.527247"><ele>308.0</ele><time>2026-04-19T15:00:51.802Z</time></trkpt><trkpt lat="44.5468278" lon="10.5274397"><ele>308.0</ele><time>2026-04-19T15:00:52.803Z</time></trkpt><trkpt lat="44.5468195" lon="10.5276303"><ele>308.0</ele><time>2026-04-19T15:00:53.803Z</time></trkpt><trkpt lat="44.546802" lon="10.5278125"><ele>308.0</ele><time>2026-04-19T15:00:54.801Z</time></trkpt><trkpt lat="44.5467898" lon="10.527971"><ele>308.0</ele><time>2026-04-19T15:00:55.804Z</time></trkpt><trkpt lat="44.5468" lon="10.5281092"><ele>308.0</ele><time>2026-04-19T15:00:56.803Z</time></trkpt><trkpt lat="44.5468468" lon="10.5282247"><ele>308.0</ele><time>2026-04-19T15:00:57.803Z</time></trkpt><trkpt lat="44.5469327" lon="10.5282968"><ele>308.0</ele><time>2026-04-19T15:00:58.803Z</time></trkpt><trkpt lat="44.5470408" lon="10.5283122"><ele>308.0</ele><time>2026-04-19T15:00:59.804Z</time></trkpt><trkpt lat="44.5471588" lon="10.5283135"><ele>308.0</ele><time>2026-04-19T15:01:00.804Z</time></trkpt><trkpt lat="44.5472738" lon="10.5283475"><ele>306.0</ele><time>2026-04-19T15:01:01.804Z</time></trkpt><trkpt lat="44.5473842" lon="10.5284308"><ele>304.0</ele><time>2026-04-19T15:01:02.802Z</time></trkpt><trkpt lat="44.5474822" lon="10.5285638"><ele>302.0</ele><time>2026-04-19T15:01:03.802Z</time></trkpt><trkpt lat="44.5475745" lon="10.5287325"><ele>300.0</ele><time>2026-04-19T15:01:04.802Z</time></trkpt><trkpt lat="44.547661" lon="10.5288978"><ele>299.75</ele><time>2026-04-19T15:01:05.802Z</time></trkpt><trkpt lat="44.5477437" lon="10.5290422"><ele>299.5</ele><time>2026-04-19T15:01:06.807Z</time></trkpt><trkpt lat="44.5478323" lon="10.5291435"><ele>299.25</ele><time>2026-04-19T15:01:07.803Z</time></trkpt><trkpt lat="44.5479362" lon="10.529176"><ele>299.0</ele><time>2026-04-19T15:01:08.806Z</time></trkpt><trkpt lat="44.5480473" lon="10.5291312"><ele>298.25</ele><time>2026-04-19T15:01:09.805Z</time></trkpt><trkpt lat="44.5481663" lon="10.5290343"><ele>297.5</ele><time>2026-04-19T15:01:10.805Z</time></trkpt><trkpt lat="44.548286" lon="10.5289235"><ele>296.75</ele><time>2026-04-19T15:01:11.807Z</time></trkpt><trkpt lat="44.548401" lon="10.5288215"><ele>296.0</ele><time>2026-04-19T15:01:12.808Z</time></trkpt><trkpt lat="44.5485172" lon="10.5287535"><ele>296.0</ele><time>2026-04-19T15:01:13.805Z</time></trkpt><trkpt lat="44.5486363" lon="10.5287453"><ele>296.0</ele><time>2026-04-19T15:01:14.805Z</time></trkpt><trkpt lat="44.5487505" lon="10.5287998"><ele>296.0</ele><time>2026-04-19T15:01:15.804Z</time></trkpt><trkpt lat="44.5488447" lon="10.5289245"><ele>296.0</ele><time>2026-04-19T15:01:16.805Z</time></trkpt><trkpt lat="44.548902" lon="10.529092"><ele>295.40000000000003</ele><time>2026-04-19T15:01:17.806Z</time></trkpt><trkpt lat="44.5489255" lon="10.5292657"><ele>294.8</ele><time>2026-04-19T15:01:18.803Z</time></trkpt><trkpt lat="44.548918" lon="10.529427"><ele>294.20000000000005</ele><time>2026-04-19T15:01:19.804Z</time></trkpt><trkpt lat="44.5488882" lon="10.529568"><ele>293.6</ele><time>2026-04-19T15:01:20.805Z</time></trkpt><trkpt lat="44.548879" lon="10.529697"><ele>293.0</ele><time>2026-04-19T15:01:21.803Z</time></trkpt><trkpt lat="44.5489178" lon="10.529804"><ele>293.0</ele><time>2026-04-19T15:01:22.805Z</time></trkpt><trkpt lat="44.5489928" lon="10.5298688"><ele>293.0</ele><time>2026-04-19T15:01:23.804Z</time></trkpt><trkpt lat="44.5490787" lon="10.5298932"><ele>293.0</ele><time>2026-04-19T15:01:24.804Z</time></trkpt><trkpt lat="44.5491627" lon="10.5299127"><ele>293.0</ele><time>2026-04-19T15:01:25.804Z</time></trkpt><trkpt lat="44.5492455" lon="10.5299365"><ele>293.0</ele><time>2026-04-19T15:01:26.805Z</time></trkpt><trkpt lat="44.5493318" lon="10.5299645"><ele>293.0</ele><time>2026-04-19T15:01:27.804Z</time></trkpt><trkpt lat="44.5494245" lon="10.529997"><ele>293.0</ele><time>2026-04-19T15:01:28.803Z</time></trkpt><trkpt lat="44.5495228" lon="10.5300483"><ele>293.0</ele><time>2026-04-19T15:01:29.804Z</time></trkpt><trkpt lat="44.5496173" lon="10.5301203"><ele>293.0</ele><time>2026-04-19T15:01:30.804Z</time></trkpt><trkpt lat="44.5497008" lon="10.5302098"><ele>293.0</ele><time>2026-04-19T15:01:31.806Z</time></trkpt><trkpt lat="44.54977" lon="10.5303128"><ele>293.0</ele><time>2026-04-19T15:01:32.806Z</time></trkpt><trkpt lat="44.5498318" lon="10.5304212"><ele>291.4</ele><time>2026-04-19T15:01:33.807Z</time></trkpt><trkpt lat="44.549896" lon="10.5305198"><ele>289.8</ele><time>2026-04-19T15:01:34.804Z</time></trkpt><trkpt lat="44.5499732" lon="10.5305838"><ele>288.2</ele><time>2026-04-19T15:01:35.804Z</time></trkpt><trkpt lat="44.5500577" lon="10.5305808"><ele>286.6</ele><time>2026-04-19T15:01:36.806Z</time></trkpt><trkpt lat="44.550145" lon="10.5305348"><ele>285.0</ele><time>2026-04-19T15:01:37.803Z</time></trkpt><trkpt lat="44.5502295" lon="10.5304867"><ele>285.0</ele><time>2026-04-19T15:01:38.806Z</time></trkpt><trkpt lat="44.550318" lon="10.530467"><ele>285.0</ele><time>2026-04-19T15:01:39.805Z</time></trkpt><trkpt lat="44.550413" lon="10.530494"><ele>285.0</ele><time>2026-04-19T15:01:40.805Z</time></trkpt><trkpt lat="44.550505" lon="10.5305615"><ele>285.0</ele><time>2026-04-19T15:01:41.804Z</time></trkpt><trkpt lat="44.5505997" lon="10.5306417"><ele>285.0</ele><time>2026-04-19T15:01:42.803Z</time></trkpt><trkpt lat="44.550699" lon="10.5307117"><ele>284.75</ele><time>2026-04-19T15:01:43.808Z</time></trkpt><trkpt lat="44.5508052" lon="10.5307545"><ele>284.5</ele><time>2026-04-19T15:01:44.805Z</time></trkpt><trkpt lat="44.5509215" lon="10.5307617"><ele>284.25</ele><time>2026-04-19T15:01:45.806Z</time></trkpt><trkpt lat="44.551043" lon="10.5307517"><ele>284.0</ele><time>2026-04-19T15:01:46.807Z</time></trkpt><trkpt lat="44.5511588" lon="10.530738"><ele>284.75</ele><time>2026-04-19T15:01:47.806Z</time></trkpt><trkpt lat="44.5512735" lon="10.5307243"><ele>285.5</ele><time>2026-04-19T15:01:48.806Z</time></trkpt><trkpt lat="44.5513978" lon="10.5307137"><ele>286.25</ele><time>2026-04-19T15:01:49.806Z</time></trkpt><trkpt lat="44.5515208" lon="10.5307047"><ele>287.0</ele><time>2026-04-19T15:01:50.805Z</time></trkpt><trkpt lat="44.5516375" lon="10.5306932"><ele>287.0</ele><time>2026-04-19T15:01:51.803Z</time></trkpt><trkpt lat="44.5517463" lon="10.5306648"><ele>287.0</ele><time>2026-04-19T15:01:52.804Z</time></trkpt><trkpt lat="44.5518458" lon="10.5305915"><ele>287.0</ele><time>2026-04-19T15:01:53.803Z</time></trkpt><trkpt lat="44.5519335" lon="10.530468"><ele>287.0</ele><time>2026-04-19T15:01:54.801Z</time></trkpt><trkpt lat="44.5520182" lon="10.5303222"><ele>285.25</ele><time>2026-04-19T15:01:55.806Z</time></trkpt><trkpt lat="44.5521067" lon="10.5301792"><ele>283.5</ele><time>2026-04-19T15:01:56.806Z</time></trkpt><trkpt lat="44.552202" lon="10.5300608"><ele>281.75</ele><time>2026-04-19T15:01:57.806Z</time></trkpt><trkpt lat="44.5523062" lon="10.5299802"><ele>280.0</ele><time>2026-04-19T15:01:58.806Z</time></trkpt><trkpt lat="44.5524162" lon="10.5299317"><ele>280.0</ele><time>2026-04-19T15:01:59.808Z</time></trkpt><trkpt lat="44.5525393" lon="10.5299033"><ele>280.0</ele><time>2026-04-19T15:02:00.807Z</time></trkpt><trkpt lat="44.5526715" lon="10.5298818"><ele>280.0</ele><time>2026-04-19T15:02:01.807Z</time></trkpt><trkpt lat="44.5528025" lon="10.5298583"><ele>280.0</ele><time>2026-04-19T15:02:02.806Z</time></trkpt><trkpt lat="44.5529367" lon="10.5298352"><ele>280.25</ele><time>2026-04-19T15:02:03.806Z</time></trkpt><trkpt lat="44.5530697" lon="10.5298142"><ele>280.5</ele><time>2026-04-19T15:02:04.807Z</time></trkpt><trkpt lat="44.5531967" lon="10.529795"><ele>280.75</ele><time>2026-04-19T15:02:05.808Z</time></trkpt><trkpt lat="44.5533243" lon="10.5297773"><ele>281.0</ele><time>2026-04-19T15:02:06.805Z</time></trkpt><trkpt lat="44.553454" lon="10.5297622"><ele>281.0</ele><time>2026-04-19T15:02:07.811Z</time></trkpt><trkpt lat="44.553578" lon="10.5297435"><ele>281.0</ele><time>2026-04-19T15:02:08.806Z</time></trkpt><trkpt lat="44.5536957" lon="10.5297212"><ele>281.0</ele><time>2026-04-19T15:02:09.806Z</time></trkpt><trkpt lat="44.5538147" lon="10.529705"><ele>281.0</ele><time>2026-04-19T15:02:10.807Z</time></trkpt><trkpt lat="44.553937" lon="10.5296962"><ele>281.25</ele><time>2026-04-19T15:02:11.807Z</time></trkpt><trkpt lat="44.5540672" lon="10.5296977"><ele>281.5</ele><time>2026-04-19T15:02:12.81Z</time></trkpt><trkpt lat="44.5541998" lon="10.5297123"><ele>281.75</ele><time>2026-04-19T15:02:13.807Z</time></trkpt><trkpt lat="44.5543293" lon="10.5297348"><ele>282.0</ele><time>2026-04-19T15:02:14.807Z</time></trkpt><trkpt lat="44.5544622" lon="10.5297593"><ele>282.0</ele><time>2026-04-19T15:02:15.806Z</time></trkpt><trkpt lat="44.554599" lon="10.5297833"><ele>282.0</ele><time>2026-04-19T15:02:16.803Z</time></trkpt><trkpt lat="44.5547462" lon="10.5298077"><ele>282.0</ele><time>2026-04-19T15:02:17.804Z</time></trkpt><trkpt lat="44.5548993" lon="10.5298338"><ele>282.0</ele><time>2026-04-19T15:02:18.803Z</time></trkpt><trkpt lat="44.5550573" lon="10.5298598"><ele>282.0</ele><time>2026-04-19T15:02:19.803Z</time></trkpt><trkpt lat="44.5552097" lon="10.5298848"><ele>282.0</ele><time>2026-04-19T15:02:20.805Z</time></trkpt><trkpt lat="44.5553512" lon="10.5299095"><ele>282.0</ele><time>2026-04-19T15:02:21.806Z</time></trkpt><trkpt lat="44.5554837" lon="10.529939"><ele>282.0</ele><time>2026-04-19T15:02:22.805Z</time></trkpt><trkpt lat="44.5556107" lon="10.5299783"><ele>280.5</ele><time>2026-04-19T15:02:23.806Z</time></trkpt><trkpt lat="44.5557367" lon="10.5300342"><ele>279.0</ele><time>2026-04-19T15:02:24.807Z</time></trkpt><trkpt lat="44.5558608" lon="10.5301105"><ele>277.5</ele><time>2026-04-19T15:02:25.807Z</time></trkpt><trkpt lat="44.5559827" lon="10.530198"><ele>276.0</ele><time>2026-04-19T15:02:26.809Z</time></trkpt><trkpt lat="44.5560982" lon="10.5302832"><ele>276.6666666666667</ele><time>2026-04-19T15:02:27.809Z</time></trkpt><trkpt lat="44.5562107" lon="10.5303693"><ele>277.33333333333337</ele><time>2026-04-19T15:02:28.807Z</time></trkpt><trkpt lat="44.5563447" lon="10.5304708"><ele>278.0</ele><time>2026-04-19T15:02:30.006Z</time></trkpt><trkpt lat="44.5565305" lon="10.5306087"><ele>278.0</ele><time>2026-04-19T15:02:31.807Z</time></trkpt><trkpt lat="44.5566277" lon="10.5306633"><ele>278.0</ele><time>2026-04-19T15:02:32.808Z</time></trkpt><trkpt lat="44.556727" lon="10.5306797"><ele>278.0</ele><time>2026-04-19T15:02:33.808Z</time></trkpt><trkpt lat="44.5568318" lon="10.5306483"><ele>278.0</ele><time>2026-04-19T15:02:34.808Z</time></trkpt><trkpt lat="44.5569332" lon="10.5305767"><ele>278.0</ele><time>2026-04-19T15:02:35.808Z</time></trkpt><trkpt lat="44.5570318" lon="10.5304828"><ele>275.25</ele><time>2026-04-19T15:02:36.809Z</time></trkpt><trkpt lat="44.5571343" lon="10.5303805"><ele>272.5</ele><time>2026-04-19T15:02:37.806Z</time></trkpt><trkpt lat="44.5572388" lon="10.5302838"><ele>269.75</ele><time>2026-04-19T15:02:38.807Z</time></trkpt><trkpt lat="44.5573443" lon="10.5301992"><ele>267.0</ele><time>2026-04-19T15:02:39.808Z</time></trkpt><trkpt lat="44.557461" lon="10.530125"><ele>267.0</ele><time>2026-04-19T15:02:40.806Z</time></trkpt><trkpt lat="44.5575895" lon="10.5300598"><ele>267.0</ele><time>2026-04-19T15:02:41.807Z</time></trkpt><trkpt lat="44.5577253" lon="10.529997"><ele>267.0</ele><time>2026-04-19T15:02:42.806Z</time></trkpt><trkpt lat="44.5578607" lon="10.5299362"><ele>267.0</ele><time>2026-04-19T15:02:43.805Z</time></trkpt><trkpt lat="44.5579965" lon="10.5298737"><ele>267.75</ele><time>2026-04-19T15:02:44.806Z</time></trkpt><trkpt lat="44.5581328" lon="10.5298107"><ele>268.5</ele><time>2026-04-19T15:02:45.806Z</time></trkpt><trkpt lat="44.5582632" lon="10.5297507"><ele>269.25</ele><time>2026-04-19T15:02:46.809Z</time></trkpt><trkpt lat="44.5583862" lon="10.529694"><ele>270.0</ele><time>2026-04-19T15:02:47.808Z</time></trkpt><trkpt lat="44.5585008" lon="10.5296407"><ele>270.0</ele><time>2026-04-19T15:02:48.808Z</time></trkpt><trkpt lat="44.558609" lon="10.5295888"><ele>270.0</ele><time>2026-04-19T15:02:49.807Z</time></trkpt><trkpt lat="44.5587135" lon="10.5295373"><ele>270.0</ele><time>2026-04-19T15:02:50.809Z</time></trkpt><trkpt lat="44.5588247" lon="10.5294808"><ele>270.0</ele><time>2026-04-19T15:02:51.807Z</time></trkpt><trkpt lat="44.5589425" lon="10.5294187"><ele>268.5</ele><time>2026-04-19T15:02:52.807Z</time></trkpt><trkpt lat="44.5590663" lon="10.5293533"><ele>267.0</ele><time>2026-04-19T15:02:53.808Z</time></trkpt><trkpt lat="44.5591933" lon="10.5292865"><ele>265.5</ele><time>2026-04-19T15:02:54.808Z</time></trkpt><trkpt lat="44.5593165" lon="10.5292192"><ele>264.0</ele><time>2026-04-19T15:02:55.808Z</time></trkpt><trkpt lat="44.559438" lon="10.529153"><ele>264.0</ele><time>2026-04-19T15:02:56.81Z</time></trkpt><trkpt lat="44.559559" lon="10.5290882"><ele>264.0</ele><time>2026-04-19T15:02:57.807Z</time></trkpt><trkpt lat="44.5596777" lon="10.5290238"><ele>264.0</ele><time>2026-04-19T15:02:58.807Z</time></trkpt><trkpt lat="44.5597945" lon="10.5289612"><ele>264.0</ele><time>2026-04-19T15:02:59.807Z</time></trkpt><trkpt lat="44.55991" lon="10.5289003"><ele>264.0</ele><time>2026-04-19T15:03:00.806Z</time></trkpt><trkpt lat="44.560026" lon="10.5288388"><ele>264.0</ele><time>2026-04-19T15:03:01.808Z</time></trkpt><trkpt lat="44.5601435" lon="10.5287755"><ele>264.0</ele><time>2026-04-19T15:03:02.807Z</time></trkpt><trkpt lat="44.5602647" lon="10.5287175"><ele>264.0</ele><time>2026-04-19T15:03:03.807Z</time></trkpt><trkpt lat="44.5603887" lon="10.5286693"><ele>262.5</ele><time>2026-04-19T15:03:04.807Z</time></trkpt><trkpt lat="44.560519" lon="10.5286313"><ele>261.0</ele><time>2026-04-19T15:03:05.804Z</time></trkpt><trkpt lat="44.5606595" lon="10.5286017"><ele>259.5</ele><time>2026-04-19T15:03:06.805Z</time></trkpt><trkpt lat="44.560812" lon="10.5285797"><ele>258.0</ele><time>2026-04-19T15:03:07.805Z</time></trkpt><trkpt lat="44.560972" lon="10.5285647"><ele>258.0</ele><time>2026-04-19T15:03:08.808Z</time></trkpt><trkpt lat="44.5611278" lon="10.5285537"><ele>258.0</ele><time>2026-04-19T15:03:09.807Z</time></trkpt><trkpt lat="44.5612767" lon="10.5285412"><ele>258.0</ele><time>2026-04-19T15:03:10.808Z</time></trkpt><trkpt lat="44.5614202" lon="10.52853"><ele>258.0</ele><time>2026-04-19T15:03:11.808Z</time></trkpt><trkpt lat="44.561563" lon="10.5285205"><ele>257.0</ele><time>2026-04-19T15:03:12.806Z</time></trkpt><trkpt lat="44.5617107" lon="10.5285113"><ele>256.0</ele><time>2026-04-19T15:03:13.808Z</time></trkpt><trkpt lat="44.5618627" lon="10.5284985"><ele>255.0</ele><time>2026-04-19T15:03:14.808Z</time></trkpt><trkpt lat="44.5620187" lon="10.528486"><ele>254.5</ele><time>2026-04-19T15:03:15.806Z</time></trkpt><trkpt lat="44.5621733" lon="10.5284757"><ele>254.0</ele><time>2026-04-19T15:03:16.807Z</time></trkpt><trkpt lat="44.5623213" lon="10.5284655"><ele>253.5</ele><time>2026-04-19T15:03:17.807Z</time></trkpt><trkpt lat="44.5624598" lon="10.5284565"><ele>253.0</ele><time>2026-04-19T15:03:18.804Z</time></trkpt><trkpt lat="44.5625905" lon="10.5284532"><ele>253.0</ele><time>2026-04-19T15:03:19.808Z</time></trkpt><trkpt lat="44.5627187" lon="10.528464"><ele>253.0</ele><time>2026-04-19T15:03:20.807Z</time></trkpt><trkpt lat="44.5628503" lon="10.5284947"><ele>253.0</ele><time>2026-04-19T15:03:21.806Z</time></trkpt><trkpt lat="44.5629848" lon="10.5285462"><ele>253.0</ele><time>2026-04-19T15:03:22.808Z</time></trkpt><trkpt lat="44.5631222" lon="10.5286117"><ele>253.0</ele><time>2026-04-19T15:03:23.806Z</time></trkpt><trkpt lat="44.5632618" lon="10.528683"><ele>253.0</ele><time>2026-04-19T15:03:24.807Z</time></trkpt><trkpt lat="44.5633997" lon="10.5287502"><ele>253.0</ele><time>2026-04-19T15:03:25.808Z</time></trkpt><trkpt lat="44.5635347" lon="10.5288072"><ele>253.0</ele><time>2026-04-19T15:03:26.807Z</time></trkpt><trkpt lat="44.5636705" lon="10.5288512"><ele>252.0</ele><time>2026-04-19T15:03:27.807Z</time></trkpt><trkpt lat="44.5638093" lon="10.5288822"><ele>251.0</ele><time>2026-04-19T15:03:28.808Z</time></trkpt><trkpt lat="44.5639522" lon="10.5288977"><ele>250.0</ele><time>2026-04-19T15:03:29.806Z</time></trkpt><trkpt lat="44.5640992" lon="10.5288987"><ele>249.0</ele><time>2026-04-19T15:03:30.806Z</time></trkpt><trkpt lat="44.5642497" lon="10.5288903"><ele>249.0</ele><time>2026-04-19T15:03:31.805Z</time></trkpt><trkpt lat="44.5644012" lon="10.5288763"><ele>249.0</ele><time>2026-04-19T15:03:32.806Z</time></trkpt><trkpt lat="44.564547" lon="10.52886"><ele>249.0</ele><time>2026-04-19T15:03:33.806Z</time></trkpt><trkpt lat="44.564687" lon="10.5288437"><ele>249.0</ele><time>2026-04-19T15:03:34.806Z</time></trkpt><trkpt lat="44.5648207" lon="10.5288295"><ele>248.75</ele><time>2026-04-19T15:03:35.808Z</time></trkpt><trkpt lat="44.5649483" lon="10.5288165"><ele>248.5</ele><time>2026-04-19T15:03:36.808Z</time></trkpt><trkpt lat="44.5650703" lon="10.5288045"><ele>248.25</ele><time>2026-04-19T15:03:37.807Z</time></trkpt><trkpt lat="44.5651875" lon="10.5287943"><ele>248.0</ele><time>2026-04-19T15:03:38.807Z</time></trkpt><trkpt lat="44.5653033" lon="10.5287852"><ele>246.75</ele><time>2026-04-19T15:03:39.808Z</time></trkpt><trkpt lat="44.5654255" lon="10.5287738"><ele>245.5</ele><time>2026-04-19T15:03:40.807Z</time></trkpt><trkpt lat="44.5655542" lon="10.528762"><ele>244.25</ele><time>2026-04-19T15:03:41.808Z</time></trkpt><trkpt lat="44.565691" lon="10.5287505"><ele>243.0</ele><time>2026-04-19T15:03:42.807Z</time></trkpt><trkpt lat="44.565835" lon="10.5287378"><ele>242.25</ele><time>2026-04-19T15:03:43.808Z</time></trkpt><trkpt lat="44.5659783" lon="10.528726"><ele>241.5</ele><time>2026-04-19T15:03:44.807Z</time></trkpt><trkpt lat="44.5661205" lon="10.5287123"><ele>240.75</ele><time>2026-04-19T15:03:45.807Z</time></trkpt><trkpt lat="44.5662665" lon="10.5286973"><ele>240.0</ele><time>2026-04-19T15:03:46.807Z</time></trkpt><trkpt lat="44.5664133" lon="10.5286805"><ele>239.33333333333331</ele><time>2026-04-19T15:03:47.806Z</time></trkpt><trkpt lat="44.5665637" lon="10.5286633"><ele>238.66666666666666</ele><time>2026-04-19T15:03:48.808Z</time></trkpt><trkpt lat="44.5667175" lon="10.5286503"><ele>238.0</ele><time>2026-04-19T15:03:49.808Z</time></trkpt><trkpt lat="44.566876" lon="10.5286377"><ele>236.33333333333331</ele><time>2026-04-19T15:03:50.806Z</time></trkpt><trkpt lat="44.567039" lon="10.5286225"><ele>234.66666666666669</ele><time>2026-04-19T15:03:51.806Z</time></trkpt><trkpt lat="44.5672057" lon="10.528608"><ele>233.0</ele><time>2026-04-19T15:03:52.808Z</time></trkpt><trkpt lat="44.5673745" lon="10.528598"><ele>233.0</ele><time>2026-04-19T15:03:53.805Z</time></trkpt><trkpt lat="44.5675342" lon="10.5285815"><ele>233.0</ele><time>2026-04-19T15:03:54.805Z</time></trkpt><trkpt lat="44.5676843" lon="10.5285685"><ele>233.0</ele><time>2026-04-19T15:03:55.805Z</time></trkpt><trkpt lat="44.567825" lon="10.5285597"><ele>233.0</ele><time>2026-04-19T15:03:56.806Z</time></trkpt><trkpt lat="44.5679615" lon="10.5285533"><ele>233.0</ele><time>2026-04-19T15:03:57.804Z</time></trkpt><trkpt lat="44.5680918" lon="10.5285452"><ele>233.0</ele><time>2026-04-19T15:03:58.807Z</time></trkpt><trkpt lat="44.568218" lon="10.5285353"><ele>233.0</ele><time>2026-04-19T15:03:59.81Z</time></trkpt><trkpt lat="44.5683453" lon="10.528523"><ele>233.0</ele><time>2026-04-19T15:04:00.811Z</time></trkpt><trkpt lat="44.5684753" lon="10.5284995"><ele>233.0</ele><time>2026-04-19T15:04:01.809Z</time></trkpt><trkpt lat="44.5686047" lon="10.5284637"><ele>233.0</ele><time>2026-04-19T15:04:02.809Z</time></trkpt><trkpt lat="44.5687318" lon="10.5284165"><ele>233.0</ele><time>2026-04-19T15:04:03.807Z</time></trkpt><trkpt lat="44.5688535" lon="10.5283598"><ele>231.75</ele><time>2026-04-19T15:04:04.807Z</time></trkpt><trkpt lat="44.56897" lon="10.5282973"><ele>230.5</ele><time>2026-04-19T15:04:05.81Z</time></trkpt><trkpt lat="44.5690838" lon="10.5282292"><ele>229.25</ele><time>2026-04-19T15:04:06.808Z</time></trkpt><trkpt lat="44.569195" lon="10.5281505"><ele>228.0</ele><time>2026-04-19T15:04:07.809Z</time></trkpt><trkpt lat="44.5693073" lon="10.5280657"><ele>228.0</ele><time>2026-04-19T15:04:08.81Z</time></trkpt><trkpt lat="44.5694235" lon="10.5279782"><ele>228.0</ele><time>2026-04-19T15:04:09.808Z</time></trkpt><trkpt lat="44.5695447" lon="10.5278875"><ele>228.0</ele><time>2026-04-19T15:04:10.807Z</time></trkpt><trkpt lat="44.5696695" lon="10.527793"><ele>228.0</ele><time>2026-04-19T15:04:11.81Z</time></trkpt><trkpt lat="44.5697962" lon="10.5276963"><ele>227.0</ele><time>2026-04-19T15:04:12.808Z</time></trkpt><trkpt lat="44.5699185" lon="10.5276042"><ele>226.0</ele><time>2026-04-19T15:04:13.811Z</time></trkpt><trkpt lat="44.570038" lon="10.5275215"><ele>225.0</ele><time>2026-04-19T15:04:14.81Z</time></trkpt><trkpt lat="44.570164" lon="10.5274543"><ele>224.0</ele><time>2026-04-19T15:04:15.808Z</time></trkpt><trkpt lat="44.5703007" lon="10.5274155"><ele>224.33333333333334</ele><time>2026-04-19T15:04:16.809Z</time></trkpt><trkpt lat="44.5704515" lon="10.5274097"><ele>224.66666666666669</ele><time>2026-04-19T15:04:17.809Z</time></trkpt><trkpt lat="44.570615" lon="10.5274265"><ele>225.0</ele><time>2026-04-19T15:04:18.807Z</time></trkpt><trkpt lat="44.5707867" lon="10.5274505"><ele>225.0</ele><time>2026-04-19T15:04:19.805Z</time></trkpt><trkpt lat="44.5709765" lon="10.5274728"><ele>225.0</ele><time>2026-04-19T15:04:20.805Z</time></trkpt><trkpt lat="44.5711897" lon="10.5274973"><ele>225.0</ele><time>2026-04-19T15:04:21.805Z</time></trkpt><trkpt lat="44.5714148" lon="10.5275298"><ele>225.0</ele><time>2026-04-19T15:04:22.806Z</time></trkpt><trkpt lat="44.5716268" lon="10.527573"><ele>225.0</ele><time>2026-04-19T15:04:23.808Z</time></trkpt><trkpt lat="44.571827" lon="10.5276192"><ele>225.0</ele><time>2026-04-19T15:04:24.807Z</time></trkpt><trkpt lat="44.5720167" lon="10.5276615"><ele>225.0</ele><time>2026-04-19T15:04:25.807Z</time></trkpt><trkpt lat="44.5721957" lon="10.5277063"><ele>225.0</ele><time>2026-04-19T15:04:26.806Z</time></trkpt><trkpt lat="44.5723603" lon="10.5277733"><ele>225.0</ele><time>2026-04-19T15:04:27.812Z</time></trkpt><trkpt lat="44.5725143" lon="10.5278757"><ele>223.33333333333331</ele><time>2026-04-19T15:04:28.807Z</time></trkpt><trkpt lat="44.5726533" lon="10.5280162"><ele>221.66666666666666</ele><time>2026-04-19T15:04:29.81Z</time></trkpt><trkpt lat="44.572772" lon="10.528187"><ele>220.0</ele><time>2026-04-19T15:04:30.808Z</time></trkpt><trkpt lat="44.572872" lon="10.5283697"><ele>220.0</ele><time>2026-04-19T15:04:31.809Z</time></trkpt><trkpt lat="44.5729717" lon="10.5285513"><ele>220.0</ele><time>2026-04-19T15:04:32.809Z</time></trkpt><trkpt lat="44.5730795" lon="10.5287265"><ele>220.0</ele><time>2026-04-19T15:04:33.807Z</time></trkpt><trkpt lat="44.5731972" lon="10.5288853"><ele>220.0</ele><time>2026-04-19T15:04:34.813Z</time></trkpt><trkpt lat="44.5733282" lon="10.5290213"><ele>220.0</ele><time>2026-04-19T15:04:35.808Z</time></trkpt><trkpt lat="44.5734725" lon="10.5291292"><ele>220.0</ele><time>2026-04-19T15:04:36.808Z</time></trkpt><trkpt lat="44.5736272" lon="10.5292023"><ele>220.0</ele><time>2026-04-19T15:04:37.808Z</time></trkpt><trkpt lat="44.5737877" lon="10.5292462"><ele>220.0</ele><time>2026-04-19T15:04:38.809Z</time></trkpt><trkpt lat="44.5739532" lon="10.5292728"><ele>220.0</ele><time>2026-04-19T15:04:39.807Z</time></trkpt><trkpt lat="44.5741272" lon="10.529297"><ele>220.0</ele><time>2026-04-19T15:04:40.807Z</time></trkpt><trkpt lat="44.5743068" lon="10.529321"><ele>220.0</ele><time>2026-04-19T15:04:41.807Z</time></trkpt><trkpt lat="44.5744797" lon="10.5293407"><ele>220.0</ele><time>2026-04-19T15:04:42.807Z</time></trkpt><trkpt lat="44.5746483" lon="10.5293595"><ele>219.33333333333331</ele><time>2026-04-19T15:04:43.805Z</time></trkpt><trkpt lat="44.5748107" lon="10.5293778"><ele>218.66666666666669</ele><time>2026-04-19T15:04:44.807Z</time></trkpt><trkpt lat="44.5749695" lon="10.5293918"><ele>218.0</ele><time>2026-04-19T15:04:45.804Z</time></trkpt><trkpt lat="44.575127" lon="10.5293893"><ele>218.0</ele><time>2026-04-19T15:04:46.805Z</time></trkpt><trkpt lat="44.5752805" lon="10.5293557"><ele>218.0</ele><time>2026-04-19T15:04:47.807Z</time></trkpt><trkpt lat="44.5754265" lon="10.529283"><ele>218.0</ele><time>2026-04-19T15:04:48.807Z</time></trkpt><trkpt lat="44.5755707" lon="10.5291595"><ele>218.0</ele><time>2026-04-19T15:04:49.808Z</time></trkpt><trkpt lat="44.575716" lon="10.5289868"><ele>218.0</ele><time>2026-04-19T15:04:50.81Z</time></trkpt><trkpt lat="44.5758727" lon="10.5287933"><ele>218.0</ele><time>2026-04-19T15:04:51.809Z</time></trkpt><trkpt lat="44.5760345" lon="10.5286053"><ele>217.0</ele><time>2026-04-19T15:04:52.807Z</time></trkpt><trkpt lat="44.5761933" lon="10.5284327"><ele>216.0</ele><time>2026-04-19T15:04:53.809Z</time></trkpt><trkpt lat="44.5763482" lon="10.5282713"><ele>215.0</ele><time>2026-04-19T15:04:54.809Z</time></trkpt><trkpt lat="44.5765012" lon="10.5281282"><ele>215.0</ele><time>2026-04-19T15:04:55.809Z</time></trkpt><trkpt lat="44.5766552" lon="10.5280123"><ele>215.0</ele><time>2026-04-19T15:04:56.809Z</time></trkpt><trkpt lat="44.5768102" lon="10.5279272"><ele>215.0</ele><time>2026-04-19T15:04:57.808Z</time></trkpt><trkpt lat="44.5769633" lon="10.5278738"><ele>217.66666666666669</ele><time>2026-04-19T15:04:58.807Z</time></trkpt><trkpt lat="44.5771152" lon="10.5278522"><ele>220.33333333333331</ele><time>2026-04-19T15:04:59.808Z</time></trkpt><trkpt lat="44.5772687" lon="10.5278578"><ele>223.0</ele><time>2026-04-19T15:05:00.807Z</time></trkpt><trkpt lat="44.5774217" lon="10.5278875"><ele>222.25</ele><time>2026-04-19T15:05:01.806Z</time></trkpt><trkpt lat="44.5775675" lon="10.5279358"><ele>221.5</ele><time>2026-04-19T15:05:02.807Z</time></trkpt><trkpt lat="44.5777082" lon="10.5279967"><ele>220.75</ele><time>2026-04-19T15:05:03.807Z</time></trkpt><trkpt lat="44.5778458" lon="10.5280622"><ele>220.0</ele><time>2026-04-19T15:05:04.808Z</time></trkpt><trkpt lat="44.5779757" lon="10.5281262"><ele>220.0</ele><time>2026-04-19T15:05:05.808Z</time></trkpt><trkpt lat="44.5781048" lon="10.5281927"><ele>220.0</ele><time>2026-04-19T15:05:06.81Z</time></trkpt><trkpt lat="44.5782373" lon="10.5282657"><ele>220.0</ele><time>2026-04-19T15:05:07.806Z</time></trkpt><trkpt lat="44.5783718" lon="10.5283452"><ele>220.0</ele><time>2026-04-19T15:05:08.804Z</time></trkpt><trkpt lat="44.5785032" lon="10.5284327"><ele>220.0</ele><time>2026-04-19T15:05:09.805Z</time></trkpt><trkpt lat="44.5786292" lon="10.5285337"><ele>220.0</ele><time>2026-04-19T15:05:10.805Z</time></trkpt><trkpt lat="44.578743" lon="10.5286602"><ele>220.0</ele><time>2026-04-19T15:05:11.808Z</time></trkpt><trkpt lat="44.57884" lon="10.5288145"><ele>220.0</ele><time>2026-04-19T15:05:12.808Z</time></trkpt><trkpt lat="44.5789225" lon="10.528994"><ele>220.66666666666666</ele><time>2026-04-19T15:05:13.808Z</time></trkpt><trkpt lat="44.5789933" lon="10.5291888"><ele>221.33333333333331</ele><time>2026-04-19T15:05:14.808Z</time></trkpt><trkpt lat="44.5790603" lon="10.5293807"><ele>222.0</ele><time>2026-04-19T15:05:15.806Z</time></trkpt><trkpt lat="44.5791382" lon="10.5295592"><ele>220.25</ele><time>2026-04-19T15:05:16.808Z</time></trkpt><trkpt lat="44.5792327" lon="10.5297152"><ele>218.5</ele><time>2026-04-19T15:05:17.809Z</time></trkpt><trkpt lat="44.5793333" lon="10.5298538"><ele>216.75</ele><time>2026-04-19T15:05:18.808Z</time></trkpt><trkpt lat="44.5794272" lon="10.5299918"><ele>215.0</ele><time>2026-04-19T15:05:19.807Z</time></trkpt><trkpt lat="44.5795087" lon="10.5301383"><ele>216.0</ele><time>2026-04-19T15:05:20.807Z</time></trkpt><trkpt lat="44.5795835" lon="10.5302955"><ele>217.0</ele><time>2026-04-19T15:05:21.81Z</time></trkpt><trkpt lat="44.5796522" lon="10.530459"><ele>218.0</ele><time>2026-04-19T15:05:22.808Z</time></trkpt><trkpt lat="44.579715" lon="10.5306192"><ele>219.0</ele><time>2026-04-19T15:05:23.807Z</time></trkpt><trkpt lat="44.5797797" lon="10.5307685"><ele>219.0</ele><time>2026-04-19T15:05:24.807Z</time></trkpt><trkpt lat="44.5798547" lon="10.5309025"><ele>219.0</ele><time>2026-04-19T15:05:25.805Z</time></trkpt><trkpt lat="44.5799472" lon="10.5310127"><ele>219.0</ele><time>2026-04-19T15:05:26.807Z</time></trkpt><trkpt lat="44.5800605" lon="10.5310882"><ele>219.0</ele><time>2026-04-19T15:05:27.806Z</time></trkpt><trkpt lat="44.5801888" lon="10.5311268"><ele>219.0</ele><time>2026-04-19T15:05:28.807Z</time></trkpt><trkpt lat="44.5803172" lon="10.5311403"><ele>219.0</ele><time>2026-04-19T15:05:29.805Z</time></trkpt><trkpt lat="44.5804423" lon="10.5311507"><ele>219.0</ele><time>2026-04-19T15:05:30.805Z</time></trkpt><trkpt lat="44.5805682" lon="10.531176"><ele>219.0</ele><time>2026-04-19T15:05:31.806Z</time></trkpt><trkpt lat="44.5806955" lon="10.5312297"><ele>218.5</ele><time>2026-04-19T15:05:32.802Z</time></trkpt><trkpt lat="44.5808183" lon="10.5313227"><ele>218.0</ele><time>2026-04-19T15:05:33.799Z</time></trkpt><trkpt lat="44.5809362" lon="10.5314503"><ele>217.5</ele><time>2026-04-19T15:05:34.801Z</time></trkpt><trkpt lat="44.5810495" lon="10.5315895"><ele>217.0</ele><time>2026-04-19T15:05:35.799Z</time></trkpt><trkpt lat="44.5811567" lon="10.5317243"><ele>218.5</ele><time>2026-04-19T15:05:36.801Z</time></trkpt><trkpt lat="44.581259" lon="10.5318538"><ele>220.0</ele><time>2026-04-19T15:05:37.801Z</time></trkpt><trkpt lat="44.5813507" lon="10.5319882"><ele>221.5</ele><time>2026-04-19T15:05:38.802Z</time></trkpt><trkpt lat="44.581425" lon="10.5321328"><ele>223.0</ele><time>2026-04-19T15:05:39.801Z</time></trkpt><trkpt lat="44.581475" lon="10.532298"><ele>223.0</ele><time>2026-04-19T15:05:40.801Z</time></trkpt><trkpt lat="44.5815005" lon="10.5324835"><ele>223.0</ele><time>2026-04-19T15:05:41.802Z</time></trkpt><trkpt lat="44.5815093" lon="10.5326822"><ele>223.0</ele><time>2026-04-19T15:05:42.804Z</time></trkpt><trkpt lat="44.5815123" lon="10.5328815"><ele>223.0</ele><time>2026-04-19T15:05:43.804Z</time></trkpt><trkpt lat="44.5815165" lon="10.5330713"><ele>221.5</ele><time>2026-04-19T15:05:44.807Z</time></trkpt><trkpt lat="44.5815202" lon="10.5332503"><ele>220.0</ele><time>2026-04-19T15:05:45.81Z</time></trkpt><trkpt lat="44.5815275" lon="10.5334172"><ele>218.5</ele><time>2026-04-19T15:05:46.806Z</time></trkpt><trkpt lat="44.58155" lon="10.5335718"><ele>217.0</ele><time>2026-04-19T15:05:47.807Z</time></trkpt><trkpt lat="44.5815948" lon="10.5337062"><ele>216.2</ele><time>2026-04-19T15:05:48.806Z</time></trkpt><trkpt lat="44.5816627" lon="10.5338107"><ele>215.39999999999998</ele><time>2026-04-19T15:05:49.805Z</time></trkpt><trkpt lat="44.5817518" lon="10.5338837"><ele>214.60000000000002</ele><time>2026-04-19T15:05:50.805Z</time></trkpt><trkpt lat="44.5818555" lon="10.5339135"><ele>213.8</ele><time>2026-04-19T15:05:51.807Z</time></trkpt><trkpt lat="44.5819615" lon="10.5338897"><ele>213.0</ele><time>2026-04-19T15:05:52.807Z</time></trkpt><trkpt lat="44.5820628" lon="10.533834"><ele>212.8</ele><time>2026-04-19T15:05:53.807Z</time></trkpt><trkpt lat="44.5821578" lon="10.5337723"><ele>212.60000000000002</ele><time>2026-04-19T15:05:54.806Z</time></trkpt><trkpt lat="44.5822495" lon="10.5337293"><ele>212.39999999999998</ele><time>2026-04-19T15:05:55.806Z</time></trkpt><trkpt lat="44.5823425" lon="10.5337187"><ele>212.2</ele><time>2026-04-19T15:05:56.803Z</time></trkpt><trkpt lat="44.5824402" lon="10.5337425"><ele>212.0</ele><time>2026-04-19T15:05:57.803Z</time></trkpt><trkpt lat="44.5825387" lon="10.5338032"><ele>212.0</ele><time>2026-04-19T15:05:58.801Z</time></trkpt><trkpt lat="44.5826305" lon="10.533899"><ele>212.0</ele><time>2026-04-19T15:05:59.803Z</time></trkpt><trkpt lat="44.582713" lon="10.5340238"><ele>212.0</ele><time>2026-04-19T15:06:00.803Z</time></trkpt><trkpt lat="44.5827823" lon="10.5341675"><ele>212.0</ele><time>2026-04-19T15:06:01.804Z</time></trkpt><trkpt lat="44.58284" lon="10.5343218"><ele>212.25</ele><time>2026-04-19T15:06:02.803Z</time></trkpt><trkpt lat="44.5828958" lon="10.5344775"><ele>212.5</ele><time>2026-04-19T15:06:03.803Z</time></trkpt><trkpt lat="44.5829568" lon="10.5346363"><ele>212.75</ele><time>2026-04-19T15:06:04.804Z</time></trkpt><trkpt lat="44.5830213" lon="10.5347983"><ele>213.0</ele><time>2026-04-19T15:06:05.805Z</time></trkpt><trkpt lat="44.5830853" lon="10.5349555"><ele>213.0</ele><time>2026-04-19T15:06:06.806Z</time></trkpt><trkpt lat="44.5831535" lon="10.5350973"><ele>213.0</ele><time>2026-04-19T15:06:07.807Z</time></trkpt><trkpt lat="44.583235" lon="10.5352058"><ele>213.0</ele><time>2026-04-19T15:06:08.806Z</time></trkpt><trkpt lat="44.5833345" lon="10.5352663"><ele>213.0</ele><time>2026-04-19T15:06:09.807Z</time></trkpt><trkpt lat="44.5834488" lon="10.5352882"><ele>213.0</ele><time>2026-04-19T15:06:10.807Z</time></trkpt><trkpt lat="44.5835747" lon="10.535281"><ele>213.0</ele><time>2026-04-19T15:06:11.808Z</time></trkpt><trkpt lat="44.5837013" lon="10.5352567"><ele>213.0</ele><time>2026-04-19T15:06:12.808Z</time></trkpt><trkpt lat="44.5838232" lon="10.5352213"><ele>213.0</ele><time>2026-04-19T15:06:13.806Z</time></trkpt><trkpt lat="44.5839443" lon="10.5351687"><ele>212.25</ele><time>2026-04-19T15:06:14.806Z</time></trkpt><trkpt lat="44.5840725" lon="10.5351072"><ele>211.5</ele><time>2026-04-19T15:06:15.807Z</time></trkpt><trkpt lat="44.5842083" lon="10.53504"><ele>210.75</ele><time>2026-04-19T15:06:16.807Z</time></trkpt><trkpt lat="44.5843462" lon="10.5349667"><ele>210.0</ele><time>2026-04-19T15:06:17.807Z</time></trkpt><trkpt lat="44.5844907" lon="10.5348993"><ele>208.25</ele><time>2026-04-19T15:06:18.806Z</time></trkpt><trkpt lat="44.5846323" lon="10.5348357"><ele>206.5</ele><time>2026-04-19T15:06:19.806Z</time></trkpt><trkpt lat="44.58477" lon="10.5347777"><ele>204.75</ele><time>2026-04-19T15:06:20.806Z</time></trkpt><trkpt lat="44.5848978" lon="10.5347162"><ele>203.0</ele><time>2026-04-19T15:06:21.804Z</time></trkpt><trkpt lat="44.5850195" lon="10.5346467"><ele>203.0</ele><time>2026-04-19T15:06:22.804Z</time></trkpt><trkpt lat="44.5851312" lon="10.5345612"><ele>203.0</ele><time>2026-04-19T15:06:23.805Z</time></trkpt><trkpt lat="44.585241" lon="10.5344637"><ele>203.0</ele><time>2026-04-19T15:06:24.803Z</time></trkpt><trkpt lat="44.5853465" lon="10.5343672"><ele>203.0</ele><time>2026-04-19T15:06:25.805Z</time></trkpt><trkpt lat="44.5854565" lon="10.5342853"><ele>202.5</ele><time>2026-04-19T15:06:26.806Z</time></trkpt><trkpt lat="44.5855743" lon="10.5342312"><ele>202.0</ele><time>2026-04-19T15:06:27.806Z</time></trkpt><trkpt lat="44.5857007" lon="10.5342105"><ele>201.5</ele><time>2026-04-19T15:06:28.806Z</time></trkpt><trkpt lat="44.5858253" lon="10.5342257"><ele>201.0</ele><time>2026-04-19T15:06:29.804Z</time></trkpt><trkpt lat="44.585937" lon="10.534277"><ele>201.0</ele><time>2026-04-19T15:06:30.804Z</time></trkpt><trkpt lat="44.5860343" lon="10.534377"><ele>201.0</ele><time>2026-04-19T15:06:31.806Z</time></trkpt><trkpt lat="44.5861155" lon="10.534515"><ele>201.0</ele><time>2026-04-19T15:06:32.806Z</time></trkpt><trkpt lat="44.5861908" lon="10.534675"><ele>201.0</ele><time>2026-04-19T15:06:33.805Z</time></trkpt><trkpt lat="44.5862712" lon="10.5348202"><ele>200.25</ele><time>2026-04-19T15:06:34.805Z</time></trkpt><trkpt lat="44.5863742" lon="10.5349272"><ele>199.5</ele><time>2026-04-19T15:06:35.806Z</time></trkpt><trkpt lat="44.586502" lon="10.5349973"><ele>198.75</ele><time>2026-04-19T15:06:36.805Z</time></trkpt><trkpt lat="44.5866378" lon="10.535062"><ele>198.0</ele><time>2026-04-19T15:06:37.805Z</time></trkpt><trkpt lat="44.5867708" lon="10.5351385"><ele>198.0</ele><time>2026-04-19T15:06:38.806Z</time></trkpt><trkpt lat="44.5868928" lon="10.5352302"><ele>198.0</ele><time>2026-04-19T15:06:39.806Z</time></trkpt><trkpt lat="44.5870137" lon="10.5353172"><ele>198.0</ele><time>2026-04-19T15:06:40.806Z</time></trkpt><trkpt lat="44.5871457" lon="10.535379"><ele>198.0</ele><time>2026-04-19T15:06:41.804Z</time></trkpt><trkpt lat="44.5872875" lon="10.535412"><ele>196.75</ele><time>2026-04-19T15:06:42.804Z</time></trkpt><trkpt lat="44.5874325" lon="10.5354195"><ele>195.5</ele><time>2026-04-19T15:06:43.806Z</time></trkpt><trkpt lat="44.5875717" lon="10.5354093"><ele>194.25</ele><time>2026-04-19T15:06:44.806Z</time></trkpt><trkpt lat="44.5877043" lon="10.5353967"><ele>193.0</ele><time>2026-04-19T15:06:45.806Z</time></trkpt><trkpt lat="44.5878327" lon="10.5353877"><ele>192.5</ele><time>2026-04-19T15:06:46.805Z</time></trkpt><trkpt lat="44.5879578" lon="10.5353935"><ele>192.0</ele><time>2026-04-19T15:06:47.804Z</time></trkpt><trkpt lat="44.5880863" lon="10.5354227"><ele>191.5</ele><time>2026-04-19T15:06:48.803Z</time></trkpt><trkpt lat="44.588221" lon="10.5354723"><ele>191.0</ele><time>2026-04-19T15:06:49.805Z</time></trkpt><trkpt lat="44.5883705" lon="10.5355343"><ele>191.0</ele><time>2026-04-19T15:06:50.808Z</time></trkpt><trkpt lat="44.5885263" lon="10.5356035"><ele>191.0</ele><time>2026-04-19T15:06:51.807Z</time></trkpt><trkpt lat="44.5887" lon="10.5356773"><ele>191.0</ele><time>2026-04-19T15:06:52.808Z</time></trkpt><trkpt lat="44.5888935" lon="10.535758"><ele>190.33333333333331</ele><time>2026-04-19T15:06:53.81Z</time></trkpt><trkpt lat="44.589079" lon="10.535842"><ele>189.66666666666666</ele><time>2026-04-19T15:06:54.805Z</time></trkpt><trkpt lat="44.5892523" lon="10.5359287"><ele>189.0</ele><time>2026-04-19T15:06:55.807Z</time></trkpt><trkpt lat="44.5894185" lon="10.5360147"><ele>189.0</ele><time>2026-04-19T15:06:56.806Z</time></trkpt><trkpt lat="44.5895865" lon="10.5360977"><ele>189.0</ele><time>2026-04-19T15:06:57.806Z</time></trkpt><trkpt lat="44.5897583" lon="10.5361673"><ele>189.0</ele><time>2026-04-19T15:06:58.805Z</time></trkpt><trkpt lat="44.5899302" lon="10.5362295"><ele>189.0</ele><time>2026-04-19T15:06:59.809Z</time></trkpt><trkpt lat="44.5900928" lon="10.5362867"><ele>189.0</ele><time>2026-04-19T15:07:00.807Z</time></trkpt><trkpt lat="44.5902457" lon="10.5363482"><ele>189.0</ele><time>2026-04-19T15:07:01.807Z</time></trkpt><trkpt lat="44.590392" lon="10.5364148"><ele>189.66666666666666</ele><time>2026-04-19T15:07:02.807Z</time></trkpt><trkpt lat="44.5905355" lon="10.5364968"><ele>190.33333333333331</ele><time>2026-04-19T15:07:03.807Z</time></trkpt><trkpt lat="44.5906782" lon="10.5365938"><ele>191.0</ele><time>2026-04-19T15:07:04.809Z</time></trkpt><trkpt lat="44.590822" lon="10.5367063"><ele>191.0</ele><time>2026-04-19T15:07:05.81Z</time></trkpt><trkpt lat="44.5909728" lon="10.5368357"><ele>191.0</ele><time>2026-04-19T15:07:06.806Z</time></trkpt><trkpt lat="44.59113" lon="10.5369743"><ele>191.0</ele><time>2026-04-19T15:07:07.808Z</time></trkpt><trkpt lat="44.5912823" lon="10.5371127"><ele>189.66666666666666</ele><time>2026-04-19T15:07:08.806Z</time></trkpt><trkpt lat="44.5914278" lon="10.5372467"><ele>188.33333333333334</ele><time>2026-04-19T15:07:09.807Z</time></trkpt><trkpt lat="44.5915677" lon="10.5373742"><ele>187.0</ele><time>2026-04-19T15:07:10.805Z</time></trkpt><trkpt lat="44.5916998" lon="10.5374918"><ele>187.0</ele><time>2026-04-19T15:07:11.807Z</time></trkpt><trkpt lat="44.5918235" lon="10.5376022"><ele>187.0</ele><time>2026-04-19T15:07:12.805Z</time></trkpt><trkpt lat="44.5919402" lon="10.5377073"><ele>187.0</ele><time>2026-04-19T15:07:13.805Z</time></trkpt><trkpt lat="44.5920493" lon="10.5378077"><ele>187.0</ele><time>2026-04-19T15:07:14.807Z</time></trkpt><trkpt lat="44.5921515" lon="10.537903"><ele>186.39999999999998</ele><time>2026-04-19T15:07:15.807Z</time></trkpt><trkpt lat="44.5922492" lon="10.5379952"><ele>185.79999999999998</ele><time>2026-04-19T15:07:16.81Z</time></trkpt><trkpt lat="44.5923427" lon="10.5380832"><ele>185.2</ele><time>2026-04-19T15:07:17.806Z</time></trkpt><trkpt lat="44.5924328" lon="10.5381678"><ele>184.6</ele><time>2026-04-19T15:07:18.806Z</time></trkpt><trkpt lat="44.5925213" lon="10.5382507"><ele>184.0</ele><time>2026-04-19T15:07:19.805Z</time></trkpt><trkpt lat="44.5926115" lon="10.5383353"><ele>184.0</ele><time>2026-04-19T15:07:20.806Z</time></trkpt><trkpt lat="44.5927053" lon="10.5384218"><ele>184.0</ele><time>2026-04-19T15:07:21.804Z</time></trkpt><trkpt lat="44.592808" lon="10.5385172"><ele>184.0</ele><time>2026-04-19T15:07:22.806Z</time></trkpt><trkpt lat="44.5929155" lon="10.5386177"><ele>184.0</ele><time>2026-04-19T15:07:23.805Z</time></trkpt><trkpt lat="44.5930365" lon="10.5387282"><ele>183.33333333333334</ele><time>2026-04-19T15:07:24.804Z</time></trkpt><trkpt lat="44.5931795" lon="10.5388558"><ele>182.66666666666666</ele><time>2026-04-19T15:07:25.804Z</time></trkpt><trkpt lat="44.5933162" lon="10.5389855"><ele>182.0</ele><time>2026-04-19T15:07:26.804Z</time></trkpt><trkpt lat="44.5934425" lon="10.5391133"><ele>182.0</ele><time>2026-04-19T15:07:27.804Z</time></trkpt><trkpt lat="44.5935632" lon="10.5392383"><ele>182.0</ele><time>2026-04-19T15:07:28.805Z</time></trkpt><trkpt lat="44.5936778" lon="10.5393553"><ele>182.0</ele><time>2026-04-19T15:07:29.804Z</time></trkpt><trkpt lat="44.5937858" lon="10.5394642"><ele>182.0</ele><time>2026-04-19T15:07:30.804Z</time></trkpt><trkpt lat="44.5938883" lon="10.5395648"><ele>182.0</ele><time>2026-04-19T15:07:31.805Z</time></trkpt><trkpt lat="44.5939838" lon="10.5396582"><ele>182.0</ele><time>2026-04-19T15:07:32.805Z</time></trkpt><trkpt lat="44.594073" lon="10.5397457"><ele>182.0</ele><time>2026-04-19T15:07:33.805Z</time></trkpt><trkpt lat="44.5941558" lon="10.5398267"><ele>182.0</ele><time>2026-04-19T15:07:34.804Z</time></trkpt><trkpt lat="44.5942343" lon="10.5399027"><ele>182.0</ele><time>2026-04-19T15:07:35.802Z</time></trkpt><trkpt lat="44.5943152" lon="10.539976"><ele>182.0</ele><time>2026-04-19T15:07:36.8Z</time></trkpt><trkpt lat="44.5944002" lon="10.5400475"><ele>182.0</ele><time>2026-04-19T15:07:37.803Z</time></trkpt><trkpt lat="44.5944873" lon="10.5401153"><ele>182.0</ele><time>2026-04-19T15:07:38.804Z</time></trkpt><trkpt lat="44.5945755" lon="10.5401803"><ele>182.0</ele><time>2026-04-19T15:07:39.805Z</time></trkpt><trkpt lat="44.5946612" lon="10.5402405"><ele>182.0</ele><time>2026-04-19T15:07:40.804Z</time></trkpt><trkpt lat="44.5947438" lon="10.5403005"><ele>181.39999999999998</ele><time>2026-04-19T15:07:41.804Z</time></trkpt><trkpt lat="44.5948307" lon="10.5403585"><ele>180.79999999999998</ele><time>2026-04-19T15:07:42.802Z</time></trkpt><trkpt lat="44.5949212" lon="10.540418"><ele>180.2</ele><time>2026-04-19T15:07:43.804Z</time></trkpt><trkpt lat="44.5950087" lon="10.5404755"><ele>179.6</ele><time>2026-04-19T15:07:44.803Z</time></trkpt><trkpt lat="44.595099" lon="10.5405307"><ele>179.0</ele><time>2026-04-19T15:07:45.804Z</time></trkpt><trkpt lat="44.5952103" lon="10.540596"><ele>179.33333333333331</ele><time>2026-04-19T15:07:46.803Z</time></trkpt><trkpt lat="44.5953475" lon="10.540678"><ele>179.66666666666666</ele><time>2026-04-19T15:07:47.805Z</time></trkpt><trkpt lat="44.5955005" lon="10.5407797"><ele>180.0</ele><time>2026-04-19T15:07:48.805Z</time></trkpt><trkpt lat="44.5956487" lon="10.5408808"><ele>180.0</ele><time>2026-04-19T15:07:49.807Z</time></trkpt><trkpt lat="44.5957867" lon="10.540979"><ele>180.0</ele><time>2026-04-19T15:07:50.809Z</time></trkpt><trkpt lat="44.595915" lon="10.5410758"><ele>180.0</ele><time>2026-04-19T15:07:51.807Z</time></trkpt><trkpt lat="44.5960342" lon="10.5411695"><ele>180.0</ele><time>2026-04-19T15:07:52.807Z</time></trkpt><trkpt lat="44.596148" lon="10.5412577"><ele>179.25</ele><time>2026-04-19T15:07:53.805Z</time></trkpt><trkpt lat="44.5962618" lon="10.5413495"><ele>178.5</ele><time>2026-04-19T15:07:54.806Z</time></trkpt><trkpt lat="44.5963812" lon="10.5414447"><ele>177.75</ele><time>2026-04-19T15:07:55.808Z</time></trkpt><trkpt lat="44.5965057" lon="10.5415453"><ele>177.0</ele><time>2026-04-19T15:07:56.807Z</time></trkpt><trkpt lat="44.596636" lon="10.5416513"><ele>177.0</ele><time>2026-04-19T15:07:57.806Z</time></trkpt><trkpt lat="44.5967673" lon="10.5417612"><ele>177.0</ele><time>2026-04-19T15:07:58.804Z</time></trkpt><trkpt lat="44.596894" lon="10.5418707"><ele>177.0</ele><time>2026-04-19T15:07:59.803Z</time></trkpt><trkpt lat="44.5970113" lon="10.5419722"><ele>177.0</ele><time>2026-04-19T15:08:00.804Z</time></trkpt><trkpt lat="44.597117" lon="10.5420667"><ele>177.8</ele><time>2026-04-19T15:08:01.804Z</time></trkpt><trkpt lat="44.5972137" lon="10.542153"><ele>178.6</ele><time>2026-04-19T15:08:02.805Z</time></trkpt><trkpt lat="44.597304" lon="10.5422335"><ele>179.4</ele><time>2026-04-19T15:08:03.806Z</time></trkpt><trkpt lat="44.5973915" lon="10.5423118"><ele>180.20000000000002</ele><time>2026-04-19T15:08:04.805Z</time></trkpt><trkpt lat="44.5974817" lon="10.5423922"><ele>181.0</ele><time>2026-04-19T15:08:05.806Z</time></trkpt><trkpt lat="44.597573" lon="10.5424763"><ele>181.0</ele><time>2026-04-19T15:08:06.806Z</time></trkpt><trkpt lat="44.5976627" lon="10.5425643"><ele>181.0</ele><time>2026-04-19T15:08:07.805Z</time></trkpt><trkpt lat="44.5977475" lon="10.5426593"><ele>181.0</ele><time>2026-04-19T15:08:08.806Z</time></trkpt><trkpt lat="44.597828" lon="10.5427642"><ele>181.0</ele><time>2026-04-19T15:08:09.803Z</time></trkpt><trkpt lat="44.5979003" lon="10.5428782"><ele>181.0</ele><time>2026-04-19T15:08:10.804Z</time></trkpt><trkpt lat="44.5979603" lon="10.5429945"><ele>181.20000000000002</ele><time>2026-04-19T15:08:11.805Z</time></trkpt><trkpt lat="44.5980123" lon="10.543115"><ele>181.4</ele><time>2026-04-19T15:08:12.805Z</time></trkpt><trkpt lat="44.598062" lon="10.5432443"><ele>181.6</ele><time>2026-04-19T15:08:13.809Z</time></trkpt><trkpt lat="44.5981105" lon="10.5433828"><ele>181.8</ele><time>2026-04-19T15:08:14.806Z</time></trkpt><trkpt lat="44.5981635" lon="10.5435253"><ele>182.0</ele><time>2026-04-19T15:08:15.806Z</time></trkpt><trkpt lat="44.5982238" lon="10.5436575"><ele>180.8</ele><time>2026-04-19T15:08:16.805Z</time></trkpt><trkpt lat="44.5982925" lon="10.5437765"><ele>179.6</ele><time>2026-04-19T15:08:17.805Z</time></trkpt><trkpt lat="44.5983675" lon="10.5438863"><ele>178.4</ele><time>2026-04-19T15:08:18.804Z</time></trkpt><trkpt lat="44.5984462" lon="10.5439932"><ele>177.20000000000002</ele><time>2026-04-19T15:08:19.803Z</time></trkpt><trkpt lat="44.5985268" lon="10.5440985"><ele>176.0</ele><time>2026-04-19T15:08:20.805Z</time></trkpt><trkpt lat="44.5986092" lon="10.5442027"><ele>175.8</ele><time>2026-04-19T15:08:21.804Z</time></trkpt><trkpt lat="44.5986907" lon="10.5443097"><ele>175.60000000000002</ele><time>2026-04-19T15:08:22.803Z</time></trkpt><trkpt lat="44.5987718" lon="10.5444165"><ele>175.4</ele><time>2026-04-19T15:08:23.804Z</time></trkpt><trkpt lat="44.59885" lon="10.544517"><ele>175.2</ele><time>2026-04-19T15:08:24.803Z</time></trkpt><trkpt lat="44.5989235" lon="10.5446107"><ele>175.0</ele><time>2026-04-19T15:08:25.806Z</time></trkpt><trkpt lat="44.5989947" lon="10.5446965"><ele>175.0</ele><time>2026-04-19T15:08:26.804Z</time></trkpt><trkpt lat="44.5990628" lon="10.5447727"><ele>175.0</ele><time>2026-04-19T15:08:27.805Z</time></trkpt><trkpt lat="44.5991317" lon="10.5448428"><ele>175.0</ele><time>2026-04-19T15:08:28.805Z</time></trkpt><trkpt lat="44.5991985" lon="10.5449098"><ele>175.0</ele><time>2026-04-19T15:08:29.807Z</time></trkpt><trkpt lat="44.599264" lon="10.5449727"><ele>175.0</ele><time>2026-04-19T15:08:30.806Z</time></trkpt><trkpt lat="44.599334" lon="10.545034"><ele>175.0</ele><time>2026-04-19T15:08:31.806Z</time></trkpt><trkpt lat="44.599419" lon="10.545107"><ele>175.0</ele><time>2026-04-19T15:08:32.807Z</time></trkpt><trkpt lat="44.5995047" lon="10.5451862"><ele>175.0</ele><time>2026-04-19T15:08:33.805Z</time></trkpt><trkpt lat="44.5995808" lon="10.5452658"><ele>175.0</ele><time>2026-04-19T15:08:34.805Z</time></trkpt><trkpt lat="44.5996503" lon="10.5453403"><ele>175.0</ele><time>2026-04-19T15:08:35.806Z</time></trkpt><trkpt lat="44.5997113" lon="10.5454037"><ele>175.0</ele><time>2026-04-19T15:08:36.806Z</time></trkpt><trkpt lat="44.5997655" lon="10.5454597"><ele>175.0</ele><time>2026-04-19T15:08:37.806Z</time></trkpt><trkpt lat="44.5998193" lon="10.5455088"><ele>175.0</ele><time>2026-04-19T15:08:38.807Z</time></trkpt><trkpt lat="44.5998825" lon="10.5455478"><ele>175.0</ele><time>2026-04-19T15:08:39.804Z</time></trkpt><trkpt lat="44.5999558" lon="10.5455877"><ele>175.0</ele><time>2026-04-19T15:08:40.807Z</time></trkpt><trkpt lat="44.6000368" lon="10.5456295"><ele>175.0</ele><time>2026-04-19T15:08:41.808Z</time></trkpt><trkpt lat="44.600116" lon="10.5456743"><ele>175.0</ele><time>2026-04-19T15:08:42.806Z</time></trkpt><trkpt lat="44.6001983" lon="10.5457232"><ele>175.0</ele><time>2026-04-19T15:08:43.806Z</time></trkpt><trkpt lat="44.6002813" lon="10.5457705"><ele>175.2</ele><time>2026-04-19T15:08:44.806Z</time></trkpt><trkpt lat="44.6003707" lon="10.5458185"><ele>175.4</ele><time>2026-04-19T15:08:45.805Z</time></trkpt><trkpt lat="44.6004715" lon="10.5458747"><ele>175.60000000000002</ele><time>2026-04-19T15:08:46.805Z</time></trkpt><trkpt lat="44.600573" lon="10.5459287"><ele>175.8</ele><time>2026-04-19T15:08:47.805Z</time></trkpt><trkpt lat="44.6006837" lon="10.545992"><ele>176.0</ele><time>2026-04-19T15:08:48.803Z</time></trkpt><trkpt lat="44.6007918" lon="10.5460543"><ele>176.0</ele><time>2026-04-19T15:08:49.805Z</time></trkpt><trkpt lat="44.6008943" lon="10.546111"><ele>176.0</ele><time>2026-04-19T15:08:50.804Z</time></trkpt><trkpt lat="44.6009982" lon="10.5461702"><ele>176.0</ele><time>2026-04-19T15:08:51.806Z</time></trkpt><trkpt lat="44.6011055" lon="10.546234"><ele>176.0</ele><time>2026-04-19T15:08:52.807Z</time></trkpt><trkpt lat="44.6012193" lon="10.5463058"><ele>175.0</ele><time>2026-04-19T15:08:53.809Z</time></trkpt><trkpt lat="44.6013422" lon="10.5463858"><ele>174.0</ele><time>2026-04-19T15:08:54.809Z</time></trkpt><trkpt lat="44.6014795" lon="10.546477"><ele>173.0</ele><time>2026-04-19T15:08:55.808Z</time></trkpt><trkpt lat="44.601626" lon="10.5465798"><ele>173.0</ele><time>2026-04-19T15:08:56.807Z</time></trkpt><trkpt lat="44.6017667" lon="10.54669"><ele>173.0</ele><time>2026-04-19T15:08:57.806Z</time></trkpt><trkpt lat="44.601901" lon="10.5467988"><ele>173.0</ele><time>2026-04-19T15:08:58.806Z</time></trkpt><trkpt lat="44.6020293" lon="10.5469038"><ele>173.5</ele><time>2026-04-19T15:08:59.808Z</time></trkpt><trkpt lat="44.6021545" lon="10.5470075"><ele>174.0</ele><time>2026-04-19T15:09:00.806Z</time></trkpt><trkpt lat="44.6022773" lon="10.5471055"><ele>174.5</ele><time>2026-04-19T15:09:01.806Z</time></trkpt><trkpt lat="44.6023945" lon="10.5471948"><ele>175.0</ele><time>2026-04-19T15:09:02.805Z</time></trkpt><trkpt lat="44.6025077" lon="10.5472715"><ele>173.0</ele><time>2026-04-19T15:09:03.805Z</time></trkpt><trkpt lat="44.6026228" lon="10.5473375"><ele>171.0</ele><time>2026-04-19T15:09:04.804Z</time></trkpt><trkpt lat="44.6027487" lon="10.547394"><ele>169.0</ele><time>2026-04-19T15:09:05.806Z</time></trkpt><trkpt lat="44.6028843" lon="10.5474358"><ele>167.0</ele><time>2026-04-19T15:09:06.805Z</time></trkpt><trkpt lat="44.6030272" lon="10.5474722"><ele>167.0</ele><time>2026-04-19T15:09:07.806Z</time></trkpt><trkpt lat="44.603167" lon="10.5475048"><ele>167.0</ele><time>2026-04-19T15:09:08.807Z</time></trkpt><trkpt lat="44.603301" lon="10.5475352"><ele>167.0</ele><time>2026-04-19T15:09:09.804Z</time></trkpt><trkpt lat="44.6034293" lon="10.5475645"><ele>167.0</ele><time>2026-04-19T15:09:10.805Z</time></trkpt><trkpt lat="44.603553" lon="10.5475937"><ele>167.0</ele><time>2026-04-19T15:09:11.811Z</time></trkpt><trkpt lat="44.6036808" lon="10.5476283"><ele>167.0</ele><time>2026-04-19T15:09:12.805Z</time></trkpt><trkpt lat="44.603815" lon="10.5476777"><ele>167.0</ele><time>2026-04-19T15:09:13.804Z</time></trkpt><trkpt lat="44.6039512" lon="10.5477463"><ele>167.0</ele><time>2026-04-19T15:09:14.804Z</time></trkpt><trkpt lat="44.604089" lon="10.547829"><ele>166.0</ele><time>2026-04-19T15:09:15.804Z</time></trkpt><trkpt lat="44.6042293" lon="10.5479225"><ele>165.0</ele><time>2026-04-19T15:09:16.807Z</time></trkpt><trkpt lat="44.604386" lon="10.5480252"><ele>164.0</ele><time>2026-04-19T15:09:17.809Z</time></trkpt><trkpt lat="44.6045585" lon="10.5481415"><ele>164.0</ele><time>2026-04-19T15:09:18.807Z</time></trkpt><trkpt lat="44.6047272" lon="10.5482655"><ele>164.0</ele><time>2026-04-19T15:09:19.808Z</time></trkpt><trkpt lat="44.6048865" lon="10.5483862"><ele>164.0</ele><time>2026-04-19T15:09:20.806Z</time></trkpt><trkpt lat="44.6050388" lon="10.5485"><ele>164.0</ele><time>2026-04-19T15:09:21.81Z</time></trkpt><trkpt lat="44.6051843" lon="10.5486072"><ele>164.0</ele><time>2026-04-19T15:09:22.808Z</time></trkpt><trkpt lat="44.6053248" lon="10.548708"><ele>164.0</ele><time>2026-04-19T15:09:23.807Z</time></trkpt><trkpt lat="44.6054602" lon="10.5488017"><ele>162.33333333333331</ele><time>2026-04-19T15:09:24.807Z</time></trkpt><trkpt lat="44.605595" lon="10.5488778"><ele>160.66666666666666</ele><time>2026-04-19T15:09:25.807Z</time></trkpt><trkpt lat="44.6057427" lon="10.548938"><ele>159.0</ele><time>2026-04-19T15:09:26.806Z</time></trkpt><trkpt lat="44.6059148" lon="10.5489893"><ele>159.0</ele><time>2026-04-19T15:09:27.806Z</time></trkpt><trkpt lat="44.6061103" lon="10.5490428"><ele>159.0</ele><time>2026-04-19T15:09:28.807Z</time></trkpt><trkpt lat="44.6063135" lon="10.5490958"><ele>159.0</ele><time>2026-04-19T15:09:29.807Z</time></trkpt><trkpt lat="44.6065072" lon="10.549142"><ele>158.66666666666666</ele><time>2026-04-19T15:09:30.807Z</time></trkpt><trkpt lat="44.6066887" lon="10.549181"><ele>158.33333333333331</ele><time>2026-04-19T15:09:31.808Z</time></trkpt><trkpt lat="44.6068533" lon="10.549215"><ele>158.0</ele><time>2026-04-19T15:09:32.81Z</time></trkpt><trkpt lat="44.6069985" lon="10.5492458"><ele>157.8</ele><time>2026-04-19T15:09:33.809Z</time></trkpt><trkpt lat="44.6071252" lon="10.549274"><ele>157.60000000000002</ele><time>2026-04-19T15:09:34.811Z</time></trkpt><trkpt lat="44.6072395" lon="10.5492977"><ele>157.39999999999998</ele><time>2026-04-19T15:09:35.81Z</time></trkpt><trkpt lat="44.6073437" lon="10.549319"><ele>157.2</ele><time>2026-04-19T15:09:36.81Z</time></trkpt><trkpt lat="44.6074377" lon="10.5493427"><ele>157.0</ele><time>2026-04-19T15:09:37.806Z</time></trkpt><trkpt lat="44.6075242" lon="10.5493788"><ele>157.0</ele><time>2026-04-19T15:09:38.808Z</time></trkpt><trkpt lat="44.6076087" lon="10.5494322"><ele>157.0</ele><time>2026-04-19T15:09:39.81Z</time></trkpt><trkpt lat="44.6076995" lon="10.5494957"><ele>157.0</ele><time>2026-04-19T15:09:40.807Z</time></trkpt><trkpt lat="44.6077925" lon="10.54953"><ele>157.0</ele><time>2026-04-19T15:09:41.808Z</time></trkpt><trkpt lat="44.6078922" lon="10.5495205"><ele>157.0</ele><time>2026-04-19T15:09:42.808Z</time></trkpt><trkpt lat="44.608002" lon="10.5495008"><ele>157.25</ele><time>2026-04-19T15:09:43.81Z</time></trkpt><trkpt lat="44.6081215" lon="10.5495075"><ele>157.5</ele><time>2026-04-19T15:09:44.809Z</time></trkpt><trkpt lat="44.6082453" lon="10.549547"><ele>157.75</ele><time>2026-04-19T15:09:45.811Z</time></trkpt><trkpt lat="44.6083673" lon="10.5496223"><ele>158.0</ele><time>2026-04-19T15:09:46.811Z</time></trkpt><trkpt lat="44.608484" lon="10.549729"><ele>158.0</ele><time>2026-04-19T15:09:47.812Z</time></trkpt><trkpt lat="44.6085967" lon="10.5498567"><ele>158.0</ele><time>2026-04-19T15:09:48.812Z</time></trkpt><trkpt lat="44.6087108" lon="10.5500032"><ele>158.0</ele><time>2026-04-19T15:09:49.81Z</time></trkpt><trkpt lat="44.6088242" lon="10.5501587"><ele>158.0</ele><time>2026-04-19T15:09:50.811Z</time></trkpt><trkpt lat="44.6089305" lon="10.5503075"><ele>158.0</ele><time>2026-04-19T15:09:51.809Z</time></trkpt><trkpt lat="44.6090325" lon="10.5504488"><ele>158.0</ele><time>2026-04-19T15:09:52.81Z</time></trkpt><trkpt lat="44.6091353" lon="10.5505913"><ele>158.0</ele><time>2026-04-19T15:09:53.81Z</time></trkpt><trkpt lat="44.609244" lon="10.5507417"><ele>157.66666666666666</ele><time>2026-04-19T15:09:54.808Z</time></trkpt><trkpt lat="44.60936" lon="10.550901"><ele>157.33333333333334</ele><time>2026-04-19T15:09:55.809Z</time></trkpt><trkpt lat="44.6094803" lon="10.5510695"><ele>157.0</ele><time>2026-04-19T15:09:56.81Z</time></trkpt><trkpt lat="44.6095958" lon="10.5512322"><ele>157.0</ele><time>2026-04-19T15:09:57.809Z</time></trkpt><trkpt lat="44.6097057" lon="10.5513862"><ele>157.0</ele><time>2026-04-19T15:09:58.809Z</time></trkpt><trkpt lat="44.6098105" lon="10.5515325"><ele>157.0</ele><time>2026-04-19T15:09:59.808Z</time></trkpt><trkpt lat="44.6099123" lon="10.5516673"><ele>157.0</ele><time>2026-04-19T15:10:00.808Z</time></trkpt><trkpt lat="44.6100133" lon="10.5517898"><ele>157.0</ele><time>2026-04-19T15:10:01.805Z</time></trkpt><trkpt lat="44.6101172" lon="10.5519012"><ele>157.0</ele><time>2026-04-19T15:10:02.806Z</time></trkpt><trkpt lat="44.6102302" lon="10.5519998"><ele>157.0</ele><time>2026-04-19T15:10:03.806Z</time></trkpt><trkpt lat="44.6103498" lon="10.552097"><ele>157.0</ele><time>2026-04-19T15:10:04.805Z</time></trkpt><trkpt lat="44.6104755" lon="10.5521988"><ele>156.75</ele><time>2026-04-19T15:10:05.809Z</time></trkpt><trkpt lat="44.6106055" lon="10.552304"><ele>156.5</ele><time>2026-04-19T15:10:06.809Z</time></trkpt><trkpt lat="44.6107348" lon="10.5524095"><ele>156.25</ele><time>2026-04-19T15:10:07.808Z</time></trkpt><trkpt lat="44.6108615" lon="10.5525117"><ele>156.0</ele><time>2026-04-19T15:10:08.81Z</time></trkpt><trkpt lat="44.6109882" lon="10.5526098"><ele>156.0</ele><time>2026-04-19T15:10:09.81Z</time></trkpt><trkpt lat="44.611115" lon="10.5527048"><ele>156.0</ele><time>2026-04-19T15:10:10.81Z</time></trkpt><trkpt lat="44.6112448" lon="10.5527983"><ele>156.0</ele><time>2026-04-19T15:10:11.809Z</time></trkpt><trkpt lat="44.6113737" lon="10.5528865"><ele>156.0</ele><time>2026-04-19T15:10:12.809Z</time></trkpt><trkpt lat="44.6114942" lon="10.5529645"><ele>155.8</ele><time>2026-04-19T15:10:13.808Z</time></trkpt><trkpt lat="44.6116055" lon="10.5530347"><ele>155.6</ele><time>2026-04-19T15:10:14.809Z</time></trkpt><trkpt lat="44.6117107" lon="10.5530998"><ele>155.4</ele><time>2026-04-19T15:10:15.81Z</time></trkpt><trkpt lat="44.611809" lon="10.5531593"><ele>155.2</ele><time>2026-04-19T15:10:16.808Z</time></trkpt><trkpt lat="44.6119012" lon="10.553215"><ele>155.0</ele><time>2026-04-19T15:10:17.808Z</time></trkpt><trkpt lat="44.6119948" lon="10.5532718"><ele>155.0</ele><time>2026-04-19T15:10:18.806Z</time></trkpt><trkpt lat="44.6120942" lon="10.553332"><ele>155.0</ele><time>2026-04-19T15:10:19.806Z</time></trkpt><trkpt lat="44.6121985" lon="10.5533972"><ele>155.0</ele><time>2026-04-19T15:10:20.807Z</time></trkpt><trkpt lat="44.6123093" lon="10.5534652"><ele>155.0</ele><time>2026-04-19T15:10:21.808Z</time></trkpt><trkpt lat="44.6124285" lon="10.5535362"><ele>155.0</ele><time>2026-04-19T15:10:22.807Z</time></trkpt><trkpt lat="44.6125568" lon="10.553615"><ele>155.0</ele><time>2026-04-19T15:10:23.807Z</time></trkpt><trkpt lat="44.6126917" lon="10.5536977"><ele>155.0</ele><time>2026-04-19T15:10:24.808Z</time></trkpt><trkpt lat="44.612827" lon="10.5537812"><ele>155.0</ele><time>2026-04-19T15:10:25.808Z</time></trkpt><trkpt lat="44.6129548" lon="10.5538597"><ele>154.5</ele><time>2026-04-19T15:10:26.807Z</time></trkpt><trkpt lat="44.6130817" lon="10.5539397"><ele>154.0</ele><time>2026-04-19T15:10:27.806Z</time></trkpt><trkpt lat="44.6132127" lon="10.5540227"><ele>153.5</ele><time>2026-04-19T15:10:28.806Z</time></trkpt><trkpt lat="44.6133458" lon="10.5541047"><ele>153.0</ele><time>2026-04-19T15:10:29.805Z</time></trkpt><trkpt lat="44.6134785" lon="10.5541843"><ele>153.0</ele><time>2026-04-19T15:10:30.807Z</time></trkpt><trkpt lat="44.613612" lon="10.5542558"><ele>153.0</ele><time>2026-04-19T15:10:31.807Z</time></trkpt><trkpt lat="44.6137473" lon="10.554311"><ele>153.0</ele><time>2026-04-19T15:10:32.807Z</time></trkpt><trkpt lat="44.6138852" lon="10.554342"><ele>153.0</ele><time>2026-04-19T15:10:33.808Z</time></trkpt><trkpt lat="44.6140248" lon="10.5543438"><ele>153.0</ele><time>2026-04-19T15:10:34.806Z</time></trkpt><trkpt lat="44.6141667" lon="10.554323"><ele>153.0</ele><time>2026-04-19T15:10:35.806Z</time></trkpt><trkpt lat="44.6143088" lon="10.5542947"><ele>153.0</ele><time>2026-04-19T15:10:36.808Z</time></trkpt><trkpt lat="44.6144483" lon="10.5542657"><ele>153.0</ele><time>2026-04-19T15:10:37.807Z</time></trkpt><trkpt lat="44.6145862" lon="10.5542372"><ele>152.75</ele><time>2026-04-19T15:10:38.808Z</time></trkpt><trkpt lat="44.6147228" lon="10.5542073"><ele>152.5</ele><time>2026-04-19T15:10:39.809Z</time></trkpt><trkpt lat="44.6148588" lon="10.5541755"><ele>152.25</ele><time>2026-04-19T15:10:40.808Z</time></trkpt><trkpt lat="44.614997" lon="10.5541443"><ele>152.0</ele><time>2026-04-19T15:10:41.81Z</time></trkpt><trkpt lat="44.6151355" lon="10.5541113"><ele>152.0</ele><time>2026-04-19T15:10:42.809Z</time></trkpt><trkpt lat="44.6152747" lon="10.5540835"><ele>152.0</ele><time>2026-04-19T15:10:43.809Z</time></trkpt><trkpt lat="44.6154087" lon="10.5540667"><ele>152.0</ele><time>2026-04-19T15:10:44.809Z</time></trkpt><trkpt lat="44.61554" lon="10.5540637"><ele>152.0</ele><time>2026-04-19T15:10:45.809Z</time></trkpt><trkpt lat="44.6156733" lon="10.5540753"><ele>152.0</ele><time>2026-04-19T15:10:46.81Z</time></trkpt><trkpt lat="44.615807" lon="10.554101"><ele>152.0</ele><time>2026-04-19T15:10:47.809Z</time></trkpt><trkpt lat="44.6159428" lon="10.5541425"><ele>152.0</ele><time>2026-04-19T15:10:48.808Z</time></trkpt><trkpt lat="44.616082" lon="10.5541982"><ele>152.0</ele><time>2026-04-19T15:10:49.808Z</time></trkpt><trkpt lat="44.6162187" lon="10.5542553"><ele>152.0</ele><time>2026-04-19T15:10:50.806Z</time></trkpt><trkpt lat="44.6163482" lon="10.5543083"><ele>152.0</ele><time>2026-04-19T15:10:51.806Z</time></trkpt><trkpt lat="44.6164712" lon="10.5543582"><ele>152.0</ele><time>2026-04-19T15:10:52.804Z</time></trkpt><trkpt lat="44.6165868" lon="10.5544062"><ele>152.0</ele><time>2026-04-19T15:10:53.804Z</time></trkpt><trkpt lat="44.6166973" lon="10.55445"><ele>152.0</ele><time>2026-04-19T15:10:54.805Z</time></trkpt><trkpt lat="44.6168018" lon="10.5544898"><ele>152.0</ele><time>2026-04-19T15:10:55.807Z</time></trkpt><trkpt lat="44.6169013" lon="10.5545287"><ele>152.0</ele><time>2026-04-19T15:10:56.807Z</time></trkpt><trkpt lat="44.6170002" lon="10.5545648"><ele>152.0</ele><time>2026-04-19T15:10:57.807Z</time></trkpt><trkpt lat="44.617106" lon="10.55461"><ele>152.0</ele><time>2026-04-19T15:10:58.809Z</time></trkpt><trkpt lat="44.6172112" lon="10.5546622"><ele>151.6</ele><time>2026-04-19T15:10:59.807Z</time></trkpt><trkpt lat="44.617313" lon="10.554725"><ele>151.2</ele><time>2026-04-19T15:11:00.807Z</time></trkpt><trkpt lat="44.617411" lon="10.5548032"><ele>150.8</ele><time>2026-04-19T15:11:01.806Z</time></trkpt><trkpt lat="44.6174993" lon="10.5548923"><ele>150.4</ele><time>2026-04-19T15:11:02.809Z</time></trkpt><trkpt lat="44.6175787" lon="10.5549925"><ele>150.0</ele><time>2026-04-19T15:11:03.808Z</time></trkpt><trkpt lat="44.617647" lon="10.5551005"><ele>150.0</ele><time>2026-04-19T15:11:04.808Z</time></trkpt><trkpt lat="44.6177037" lon="10.5552145"><ele>150.0</ele><time>2026-04-19T15:11:05.809Z</time></trkpt><trkpt lat="44.6177502" lon="10.5553358"><ele>150.0</ele><time>2026-04-19T15:11:06.806Z</time></trkpt><trkpt lat="44.6177818" lon="10.5554673"><ele>150.0</ele><time>2026-04-19T15:11:07.807Z</time></trkpt><trkpt lat="44.617792" lon="10.5555987"><ele>150.0</ele><time>2026-04-19T15:11:08.809Z</time></trkpt><trkpt lat="44.6177818" lon="10.555721"><ele>149.16666666666666</ele><time>2026-04-19T15:11:09.807Z</time></trkpt><trkpt lat="44.617763" lon="10.5558335"><ele>148.33333333333334</ele><time>2026-04-19T15:11:10.808Z</time></trkpt><trkpt lat="44.617742" lon="10.5559357"><ele>147.5</ele><time>2026-04-19T15:11:11.81Z</time></trkpt><trkpt lat="44.6177297" lon="10.556042"><ele>146.66666666666669</ele><time>2026-04-19T15:11:12.811Z</time></trkpt><trkpt lat="44.6177318" lon="10.5561575"><ele>145.83333333333334</ele><time>2026-04-19T15:11:13.808Z</time></trkpt><trkpt lat="44.6177582" lon="10.5562827"><ele>145.0</ele><time>2026-04-19T15:11:14.808Z</time></trkpt><trkpt lat="44.6178033" lon="10.5564323"><ele>145.0</ele><time>2026-04-19T15:11:15.807Z</time></trkpt><trkpt lat="44.6178467" lon="10.5565965"><ele>145.0</ele><time>2026-04-19T15:11:16.807Z</time></trkpt><trkpt lat="44.6178743" lon="10.5567878"><ele>145.0</ele><time>2026-04-19T15:11:17.807Z</time></trkpt><trkpt lat="44.617892" lon="10.5570202"><ele>145.0</ele><time>2026-04-19T15:11:18.807Z</time></trkpt><trkpt lat="44.6179127" lon="10.5572832"><ele>144.33333333333334</ele><time>2026-04-19T15:11:19.808Z</time></trkpt><trkpt lat="44.617943" lon="10.5575407"><ele>143.66666666666666</ele><time>2026-04-19T15:11:20.81Z</time></trkpt><trkpt lat="44.6179888" lon="10.5578008"><ele>143.0</ele><time>2026-04-19T15:11:21.81Z</time></trkpt><trkpt lat="44.6180527" lon="10.5580575"><ele>141.66666666666666</ele><time>2026-04-19T15:11:22.809Z</time></trkpt><trkpt lat="44.6181368" lon="10.558314"><ele>140.33333333333334</ele><time>2026-04-19T15:11:23.81Z</time></trkpt><trkpt lat="44.61824" lon="10.5585688"><ele>139.0</ele><time>2026-04-19T15:11:24.81Z</time></trkpt><trkpt lat="44.6183582" lon="10.5588227"><ele>138.5</ele><time>2026-04-19T15:11:25.81Z</time></trkpt><trkpt lat="44.618487" lon="10.559077"><ele>138.0</ele><time>2026-04-19T15:11:26.811Z</time></trkpt><trkpt lat="44.618624" lon="10.5593335"><ele>137.5</ele><time>2026-04-19T15:11:27.809Z</time></trkpt><trkpt lat="44.6187712" lon="10.5595998"><ele>137.0</ele><time>2026-04-19T15:11:28.808Z</time></trkpt><trkpt lat="44.618922" lon="10.5598702"><ele>137.0</ele><time>2026-04-19T15:11:29.809Z</time></trkpt><trkpt lat="44.6190733" lon="10.5601403"><ele>137.0</ele><time>2026-04-19T15:11:30.81Z</time></trkpt><trkpt lat="44.6192238" lon="10.5604088"><ele>137.5</ele><time>2026-04-19T15:11:31.809Z</time></trkpt><trkpt lat="44.619372" lon="10.5606718"><ele>138.0</ele><time>2026-04-19T15:11:32.81Z</time></trkpt><trkpt lat="44.6195183" lon="10.560931"><ele>138.0</ele><time>2026-04-19T15:11:33.812Z</time></trkpt><trkpt lat="44.6196622" lon="10.5611888"><ele>138.0</ele><time>2026-04-19T15:11:34.809Z</time></trkpt><trkpt lat="44.6198037" lon="10.5614447"><ele>136.0</ele><time>2026-04-19T15:11:35.809Z</time></trkpt><trkpt lat="44.6199442" lon="10.5616975"><ele>134.0</ele><time>2026-04-19T15:11:36.811Z</time></trkpt><trkpt lat="44.620084" lon="10.5619468"><ele>133.66666666666666</ele><time>2026-04-19T15:11:37.809Z</time></trkpt><trkpt lat="44.6202237" lon="10.5621922"><ele>133.33333333333334</ele><time>2026-04-19T15:11:38.808Z</time></trkpt><trkpt lat="44.6203618" lon="10.5624308"><ele>133.0</ele><time>2026-04-19T15:11:39.807Z</time></trkpt><trkpt lat="44.6204942" lon="10.5626563"><ele>133.33333333333334</ele><time>2026-04-19T15:11:40.807Z</time></trkpt><trkpt lat="44.6206228" lon="10.562867"><ele>133.66666666666666</ele><time>2026-04-19T15:11:41.806Z</time></trkpt><trkpt lat="44.62075" lon="10.563064"><ele>134.0</ele><time>2026-04-19T15:11:42.808Z</time></trkpt><trkpt lat="44.6208785" lon="10.5632515"><ele>134.0</ele><time>2026-04-19T15:11:43.81Z</time></trkpt><trkpt lat="44.6210083" lon="10.563433"><ele>134.0</ele><time>2026-04-19T15:11:44.811Z</time></trkpt><trkpt lat="44.6211398" lon="10.5636105"><ele>134.0</ele><time>2026-04-19T15:11:45.811Z</time></trkpt><trkpt lat="44.621274" lon="10.5637815"><ele>132.66666666666666</ele><time>2026-04-19T15:11:46.809Z</time></trkpt><trkpt lat="44.621411" lon="10.5639427"><ele>131.33333333333334</ele><time>2026-04-19T15:11:47.808Z</time></trkpt><trkpt lat="44.6215473" lon="10.5640907"><ele>130.0</ele><time>2026-04-19T15:11:48.809Z</time></trkpt><trkpt lat="44.6216875" lon="10.5642333"><ele>130.0</ele><time>2026-04-19T15:11:49.809Z</time></trkpt><trkpt lat="44.62184" lon="10.5643743"><ele>130.0</ele><time>2026-04-19T15:11:50.81Z</time></trkpt><trkpt lat="44.622013" lon="10.5645177"><ele>130.0</ele><time>2026-04-19T15:11:51.808Z</time></trkpt><trkpt lat="44.6222042" lon="10.5646723"><ele>131.0</ele><time>2026-04-19T15:11:52.807Z</time></trkpt><trkpt lat="44.622406" lon="10.564841"><ele>132.0</ele><time>2026-04-19T15:11:53.809Z</time></trkpt><trkpt lat="44.6226155" lon="10.5650157"><ele>133.0</ele><time>2026-04-19T15:11:54.811Z</time></trkpt><trkpt lat="44.6228283" lon="10.5651857"><ele>134.0</ele><time>2026-04-19T15:11:55.811Z</time></trkpt><trkpt lat="44.6230422" lon="10.5653503"><ele>133.5</ele><time>2026-04-19T15:11:56.811Z</time></trkpt><trkpt lat="44.6232527" lon="10.5655105"><ele>133.0</ele><time>2026-04-19T15:11:57.81Z</time></trkpt><trkpt lat="44.623453" lon="10.5656625"><ele>133.0</ele><time>2026-04-19T15:11:58.809Z</time></trkpt><trkpt lat="44.623641" lon="10.5658043"><ele>133.0</ele><time>2026-04-19T15:11:59.809Z</time></trkpt><trkpt lat="44.6238173" lon="10.5659387"><ele>133.0</ele><time>2026-04-19T15:12:00.808Z</time></trkpt><trkpt lat="44.6239817" lon="10.566065"><ele>132.75</ele><time>2026-04-19T15:12:01.81Z</time></trkpt><trkpt lat="44.6241263" lon="10.5661818"><ele>132.5</ele><time>2026-04-19T15:12:02.81Z</time></trkpt><trkpt lat="44.6242498" lon="10.5662948"><ele>132.25</ele><time>2026-04-19T15:12:03.808Z</time></trkpt><trkpt lat="44.6243523" lon="10.5664097"><ele>132.0</ele><time>2026-04-19T15:12:04.805Z</time></trkpt><trkpt lat="44.6244307" lon="10.5665348"><ele>131.75</ele><time>2026-04-19T15:12:05.806Z</time></trkpt><trkpt lat="44.6244778" lon="10.5666755"><ele>131.5</ele><time>2026-04-19T15:12:06.805Z</time></trkpt><trkpt lat="44.6244967" lon="10.5668353"><ele>131.25</ele><time>2026-04-19T15:12:07.806Z</time></trkpt><trkpt lat="44.6244798" lon="10.5669963"><ele>131.0</ele><time>2026-04-19T15:12:08.811Z</time></trkpt><trkpt lat="44.6244263" lon="10.5671592"><ele>130.0</ele><time>2026-04-19T15:12:09.807Z</time></trkpt><trkpt lat="44.6243398" lon="10.5673397"><ele>129.0</ele><time>2026-04-19T15:12:10.807Z</time></trkpt><trkpt lat="44.62424" lon="10.5675387"><ele>128.0</ele><time>2026-04-19T15:12:11.808Z</time></trkpt><trkpt lat="44.6241348" lon="10.5677445"><ele>128.0</ele><time>2026-04-19T15:12:12.809Z</time></trkpt><trkpt lat="44.6240322" lon="10.5679458"><ele>128.0</ele><time>2026-04-19T15:12:13.807Z</time></trkpt><trkpt lat="44.6239362" lon="10.5681377"><ele>128.0</ele><time>2026-04-19T15:12:14.81Z</time></trkpt><trkpt lat="44.6238445" lon="10.5683167"><ele>128.0</ele><time>2026-04-19T15:12:15.808Z</time></trkpt><trkpt lat="44.6237565" lon="10.5684883"><ele>128.0</ele><time>2026-04-19T15:12:16.808Z</time></trkpt><trkpt lat="44.6236673" lon="10.5686625"><ele>128.0</ele><time>2026-04-19T15:12:17.812Z</time></trkpt><trkpt lat="44.6235777" lon="10.5688423"><ele>129.66666666666666</ele><time>2026-04-19T15:12:18.81Z</time></trkpt><trkpt lat="44.6234885" lon="10.5690267"><ele>131.33333333333334</ele><time>2026-04-19T15:12:19.809Z</time></trkpt><trkpt lat="44.6234057" lon="10.569211"><ele>133.0</ele><time>2026-04-19T15:12:20.809Z</time></trkpt><trkpt lat="44.6233348" lon="10.5693908"><ele>132.75</ele><time>2026-04-19T15:12:21.81Z</time></trkpt><trkpt lat="44.6232752" lon="10.5695648"><ele>132.5</ele><time>2026-04-19T15:12:22.812Z</time></trkpt><trkpt lat="44.6232238" lon="10.569733"><ele>132.25</ele><time>2026-04-19T15:12:23.81Z</time></trkpt><trkpt lat="44.6231772" lon="10.5698923"><ele>132.0</ele><time>2026-04-19T15:12:24.808Z</time></trkpt><trkpt lat="44.6231308" lon="10.570047"><ele>132.0</ele><time>2026-04-19T15:12:25.809Z</time></trkpt><trkpt lat="44.6230823" lon="10.570204"><ele>132.0</ele><time>2026-04-19T15:12:26.809Z</time></trkpt><trkpt lat="44.623032" lon="10.5703642"><ele>132.0</ele><time>2026-04-19T15:12:27.809Z</time></trkpt><trkpt lat="44.6229835" lon="10.5705252"><ele>132.0</ele><time>2026-04-19T15:12:28.803Z</time></trkpt><trkpt lat="44.6229367" lon="10.5706857"><ele>132.25</ele><time>2026-04-19T15:12:29.805Z</time></trkpt><trkpt lat="44.6228898" lon="10.5708472"><ele>132.5</ele><time>2026-04-19T15:12:30.802Z</time></trkpt><trkpt lat="44.6228407" lon="10.5710145"><ele>132.75</ele><time>2026-04-19T15:12:31.801Z</time></trkpt><trkpt lat="44.6227882" lon="10.5711915"><ele>133.0</ele><time>2026-04-19T15:12:32.801Z</time></trkpt><trkpt lat="44.6227338" lon="10.5713765"><ele>134.0</ele><time>2026-04-19T15:12:33.803Z</time></trkpt><trkpt lat="44.6226767" lon="10.5715702"><ele>135.0</ele><time>2026-04-19T15:12:34.805Z</time></trkpt><trkpt lat="44.622614" lon="10.5717758"><ele>136.0</ele><time>2026-04-19T15:12:35.805Z</time></trkpt><trkpt lat="44.622551" lon="10.571983"><ele>136.5</ele><time>2026-04-19T15:12:36.805Z</time></trkpt><trkpt lat="44.622492" lon="10.5721808"><ele>137.0</ele><time>2026-04-19T15:12:37.806Z</time></trkpt><trkpt lat="44.622438" lon="10.5723668"><ele>137.5</ele><time>2026-04-19T15:12:38.807Z</time></trkpt><trkpt lat="44.6223883" lon="10.5725357"><ele>138.0</ele><time>2026-04-19T15:12:39.806Z</time></trkpt><trkpt lat="44.6223423" lon="10.5726937"><ele>138.0</ele><time>2026-04-19T15:12:40.806Z</time></trkpt><trkpt lat="44.622301" lon="10.5728395"><ele>138.0</ele><time>2026-04-19T15:12:41.807Z</time></trkpt><trkpt lat="44.6222625" lon="10.5729675"><ele>138.0</ele><time>2026-04-19T15:12:42.807Z</time></trkpt><trkpt lat="44.6222285" lon="10.573087"><ele>138.0</ele><time>2026-04-19T15:12:43.808Z</time></trkpt><trkpt lat="44.6221985" lon="10.5731958"><ele>138.0</ele><time>2026-04-19T15:12:44.81Z</time></trkpt><trkpt lat="44.622169" lon="10.5733028"><ele>137.8</ele><time>2026-04-19T15:12:45.808Z</time></trkpt><trkpt lat="44.622141" lon="10.5734072"><ele>137.60000000000002</ele><time>2026-04-19T15:12:46.806Z</time></trkpt><trkpt lat="44.6221148" lon="10.5735585"><ele>137.39999999999998</ele><time>2026-04-19T15:12:48.809Z</time></trkpt><trkpt lat="44.6220957" lon="10.5736795"><ele>137.2</ele><time>2026-04-19T15:12:50.81Z</time></trkpt><trkpt lat="44.622059" lon="10.5737985"><ele>137.0</ele><time>2026-04-19T15:12:52.806Z</time></trkpt><trkpt lat="44.6220233" lon="10.5738983"><ele>137.0</ele><time>2026-04-19T15:12:53.806Z</time></trkpt><trkpt lat="44.6219838" lon="10.5740185"><ele>137.0</ele><time>2026-04-19T15:12:54.806Z</time></trkpt><trkpt lat="44.6219315" lon="10.5741778"><ele>137.0</ele><time>2026-04-19T15:12:55.806Z</time></trkpt><trkpt lat="44.6218698" lon="10.574361"><ele>137.0</ele><time>2026-04-19T15:12:56.806Z</time></trkpt><trkpt lat="44.6218097" lon="10.5745485"><ele>137.75</ele><time>2026-04-19T15:12:57.806Z</time></trkpt><trkpt lat="44.6217523" lon="10.5747252"><ele>138.5</ele><time>2026-04-19T15:12:58.806Z</time></trkpt><trkpt lat="44.6217013" lon="10.574894"><ele>139.25</ele><time>2026-04-19T15:12:59.807Z</time></trkpt><trkpt lat="44.621655" lon="10.5750602"><ele>140.0</ele><time>2026-04-19T15:13:00.807Z</time></trkpt><trkpt lat="44.621616" lon="10.5752297"><ele>140.0</ele><time>2026-04-19T15:13:01.807Z</time></trkpt><trkpt lat="44.6215907" lon="10.5754022"><ele>140.0</ele><time>2026-04-19T15:13:02.807Z</time></trkpt><trkpt lat="44.6215765" lon="10.5755802"><ele>140.0</ele><time>2026-04-19T15:13:03.807Z</time></trkpt><trkpt lat="44.6215687" lon="10.575761"><ele>140.0</ele><time>2026-04-19T15:13:04.808Z</time></trkpt><trkpt lat="44.6215647" lon="10.5759418"><ele>140.0</ele><time>2026-04-19T15:13:05.808Z</time></trkpt><trkpt lat="44.6215602" lon="10.5761197"><ele>140.0</ele><time>2026-04-19T15:13:06.807Z</time></trkpt><trkpt lat="44.6215582" lon="10.5762983"><ele>140.0</ele><time>2026-04-19T15:13:07.807Z</time></trkpt><trkpt lat="44.6215573" lon="10.5764842"><ele>140.0</ele><time>2026-04-19T15:13:08.81Z</time></trkpt><trkpt lat="44.6215603" lon="10.5766983"><ele>140.0</ele><time>2026-04-19T15:13:09.809Z</time></trkpt><trkpt lat="44.621563" lon="10.5769482"><ele>140.0</ele><time>2026-04-19T15:13:10.805Z</time></trkpt><trkpt lat="44.6215568" lon="10.5772288"><ele>140.0</ele><time>2026-04-19T15:13:11.806Z</time></trkpt><trkpt lat="44.6215433" lon="10.5775372"><ele>140.33333333333331</ele><time>2026-04-19T15:13:12.806Z</time></trkpt><trkpt lat="44.6215327" lon="10.577841"><ele>140.66666666666666</ele><time>2026-04-19T15:13:13.806Z</time></trkpt><trkpt lat="44.6215283" lon="10.5781507"><ele>141.0</ele><time>2026-04-19T15:13:14.807Z</time></trkpt><trkpt lat="44.6215232" lon="10.5784702"><ele>141.33333333333334</ele><time>2026-04-19T15:13:15.807Z</time></trkpt><trkpt lat="44.6215182" lon="10.5787822"><ele>141.66666666666669</ele><time>2026-04-19T15:13:16.806Z</time></trkpt><trkpt lat="44.6215142" lon="10.5790928"><ele>142.0</ele><time>2026-04-19T15:13:17.804Z</time></trkpt><trkpt lat="44.6215108" lon="10.5794057"><ele>141.0</ele><time>2026-04-19T15:13:18.803Z</time></trkpt><trkpt lat="44.6215078" lon="10.5797168"><ele>140.0</ele><time>2026-04-19T15:13:19.804Z</time></trkpt><trkpt lat="44.6215043" lon="10.5800232"><ele>139.0</ele><time>2026-04-19T15:13:20.806Z</time></trkpt><trkpt lat="44.6214998" lon="10.5803238"><ele>139.33333333333334</ele><time>2026-04-19T15:13:21.807Z</time></trkpt><trkpt lat="44.6214933" lon="10.5806175"><ele>139.66666666666666</ele><time>2026-04-19T15:13:22.808Z</time></trkpt><trkpt lat="44.6214885" lon="10.5809022"><ele>140.0</ele><time>2026-04-19T15:13:23.809Z</time></trkpt><trkpt lat="44.6214855" lon="10.5811838"><ele>141.0</ele><time>2026-04-19T15:13:24.809Z</time></trkpt><trkpt lat="44.621489" lon="10.5814647"><ele>142.0</ele><time>2026-04-19T15:13:25.808Z</time></trkpt><trkpt lat="44.6215082" lon="10.581747"><ele>143.0</ele><time>2026-04-19T15:13:26.809Z</time></trkpt><trkpt lat="44.6215475" lon="10.5820328"><ele>143.33333333333331</ele><time>2026-04-19T15:13:27.806Z</time></trkpt><trkpt lat="44.6216043" lon="10.5823178"><ele>143.66666666666666</ele><time>2026-04-19T15:13:28.807Z</time></trkpt><trkpt lat="44.6216637" lon="10.5826053"><ele>144.0</ele><time>2026-04-19T15:13:29.807Z</time></trkpt><trkpt lat="44.6217237" lon="10.5828945"><ele>144.0</ele><time>2026-04-19T15:13:30.806Z</time></trkpt><trkpt lat="44.6217855" lon="10.5831833"><ele>144.0</ele><time>2026-04-19T15:13:31.806Z</time></trkpt><trkpt lat="44.6218477" lon="10.5834707"><ele>144.0</ele><time>2026-04-19T15:13:32.807Z</time></trkpt><trkpt lat="44.6219092" lon="10.5837592"><ele>143.66666666666666</ele><time>2026-04-19T15:13:33.807Z</time></trkpt><trkpt lat="44.621972" lon="10.584048"><ele>143.33333333333331</ele><time>2026-04-19T15:13:34.808Z</time></trkpt><trkpt lat="44.6220352" lon="10.5843433"><ele>143.0</ele><time>2026-04-19T15:13:35.81Z</time></trkpt><trkpt lat="44.6220998" lon="10.5846455"><ele>141.0</ele><time>2026-04-19T15:13:36.809Z</time></trkpt><trkpt lat="44.622165" lon="10.5849498"><ele>139.0</ele><time>2026-04-19T15:13:37.812Z</time></trkpt><trkpt lat="44.6222257" lon="10.585253"><ele>139.33333333333334</ele><time>2026-04-19T15:13:38.809Z</time></trkpt><trkpt lat="44.6222838" lon="10.5855388"><ele>139.66666666666666</ele><time>2026-04-19T15:13:39.807Z</time></trkpt><trkpt lat="44.62234" lon="10.5858085"><ele>140.0</ele><time>2026-04-19T15:13:40.806Z</time></trkpt><trkpt lat="44.6223957" lon="10.586062"><ele>140.33333333333331</ele><time>2026-04-19T15:13:41.807Z</time></trkpt><trkpt lat="44.622457" lon="10.5863003"><ele>140.66666666666666</ele><time>2026-04-19T15:13:42.804Z</time></trkpt><trkpt lat="44.622539" lon="10.5865218"><ele>141.0</ele><time>2026-04-19T15:13:43.804Z</time></trkpt><trkpt lat="44.6226502" lon="10.5867232"><ele>141.0</ele><time>2026-04-19T15:13:44.807Z</time></trkpt><trkpt lat="44.6227928" lon="10.5868955"><ele>141.0</ele><time>2026-04-19T15:13:45.805Z</time></trkpt><trkpt lat="44.6229618" lon="10.5870272"><ele>141.0</ele><time>2026-04-19T15:13:46.807Z</time></trkpt><trkpt lat="44.6231412" lon="10.5871095"><ele>142.0</ele><time>2026-04-19T15:13:47.808Z</time></trkpt><trkpt lat="44.6233122" lon="10.5871605"><ele>143.0</ele><time>2026-04-19T15:13:48.806Z</time></trkpt><trkpt lat="44.6234657" lon="10.5872067"><ele>144.0</ele><time>2026-04-19T15:13:49.807Z</time></trkpt><trkpt lat="44.623601" lon="10.5872603"><ele>142.5</ele><time>2026-04-19T15:13:50.807Z</time></trkpt><trkpt lat="44.6237228" lon="10.5873288"><ele>141.0</ele><time>2026-04-19T15:13:51.807Z</time></trkpt><trkpt lat="44.6238308" lon="10.5874125"><ele>139.5</ele><time>2026-04-19T15:13:52.806Z</time></trkpt><trkpt lat="44.6239332" lon="10.5875217"><ele>138.0</ele><time>2026-04-19T15:13:53.808Z</time></trkpt><trkpt lat="44.6240272" lon="10.587661"><ele>138.0</ele><time>2026-04-19T15:13:54.808Z</time></trkpt><trkpt lat="44.624106" lon="10.5878277"><ele>138.0</ele><time>2026-04-19T15:13:55.811Z</time></trkpt><trkpt lat="44.6241703" lon="10.5880135"><ele>138.0</ele><time>2026-04-19T15:13:56.81Z</time></trkpt><trkpt lat="44.6242245" lon="10.5882083"><ele>138.0</ele><time>2026-04-19T15:13:57.807Z</time></trkpt><trkpt lat="44.6242728" lon="10.5884045"><ele>140.0</ele><time>2026-04-19T15:13:58.806Z</time></trkpt><trkpt lat="44.6243257" lon="10.5886102"><ele>142.0</ele><time>2026-04-19T15:13:59.806Z</time></trkpt><trkpt lat="44.6243852" lon="10.5888325"><ele>144.0</ele><time>2026-04-19T15:14:00.809Z</time></trkpt><trkpt lat="44.62444" lon="10.5890483"><ele>142.66666666666666</ele><time>2026-04-19T15:14:01.806Z</time></trkpt><trkpt lat="44.6244898" lon="10.5892562"><ele>141.33333333333331</ele><time>2026-04-19T15:14:02.809Z</time></trkpt><trkpt lat="44.6245373" lon="10.5894647"><ele>140.0</ele><time>2026-04-19T15:14:03.808Z</time></trkpt><trkpt lat="44.624582" lon="10.5896755"><ele>140.0</ele><time>2026-04-19T15:14:04.807Z</time></trkpt><trkpt lat="44.624626" lon="10.5898872"><ele>140.0</ele><time>2026-04-19T15:14:05.812Z</time></trkpt><trkpt lat="44.6246672" lon="10.5900985"><ele>140.0</ele><time>2026-04-19T15:14:06.806Z</time></trkpt><trkpt lat="44.6247017" lon="10.5903098"><ele>141.33333333333331</ele><time>2026-04-19T15:14:07.805Z</time></trkpt><trkpt lat="44.624726" lon="10.5905307"><ele>142.66666666666666</ele><time>2026-04-19T15:14:08.805Z</time></trkpt><trkpt lat="44.6247317" lon="10.5907485"><ele>144.0</ele><time>2026-04-19T15:14:09.805Z</time></trkpt><trkpt lat="44.6247183" lon="10.5909533"><ele>144.0</ele><time>2026-04-19T15:14:10.808Z</time></trkpt><trkpt lat="44.6246902" lon="10.5911437"><ele>144.0</ele><time>2026-04-19T15:14:11.809Z</time></trkpt><trkpt lat="44.6246543" lon="10.5913115"><ele>144.0</ele><time>2026-04-19T15:14:12.807Z</time></trkpt><trkpt lat="44.624614" lon="10.5914638"><ele>144.0</ele><time>2026-04-19T15:14:13.809Z</time></trkpt><trkpt lat="44.6245725" lon="10.5916022"><ele>144.2</ele><time>2026-04-19T15:14:14.809Z</time></trkpt><trkpt lat="44.6245337" lon="10.5917248"><ele>144.4</ele><time>2026-04-19T15:14:15.809Z</time></trkpt><trkpt lat="44.624501" lon="10.5918273"><ele>144.6</ele><time>2026-04-19T15:14:16.808Z</time></trkpt><trkpt lat="44.6244698" lon="10.5919135"><ele>144.8</ele><time>2026-04-19T15:14:17.809Z</time></trkpt><trkpt lat="44.6244183" lon="10.5920612"><ele>145.0</ele><time>2026-04-19T15:14:19.807Z</time></trkpt><trkpt lat="44.624473" lon="10.5921648"><ele>144.83333333333334</ele><time>2026-04-19T15:14:21.806Z</time></trkpt><trkpt lat="44.6245327" lon="10.5922043"><ele>144.66666666666669</ele><time>2026-04-19T15:14:22.808Z</time></trkpt><trkpt lat="44.6246003" lon="10.5922532"><ele>144.5</ele><time>2026-04-19T15:14:23.809Z</time></trkpt><trkpt lat="44.6246557" lon="10.5922982"><ele>144.33333333333334</ele><time>2026-04-19T15:14:24.807Z</time></trkpt><trkpt lat="44.6247118" lon="10.592344"><ele>144.16666666666666</ele><time>2026-04-19T15:14:25.806Z</time></trkpt><trkpt lat="44.624798" lon="10.5924135"><ele>144.0</ele><time>2026-04-19T15:14:26.807Z</time></trkpt><trkpt lat="44.6249058" lon="10.5924975"><ele>144.0</ele><time>2026-04-19T15:14:27.805Z</time></trkpt><trkpt lat="44.625034" lon="10.5925988"><ele>144.0</ele><time>2026-04-19T15:14:28.806Z</time></trkpt><trkpt lat="44.6251752" lon="10.5927012"><ele>144.0</ele><time>2026-04-19T15:14:29.806Z</time></trkpt><trkpt lat="44.625314" lon="10.592803"><ele>143.5</ele><time>2026-04-19T15:14:30.803Z</time></trkpt><trkpt lat="44.6254458" lon="10.5928968"><ele>143.0</ele><time>2026-04-19T15:14:31.801Z</time></trkpt><trkpt lat="44.6255705" lon="10.5929812"><ele>142.5</ele><time>2026-04-19T15:14:32.804Z</time></trkpt><trkpt lat="44.6256905" lon="10.5930483"><ele>142.0</ele><time>2026-04-19T15:14:33.801Z</time></trkpt><trkpt lat="44.6258133" lon="10.5931087"><ele>142.0</ele><time>2026-04-19T15:14:34.804Z</time></trkpt><trkpt lat="44.6259443" lon="10.5931683"><ele>142.0</ele><time>2026-04-19T15:14:35.806Z</time></trkpt><trkpt lat="44.6260763" lon="10.5932233"><ele>142.0</ele><time>2026-04-19T15:14:36.807Z</time></trkpt><trkpt lat="44.626208" lon="10.5932825"><ele>142.0</ele><time>2026-04-19T15:14:37.806Z</time></trkpt><trkpt lat="44.626341" lon="10.5933495"><ele>141.0</ele><time>2026-04-19T15:14:38.806Z</time></trkpt><trkpt lat="44.6264772" lon="10.5934248"><ele>140.0</ele><time>2026-04-19T15:14:39.806Z</time></trkpt><trkpt lat="44.6266225" lon="10.5935092"><ele>139.0</ele><time>2026-04-19T15:14:40.806Z</time></trkpt><trkpt lat="44.6267633" lon="10.5935918"><ele>140.33333333333334</ele><time>2026-04-19T15:14:41.806Z</time></trkpt><trkpt lat="44.6269" lon="10.5936747"><ele>141.66666666666666</ele><time>2026-04-19T15:14:42.805Z</time></trkpt><trkpt lat="44.6270388" lon="10.5937593"><ele>143.0</ele><time>2026-04-19T15:14:43.804Z</time></trkpt><trkpt lat="44.62718" lon="10.5938455"><ele>143.0</ele><time>2026-04-19T15:14:44.807Z</time></trkpt><trkpt lat="44.6273187" lon="10.5939323"><ele>143.0</ele><time>2026-04-19T15:14:45.804Z</time></trkpt><trkpt lat="44.6274537" lon="10.5940198"><ele>143.0</ele><time>2026-04-19T15:14:46.805Z</time></trkpt><trkpt lat="44.6275832" lon="10.5941088"><ele>143.0</ele><time>2026-04-19T15:14:47.805Z</time></trkpt><trkpt lat="44.627707" lon="10.5941898"><ele>142.25</ele><time>2026-04-19T15:14:48.804Z</time></trkpt><trkpt lat="44.6278283" lon="10.5942758"><ele>141.5</ele><time>2026-04-19T15:14:49.805Z</time></trkpt><trkpt lat="44.6279435" lon="10.5943547"><ele>140.75</ele><time>2026-04-19T15:14:50.805Z</time></trkpt><trkpt lat="44.6280522" lon="10.5944317"><ele>140.0</ele><time>2026-04-19T15:14:51.804Z</time></trkpt><trkpt lat="44.6281562" lon="10.5945057"><ele>139.75</ele><time>2026-04-19T15:14:52.803Z</time></trkpt><trkpt lat="44.6282618" lon="10.5945855"><ele>139.5</ele><time>2026-04-19T15:14:53.803Z</time></trkpt><trkpt lat="44.6283775" lon="10.5946682"><ele>139.25</ele><time>2026-04-19T15:14:54.804Z</time></trkpt><trkpt lat="44.6284932" lon="10.5947618"><ele>139.0</ele><time>2026-04-19T15:14:55.803Z</time></trkpt><trkpt lat="44.6286008" lon="10.5948698"><ele>138.75</ele><time>2026-04-19T15:14:56.803Z</time></trkpt><trkpt lat="44.6287073" lon="10.5950007"><ele>138.5</ele><time>2026-04-19T15:14:57.804Z</time></trkpt><trkpt lat="44.6288167" lon="10.5951428"><ele>138.25</ele><time>2026-04-19T15:14:58.802Z</time></trkpt><trkpt lat="44.6289322" lon="10.5952952"><ele>138.0</ele><time>2026-04-19T15:14:59.804Z</time></trkpt><trkpt lat="44.6290472" lon="10.5954538"><ele>137.75</ele><time>2026-04-19T15:15:00.805Z</time></trkpt><trkpt lat="44.6291577" lon="10.5956082"><ele>137.5</ele><time>2026-04-19T15:15:01.803Z</time></trkpt><trkpt lat="44.6292612" lon="10.5957548"><ele>137.25</ele><time>2026-04-19T15:15:02.806Z</time></trkpt><trkpt lat="44.6293562" lon="10.5958943"><ele>137.0</ele><time>2026-04-19T15:15:03.804Z</time></trkpt><trkpt lat="44.6294423" lon="10.5960292"><ele>136.0</ele><time>2026-04-19T15:15:04.804Z</time></trkpt><trkpt lat="44.6295297" lon="10.5961763"><ele>135.0</ele><time>2026-04-19T15:15:05.805Z</time></trkpt><trkpt lat="44.6296177" lon="10.5963393"><ele>134.0</ele><time>2026-04-19T15:15:06.804Z</time></trkpt><trkpt lat="44.6297017" lon="10.5965158"><ele>133.0</ele><time>2026-04-19T15:15:07.806Z</time></trkpt><trkpt lat="44.6297897" lon="10.5967097"><ele>133.0</ele><time>2026-04-19T15:15:08.806Z</time></trkpt><trkpt lat="44.6298858" lon="10.5969173"><ele>133.0</ele><time>2026-04-19T15:15:09.804Z</time></trkpt><trkpt lat="44.62998" lon="10.5971235"><ele>133.0</ele><time>2026-04-19T15:15:10.804Z</time></trkpt><trkpt lat="44.6300728" lon="10.5973233"><ele>132.33333333333334</ele><time>2026-04-19T15:15:11.804Z</time></trkpt><trkpt lat="44.630168" lon="10.5975132"><ele>131.66666666666666</ele><time>2026-04-19T15:15:12.805Z</time></trkpt><trkpt lat="44.6302758" lon="10.5976925"><ele>131.0</ele><time>2026-04-19T15:15:13.805Z</time></trkpt><trkpt lat="44.6304032" lon="10.597854"><ele>129.66666666666666</ele><time>2026-04-19T15:15:14.806Z</time></trkpt><trkpt lat="44.6305455" lon="10.5979888"><ele>128.33333333333334</ele><time>2026-04-19T15:15:15.806Z</time></trkpt><trkpt lat="44.6307018" lon="10.5980938"><ele>127.0</ele><time>2026-04-19T15:15:16.803Z</time></trkpt><trkpt lat="44.6308558" lon="10.5981923"><ele>127.0</ele><time>2026-04-19T15:15:17.806Z</time></trkpt><trkpt lat="44.630998" lon="10.5982852"><ele>127.0</ele><time>2026-04-19T15:15:18.805Z</time></trkpt><trkpt lat="44.6311357" lon="10.598389"><ele>127.0</ele><time>2026-04-19T15:15:19.807Z</time></trkpt><trkpt lat="44.6312695" lon="10.5985057"><ele>127.0</ele><time>2026-04-19T15:15:20.806Z</time></trkpt><trkpt lat="44.6313968" lon="10.5986217"><ele>127.0</ele><time>2026-04-19T15:15:21.804Z</time></trkpt><trkpt lat="44.6315202" lon="10.5987313"><ele>127.0</ele><time>2026-04-19T15:15:22.804Z</time></trkpt><trkpt lat="44.6316468" lon="10.59884"><ele>127.0</ele><time>2026-04-19T15:15:23.803Z</time></trkpt><trkpt lat="44.6317763" lon="10.5989472"><ele>126.75</ele><time>2026-04-19T15:15:24.806Z</time></trkpt><trkpt lat="44.6319075" lon="10.5990517"><ele>126.5</ele><time>2026-04-19T15:15:25.806Z</time></trkpt><trkpt lat="44.6320248" lon="10.5991442"><ele>126.25</ele><time>2026-04-19T15:15:26.807Z</time></trkpt><trkpt lat="44.6321288" lon="10.5992287"><ele>126.0</ele><time>2026-04-19T15:15:27.807Z</time></trkpt><trkpt lat="44.6322348" lon="10.5993177"><ele>126.0</ele><time>2026-04-19T15:15:28.807Z</time></trkpt><trkpt lat="44.6323457" lon="10.599409"><ele>126.0</ele><time>2026-04-19T15:15:29.807Z</time></trkpt><trkpt lat="44.6324653" lon="10.599504"><ele>126.0</ele><time>2026-04-19T15:15:30.807Z</time></trkpt><trkpt lat="44.6325908" lon="10.5996017"><ele>126.0</ele><time>2026-04-19T15:15:31.806Z</time></trkpt><trkpt lat="44.6327232" lon="10.599706"><ele>125.0</ele><time>2026-04-19T15:15:32.805Z</time></trkpt><trkpt lat="44.6328598" lon="10.5998128"><ele>124.0</ele><time>2026-04-19T15:15:33.805Z</time></trkpt><trkpt lat="44.6330012" lon="10.59992"><ele>123.0</ele><time>2026-04-19T15:15:34.808Z</time></trkpt><trkpt lat="44.6331442" lon="10.6000263"><ele>123.0</ele><time>2026-04-19T15:15:35.806Z</time></trkpt><trkpt lat="44.6332885" lon="10.6001317"><ele>123.0</ele><time>2026-04-19T15:15:36.806Z</time></trkpt><trkpt lat="44.6334385" lon="10.600235"><ele>123.0</ele><time>2026-04-19T15:15:37.82Z</time></trkpt><trkpt lat="44.633589" lon="10.6003357"><ele>122.33333333333334</ele><time>2026-04-19T15:15:38.806Z</time></trkpt><trkpt lat="44.6337385" lon="10.6004363"><ele>121.66666666666667</ele><time>2026-04-19T15:15:39.805Z</time></trkpt><trkpt lat="44.6338893" lon="10.6005352"><ele>121.0</ele><time>2026-04-19T15:15:40.804Z</time></trkpt><trkpt lat="44.6340412" lon="10.6006333"><ele>121.0</ele><time>2026-04-19T15:15:41.806Z</time></trkpt><trkpt lat="44.6341898" lon="10.6007328"><ele>121.0</ele><time>2026-04-19T15:15:42.806Z</time></trkpt><trkpt lat="44.6343345" lon="10.600839"><ele>121.0</ele><time>2026-04-19T15:15:43.805Z</time></trkpt><trkpt lat="44.6344798" lon="10.6009442"><ele>119.66666666666667</ele><time>2026-04-19T15:15:44.805Z</time></trkpt><trkpt lat="44.6346287" lon="10.6010463"><ele>118.33333333333334</ele><time>2026-04-19T15:15:45.802Z</time></trkpt><trkpt lat="44.6347752" lon="10.6011462"><ele>117.0</ele><time>2026-04-19T15:15:46.802Z</time></trkpt><trkpt lat="44.6349142" lon="10.6012442"><ele>117.0</ele><time>2026-04-19T15:15:47.803Z</time></trkpt><trkpt lat="44.6350498" lon="10.6013403"><ele>117.0</ele><time>2026-04-19T15:15:48.805Z</time></trkpt><trkpt lat="44.6351887" lon="10.601438"><ele>117.0</ele><time>2026-04-19T15:15:49.807Z</time></trkpt><trkpt lat="44.635337" lon="10.6015295"><ele>116.66666666666666</ele><time>2026-04-19T15:15:50.806Z</time></trkpt><trkpt lat="44.6354963" lon="10.601599"><ele>116.33333333333333</ele><time>2026-04-19T15:15:51.807Z</time></trkpt><trkpt lat="44.6356735" lon="10.60164"><ele>116.0</ele><time>2026-04-19T15:15:52.807Z</time></trkpt><trkpt lat="44.6358635" lon="10.6016487"><ele>116.0</ele><time>2026-04-19T15:15:53.809Z</time></trkpt><trkpt lat="44.6360513" lon="10.6016323"><ele>116.0</ele><time>2026-04-19T15:15:54.808Z</time></trkpt><trkpt lat="44.636233" lon="10.6016113"><ele>116.0</ele><time>2026-04-19T15:15:55.806Z</time></trkpt><trkpt lat="44.6364192" lon="10.6016165"><ele>116.0</ele><time>2026-04-19T15:15:56.807Z</time></trkpt><trkpt lat="44.6366117" lon="10.6016623"><ele>116.0</ele><time>2026-04-19T15:15:57.808Z</time></trkpt><trkpt lat="44.6368043" lon="10.6017505"><ele>116.0</ele><time>2026-04-19T15:15:58.808Z</time></trkpt><trkpt lat="44.6369965" lon="10.6018658"><ele>116.0</ele><time>2026-04-19T15:15:59.81Z</time></trkpt><trkpt lat="44.6371802" lon="10.6019882"><ele>116.0</ele><time>2026-04-19T15:16:00.807Z</time></trkpt><trkpt lat="44.6373642" lon="10.6021165"><ele>116.0</ele><time>2026-04-19T15:16:01.806Z</time></trkpt><trkpt lat="44.6375575" lon="10.6022602"><ele>116.0</ele><time>2026-04-19T15:16:02.805Z</time></trkpt><trkpt lat="44.637765" lon="10.6024155"><ele>116.0</ele><time>2026-04-19T15:16:03.805Z</time></trkpt><trkpt lat="44.6379842" lon="10.602581"><ele>115.5</ele><time>2026-04-19T15:16:04.806Z</time></trkpt><trkpt lat="44.6382027" lon="10.6027412"><ele>115.0</ele><time>2026-04-19T15:16:05.806Z</time></trkpt><trkpt lat="44.6384143" lon="10.6028963"><ele>115.0</ele><time>2026-04-19T15:16:06.806Z</time></trkpt><trkpt lat="44.6386192" lon="10.603049"><ele>115.0</ele><time>2026-04-19T15:16:07.807Z</time></trkpt><trkpt lat="44.638822" lon="10.603198"><ele>115.33333333333334</ele><time>2026-04-19T15:16:08.807Z</time></trkpt><trkpt lat="44.6390217" lon="10.6033433"><ele>115.66666666666666</ele><time>2026-04-19T15:16:09.804Z</time></trkpt><trkpt lat="44.6392215" lon="10.6034867"><ele>116.0</ele><time>2026-04-19T15:16:10.805Z</time></trkpt><trkpt lat="44.639415" lon="10.603631"><ele>115.66666666666666</ele><time>2026-04-19T15:16:11.806Z</time></trkpt><trkpt lat="44.6395987" lon="10.603769"><ele>115.33333333333334</ele><time>2026-04-19T15:16:12.805Z</time></trkpt><trkpt lat="44.6397758" lon="10.6039028"><ele>115.0</ele><time>2026-04-19T15:16:13.807Z</time></trkpt><trkpt lat="44.639947" lon="10.6040302"><ele>115.0</ele><time>2026-04-19T15:16:14.805Z</time></trkpt><trkpt lat="44.6401182" lon="10.6041575"><ele>115.0</ele><time>2026-04-19T15:16:15.806Z</time></trkpt><trkpt lat="44.6402893" lon="10.6042868"><ele>115.0</ele><time>2026-04-19T15:16:16.805Z</time></trkpt><trkpt lat="44.6404492" lon="10.6044283"><ele>113.33333333333334</ele><time>2026-04-19T15:16:17.805Z</time></trkpt><trkpt lat="44.6405943" lon="10.6045892"><ele>111.66666666666666</ele><time>2026-04-19T15:16:18.806Z</time></trkpt><trkpt lat="44.6407278" lon="10.6047662"><ele>110.0</ele><time>2026-04-19T15:16:19.806Z</time></trkpt><trkpt lat="44.6408635" lon="10.6049417"><ele>110.0</ele><time>2026-04-19T15:16:20.806Z</time></trkpt><trkpt lat="44.641011" lon="10.6050955"><ele>110.0</ele><time>2026-04-19T15:16:21.806Z</time></trkpt><trkpt lat="44.641176" lon="10.6052192"><ele>110.0</ele><time>2026-04-19T15:16:22.805Z</time></trkpt><trkpt lat="44.6413643" lon="10.6053128"><ele>109.33333333333333</ele><time>2026-04-19T15:16:23.806Z</time></trkpt><trkpt lat="44.641564" lon="10.6053815"><ele>108.66666666666666</ele><time>2026-04-19T15:16:24.805Z</time></trkpt><trkpt lat="44.6417618" lon="10.6054427"><ele>108.0</ele><time>2026-04-19T15:16:25.805Z</time></trkpt><trkpt lat="44.6419518" lon="10.6054998"><ele>108.66666666666666</ele><time>2026-04-19T15:16:26.806Z</time></trkpt><trkpt lat="44.6421302" lon="10.6055618"><ele>109.33333333333333</ele><time>2026-04-19T15:16:27.807Z</time></trkpt><trkpt lat="44.6423032" lon="10.6056287"><ele>110.0</ele><time>2026-04-19T15:16:28.807Z</time></trkpt><trkpt lat="44.6424702" lon="10.6057037"><ele>110.0</ele><time>2026-04-19T15:16:29.807Z</time></trkpt><trkpt lat="44.6426315" lon="10.6057805"><ele>110.0</ele><time>2026-04-19T15:16:30.805Z</time></trkpt><trkpt lat="44.6427902" lon="10.6058517"><ele>110.0</ele><time>2026-04-19T15:16:31.804Z</time></trkpt><trkpt lat="44.6429433" lon="10.6059002"><ele>109.33333333333333</ele><time>2026-04-19T15:16:32.805Z</time></trkpt><trkpt lat="44.6430993" lon="10.605924"><ele>108.66666666666666</ele><time>2026-04-19T15:16:33.804Z</time></trkpt><trkpt lat="44.6432643" lon="10.6059373"><ele>108.0</ele><time>2026-04-19T15:16:34.804Z</time></trkpt><trkpt lat="44.6434337" lon="10.605972"><ele>108.0</ele><time>2026-04-19T15:16:35.805Z</time></trkpt><trkpt lat="44.643599" lon="10.6060465"><ele>108.0</ele><time>2026-04-19T15:16:36.805Z</time></trkpt><trkpt lat="44.6437607" lon="10.6061663"><ele>108.0</ele><time>2026-04-19T15:16:37.807Z</time></trkpt><trkpt lat="44.6439207" lon="10.6063148"><ele>108.0</ele><time>2026-04-19T15:16:38.806Z</time></trkpt><trkpt lat="44.6440722" lon="10.6064622"><ele>108.0</ele><time>2026-04-19T15:16:39.806Z</time></trkpt><trkpt lat="44.6442158" lon="10.6065993"><ele>108.0</ele><time>2026-04-19T15:16:40.805Z</time></trkpt><trkpt lat="44.6443555" lon="10.6067317"><ele>107.66666666666666</ele><time>2026-04-19T15:16:41.806Z</time></trkpt><trkpt lat="44.6444905" lon="10.6068617"><ele>107.33333333333333</ele><time>2026-04-19T15:16:42.805Z</time></trkpt><trkpt lat="44.6446218" lon="10.6069937"><ele>107.0</ele><time>2026-04-19T15:16:43.805Z</time></trkpt><trkpt lat="44.6447478" lon="10.607121"><ele>106.75</ele><time>2026-04-19T15:16:44.806Z</time></trkpt><trkpt lat="44.6448707" lon="10.6072423"><ele>106.5</ele><time>2026-04-19T15:16:45.805Z</time></trkpt><trkpt lat="44.6449835" lon="10.6073517"><ele>106.25</ele><time>2026-04-19T15:16:46.806Z</time></trkpt><trkpt lat="44.6450788" lon="10.6074495"><ele>106.0</ele><time>2026-04-19T15:16:47.807Z</time></trkpt><trkpt lat="44.6451503" lon="10.6075348"><ele>106.0</ele><time>2026-04-19T15:16:48.808Z</time></trkpt><trkpt lat="44.6451978" lon="10.6076048"><ele>106.0</ele><time>2026-04-19T15:16:49.807Z</time></trkpt><trkpt lat="44.6452385" lon="10.6076903"><ele>106.0</ele><time>2026-04-19T15:16:51.807Z</time></trkpt><trkpt lat="44.6452902" lon="10.6077862"><ele>106.0</ele><time>2026-04-19T15:16:57.808Z</time></trkpt><trkpt lat="44.6454088" lon="10.6078388"><ele>106.0</ele><time>2026-04-19T15:16:59.805Z</time></trkpt><trkpt lat="44.6455068" lon="10.6078333"><ele>105.75</ele><time>2026-04-19T15:17:00.804Z</time></trkpt><trkpt lat="44.6456148" lon="10.6078293"><ele>105.5</ele><time>2026-04-19T15:17:01.805Z</time></trkpt><trkpt lat="44.645732" lon="10.6078223"><ele>105.25</ele><time>2026-04-19T15:17:02.807Z</time></trkpt><trkpt lat="44.6458453" lon="10.6078183"><ele>105.0</ele><time>2026-04-19T15:17:03.806Z</time></trkpt><trkpt lat="44.6459642" lon="10.6078185"><ele>104.5</ele><time>2026-04-19T15:17:04.807Z</time></trkpt><trkpt lat="44.6460902" lon="10.6078278"><ele>104.0</ele><time>2026-04-19T15:17:05.807Z</time></trkpt><trkpt lat="44.646222" lon="10.6078468"><ele>103.5</ele><time>2026-04-19T15:17:06.806Z</time></trkpt><trkpt lat="44.6463655" lon="10.6078767"><ele>103.0</ele><time>2026-04-19T15:17:07.807Z</time></trkpt><trkpt lat="44.6465335" lon="10.6079173"><ele>103.0</ele><time>2026-04-19T15:17:08.808Z</time></trkpt><trkpt lat="44.6467068" lon="10.6079637"><ele>103.0</ele><time>2026-04-19T15:17:09.808Z</time></trkpt><trkpt lat="44.646877" lon="10.6080113"><ele>103.0</ele><time>2026-04-19T15:17:10.807Z</time></trkpt><trkpt lat="44.6470518" lon="10.6080593"><ele>102.33333333333334</ele><time>2026-04-19T15:17:11.808Z</time></trkpt><trkpt lat="44.6472235" lon="10.6081043"><ele>101.66666666666666</ele><time>2026-04-19T15:17:12.806Z</time></trkpt><trkpt lat="44.6473948" lon="10.6081475"><ele>101.0</ele><time>2026-04-19T15:17:13.807Z</time></trkpt><trkpt lat="44.6475658" lon="10.6081917"><ele>101.0</ele><time>2026-04-19T15:17:14.807Z</time></trkpt><trkpt lat="44.6477388" lon="10.608238"><ele>101.0</ele><time>2026-04-19T15:17:15.807Z</time></trkpt><trkpt lat="44.6479137" lon="10.608283"><ele>101.0</ele><time>2026-04-19T15:17:16.807Z</time></trkpt><trkpt lat="44.6480898" lon="10.6083277"><ele>101.33333333333333</ele><time>2026-04-19T15:17:17.805Z</time></trkpt><trkpt lat="44.6482692" lon="10.6083732"><ele>101.66666666666666</ele><time>2026-04-19T15:17:18.807Z</time></trkpt><trkpt lat="44.648451" lon="10.6084187"><ele>102.0</ele><time>2026-04-19T15:17:19.807Z</time></trkpt><trkpt lat="44.6486338" lon="10.6084652"><ele>101.33333333333334</ele><time>2026-04-19T15:17:20.805Z</time></trkpt><trkpt lat="44.648811" lon="10.6085112"><ele>100.66666666666667</ele><time>2026-04-19T15:17:21.806Z</time></trkpt><trkpt lat="44.6489785" lon="10.6085548"><ele>100.0</ele><time>2026-04-19T15:17:22.804Z</time></trkpt><trkpt lat="44.6491375" lon="10.608595"><ele>100.0</ele><time>2026-04-19T15:17:23.805Z</time></trkpt><trkpt lat="44.649286" lon="10.6086323"><ele>100.0</ele><time>2026-04-19T15:17:24.804Z</time></trkpt><trkpt lat="44.6494257" lon="10.6086715"><ele>100.0</ele><time>2026-04-19T15:17:25.804Z</time></trkpt><trkpt lat="44.649565" lon="10.608719"><ele>100.0</ele><time>2026-04-19T15:17:26.806Z</time></trkpt><trkpt lat="44.6497043" lon="10.6087788"><ele>100.33333333333334</ele><time>2026-04-19T15:17:27.807Z</time></trkpt><trkpt lat="44.6498457" lon="10.6088452"><ele>100.66666666666666</ele><time>2026-04-19T15:17:28.807Z</time></trkpt><trkpt lat="44.6499855" lon="10.6089142"><ele>101.0</ele><time>2026-04-19T15:17:29.807Z</time></trkpt><trkpt lat="44.6501415" lon="10.6089935"><ele>100.5</ele><time>2026-04-19T15:17:31.007Z</time></trkpt><trkpt lat="44.6503338" lon="10.6090885"><ele>100.0</ele><time>2026-04-19T15:17:32.615Z</time></trkpt><trkpt lat="44.6504457" lon="10.6091458"><ele>99.5</ele><time>2026-04-19T15:17:33.614Z</time></trkpt><trkpt lat="44.6505488" lon="10.6091965"><ele>99.0</ele><time>2026-04-19T15:17:34.614Z</time></trkpt><trkpt lat="44.650639" lon="10.6092365"><ele>99.0</ele><time>2026-04-19T15:17:35.614Z</time></trkpt><trkpt lat="44.6507105" lon="10.6092732"><ele>99.0</ele><time>2026-04-19T15:17:36.615Z</time></trkpt><trkpt lat="44.6507708" lon="10.60937"><ele>99.0</ele><time>2026-04-19T15:17:38.616Z</time></trkpt><trkpt lat="44.6507247" lon="10.6095173"><ele>99.0</ele><time>2026-04-19T15:17:40.617Z</time></trkpt><trkpt lat="44.6506517" lon="10.6096035"><ele>99.0</ele><time>2026-04-19T15:17:41.616Z</time></trkpt><trkpt lat="44.650564" lon="10.6097035"><ele>98.5</ele><time>2026-04-19T15:17:42.617Z</time></trkpt><trkpt lat="44.650474" lon="10.6098042"><ele>98.0</ele><time>2026-04-19T15:17:43.614Z</time></trkpt><trkpt lat="44.6503723" lon="10.6099175"><ele>97.5</ele><time>2026-04-19T15:17:44.616Z</time></trkpt><trkpt lat="44.6502592" lon="10.6100453"><ele>97.0</ele><time>2026-04-19T15:17:45.615Z</time></trkpt><trkpt lat="44.6501465" lon="10.6101793"><ele>97.0</ele><time>2026-04-19T15:17:46.616Z</time></trkpt><trkpt lat="44.6500333" lon="10.6103185"><ele>97.0</ele><time>2026-04-19T15:17:47.614Z</time></trkpt><trkpt lat="44.6499187" lon="10.6104583"><ele>97.0</ele><time>2026-04-19T15:17:48.615Z</time></trkpt><trkpt lat="44.649801" lon="10.6105947"><ele>97.0</ele><time>2026-04-19T15:17:49.621Z</time></trkpt><trkpt lat="44.6496813" lon="10.61073"><ele>97.0</ele><time>2026-04-19T15:17:50.625Z</time></trkpt><trkpt lat="44.6495612" lon="10.6108657"><ele>97.0</ele><time>2026-04-19T15:17:51.619Z</time></trkpt><trkpt lat="44.6494427" lon="10.611004"><ele>97.33333333333334</ele><time>2026-04-19T15:17:52.62Z</time></trkpt><trkpt lat="44.6493245" lon="10.611142"><ele>97.66666666666666</ele><time>2026-04-19T15:17:53.618Z</time></trkpt><trkpt lat="44.6492063" lon="10.611281"><ele>98.0</ele><time>2026-04-19T15:17:54.618Z</time></trkpt><trkpt lat="44.6490885" lon="10.6114203"><ele>97.33333333333333</ele><time>2026-04-19T15:17:55.617Z</time></trkpt><trkpt lat="44.6489692" lon="10.6115615"><ele>96.66666666666666</ele><time>2026-04-19T15:17:56.616Z</time></trkpt><trkpt lat="44.6488495" lon="10.6117023"><ele>96.0</ele><time>2026-04-19T15:17:57.614Z</time></trkpt><trkpt lat="44.6487312" lon="10.6118383"><ele>97.0</ele><time>2026-04-19T15:17:58.614Z</time></trkpt><trkpt lat="44.6486097" lon="10.612002"><ele>98.0</ele><time>2026-04-19T15:17:59.806Z</time></trkpt><trkpt lat="44.6485253" lon="10.612143"><ele>99.0</ele><time>2026-04-19T15:18:00.806Z</time></trkpt><trkpt lat="44.6484567" lon="10.6122815"><ele>100.0</ele><time>2026-04-19T15:18:01.806Z</time></trkpt><trkpt lat="44.648396" lon="10.6124138"><ele>100.0</ele><time>2026-04-19T15:18:02.805Z</time></trkpt><trkpt lat="44.64834" lon="10.6125383"><ele>100.0</ele><time>2026-04-19T15:18:03.805Z</time></trkpt><trkpt lat="44.6482842" lon="10.6126587"><ele>100.0</ele><time>2026-04-19T15:18:04.804Z</time></trkpt><trkpt lat="44.648233" lon="10.6127705"><ele>100.0</ele><time>2026-04-19T15:18:05.803Z</time></trkpt><trkpt lat="44.6481882" lon="10.6128675"><ele>100.0</ele><time>2026-04-19T15:18:06.804Z</time></trkpt><trkpt lat="44.6481507" lon="10.6129548"><ele>99.83333333333334</ele><time>2026-04-19T15:18:07.805Z</time></trkpt><trkpt lat="44.6481115" lon="10.6130338"><ele>99.66666666666667</ele><time>2026-04-19T15:18:08.804Z</time></trkpt><trkpt lat="44.6480655" lon="10.6131093"><ele>99.5</ele><time>2026-04-19T15:18:09.805Z</time></trkpt><trkpt lat="44.6480067" lon="10.613186"><ele>99.33333333333334</ele><time>2026-04-19T15:18:10.804Z</time></trkpt><trkpt lat="44.6479458" lon="10.6132785"><ele>99.16666666666667</ele><time>2026-04-19T15:18:11.805Z</time></trkpt><trkpt lat="44.6478793" lon="10.6133795"><ele>99.0</ele><time>2026-04-19T15:18:12.802Z</time></trkpt><trkpt lat="44.6478073" lon="10.6134908"><ele>98.75</ele><time>2026-04-19T15:18:13.802Z</time></trkpt><trkpt lat="44.6477338" lon="10.6136142"><ele>98.5</ele><time>2026-04-19T15:18:14.804Z</time></trkpt><trkpt lat="44.6476645" lon="10.6137442"><ele>98.25</ele><time>2026-04-19T15:18:15.804Z</time></trkpt><trkpt lat="44.6475933" lon="10.6138907"><ele>98.0</ele><time>2026-04-19T15:18:16.805Z</time></trkpt><trkpt lat="44.647522" lon="10.6140497"><ele>97.25</ele><time>2026-04-19T15:18:17.807Z</time></trkpt><trkpt lat="44.6474485" lon="10.6142143"><ele>96.5</ele><time>2026-04-19T15:18:18.807Z</time></trkpt><trkpt lat="44.6473728" lon="10.614382"><ele>95.75</ele><time>2026-04-19T15:18:19.808Z</time></trkpt><trkpt lat="44.6472867" lon="10.6145588"><ele>95.0</ele><time>2026-04-19T15:18:20.808Z</time></trkpt><trkpt lat="44.6471922" lon="10.6147395"><ele>94.75</ele><time>2026-04-19T15:18:21.806Z</time></trkpt><trkpt lat="44.6470982" lon="10.6149068"><ele>94.5</ele><time>2026-04-19T15:18:22.807Z</time></trkpt><trkpt lat="44.6470008" lon="10.615068"><ele>94.25</ele><time>2026-04-19T15:18:23.809Z</time></trkpt><trkpt lat="44.6469045" lon="10.6152207"><ele>94.0</ele><time>2026-04-19T15:18:24.807Z</time></trkpt><trkpt lat="44.6468155" lon="10.6153577"><ele>94.0</ele><time>2026-04-19T15:18:25.807Z</time></trkpt><trkpt lat="44.646734" lon="10.6154797"><ele>94.0</ele><time>2026-04-19T15:18:26.807Z</time></trkpt><trkpt lat="44.6466585" lon="10.6155935"><ele>94.0</ele><time>2026-04-19T15:18:27.807Z</time></trkpt><trkpt lat="44.6465875" lon="10.6156993"><ele>94.0</ele><time>2026-04-19T15:18:28.805Z</time></trkpt><trkpt lat="44.6465102" lon="10.615797"><ele>94.0</ele><time>2026-04-19T15:18:29.804Z</time></trkpt><trkpt lat="44.6464243" lon="10.6158898"><ele>94.0</ele><time>2026-04-19T15:18:30.802Z</time></trkpt><trkpt lat="44.6463268" lon="10.6159872"><ele>94.0</ele><time>2026-04-19T15:18:31.801Z</time></trkpt><trkpt lat="44.646216" lon="10.6160867"><ele>94.0</ele><time>2026-04-19T15:18:32.801Z</time></trkpt><trkpt lat="44.646093" lon="10.6161808"><ele>94.0</ele><time>2026-04-19T15:18:33.8Z</time></trkpt><trkpt lat="44.6459637" lon="10.6162707"><ele>94.0</ele><time>2026-04-19T15:18:34.804Z</time></trkpt><trkpt lat="44.645843" lon="10.6163673"><ele>94.0</ele><time>2026-04-19T15:18:35.804Z</time></trkpt><trkpt lat="44.6457275" lon="10.6164752"><ele>94.0</ele><time>2026-04-19T15:18:36.8Z</time></trkpt><trkpt lat="44.6456197" lon="10.616584"><ele>94.0</ele><time>2026-04-19T15:18:37.801Z</time></trkpt><trkpt lat="44.645512" lon="10.6166867"><ele>94.0</ele><time>2026-04-19T15:18:38.801Z</time></trkpt><trkpt lat="44.6453955" lon="10.6167835"><ele>94.0</ele><time>2026-04-19T15:18:39.802Z</time></trkpt><trkpt lat="44.6452878" lon="10.6168763"><ele>94.0</ele><time>2026-04-19T15:18:40.803Z</time></trkpt><trkpt lat="44.6451885" lon="10.616968"><ele>94.0</ele><time>2026-04-19T15:18:41.804Z</time></trkpt><trkpt lat="44.6451022" lon="10.6170662"><ele>93.25</ele><time>2026-04-19T15:18:42.802Z</time></trkpt><trkpt lat="44.64502" lon="10.6171798"><ele>92.5</ele><time>2026-04-19T15:18:43.804Z</time></trkpt><trkpt lat="44.644929" lon="10.6173142"><ele>91.75</ele><time>2026-04-19T15:18:44.806Z</time></trkpt><trkpt lat="44.64483" lon="10.6174647"><ele>91.0</ele><time>2026-04-19T15:18:45.805Z</time></trkpt><trkpt lat="44.6447305" lon="10.6176265"><ele>91.0</ele><time>2026-04-19T15:18:46.807Z</time></trkpt><trkpt lat="44.6446367" lon="10.6177875"><ele>91.0</ele><time>2026-04-19T15:18:47.806Z</time></trkpt><trkpt lat="44.64455" lon="10.6179373"><ele>91.0</ele><time>2026-04-19T15:18:48.805Z</time></trkpt><trkpt lat="44.6444688" lon="10.6180785"><ele>91.0</ele><time>2026-04-19T15:18:49.807Z</time></trkpt><trkpt lat="44.6443865" lon="10.6182182"><ele>91.0</ele><time>2026-04-19T15:18:50.805Z</time></trkpt><trkpt lat="44.6443032" lon="10.6183557"><ele>91.0</ele><time>2026-04-19T15:18:51.807Z</time></trkpt><trkpt lat="44.6442208" lon="10.618486"><ele>91.0</ele><time>2026-04-19T15:18:52.805Z</time></trkpt><trkpt lat="44.6441432" lon="10.6186122"><ele>91.0</ele><time>2026-04-19T15:18:53.805Z</time></trkpt><trkpt lat="44.6440748" lon="10.6187318"><ele>90.4</ele><time>2026-04-19T15:18:54.805Z</time></trkpt><trkpt lat="44.6440062" lon="10.6188527"><ele>89.8</ele><time>2026-04-19T15:18:55.805Z</time></trkpt><trkpt lat="44.6439377" lon="10.6189682"><ele>89.2</ele><time>2026-04-19T15:18:56.806Z</time></trkpt><trkpt lat="44.6438712" lon="10.6190773"><ele>88.60000000000001</ele><time>2026-04-19T15:18:57.808Z</time></trkpt><trkpt lat="44.6438047" lon="10.6191788"><ele>88.0</ele><time>2026-04-19T15:18:58.807Z</time></trkpt><trkpt lat="44.6437347" lon="10.6192595"><ele>88.0</ele><time>2026-04-19T15:18:59.808Z</time></trkpt><trkpt lat="44.6436418" lon="10.6193135"><ele>88.0</ele><time>2026-04-19T15:19:00.805Z</time></trkpt><trkpt lat="44.6435397" lon="10.6193308"><ele>88.0</ele><time>2026-04-19T15:19:01.805Z</time></trkpt><trkpt lat="44.6434423" lon="10.6192987"><ele>88.0</ele><time>2026-04-19T15:19:02.803Z</time></trkpt><trkpt lat="44.6433432" lon="10.6192293"><ele>88.0</ele><time>2026-04-19T15:19:03.803Z</time></trkpt><trkpt lat="44.643236" lon="10.6191587"><ele>88.66666666666666</ele><time>2026-04-19T15:19:04.803Z</time></trkpt><trkpt lat="44.64314" lon="10.6190933"><ele>89.33333333333333</ele><time>2026-04-19T15:19:05.805Z</time></trkpt><trkpt lat="44.643057" lon="10.6190337"><ele>90.0</ele><time>2026-04-19T15:19:06.805Z</time></trkpt><trkpt lat="44.642976" lon="10.6189788"><ele>90.66666666666667</ele><time>2026-04-19T15:19:07.806Z</time></trkpt><trkpt lat="44.6429063" lon="10.6189283"><ele>91.33333333333334</ele><time>2026-04-19T15:19:08.806Z</time></trkpt><trkpt lat="44.6428352" lon="10.6188828"><ele>92.0</ele><time>2026-04-19T15:19:09.806Z</time></trkpt><trkpt lat="44.6427612" lon="10.6188408"><ele>92.83333333333334</ele><time>2026-04-19T15:19:10.81Z</time></trkpt><trkpt lat="44.6426878" lon="10.6187952"><ele>93.66666666666667</ele><time>2026-04-19T15:19:11.806Z</time></trkpt><trkpt lat="44.6426152" lon="10.618744"><ele>94.5</ele><time>2026-04-19T15:19:12.808Z</time></trkpt><trkpt lat="44.6425415" lon="10.618692"><ele>95.33333333333334</ele><time>2026-04-19T15:19:13.809Z</time></trkpt><trkpt lat="44.6424655" lon="10.6186402"><ele>96.16666666666667</ele><time>2026-04-19T15:19:14.806Z</time></trkpt><trkpt lat="44.6423952" lon="10.6185917"><ele>97.0</ele><time>2026-04-19T15:19:15.807Z</time></trkpt><trkpt lat="44.6423345" lon="10.618547"><ele>97.00000000000001</ele><time>2026-04-19T15:19:16.807Z</time></trkpt><trkpt lat="44.6422442" lon="10.6184202"><ele>97.0</ele><time>2026-04-19T15:19:18.807Z</time></trkpt><trkpt lat="44.6422238" lon="10.6183217"><ele>97.0</ele><time>2026-04-19T15:19:19.808Z</time></trkpt><trkpt lat="44.6422183" lon="10.618216"><ele>97.0</ele><time>2026-04-19T15:19:20.806Z</time></trkpt><trkpt lat="44.6422088" lon="10.618122"><ele>97.00000000000001</ele><time>2026-04-19T15:19:21.807Z</time></trkpt><trkpt lat="44.6421858" lon="10.618036"><ele>97.0</ele><time>2026-04-19T15:19:22.807Z</time></trkpt><trkpt lat="44.6421145" lon="10.617892"><ele>97.0</ele><time>2026-04-19T15:19:24.804Z</time></trkpt><trkpt lat="44.6420392" lon="10.6177743"><ele>99.0</ele><time>2026-04-19T15:19:26.803Z</time></trkpt><trkpt lat="44.6419828" lon="10.6176732"><ele>99.0</ele><time>2026-04-19T15:19:28.802Z</time></trkpt><trkpt lat="44.6419407" lon="10.6175943"><ele>101.0</ele><time>2026-04-19T15:19:30.81Z</time></trkpt><trkpt lat="44.641876" lon="10.6175292"><ele>101.0</ele><time>2026-04-19T15:19:33.806Z</time></trkpt><trkpt lat="44.6418187" lon="10.6175893"><ele>101.0</ele><time>2026-04-19T15:19:36.806Z</time></trkpt></trkseg></trk></gpx>